<?xml version="1.0" encoding="UTF-8" standalone="no" ?>
<gpx xmlns="http://www.topografix.com/GPX/1/1" xmlns:xsi="http://www.w3.org/2001/XMLSchema-instance" xsi:schemaLocation="http://www.topografix.com/GPX/1/1 http://www.topografix.com/GPX/1/1/gpx.xsd" version="1.1" creator="VisuGPX - https://www.visugpx.com">
  <metadata>
    <name>La grotte du Bouddha</name>
  </metadata>
  <trk>
    <name><![CDATA[La grotte du Bouddha]]></name>
    <trkseg>
      <trkpt lat="47.77996" lon="5.1109">
        <ele>377.05</ele>
        <time>2022-07-11T06:47:45Z</time>
      </trkpt>
      <trkpt lat="47.77993" lon="5.1109">
        <ele>377.29</ele>
        <time>2022-07-11T06:47:51Z</time>
      </trkpt>
      <trkpt lat="47.7799" lon="5.1109">
        <ele>377.54</ele>
        <time>2022-07-11T06:48:09Z</time>
      </trkpt>
      <trkpt lat="47.77992" lon="5.11092">
        <ele>377.53</ele>
        <time>2022-07-11T06:48:40Z</time>
      </trkpt>
      <trkpt lat="47.77995" lon="5.1109">
        <ele>377.13</ele>
        <time>2022-07-11T06:49:28Z</time>
      </trkpt>
      <trkpt lat="47.77997" lon="5.11088">
        <ele>376.77</ele>
        <time>2022-07-11T06:49:32Z</time>
      </trkpt>
      <trkpt lat="47.77995" lon="5.11091">
        <ele>377.22</ele>
        <time>2022-07-11T06:52:37Z</time>
      </trkpt>
      <trkpt lat="47.77993" lon="5.11093">
        <ele>377.54</ele>
        <time>2022-07-11T06:59:22Z</time>
      </trkpt>
      <trkpt lat="47.77991" lon="5.11097">
        <ele>377.97</ele>
        <time>2022-07-11T06:59:42Z</time>
      </trkpt>
      <trkpt lat="47.77989" lon="5.111">
        <ele>378.28</ele>
        <time>2022-07-11T06:59:54Z</time>
      </trkpt>
      <trkpt lat="47.7799" lon="5.11104">
        <ele>378.51</ele>
        <time>2022-07-11T07:00:09Z</time>
      </trkpt>
      <trkpt lat="47.77991" lon="5.11108">
        <ele>378.77</ele>
        <time>2022-07-11T07:00:14Z</time>
      </trkpt>
      <trkpt lat="47.77989" lon="5.11109">
        <ele>378.86</ele>
        <time>2022-07-11T07:02:03Z</time>
      </trkpt>
      <trkpt lat="47.77991" lon="5.11111">
        <ele>378.99</ele>
        <time>2022-07-11T07:05:24Z</time>
      </trkpt>
      <trkpt lat="47.77994" lon="5.11109">
        <ele>378.82</ele>
        <time>2022-07-11T07:06:32Z</time>
      </trkpt>
      <trkpt lat="47.77996" lon="5.11109">
        <ele>378.8</ele>
        <time>2022-07-11T07:07:16Z</time>
      </trkpt>
      <trkpt lat="47.77999" lon="5.11109">
        <ele>378.78</ele>
        <time>2022-07-11T07:07:23Z</time>
      </trkpt>
      <trkpt lat="47.78002" lon="5.11109">
        <ele>378.64</ele>
        <time>2022-07-11T07:07:29Z</time>
      </trkpt>
      <trkpt lat="47.78005" lon="5.11111">
        <ele>378.63</ele>
        <time>2022-07-11T07:07:43Z</time>
      </trkpt>
      <trkpt lat="47.78002" lon="5.11109">
        <ele>378.64</ele>
        <time>2022-07-11T07:07:59Z</time>
      </trkpt>
      <trkpt lat="47.78" lon="5.11107">
        <ele>378.56</ele>
        <time>2022-07-11T07:09:08Z</time>
      </trkpt>
      <trkpt lat="47.78003" lon="5.11107">
        <ele>378.37</ele>
        <time>2022-07-11T07:09:40Z</time>
      </trkpt>
      <trkpt lat="47.78006" lon="5.11108">
        <ele>378.28</ele>
        <time>2022-07-11T07:09:47Z</time>
      </trkpt>
      <trkpt lat="47.78003" lon="5.11107">
        <ele>378.37</ele>
        <time>2022-07-11T07:12:18Z</time>
      </trkpt>
      <trkpt lat="47.78006" lon="5.11106">
        <ele>378.1</ele>
        <time>2022-07-11T07:12:29Z</time>
      </trkpt>
      <trkpt lat="47.78009" lon="5.11104">
        <ele>377.75</ele>
        <time>2022-07-11T07:12:33Z</time>
      </trkpt>
      <trkpt lat="47.7801" lon="5.111">
        <ele>377.37</ele>
        <time>2022-07-11T07:12:38Z</time>
      </trkpt>
      <trkpt lat="47.7801" lon="5.11095">
        <ele>376.96</ele>
        <time>2022-07-11T07:12:44Z</time>
      </trkpt>
      <trkpt lat="47.7801" lon="5.1109">
        <ele>376.55</ele>
        <time>2022-07-11T07:12:47Z</time>
      </trkpt>
      <trkpt lat="47.7801" lon="5.11085">
        <ele>376.14</ele>
        <time>2022-07-11T07:12:50Z</time>
      </trkpt>
      <trkpt lat="47.7801" lon="5.1108">
        <ele>375.76</ele>
        <time>2022-07-11T07:12:53Z</time>
      </trkpt>
      <trkpt lat="47.7801" lon="5.11075">
        <ele>375.4</ele>
        <time>2022-07-11T07:12:56Z</time>
      </trkpt>
      <trkpt lat="47.7801" lon="5.11071">
        <ele>375.11</ele>
        <time>2022-07-11T07:12:59Z</time>
      </trkpt>
      <trkpt lat="47.7801" lon="5.11067">
        <ele>374.82</ele>
        <time>2022-07-11T07:13:02Z</time>
      </trkpt>
      <trkpt lat="47.7801" lon="5.11061">
        <ele>374.39</ele>
        <time>2022-07-11T07:13:05Z</time>
      </trkpt>
      <trkpt lat="47.78011" lon="5.11056">
        <ele>374.03</ele>
        <time>2022-07-11T07:13:08Z</time>
      </trkpt>
      <trkpt lat="47.7801" lon="5.11052">
        <ele>373.95</ele>
        <time>2022-07-11T07:13:12Z</time>
      </trkpt>
      <trkpt lat="47.7801" lon="5.11047">
        <ele>373.89</ele>
        <time>2022-07-11T07:13:15Z</time>
      </trkpt>
      <trkpt lat="47.7801" lon="5.11042">
        <ele>373.82</ele>
        <time>2022-07-11T07:13:18Z</time>
      </trkpt>
      <trkpt lat="47.78009" lon="5.11038">
        <ele>373.8</ele>
        <time>2022-07-11T07:13:21Z</time>
      </trkpt>
      <trkpt lat="47.7801" lon="5.11033">
        <ele>373.71</ele>
        <time>2022-07-11T07:13:24Z</time>
      </trkpt>
      <trkpt lat="47.7801" lon="5.11028">
        <ele>373.64</ele>
        <time>2022-07-11T07:13:28Z</time>
      </trkpt>
      <trkpt lat="47.7801" lon="5.11023">
        <ele>373.64</ele>
        <time>2022-07-11T07:13:31Z</time>
      </trkpt>
      <trkpt lat="47.7801" lon="5.11018">
        <ele>373.64</ele>
        <time>2022-07-11T07:13:34Z</time>
      </trkpt>
      <trkpt lat="47.7801" lon="5.11014">
        <ele>373.64</ele>
        <time>2022-07-11T07:13:37Z</time>
      </trkpt>
      <trkpt lat="47.78011" lon="5.1101">
        <ele>373.6</ele>
        <time>2022-07-11T07:13:42Z</time>
      </trkpt>
      <trkpt lat="47.78012" lon="5.11004">
        <ele>373.57</ele>
        <time>2022-07-11T07:13:45Z</time>
      </trkpt>
      <trkpt lat="47.78012" lon="5.11">
        <ele>373.57</ele>
        <time>2022-07-11T07:13:47Z</time>
      </trkpt>
      <trkpt lat="47.78012" lon="5.10996">
        <ele>373.65</ele>
        <time>2022-07-11T07:13:49Z</time>
      </trkpt>
      <trkpt lat="47.78012" lon="5.10992">
        <ele>373.73</ele>
        <time>2022-07-11T07:13:51Z</time>
      </trkpt>
      <trkpt lat="47.78012" lon="5.10987">
        <ele>373.83</ele>
        <time>2022-07-11T07:13:54Z</time>
      </trkpt>
      <trkpt lat="47.78013" lon="5.10981">
        <ele>373.9</ele>
        <time>2022-07-11T07:13:57Z</time>
      </trkpt>
      <trkpt lat="47.78013" lon="5.10976">
        <ele>373.99</ele>
        <time>2022-07-11T07:14:00Z</time>
      </trkpt>
      <trkpt lat="47.78014" lon="5.1097">
        <ele>374.11</ele>
        <time>2022-07-11T07:14:03Z</time>
      </trkpt>
      <trkpt lat="47.78015" lon="5.10965">
        <ele>374.32</ele>
        <time>2022-07-11T07:14:06Z</time>
      </trkpt>
      <trkpt lat="47.78015" lon="5.1096">
        <ele>374.6</ele>
        <time>2022-07-11T07:14:09Z</time>
      </trkpt>
      <trkpt lat="47.78016" lon="5.10955">
        <ele>374.83</ele>
        <time>2022-07-11T07:14:12Z</time>
      </trkpt>
      <trkpt lat="47.78017" lon="5.1095">
        <ele>375.07</ele>
        <time>2022-07-11T07:14:15Z</time>
      </trkpt>
      <trkpt lat="47.78018" lon="5.10946">
        <ele>375.26</ele>
        <time>2022-07-11T07:14:18Z</time>
      </trkpt>
      <trkpt lat="47.78018" lon="5.10941">
        <ele>375.48</ele>
        <time>2022-07-11T07:14:20Z</time>
      </trkpt>
      <trkpt lat="47.78019" lon="5.10937">
        <ele>375.58</ele>
        <time>2022-07-11T07:14:23Z</time>
      </trkpt>
      <trkpt lat="47.7802" lon="5.10933">
        <ele>375.69</ele>
        <time>2022-07-11T07:14:25Z</time>
      </trkpt>
      <trkpt lat="47.7802" lon="5.10929">
        <ele>375.84</ele>
        <time>2022-07-11T07:14:29Z</time>
      </trkpt>
      <trkpt lat="47.78019" lon="5.10924">
        <ele>376.05</ele>
        <time>2022-07-11T07:14:31Z</time>
      </trkpt>
      <trkpt lat="47.78019" lon="5.1092">
        <ele>376.2</ele>
        <time>2022-07-11T07:14:33Z</time>
      </trkpt>
      <trkpt lat="47.7802" lon="5.10915">
        <ele>376.34</ele>
        <time>2022-07-11T07:14:36Z</time>
      </trkpt>
      <trkpt lat="47.7802" lon="5.1091">
        <ele>376.52</ele>
        <time>2022-07-11T07:14:40Z</time>
      </trkpt>
      <trkpt lat="47.78019" lon="5.10905">
        <ele>376.74</ele>
        <time>2022-07-11T07:14:42Z</time>
      </trkpt>
      <trkpt lat="47.78019" lon="5.10901">
        <ele>376.88</ele>
        <time>2022-07-11T07:14:45Z</time>
      </trkpt>
      <trkpt lat="47.78019" lon="5.10896">
        <ele>377.06</ele>
        <time>2022-07-11T07:14:47Z</time>
      </trkpt>
      <trkpt lat="47.78019" lon="5.10891">
        <ele>377.24</ele>
        <time>2022-07-11T07:14:49Z</time>
      </trkpt>
      <trkpt lat="47.7802" lon="5.10886">
        <ele>377.28</ele>
        <time>2022-07-11T07:14:52Z</time>
      </trkpt>
      <trkpt lat="47.7802" lon="5.10882">
        <ele>377.28</ele>
        <time>2022-07-11T07:14:55Z</time>
      </trkpt>
      <trkpt lat="47.78021" lon="5.10877">
        <ele>377.24</ele>
        <time>2022-07-11T07:15:00Z</time>
      </trkpt>
      <trkpt lat="47.78021" lon="5.10873">
        <ele>377.24</ele>
        <time>2022-07-11T07:15:02Z</time>
      </trkpt>
      <trkpt lat="47.78022" lon="5.10869">
        <ele>377.21</ele>
        <time>2022-07-11T07:15:04Z</time>
      </trkpt>
      <trkpt lat="47.78021" lon="5.10864">
        <ele>377.24</ele>
        <time>2022-07-11T07:15:08Z</time>
      </trkpt>
      <trkpt lat="47.78021" lon="5.10859">
        <ele>377.36</ele>
        <time>2022-07-11T07:15:11Z</time>
      </trkpt>
      <trkpt lat="47.7802" lon="5.10855">
        <ele>377.6</ele>
        <time>2022-07-11T07:15:14Z</time>
      </trkpt>
      <trkpt lat="47.7802" lon="5.10851">
        <ele>377.8</ele>
        <time>2022-07-11T07:15:17Z</time>
      </trkpt>
      <trkpt lat="47.7802" lon="5.10846">
        <ele>378.06</ele>
        <time>2022-07-11T07:15:20Z</time>
      </trkpt>
      <trkpt lat="47.7802" lon="5.10842">
        <ele>378.27</ele>
        <time>2022-07-11T07:15:21Z</time>
      </trkpt>
      <trkpt lat="47.78021" lon="5.10837">
        <ele>378.56</ele>
        <time>2022-07-11T07:15:24Z</time>
      </trkpt>
      <trkpt lat="47.78021" lon="5.10832">
        <ele>378.8</ele>
        <time>2022-07-11T07:15:26Z</time>
      </trkpt>
      <trkpt lat="47.7802" lon="5.10828">
        <ele>378.91</ele>
        <time>2022-07-11T07:15:29Z</time>
      </trkpt>
      <trkpt lat="47.78019" lon="5.10824">
        <ele>379.02</ele>
        <time>2022-07-11T07:15:31Z</time>
      </trkpt>
      <trkpt lat="47.78018" lon="5.10818">
        <ele>379.2</ele>
        <time>2022-07-11T07:15:35Z</time>
      </trkpt>
      <trkpt lat="47.78018" lon="5.10814">
        <ele>379.34</ele>
        <time>2022-07-11T07:15:37Z</time>
      </trkpt>
      <trkpt lat="47.78017" lon="5.10809">
        <ele>379.49</ele>
        <time>2022-07-11T07:15:40Z</time>
      </trkpt>
      <trkpt lat="47.78017" lon="5.10805">
        <ele>379.61</ele>
        <time>2022-07-11T07:15:43Z</time>
      </trkpt>
      <trkpt lat="47.78017" lon="5.108">
        <ele>379.57</ele>
        <time>2022-07-11T07:15:46Z</time>
      </trkpt>
      <trkpt lat="47.78017" lon="5.10796">
        <ele>379.53</ele>
        <time>2022-07-11T07:15:49Z</time>
      </trkpt>
      <trkpt lat="47.78016" lon="5.10792">
        <ele>379.5</ele>
        <time>2022-07-11T07:15:53Z</time>
      </trkpt>
      <trkpt lat="47.78016" lon="5.10787">
        <ele>379.47</ele>
        <time>2022-07-11T07:15:56Z</time>
      </trkpt>
      <trkpt lat="47.78017" lon="5.10783">
        <ele>379.43</ele>
        <time>2022-07-11T07:15:59Z</time>
      </trkpt>
      <trkpt lat="47.78017" lon="5.10778">
        <ele>379.39</ele>
        <time>2022-07-11T07:16:04Z</time>
      </trkpt>
      <trkpt lat="47.78016" lon="5.10774">
        <ele>379.62</ele>
        <time>2022-07-11T07:16:07Z</time>
      </trkpt>
      <trkpt lat="47.78016" lon="5.10769">
        <ele>379.87</ele>
        <time>2022-07-11T07:16:08Z</time>
      </trkpt>
      <trkpt lat="47.78016" lon="5.10765">
        <ele>380.08</ele>
        <time>2022-07-11T07:16:12Z</time>
      </trkpt>
      <trkpt lat="47.78015" lon="5.1076">
        <ele>380.39</ele>
        <time>2022-07-11T07:16:15Z</time>
      </trkpt>
      <trkpt lat="47.78015" lon="5.10755">
        <ele>380.66</ele>
        <time>2022-07-11T07:16:17Z</time>
      </trkpt>
      <trkpt lat="47.78014" lon="5.10751">
        <ele>380.94</ele>
        <time>2022-07-11T07:16:19Z</time>
      </trkpt>
      <trkpt lat="47.78014" lon="5.10747">
        <ele>381.1</ele>
        <time>2022-07-11T07:16:21Z</time>
      </trkpt>
      <trkpt lat="47.78015" lon="5.10741">
        <ele>381.24</ele>
        <time>2022-07-11T07:16:24Z</time>
      </trkpt>
      <trkpt lat="47.78015" lon="5.10737">
        <ele>381.39</ele>
        <time>2022-07-11T07:16:27Z</time>
      </trkpt>
      <trkpt lat="47.78015" lon="5.10732">
        <ele>381.57</ele>
        <time>2022-07-11T07:16:30Z</time>
      </trkpt>
      <trkpt lat="47.78015" lon="5.10727">
        <ele>381.75</ele>
        <time>2022-07-11T07:16:33Z</time>
      </trkpt>
      <trkpt lat="47.78014" lon="5.10723">
        <ele>381.96</ele>
        <time>2022-07-11T07:16:35Z</time>
      </trkpt>
      <trkpt lat="47.78014" lon="5.10719">
        <ele>382.22</ele>
        <time>2022-07-11T07:16:38Z</time>
      </trkpt>
      <trkpt lat="47.78014" lon="5.10714">
        <ele>382.58</ele>
        <time>2022-07-11T07:16:40Z</time>
      </trkpt>
      <trkpt lat="47.78014" lon="5.10709">
        <ele>382.94</ele>
        <time>2022-07-11T07:16:43Z</time>
      </trkpt>
      <trkpt lat="47.78015" lon="5.10705">
        <ele>383.16</ele>
        <time>2022-07-11T07:16:45Z</time>
      </trkpt>
      <trkpt lat="47.78015" lon="5.107">
        <ele>383.52</ele>
        <time>2022-07-11T07:16:48Z</time>
      </trkpt>
      <trkpt lat="47.78014" lon="5.10695">
        <ele>383.95</ele>
        <time>2022-07-11T07:16:50Z</time>
      </trkpt>
      <trkpt lat="47.78014" lon="5.1069">
        <ele>384.31</ele>
        <time>2022-07-11T07:16:53Z</time>
      </trkpt>
      <trkpt lat="47.78015" lon="5.10686">
        <ele>384.55</ele>
        <time>2022-07-11T07:16:55Z</time>
      </trkpt>
      <trkpt lat="47.78015" lon="5.1068">
        <ele>385</ele>
        <time>2022-07-11T07:16:58Z</time>
      </trkpt>
      <trkpt lat="47.78015" lon="5.10676">
        <ele>385.3</ele>
        <time>2022-07-11T07:17:00Z</time>
      </trkpt>
      <trkpt lat="47.78016" lon="5.10669">
        <ele>385.82</ele>
        <time>2022-07-11T07:17:04Z</time>
      </trkpt>
      <trkpt lat="47.78016" lon="5.10665">
        <ele>385.99</ele>
        <time>2022-07-11T07:17:06Z</time>
      </trkpt>
      <trkpt lat="47.78016" lon="5.1066">
        <ele>385.96</ele>
        <time>2022-07-11T07:17:08Z</time>
      </trkpt>
      <trkpt lat="47.78016" lon="5.10656">
        <ele>385.94</ele>
        <time>2022-07-11T07:17:10Z</time>
      </trkpt>
      <trkpt lat="47.78016" lon="5.10651">
        <ele>385.91</ele>
        <time>2022-07-11T07:17:12Z</time>
      </trkpt>
      <trkpt lat="47.78016" lon="5.10646">
        <ele>385.89</ele>
        <time>2022-07-11T07:17:15Z</time>
      </trkpt>
      <trkpt lat="47.78016" lon="5.10642">
        <ele>385.87</ele>
        <time>2022-07-11T07:17:17Z</time>
      </trkpt>
      <trkpt lat="47.78015" lon="5.10638">
        <ele>385.95</ele>
        <time>2022-07-11T07:17:19Z</time>
      </trkpt>
      <trkpt lat="47.78015" lon="5.10633">
        <ele>386.13</ele>
        <time>2022-07-11T07:17:21Z</time>
      </trkpt>
      <trkpt lat="47.78015" lon="5.10629">
        <ele>386.28</ele>
        <time>2022-07-11T07:17:23Z</time>
      </trkpt>
      <trkpt lat="47.78016" lon="5.10625">
        <ele>386.35</ele>
        <time>2022-07-11T07:17:26Z</time>
      </trkpt>
      <trkpt lat="47.78016" lon="5.10621">
        <ele>386.49</ele>
        <time>2022-07-11T07:17:28Z</time>
      </trkpt>
      <trkpt lat="47.78016" lon="5.10615">
        <ele>386.71</ele>
        <time>2022-07-11T07:17:31Z</time>
      </trkpt>
      <trkpt lat="47.78016" lon="5.10611">
        <ele>386.85</ele>
        <time>2022-07-11T07:17:32Z</time>
      </trkpt>
      <trkpt lat="47.78016" lon="5.10605">
        <ele>386.85</ele>
        <time>2022-07-11T07:17:36Z</time>
      </trkpt>
      <trkpt lat="47.78016" lon="5.10599">
        <ele>386.85</ele>
        <time>2022-07-11T07:17:38Z</time>
      </trkpt>
      <trkpt lat="47.78016" lon="5.10595">
        <ele>386.85</ele>
        <time>2022-07-11T07:17:40Z</time>
      </trkpt>
      <trkpt lat="47.78016" lon="5.1059">
        <ele>386.85</ele>
        <time>2022-07-11T07:17:43Z</time>
      </trkpt>
      <trkpt lat="47.78016" lon="5.10586">
        <ele>386.85</ele>
        <time>2022-07-11T07:17:45Z</time>
      </trkpt>
      <trkpt lat="47.78017" lon="5.10582">
        <ele>386.79</ele>
        <time>2022-07-11T07:17:48Z</time>
      </trkpt>
      <trkpt lat="47.78017" lon="5.10578">
        <ele>386.85</ele>
        <time>2022-07-11T07:17:51Z</time>
      </trkpt>
      <trkpt lat="47.78018" lon="5.10574">
        <ele>386.82</ele>
        <time>2022-07-11T07:17:53Z</time>
      </trkpt>
      <trkpt lat="47.7802" lon="5.1057">
        <ele>386.69</ele>
        <time>2022-07-11T07:17:57Z</time>
      </trkpt>
      <trkpt lat="47.78023" lon="5.10567">
        <ele>386.45</ele>
        <time>2022-07-11T07:17:59Z</time>
      </trkpt>
      <trkpt lat="47.78025" lon="5.10564">
        <ele>386.27</ele>
        <time>2022-07-11T07:18:01Z</time>
      </trkpt>
      <trkpt lat="47.78026" lon="5.1056">
        <ele>386.18</ele>
        <time>2022-07-11T07:18:03Z</time>
      </trkpt>
      <trkpt lat="47.78026" lon="5.10556">
        <ele>386.19</ele>
        <time>2022-07-11T07:18:05Z</time>
      </trkpt>
      <trkpt lat="47.78027" lon="5.10552">
        <ele>386.2</ele>
        <time>2022-07-11T07:18:08Z</time>
      </trkpt>
      <trkpt lat="47.78028" lon="5.10548">
        <ele>386.26</ele>
        <time>2022-07-11T07:18:11Z</time>
      </trkpt>
      <trkpt lat="47.7803" lon="5.10544">
        <ele>386.26</ele>
        <time>2022-07-11T07:18:15Z</time>
      </trkpt>
      <trkpt lat="47.78032" lon="5.1054">
        <ele>386.26</ele>
        <time>2022-07-11T07:18:18Z</time>
      </trkpt>
      <trkpt lat="47.78034" lon="5.10537">
        <ele>386.22</ele>
        <time>2022-07-11T07:18:21Z</time>
      </trkpt>
      <trkpt lat="47.78036" lon="5.10533">
        <ele>386.22</ele>
        <time>2022-07-11T07:18:23Z</time>
      </trkpt>
      <trkpt lat="47.78037" lon="5.10529">
        <ele>386.29</ele>
        <time>2022-07-11T07:18:28Z</time>
      </trkpt>
      <trkpt lat="47.78039" lon="5.10526">
        <ele>386.35</ele>
        <time>2022-07-11T07:18:31Z</time>
      </trkpt>
      <trkpt lat="47.78042" lon="5.10523">
        <ele>386.41</ele>
        <time>2022-07-11T07:18:34Z</time>
      </trkpt>
      <trkpt lat="47.78044" lon="5.1052">
        <ele>386.56</ele>
        <time>2022-07-11T07:18:37Z</time>
      </trkpt>
      <trkpt lat="47.78045" lon="5.10516">
        <ele>386.87</ele>
        <time>2022-07-11T07:18:40Z</time>
      </trkpt>
      <trkpt lat="47.78046" lon="5.10512">
        <ele>387.2</ele>
        <time>2022-07-11T07:18:43Z</time>
      </trkpt>
      <trkpt lat="47.78048" lon="5.10508">
        <ele>387.49</ele>
        <time>2022-07-11T07:18:45Z</time>
      </trkpt>
      <trkpt lat="47.78049" lon="5.10504">
        <ele>387.84</ele>
        <time>2022-07-11T07:18:48Z</time>
      </trkpt>
      <trkpt lat="47.78051" lon="5.105">
        <ele>388.16</ele>
        <time>2022-07-11T07:18:50Z</time>
      </trkpt>
      <trkpt lat="47.78053" lon="5.10496">
        <ele>387.97</ele>
        <time>2022-07-11T07:18:52Z</time>
      </trkpt>
      <trkpt lat="47.78055" lon="5.10492">
        <ele>387.74</ele>
        <time>2022-07-11T07:18:54Z</time>
      </trkpt>
      <trkpt lat="47.78057" lon="5.10489">
        <ele>387.38</ele>
        <time>2022-07-11T07:18:57Z</time>
      </trkpt>
      <trkpt lat="47.78058" lon="5.10485">
        <ele>387.06</ele>
        <time>2022-07-11T07:18:59Z</time>
      </trkpt>
      <trkpt lat="47.7806" lon="5.10481">
        <ele>386.57</ele>
        <time>2022-07-11T07:19:01Z</time>
      </trkpt>
      <trkpt lat="47.78061" lon="5.10477">
        <ele>386.23</ele>
        <time>2022-07-11T07:19:03Z</time>
      </trkpt>
      <trkpt lat="47.78063" lon="5.10474">
        <ele>385.74</ele>
        <time>2022-07-11T07:19:06Z</time>
      </trkpt>
      <trkpt lat="47.78064" lon="5.1047">
        <ele>385.35</ele>
        <time>2022-07-11T07:19:08Z</time>
      </trkpt>
      <trkpt lat="47.78066" lon="5.10466">
        <ele>384.73</ele>
        <time>2022-07-11T07:19:12Z</time>
      </trkpt>
      <trkpt lat="47.78068" lon="5.10463">
        <ele>384.13</ele>
        <time>2022-07-11T07:19:14Z</time>
      </trkpt>
      <trkpt lat="47.7807" lon="5.1046">
        <ele>383.5</ele>
        <time>2022-07-11T07:19:16Z</time>
      </trkpt>
      <trkpt lat="47.78072" lon="5.10456">
        <ele>382.76</ele>
        <time>2022-07-11T07:19:18Z</time>
      </trkpt>
      <trkpt lat="47.78073" lon="5.10452">
        <ele>382.22</ele>
        <time>2022-07-11T07:19:20Z</time>
      </trkpt>
      <trkpt lat="47.78075" lon="5.10448">
        <ele>381.41</ele>
        <time>2022-07-11T07:19:23Z</time>
      </trkpt>
      <trkpt lat="47.78076" lon="5.10444">
        <ele>380.84</ele>
        <time>2022-07-11T07:19:26Z</time>
      </trkpt>
      <trkpt lat="47.78076" lon="5.1044">
        <ele>380.76</ele>
        <time>2022-07-11T07:19:27Z</time>
      </trkpt>
      <trkpt lat="47.78076" lon="5.10436">
        <ele>380.69</ele>
        <time>2022-07-11T07:19:30Z</time>
      </trkpt>
      <trkpt lat="47.78077" lon="5.10431">
        <ele>380.38</ele>
        <time>2022-07-11T07:19:33Z</time>
      </trkpt>
      <trkpt lat="47.78078" lon="5.10427">
        <ele>380.1</ele>
        <time>2022-07-11T07:19:36Z</time>
      </trkpt>
      <trkpt lat="47.7808" lon="5.10423">
        <ele>379.65</ele>
        <time>2022-07-11T07:19:38Z</time>
      </trkpt>
      <trkpt lat="47.78081" lon="5.10419">
        <ele>379.43</ele>
        <time>2022-07-11T07:19:40Z</time>
      </trkpt>
      <trkpt lat="47.78083" lon="5.10415">
        <ele>379.06</ele>
        <time>2022-07-11T07:19:42Z</time>
      </trkpt>
      <trkpt lat="47.78084" lon="5.10412">
        <ele>378.87</ele>
        <time>2022-07-11T07:19:44Z</time>
      </trkpt>
      <trkpt lat="47.78087" lon="5.10408">
        <ele>378.26</ele>
        <time>2022-07-11T07:19:47Z</time>
      </trkpt>
      <trkpt lat="47.78088" lon="5.10405">
        <ele>378.02</ele>
        <time>2022-07-11T07:19:49Z</time>
      </trkpt>
      <trkpt lat="47.78089" lon="5.10401">
        <ele>377.75</ele>
        <time>2022-07-11T07:19:52Z</time>
      </trkpt>
      <trkpt lat="47.7809" lon="5.10397">
        <ele>377.46</ele>
        <time>2022-07-11T07:19:55Z</time>
      </trkpt>
      <trkpt lat="47.7809" lon="5.10393">
        <ele>377.39</ele>
        <time>2022-07-11T07:19:58Z</time>
      </trkpt>
      <trkpt lat="47.7809" lon="5.10388">
        <ele>377.28</ele>
        <time>2022-07-11T07:20:01Z</time>
      </trkpt>
      <trkpt lat="47.78091" lon="5.10384">
        <ele>376.84</ele>
        <time>2022-07-11T07:20:04Z</time>
      </trkpt>
      <trkpt lat="47.78092" lon="5.1038">
        <ele>376.4</ele>
        <time>2022-07-11T07:20:08Z</time>
      </trkpt>
      <trkpt lat="47.78093" lon="5.10374">
        <ele>375.84</ele>
        <time>2022-07-11T07:20:11Z</time>
      </trkpt>
      <trkpt lat="47.78093" lon="5.1037">
        <ele>375.65</ele>
        <time>2022-07-11T07:20:14Z</time>
      </trkpt>
      <trkpt lat="47.78093" lon="5.10365">
        <ele>375.4</ele>
        <time>2022-07-11T07:20:18Z</time>
      </trkpt>
      <trkpt lat="47.78094" lon="5.1036">
        <ele>374.9</ele>
        <time>2022-07-11T07:20:21Z</time>
      </trkpt>
      <trkpt lat="47.78095" lon="5.10356">
        <ele>374.53</ele>
        <time>2022-07-11T07:20:23Z</time>
      </trkpt>
      <trkpt lat="47.78096" lon="5.10352">
        <ele>374.17</ele>
        <time>2022-07-11T07:20:25Z</time>
      </trkpt>
      <trkpt lat="47.78097" lon="5.10348">
        <ele>373.82</ele>
        <time>2022-07-11T07:20:27Z</time>
      </trkpt>
      <trkpt lat="47.78097" lon="5.10344">
        <ele>373.75</ele>
        <time>2022-07-11T07:20:28Z</time>
      </trkpt>
      <trkpt lat="47.78098" lon="5.10339">
        <ele>373.4</ele>
        <time>2022-07-11T07:20:31Z</time>
      </trkpt>
      <trkpt lat="47.78098" lon="5.10334">
        <ele>373.32</ele>
        <time>2022-07-11T07:20:33Z</time>
      </trkpt>
      <trkpt lat="47.78098" lon="5.1033">
        <ele>373.46</ele>
        <time>2022-07-11T07:20:37Z</time>
      </trkpt>
      <trkpt lat="47.78099" lon="5.10325">
        <ele>373.37</ele>
        <time>2022-07-11T07:20:39Z</time>
      </trkpt>
      <trkpt lat="47.78099" lon="5.1032">
        <ele>373.56</ele>
        <time>2022-07-11T07:20:41Z</time>
      </trkpt>
      <trkpt lat="47.781" lon="5.10315">
        <ele>373.33</ele>
        <time>2022-07-11T07:20:43Z</time>
      </trkpt>
      <trkpt lat="47.781" lon="5.1031">
        <ele>373.47</ele>
        <time>2022-07-11T07:20:46Z</time>
      </trkpt>
      <trkpt lat="47.781" lon="5.10306">
        <ele>373.59</ele>
        <time>2022-07-11T07:20:49Z</time>
      </trkpt>
      <trkpt lat="47.78099" lon="5.10301">
        <ele>374.03</ele>
        <time>2022-07-11T07:20:52Z</time>
      </trkpt>
      <trkpt lat="47.781" lon="5.10296">
        <ele>373.46</ele>
        <time>2022-07-11T07:20:55Z</time>
      </trkpt>
      <trkpt lat="47.781" lon="5.10292">
        <ele>373.4</ele>
        <time>2022-07-11T07:20:57Z</time>
      </trkpt>
      <trkpt lat="47.78101" lon="5.10288">
        <ele>372.87</ele>
        <time>2022-07-11T07:20:58Z</time>
      </trkpt>
      <trkpt lat="47.78102" lon="5.10283">
        <ele>372.33</ele>
        <time>2022-07-11T07:21:01Z</time>
      </trkpt>
      <trkpt lat="47.78103" lon="5.10279">
        <ele>371.81</ele>
        <time>2022-07-11T07:21:03Z</time>
      </trkpt>
      <trkpt lat="47.78104" lon="5.10274">
        <ele>371.5</ele>
        <time>2022-07-11T07:21:06Z</time>
      </trkpt>
      <trkpt lat="47.78105" lon="5.1027">
        <ele>371.24</ele>
        <time>2022-07-11T07:21:09Z</time>
      </trkpt>
      <trkpt lat="47.78106" lon="5.10265">
        <ele>371.06</ele>
        <time>2022-07-11T07:21:12Z</time>
      </trkpt>
      <trkpt lat="47.78106" lon="5.10261">
        <ele>371.27</ele>
        <time>2022-07-11T07:21:14Z</time>
      </trkpt>
      <trkpt lat="47.78107" lon="5.10256">
        <ele>371.14</ele>
        <time>2022-07-11T07:21:16Z</time>
      </trkpt>
      <trkpt lat="47.78107" lon="5.10252">
        <ele>371.37</ele>
        <time>2022-07-11T07:21:18Z</time>
      </trkpt>
      <trkpt lat="47.78107" lon="5.10247">
        <ele>371.68</ele>
        <time>2022-07-11T07:21:21Z</time>
      </trkpt>
      <trkpt lat="47.78112" lon="5.10248">
        <ele>370.05</ele>
        <time>2022-07-11T07:21:23Z</time>
      </trkpt>
      <trkpt lat="47.78119" lon="5.10251">
        <ele>369.1</ele>
        <time>2022-07-11T07:21:24Z</time>
      </trkpt>
      <trkpt lat="47.7813" lon="5.10254">
        <ele>367.87</ele>
        <time>2022-07-11T07:21:25Z</time>
      </trkpt>
      <trkpt lat="47.78143" lon="5.10259">
        <ele>367.05</ele>
        <time>2022-07-11T07:21:27Z</time>
      </trkpt>
      <trkpt lat="47.78155" lon="5.10252">
        <ele>367.04</ele>
        <time>2022-07-11T07:21:32Z</time>
      </trkpt>
      <trkpt lat="47.78155" lon="5.10235">
        <ele>368.08</ele>
        <time>2022-07-11T07:21:34Z</time>
      </trkpt>
      <trkpt lat="47.78157" lon="5.10226">
        <ele>368.73</ele>
        <time>2022-07-11T07:21:36Z</time>
      </trkpt>
      <trkpt lat="47.78158" lon="5.10222">
        <ele>368.99</ele>
        <time>2022-07-11T07:21:37Z</time>
      </trkpt>
      <trkpt lat="47.78157" lon="5.10217">
        <ele>368.88</ele>
        <time>2022-07-11T07:21:40Z</time>
      </trkpt>
      <trkpt lat="47.78155" lon="5.10214">
        <ele>368.83</ele>
        <time>2022-07-11T07:21:41Z</time>
      </trkpt>
      <trkpt lat="47.78154" lon="5.10209">
        <ele>368.74</ele>
        <time>2022-07-11T07:21:44Z</time>
      </trkpt>
      <trkpt lat="47.78152" lon="5.10204">
        <ele>368.69</ele>
        <time>2022-07-11T07:21:46Z</time>
      </trkpt>
      <trkpt lat="47.7815" lon="5.10199">
        <ele>368.67</ele>
        <time>2022-07-11T07:21:48Z</time>
      </trkpt>
      <trkpt lat="47.78149" lon="5.10195">
        <ele>368.64</ele>
        <time>2022-07-11T07:21:49Z</time>
      </trkpt>
      <trkpt lat="47.78148" lon="5.1019">
        <ele>368.3</ele>
        <time>2022-07-11T07:21:51Z</time>
      </trkpt>
      <trkpt lat="47.78147" lon="5.10183">
        <ele>367.76</ele>
        <time>2022-07-11T07:21:52Z</time>
      </trkpt>
      <trkpt lat="47.78146" lon="5.10179">
        <ele>367.49</ele>
        <time>2022-07-11T07:21:53Z</time>
      </trkpt>
      <trkpt lat="47.78145" lon="5.10174">
        <ele>367.15</ele>
        <time>2022-07-11T07:21:57Z</time>
      </trkpt>
      <trkpt lat="47.78144" lon="5.10169">
        <ele>366.82</ele>
        <time>2022-07-11T07:22:00Z</time>
      </trkpt>
      <trkpt lat="47.78144" lon="5.10163">
        <ele>366.74</ele>
        <time>2022-07-11T07:22:03Z</time>
      </trkpt>
      <trkpt lat="47.78143" lon="5.10159">
        <ele>366.94</ele>
        <time>2022-07-11T07:22:06Z</time>
      </trkpt>
      <trkpt lat="47.78143" lon="5.10153">
        <ele>367.12</ele>
        <time>2022-07-11T07:22:09Z</time>
      </trkpt>
      <trkpt lat="47.78144" lon="5.10148">
        <ele>367.18</ele>
        <time>2022-07-11T07:22:14Z</time>
      </trkpt>
      <trkpt lat="47.78144" lon="5.10144">
        <ele>367.3</ele>
        <time>2022-07-11T07:22:17Z</time>
      </trkpt>
      <trkpt lat="47.78145" lon="5.1014">
        <ele>367.31</ele>
        <time>2022-07-11T07:22:19Z</time>
      </trkpt>
      <trkpt lat="47.78145" lon="5.10134">
        <ele>367.42</ele>
        <time>2022-07-11T07:22:22Z</time>
      </trkpt>
      <trkpt lat="47.78146" lon="5.1013">
        <ele>367.4</ele>
        <time>2022-07-11T07:22:25Z</time>
      </trkpt>
      <trkpt lat="47.78146" lon="5.10126">
        <ele>367.47</ele>
        <time>2022-07-11T07:22:29Z</time>
      </trkpt>
      <trkpt lat="47.78146" lon="5.10121">
        <ele>367.56</ele>
        <time>2022-07-11T07:22:33Z</time>
      </trkpt>
      <trkpt lat="47.78147" lon="5.10116">
        <ele>367.61</ele>
        <time>2022-07-11T07:22:35Z</time>
      </trkpt>
      <trkpt lat="47.78148" lon="5.10111">
        <ele>367.68</ele>
        <time>2022-07-11T07:22:37Z</time>
      </trkpt>
      <trkpt lat="47.78148" lon="5.10107">
        <ele>367.92</ele>
        <time>2022-07-11T07:22:40Z</time>
      </trkpt>
      <trkpt lat="47.78151" lon="5.10101">
        <ele>368.13</ele>
        <time>2022-07-11T07:22:43Z</time>
      </trkpt>
      <trkpt lat="47.78153" lon="5.10096">
        <ele>368.3</ele>
        <time>2022-07-11T07:22:44Z</time>
      </trkpt>
      <trkpt lat="47.78156" lon="5.1009">
        <ele>368.44</ele>
        <time>2022-07-11T07:22:45Z</time>
      </trkpt>
      <trkpt lat="47.78159" lon="5.10083">
        <ele>368.55</ele>
        <time>2022-07-11T07:22:46Z</time>
      </trkpt>
      <trkpt lat="47.78163" lon="5.10071">
        <ele>368.21</ele>
        <time>2022-07-11T07:22:47Z</time>
      </trkpt>
      <trkpt lat="47.78169" lon="5.10055">
        <ele>367.56</ele>
        <time>2022-07-11T07:22:48Z</time>
      </trkpt>
      <trkpt lat="47.78174" lon="5.1004">
        <ele>366.12</ele>
        <time>2022-07-11T07:22:49Z</time>
      </trkpt>
      <trkpt lat="47.78179" lon="5.10023">
        <ele>364.51</ele>
        <time>2022-07-11T07:22:50Z</time>
      </trkpt>
      <trkpt lat="47.78185" lon="5.09997">
        <ele>362.29</ele>
        <time>2022-07-11T07:22:51Z</time>
      </trkpt>
      <trkpt lat="47.78189" lon="5.09974">
        <ele>361.42</ele>
        <time>2022-07-11T07:22:52Z</time>
      </trkpt>
      <trkpt lat="47.78194" lon="5.09955">
        <ele>359.8</ele>
        <time>2022-07-11T07:22:53Z</time>
      </trkpt>
      <trkpt lat="47.78198" lon="5.09937">
        <ele>359.35</ele>
        <time>2022-07-11T07:22:54Z</time>
      </trkpt>
      <trkpt lat="47.78202" lon="5.09919">
        <ele>359.57</ele>
        <time>2022-07-11T07:22:55Z</time>
      </trkpt>
      <trkpt lat="47.78205" lon="5.09904">
        <ele>359.93</ele>
        <time>2022-07-11T07:22:56Z</time>
      </trkpt>
      <trkpt lat="47.78207" lon="5.09892">
        <ele>360.31</ele>
        <time>2022-07-11T07:22:57Z</time>
      </trkpt>
      <trkpt lat="47.78208" lon="5.09883">
        <ele>360.67</ele>
        <time>2022-07-11T07:22:58Z</time>
      </trkpt>
      <trkpt lat="47.78209" lon="5.09893">
        <ele>360.49</ele>
        <time>2022-07-11T07:23:04Z</time>
      </trkpt>
      <trkpt lat="47.78207" lon="5.09902">
        <ele>360.14</ele>
        <time>2022-07-11T07:23:06Z</time>
      </trkpt>
      <trkpt lat="47.78203" lon="5.09912">
        <ele>359.67</ele>
        <time>2022-07-11T07:23:09Z</time>
      </trkpt>
      <trkpt lat="47.782" lon="5.09921">
        <ele>359.43</ele>
        <time>2022-07-11T07:23:12Z</time>
      </trkpt>
      <trkpt lat="47.782" lon="5.09928">
        <ele>359.48</ele>
        <time>2022-07-11T07:23:14Z</time>
      </trkpt>
      <trkpt lat="47.782" lon="5.09938">
        <ele>359.55</ele>
        <time>2022-07-11T07:23:16Z</time>
      </trkpt>
      <trkpt lat="47.782" lon="5.09949">
        <ele>359.93</ele>
        <time>2022-07-11T07:23:18Z</time>
      </trkpt>
      <trkpt lat="47.782" lon="5.09956">
        <ele>360.43</ele>
        <time>2022-07-11T07:23:19Z</time>
      </trkpt>
      <trkpt lat="47.782" lon="5.09964">
        <ele>361.01</ele>
        <time>2022-07-11T07:23:20Z</time>
      </trkpt>
      <trkpt lat="47.782" lon="5.09971">
        <ele>361.51</ele>
        <time>2022-07-11T07:23:21Z</time>
      </trkpt>
      <trkpt lat="47.782" lon="5.0998">
        <ele>361.54</ele>
        <time>2022-07-11T07:23:22Z</time>
      </trkpt>
      <trkpt lat="47.78199" lon="5.09987">
        <ele>361.4</ele>
        <time>2022-07-11T07:23:23Z</time>
      </trkpt>
      <trkpt lat="47.78199" lon="5.09992">
        <ele>361.38</ele>
        <time>2022-07-11T07:23:24Z</time>
      </trkpt>
      <trkpt lat="47.78197" lon="5.1">
        <ele>361.18</ele>
        <time>2022-07-11T07:23:26Z</time>
      </trkpt>
      <trkpt lat="47.78194" lon="5.10003">
        <ele>361.17</ele>
        <time>2022-07-11T07:23:28Z</time>
      </trkpt>
      <trkpt lat="47.78192" lon="5.10007">
        <ele>361.63</ele>
        <time>2022-07-11T07:23:32Z</time>
      </trkpt>
      <trkpt lat="47.78191" lon="5.10012">
        <ele>361.98</ele>
        <time>2022-07-11T07:23:41Z</time>
      </trkpt>
      <trkpt lat="47.78192" lon="5.10008">
        <ele>361.67</ele>
        <time>2022-07-11T07:23:57Z</time>
      </trkpt>
      <trkpt lat="47.78194" lon="5.10005">
        <ele>361.25</ele>
        <time>2022-07-11T07:24:01Z</time>
      </trkpt>
      <trkpt lat="47.78195" lon="5.10001">
        <ele>361.08</ele>
        <time>2022-07-11T07:24:05Z</time>
      </trkpt>
      <trkpt lat="47.78196" lon="5.09997">
        <ele>361.12</ele>
        <time>2022-07-11T07:24:09Z</time>
      </trkpt>
      <trkpt lat="47.78195" lon="5.09992">
        <ele>361.05</ele>
        <time>2022-07-11T07:24:12Z</time>
      </trkpt>
      <trkpt lat="47.78195" lon="5.09986">
        <ele>361.05</ele>
        <time>2022-07-11T07:24:15Z</time>
      </trkpt>
      <trkpt lat="47.78196" lon="5.09982">
        <ele>361.15</ele>
        <time>2022-07-11T07:24:16Z</time>
      </trkpt>
      <trkpt lat="47.78196" lon="5.09977">
        <ele>361.16</ele>
        <time>2022-07-11T07:24:19Z</time>
      </trkpt>
      <trkpt lat="47.78195" lon="5.09972">
        <ele>361.04</ele>
        <time>2022-07-11T07:24:21Z</time>
      </trkpt>
      <trkpt lat="47.78195" lon="5.09968">
        <ele>360.76</ele>
        <time>2022-07-11T07:24:24Z</time>
      </trkpt>
      <trkpt lat="47.78194" lon="5.09962">
        <ele>360.3</ele>
        <time>2022-07-11T07:24:28Z</time>
      </trkpt>
      <trkpt lat="47.78193" lon="5.09957">
        <ele>360.04</ele>
        <time>2022-07-11T07:24:29Z</time>
      </trkpt>
      <trkpt lat="47.78192" lon="5.09952">
        <ele>359.78</ele>
        <time>2022-07-11T07:24:32Z</time>
      </trkpt>
      <trkpt lat="47.78191" lon="5.09948">
        <ele>359.61</ele>
        <time>2022-07-11T07:24:33Z</time>
      </trkpt>
      <trkpt lat="47.7819" lon="5.09944">
        <ele>359.48</ele>
        <time>2022-07-11T07:24:35Z</time>
      </trkpt>
      <trkpt lat="47.7819" lon="5.0994">
        <ele>359.48</ele>
        <time>2022-07-11T07:24:38Z</time>
      </trkpt>
      <trkpt lat="47.78189" lon="5.09935">
        <ele>359.59</ele>
        <time>2022-07-11T07:24:40Z</time>
      </trkpt>
      <trkpt lat="47.78189" lon="5.09931">
        <ele>359.59</ele>
        <time>2022-07-11T07:24:44Z</time>
      </trkpt>
      <trkpt lat="47.78189" lon="5.09926">
        <ele>359.59</ele>
        <time>2022-07-11T07:24:46Z</time>
      </trkpt>
      <trkpt lat="47.78188" lon="5.09922">
        <ele>359.7</ele>
        <time>2022-07-11T07:24:50Z</time>
      </trkpt>
      <trkpt lat="47.78187" lon="5.09918">
        <ele>359.8</ele>
        <time>2022-07-11T07:24:54Z</time>
      </trkpt>
      <trkpt lat="47.78186" lon="5.09913">
        <ele>359.95</ele>
        <time>2022-07-11T07:24:57Z</time>
      </trkpt>
      <trkpt lat="47.78185" lon="5.09908">
        <ele>360.13</ele>
        <time>2022-07-11T07:25:00Z</time>
      </trkpt>
      <trkpt lat="47.78185" lon="5.09904">
        <ele>360.18</ele>
        <time>2022-07-11T07:25:02Z</time>
      </trkpt>
      <trkpt lat="47.78184" lon="5.09899">
        <ele>360.37</ele>
        <time>2022-07-11T07:25:04Z</time>
      </trkpt>
      <trkpt lat="47.78183" lon="5.09894">
        <ele>360.57</ele>
        <time>2022-07-11T07:25:07Z</time>
      </trkpt>
      <trkpt lat="47.78182" lon="5.0989">
        <ele>360.77</ele>
        <time>2022-07-11T07:25:09Z</time>
      </trkpt>
      <trkpt lat="47.78181" lon="5.09886">
        <ele>360.89</ele>
        <time>2022-07-11T07:25:10Z</time>
      </trkpt>
      <trkpt lat="47.7818" lon="5.09881">
        <ele>360.93</ele>
        <time>2022-07-11T07:25:12Z</time>
      </trkpt>
      <trkpt lat="47.78179" lon="5.09876">
        <ele>360.97</ele>
        <time>2022-07-11T07:25:14Z</time>
      </trkpt>
      <trkpt lat="47.78178" lon="5.09872">
        <ele>361.01</ele>
        <time>2022-07-11T07:25:16Z</time>
      </trkpt>
      <trkpt lat="47.78177" lon="5.09866">
        <ele>360.99</ele>
        <time>2022-07-11T07:25:19Z</time>
      </trkpt>
      <trkpt lat="47.78177" lon="5.09862">
        <ele>360.9</ele>
        <time>2022-07-11T07:25:22Z</time>
      </trkpt>
      <trkpt lat="47.78176" lon="5.09857">
        <ele>361.09</ele>
        <time>2022-07-11T07:25:24Z</time>
      </trkpt>
      <trkpt lat="47.78175" lon="5.09853">
        <ele>361.28</ele>
        <time>2022-07-11T07:25:26Z</time>
      </trkpt>
      <trkpt lat="47.78174" lon="5.09849">
        <ele>361.44</ele>
        <time>2022-07-11T07:25:29Z</time>
      </trkpt>
      <trkpt lat="47.78173" lon="5.09845">
        <ele>361.58</ele>
        <time>2022-07-11T07:25:30Z</time>
      </trkpt>
      <trkpt lat="47.78172" lon="5.0984">
        <ele>361.72</ele>
        <time>2022-07-11T07:25:32Z</time>
      </trkpt>
      <trkpt lat="47.7817" lon="5.09837">
        <ele>361.85</ele>
        <time>2022-07-11T07:25:35Z</time>
      </trkpt>
      <trkpt lat="47.78168" lon="5.09833">
        <ele>361.94</ele>
        <time>2022-07-11T07:25:38Z</time>
      </trkpt>
      <trkpt lat="47.78166" lon="5.09829">
        <ele>361.82</ele>
        <time>2022-07-11T07:25:39Z</time>
      </trkpt>
      <trkpt lat="47.78164" lon="5.09826">
        <ele>361.61</ele>
        <time>2022-07-11T07:25:41Z</time>
      </trkpt>
      <trkpt lat="47.78163" lon="5.09822">
        <ele>361.41</ele>
        <time>2022-07-11T07:25:44Z</time>
      </trkpt>
      <trkpt lat="47.78162" lon="5.09818">
        <ele>361.19</ele>
        <time>2022-07-11T07:25:46Z</time>
      </trkpt>
      <trkpt lat="47.78161" lon="5.09814">
        <ele>360.96</ele>
        <time>2022-07-11T07:25:49Z</time>
      </trkpt>
      <trkpt lat="47.78159" lon="5.0981">
        <ele>360.65</ele>
        <time>2022-07-11T07:25:51Z</time>
      </trkpt>
      <trkpt lat="47.78158" lon="5.09806">
        <ele>360.4</ele>
        <time>2022-07-11T07:25:53Z</time>
      </trkpt>
      <trkpt lat="47.78156" lon="5.09802">
        <ele>360.37</ele>
        <time>2022-07-11T07:25:55Z</time>
      </trkpt>
      <trkpt lat="47.78154" lon="5.09798">
        <ele>360.28</ele>
        <time>2022-07-11T07:25:58Z</time>
      </trkpt>
      <trkpt lat="47.78152" lon="5.09794">
        <ele>360.09</ele>
        <time>2022-07-11T07:26:00Z</time>
      </trkpt>
      <trkpt lat="47.7815" lon="5.0979">
        <ele>359.8</ele>
        <time>2022-07-11T07:26:03Z</time>
      </trkpt>
      <trkpt lat="47.78149" lon="5.09786">
        <ele>359.6</ele>
        <time>2022-07-11T07:26:05Z</time>
      </trkpt>
      <trkpt lat="47.78148" lon="5.09782">
        <ele>359.35</ele>
        <time>2022-07-11T07:26:07Z</time>
      </trkpt>
      <trkpt lat="47.78146" lon="5.09778">
        <ele>358.8</ele>
        <time>2022-07-11T07:26:10Z</time>
      </trkpt>
      <trkpt lat="47.78144" lon="5.09774">
        <ele>358.55</ele>
        <time>2022-07-11T07:26:11Z</time>
      </trkpt>
      <trkpt lat="47.78143" lon="5.09771">
        <ele>358.46</ele>
        <time>2022-07-11T07:26:13Z</time>
      </trkpt>
      <trkpt lat="47.78141" lon="5.09767">
        <ele>358.07</ele>
        <time>2022-07-11T07:26:15Z</time>
      </trkpt>
      <trkpt lat="47.78139" lon="5.09762">
        <ele>357.61</ele>
        <time>2022-07-11T07:26:18Z</time>
      </trkpt>
      <trkpt lat="47.78137" lon="5.09758">
        <ele>357.34</ele>
        <time>2022-07-11T07:26:21Z</time>
      </trkpt>
      <trkpt lat="47.78135" lon="5.09753">
        <ele>357.08</ele>
        <time>2022-07-11T07:26:23Z</time>
      </trkpt>
      <trkpt lat="47.78133" lon="5.09749">
        <ele>356.76</ele>
        <time>2022-07-11T07:26:25Z</time>
      </trkpt>
      <trkpt lat="47.78131" lon="5.09746">
        <ele>356.44</ele>
        <time>2022-07-11T07:26:27Z</time>
      </trkpt>
      <trkpt lat="47.7813" lon="5.09741">
        <ele>356.4</ele>
        <time>2022-07-11T07:26:30Z</time>
      </trkpt>
      <trkpt lat="47.78129" lon="5.09737">
        <ele>356.33</ele>
        <time>2022-07-11T07:26:32Z</time>
      </trkpt>
      <trkpt lat="47.78127" lon="5.09731">
        <ele>356.12</ele>
        <time>2022-07-11T07:26:34Z</time>
      </trkpt>
      <trkpt lat="47.78126" lon="5.09726">
        <ele>356.08</ele>
        <time>2022-07-11T07:26:36Z</time>
      </trkpt>
      <trkpt lat="47.78125" lon="5.09721">
        <ele>356.07</ele>
        <time>2022-07-11T07:26:38Z</time>
      </trkpt>
      <trkpt lat="47.78123" lon="5.09717">
        <ele>355.84</ele>
        <time>2022-07-11T07:26:39Z</time>
      </trkpt>
      <trkpt lat="47.78122" lon="5.09712">
        <ele>355.86</ele>
        <time>2022-07-11T07:26:41Z</time>
      </trkpt>
      <trkpt lat="47.78121" lon="5.09708">
        <ele>355.83</ele>
        <time>2022-07-11T07:26:43Z</time>
      </trkpt>
      <trkpt lat="47.7812" lon="5.09704">
        <ele>355.79</ele>
        <time>2022-07-11T07:26:46Z</time>
      </trkpt>
      <trkpt lat="47.78118" lon="5.097">
        <ele>355.49</ele>
        <time>2022-07-11T07:26:48Z</time>
      </trkpt>
      <trkpt lat="47.78117" lon="5.09696">
        <ele>355.42</ele>
        <time>2022-07-11T07:26:49Z</time>
      </trkpt>
      <trkpt lat="47.78117" lon="5.09691">
        <ele>355.51</ele>
        <time>2022-07-11T07:26:52Z</time>
      </trkpt>
      <trkpt lat="47.78116" lon="5.09687">
        <ele>355.28</ele>
        <time>2022-07-11T07:26:54Z</time>
      </trkpt>
      <trkpt lat="47.78115" lon="5.09683">
        <ele>355.04</ele>
        <time>2022-07-11T07:26:56Z</time>
      </trkpt>
      <trkpt lat="47.78114" lon="5.09678">
        <ele>354.79</ele>
        <time>2022-07-11T07:26:58Z</time>
      </trkpt>
      <trkpt lat="47.78113" lon="5.09674">
        <ele>354.53</ele>
        <time>2022-07-11T07:27:01Z</time>
      </trkpt>
      <trkpt lat="47.78112" lon="5.09671">
        <ele>354.25</ele>
        <time>2022-07-11T07:27:04Z</time>
      </trkpt>
      <trkpt lat="47.7811" lon="5.09667">
        <ele>353.76</ele>
        <time>2022-07-11T07:27:05Z</time>
      </trkpt>
      <trkpt lat="47.78108" lon="5.09663">
        <ele>353.45</ele>
        <time>2022-07-11T07:27:08Z</time>
      </trkpt>
      <trkpt lat="47.78106" lon="5.09659">
        <ele>353.12</ele>
        <time>2022-07-11T07:27:10Z</time>
      </trkpt>
      <trkpt lat="47.78105" lon="5.09655">
        <ele>353.01</ele>
        <time>2022-07-11T07:27:12Z</time>
      </trkpt>
      <trkpt lat="47.78104" lon="5.09651">
        <ele>352.88</ele>
        <time>2022-07-11T07:27:14Z</time>
      </trkpt>
      <trkpt lat="47.78103" lon="5.09647">
        <ele>352.75</ele>
        <time>2022-07-11T07:27:16Z</time>
      </trkpt>
      <trkpt lat="47.78102" lon="5.09642">
        <ele>352.63</ele>
        <time>2022-07-11T07:27:18Z</time>
      </trkpt>
      <trkpt lat="47.78101" lon="5.09638">
        <ele>352.5</ele>
        <time>2022-07-11T07:27:21Z</time>
      </trkpt>
      <trkpt lat="47.781" lon="5.09633">
        <ele>352.54</ele>
        <time>2022-07-11T07:27:23Z</time>
      </trkpt>
      <trkpt lat="47.78099" lon="5.09628">
        <ele>352.56</ele>
        <time>2022-07-11T07:27:25Z</time>
      </trkpt>
      <trkpt lat="47.78098" lon="5.09624">
        <ele>352.52</ele>
        <time>2022-07-11T07:27:27Z</time>
      </trkpt>
      <trkpt lat="47.78097" lon="5.09619">
        <ele>352.51</ele>
        <time>2022-07-11T07:27:30Z</time>
      </trkpt>
      <trkpt lat="47.78096" lon="5.09613">
        <ele>352.55</ele>
        <time>2022-07-11T07:27:32Z</time>
      </trkpt>
      <trkpt lat="47.78096" lon="5.09609">
        <ele>352.8</ele>
        <time>2022-07-11T07:27:35Z</time>
      </trkpt>
      <trkpt lat="47.78094" lon="5.09605">
        <ele>352.51</ele>
        <time>2022-07-11T07:27:37Z</time>
      </trkpt>
      <trkpt lat="47.78093" lon="5.096">
        <ele>352.58</ele>
        <time>2022-07-11T07:27:40Z</time>
      </trkpt>
      <trkpt lat="47.78091" lon="5.09596">
        <ele>352.3</ele>
        <time>2022-07-11T07:27:42Z</time>
      </trkpt>
      <trkpt lat="47.7809" lon="5.09592">
        <ele>352.3</ele>
        <time>2022-07-11T07:27:45Z</time>
      </trkpt>
      <trkpt lat="47.78089" lon="5.09588">
        <ele>352.3</ele>
        <time>2022-07-11T07:27:48Z</time>
      </trkpt>
      <trkpt lat="47.78088" lon="5.09583">
        <ele>352.37</ele>
        <time>2022-07-11T07:27:50Z</time>
      </trkpt>
      <trkpt lat="47.78087" lon="5.09578">
        <ele>352.49</ele>
        <time>2022-07-11T07:27:53Z</time>
      </trkpt>
      <trkpt lat="47.78085" lon="5.09574">
        <ele>352.19</ele>
        <time>2022-07-11T07:27:56Z</time>
      </trkpt>
      <trkpt lat="47.78084" lon="5.0957">
        <ele>352.18</ele>
        <time>2022-07-11T07:27:59Z</time>
      </trkpt>
      <trkpt lat="47.78082" lon="5.09566">
        <ele>352.03</ele>
        <time>2022-07-11T07:28:01Z</time>
      </trkpt>
      <trkpt lat="47.78081" lon="5.09562">
        <ele>352.14</ele>
        <time>2022-07-11T07:28:04Z</time>
      </trkpt>
      <trkpt lat="47.78079" lon="5.09558">
        <ele>352.06</ele>
        <time>2022-07-11T07:28:06Z</time>
      </trkpt>
      <trkpt lat="47.78077" lon="5.09554">
        <ele>352.05</ele>
        <time>2022-07-11T07:28:08Z</time>
      </trkpt>
      <trkpt lat="47.78076" lon="5.0955">
        <ele>352.32</ele>
        <time>2022-07-11T07:28:10Z</time>
      </trkpt>
      <trkpt lat="47.78074" lon="5.09547">
        <ele>352.24</ele>
        <time>2022-07-11T07:28:12Z</time>
      </trkpt>
      <trkpt lat="47.78072" lon="5.09542">
        <ele>352.31</ele>
        <time>2022-07-11T07:28:15Z</time>
      </trkpt>
      <trkpt lat="47.7807" lon="5.09538">
        <ele>352.22</ele>
        <time>2022-07-11T07:28:18Z</time>
      </trkpt>
      <trkpt lat="47.78068" lon="5.09533">
        <ele>352.14</ele>
        <time>2022-07-11T07:28:20Z</time>
      </trkpt>
      <trkpt lat="47.78067" lon="5.0953">
        <ele>352.12</ele>
        <time>2022-07-11T07:28:22Z</time>
      </trkpt>
      <trkpt lat="47.78065" lon="5.09525">
        <ele>352.09</ele>
        <time>2022-07-11T07:28:24Z</time>
      </trkpt>
      <trkpt lat="47.78063" lon="5.09521">
        <ele>352.01</ele>
        <time>2022-07-11T07:28:25Z</time>
      </trkpt>
      <trkpt lat="47.78061" lon="5.09518">
        <ele>351.76</ele>
        <time>2022-07-11T07:28:27Z</time>
      </trkpt>
      <trkpt lat="47.78058" lon="5.09514">
        <ele>351.28</ele>
        <time>2022-07-11T07:28:29Z</time>
      </trkpt>
      <trkpt lat="47.78055" lon="5.09511">
        <ele>350.72</ele>
        <time>2022-07-11T07:28:32Z</time>
      </trkpt>
      <trkpt lat="47.78053" lon="5.09508">
        <ele>350.7</ele>
        <time>2022-07-11T07:28:33Z</time>
      </trkpt>
      <trkpt lat="47.78051" lon="5.09505">
        <ele>350.67</ele>
        <time>2022-07-11T07:28:35Z</time>
      </trkpt>
      <trkpt lat="47.78048" lon="5.09502">
        <ele>350.44</ele>
        <time>2022-07-11T07:28:37Z</time>
      </trkpt>
      <trkpt lat="47.78046" lon="5.095">
        <ele>350.28</ele>
        <time>2022-07-11T07:28:38Z</time>
      </trkpt>
      <trkpt lat="47.78044" lon="5.09497">
        <ele>350.26</ele>
        <time>2022-07-11T07:28:40Z</time>
      </trkpt>
      <trkpt lat="47.78042" lon="5.09492">
        <ele>350.43</ele>
        <time>2022-07-11T07:28:42Z</time>
      </trkpt>
      <trkpt lat="47.7804" lon="5.09489">
        <ele>350.34</ele>
        <time>2022-07-11T07:28:44Z</time>
      </trkpt>
      <trkpt lat="47.78038" lon="5.09485">
        <ele>350.32</ele>
        <time>2022-07-11T07:28:47Z</time>
      </trkpt>
      <trkpt lat="47.78036" lon="5.09481">
        <ele>350.25</ele>
        <time>2022-07-11T07:28:49Z</time>
      </trkpt>
      <trkpt lat="47.78034" lon="5.09478">
        <ele>350.06</ele>
        <time>2022-07-11T07:28:52Z</time>
      </trkpt>
      <trkpt lat="47.78035" lon="5.09493">
        <ele>348.94</ele>
        <time>2022-07-11T07:28:54Z</time>
      </trkpt>
      <trkpt lat="47.78037" lon="5.09509">
        <ele>347.9</ele>
        <time>2022-07-11T07:28:55Z</time>
      </trkpt>
      <trkpt lat="47.78039" lon="5.09533">
        <ele>346.54</ele>
        <time>2022-07-11T07:28:56Z</time>
      </trkpt>
      <trkpt lat="47.78042" lon="5.09556">
        <ele>346.55</ele>
        <time>2022-07-11T07:28:57Z</time>
      </trkpt>
      <trkpt lat="47.78044" lon="5.09574">
        <ele>347.19</ele>
        <time>2022-07-11T07:28:58Z</time>
      </trkpt>
      <trkpt lat="47.78045" lon="5.09587">
        <ele>347.48</ele>
        <time>2022-07-11T07:28:59Z</time>
      </trkpt>
      <trkpt lat="47.78038" lon="5.09566">
        <ele>346.68</ele>
        <time>2022-07-11T07:29:07Z</time>
      </trkpt>
      <trkpt lat="47.78034" lon="5.09551">
        <ele>345.71</ele>
        <time>2022-07-11T07:29:09Z</time>
      </trkpt>
      <trkpt lat="47.78032" lon="5.09541">
        <ele>345.54</ele>
        <time>2022-07-11T07:29:11Z</time>
      </trkpt>
      <trkpt lat="47.78029" lon="5.09536">
        <ele>345.16</ele>
        <time>2022-07-11T07:29:12Z</time>
      </trkpt>
      <trkpt lat="47.78027" lon="5.09533">
        <ele>345.14</ele>
        <time>2022-07-11T07:29:14Z</time>
      </trkpt>
      <trkpt lat="47.78025" lon="5.09521">
        <ele>345.89</ele>
        <time>2022-07-11T07:29:18Z</time>
      </trkpt>
      <trkpt lat="47.78023" lon="5.09498">
        <ele>347.77</ele>
        <time>2022-07-11T07:29:19Z</time>
      </trkpt>
      <trkpt lat="47.78023" lon="5.09517">
        <ele>346.46</ele>
        <time>2022-07-11T07:29:19Z</time>
      </trkpt>
      <trkpt lat="47.78022" lon="5.09497">
        <ele>347.94</ele>
        <time>2022-07-11T07:29:20Z</time>
      </trkpt>
      <trkpt lat="47.7802" lon="5.09476">
        <ele>348.64</ele>
        <time>2022-07-11T07:29:21Z</time>
      </trkpt>
      <trkpt lat="47.78019" lon="5.09469">
        <ele>348.88</ele>
        <time>2022-07-11T07:29:22Z</time>
      </trkpt>
      <trkpt lat="47.78017" lon="5.09464">
        <ele>349.09</ele>
        <time>2022-07-11T07:29:23Z</time>
      </trkpt>
      <trkpt lat="47.78016" lon="5.0946">
        <ele>349.27</ele>
        <time>2022-07-11T07:29:25Z</time>
      </trkpt>
      <trkpt lat="47.78015" lon="5.09456">
        <ele>349.44</ele>
        <time>2022-07-11T07:29:26Z</time>
      </trkpt>
      <trkpt lat="47.78014" lon="5.09451">
        <ele>349.65</ele>
        <time>2022-07-11T07:29:28Z</time>
      </trkpt>
      <trkpt lat="47.78013" lon="5.09446">
        <ele>349.85</ele>
        <time>2022-07-11T07:29:30Z</time>
      </trkpt>
      <trkpt lat="47.78013" lon="5.09443">
        <ele>349.99</ele>
        <time>2022-07-11T07:29:33Z</time>
      </trkpt>
      <trkpt lat="47.78012" lon="5.09438">
        <ele>350.1</ele>
        <time>2022-07-11T07:29:49Z</time>
      </trkpt>
      <trkpt lat="47.78011" lon="5.09433">
        <ele>350.2</ele>
        <time>2022-07-11T07:29:50Z</time>
      </trkpt>
      <trkpt lat="47.7801" lon="5.09428">
        <ele>350.31</ele>
        <time>2022-07-11T07:29:53Z</time>
      </trkpt>
      <trkpt lat="47.78008" lon="5.09424">
        <ele>350.31</ele>
        <time>2022-07-11T07:29:55Z</time>
      </trkpt>
      <trkpt lat="47.78006" lon="5.0942">
        <ele>350.31</ele>
        <time>2022-07-11T07:29:57Z</time>
      </trkpt>
      <trkpt lat="47.78003" lon="5.09416">
        <ele>350.18</ele>
        <time>2022-07-11T07:29:59Z</time>
      </trkpt>
      <trkpt lat="47.78002" lon="5.09411">
        <ele>349.82</ele>
        <time>2022-07-11T07:30:02Z</time>
      </trkpt>
      <trkpt lat="47.77999" lon="5.09405">
        <ele>349.29</ele>
        <time>2022-07-11T07:30:04Z</time>
      </trkpt>
      <trkpt lat="47.77997" lon="5.0939">
        <ele>348.41</ele>
        <time>2022-07-11T07:30:06Z</time>
      </trkpt>
      <trkpt lat="47.77996" lon="5.09376">
        <ele>349.16</ele>
        <time>2022-07-11T07:30:07Z</time>
      </trkpt>
      <trkpt lat="47.77994" lon="5.09359">
        <ele>350.24</ele>
        <time>2022-07-11T07:30:08Z</time>
      </trkpt>
      <trkpt lat="47.77992" lon="5.09337">
        <ele>352.47</ele>
        <time>2022-07-11T07:30:09Z</time>
      </trkpt>
      <trkpt lat="47.7799" lon="5.09315">
        <ele>355.33</ele>
        <time>2022-07-11T07:30:10Z</time>
      </trkpt>
      <trkpt lat="47.77989" lon="5.09296">
        <ele>357.12</ele>
        <time>2022-07-11T07:30:11Z</time>
      </trkpt>
      <trkpt lat="47.77988" lon="5.09276">
        <ele>358.32</ele>
        <time>2022-07-11T07:30:12Z</time>
      </trkpt>
      <trkpt lat="47.77987" lon="5.09257">
        <ele>360.13</ele>
        <time>2022-07-11T07:30:13Z</time>
      </trkpt>
      <trkpt lat="47.77986" lon="5.09236">
        <ele>361.96</ele>
        <time>2022-07-11T07:30:14Z</time>
      </trkpt>
      <trkpt lat="47.77986" lon="5.09216">
        <ele>364</ele>
        <time>2022-07-11T07:30:15Z</time>
      </trkpt>
      <trkpt lat="47.77987" lon="5.09195">
        <ele>366.46</ele>
        <time>2022-07-11T07:30:16Z</time>
      </trkpt>
      <trkpt lat="47.77987" lon="5.09172">
        <ele>368.99</ele>
        <time>2022-07-11T07:30:17Z</time>
      </trkpt>
      <trkpt lat="47.77987" lon="5.09148">
        <ele>370.48</ele>
        <time>2022-07-11T07:30:18Z</time>
      </trkpt>
      <trkpt lat="47.77988" lon="5.09125">
        <ele>374.17</ele>
        <time>2022-07-11T07:30:19Z</time>
      </trkpt>
      <trkpt lat="47.77989" lon="5.09107">
        <ele>377.96</ele>
        <time>2022-07-11T07:30:20Z</time>
      </trkpt>
      <trkpt lat="47.77991" lon="5.09091">
        <ele>380.6</ele>
        <time>2022-07-11T07:30:21Z</time>
      </trkpt>
      <trkpt lat="47.77993" lon="5.09078">
        <ele>382.27</ele>
        <time>2022-07-11T07:30:22Z</time>
      </trkpt>
      <trkpt lat="47.77994" lon="5.0907">
        <ele>382.96</ele>
        <time>2022-07-11T07:30:23Z</time>
      </trkpt>
      <trkpt lat="47.77996" lon="5.09076">
        <ele>383.19</ele>
        <time>2022-07-11T07:30:28Z</time>
      </trkpt>
      <trkpt lat="47.77996" lon="5.09083">
        <ele>382.86</ele>
        <time>2022-07-11T07:30:30Z</time>
      </trkpt>
      <trkpt lat="47.77995" lon="5.09089">
        <ele>382.14</ele>
        <time>2022-07-11T07:30:32Z</time>
      </trkpt>
      <trkpt lat="47.77995" lon="5.09097">
        <ele>381.54</ele>
        <time>2022-07-11T07:30:34Z</time>
      </trkpt>
      <trkpt lat="47.77995" lon="5.09104">
        <ele>381.01</ele>
        <time>2022-07-11T07:30:36Z</time>
      </trkpt>
      <trkpt lat="47.77995" lon="5.0911">
        <ele>380.56</ele>
        <time>2022-07-11T07:30:38Z</time>
      </trkpt>
      <trkpt lat="47.77994" lon="5.09115">
        <ele>379.17</ele>
        <time>2022-07-11T07:30:41Z</time>
      </trkpt>
      <trkpt lat="47.77994" lon="5.09119">
        <ele>378.33</ele>
        <time>2022-07-11T07:30:54Z</time>
      </trkpt>
      <trkpt lat="47.77994" lon="5.09124">
        <ele>377.29</ele>
        <time>2022-07-11T07:31:05Z</time>
      </trkpt>
      <trkpt lat="47.77993" lon="5.0913">
        <ele>375.56</ele>
        <time>2022-07-11T07:31:06Z</time>
      </trkpt>
      <trkpt lat="47.77993" lon="5.09134">
        <ele>374.74</ele>
        <time>2022-07-11T07:31:07Z</time>
      </trkpt>
      <trkpt lat="47.77993" lon="5.09139">
        <ele>373.72</ele>
        <time>2022-07-11T07:31:09Z</time>
      </trkpt>
      <trkpt lat="47.77993" lon="5.09144">
        <ele>373.68</ele>
        <time>2022-07-11T07:31:37Z</time>
      </trkpt>
      <trkpt lat="47.77993" lon="5.09148">
        <ele>373.64</ele>
        <time>2022-07-11T07:31:39Z</time>
      </trkpt>
      <trkpt lat="47.77992" lon="5.09152">
        <ele>373.05</ele>
        <time>2022-07-11T07:31:41Z</time>
      </trkpt>
      <trkpt lat="47.77993" lon="5.09157">
        <ele>373.55</ele>
        <time>2022-07-11T07:31:44Z</time>
      </trkpt>
      <trkpt lat="47.77993" lon="5.09162">
        <ele>373.51</ele>
        <time>2022-07-11T07:31:46Z</time>
      </trkpt>
      <trkpt lat="47.77992" lon="5.09167">
        <ele>372.77</ele>
        <time>2022-07-11T07:31:49Z</time>
      </trkpt>
      <trkpt lat="47.77991" lon="5.09173">
        <ele>371.4</ele>
        <time>2022-07-11T07:31:51Z</time>
      </trkpt>
      <trkpt lat="47.7799" lon="5.09179">
        <ele>370.06</ele>
        <time>2022-07-11T07:31:53Z</time>
      </trkpt>
      <trkpt lat="47.77988" lon="5.09184">
        <ele>368.27</ele>
        <time>2022-07-11T07:31:56Z</time>
      </trkpt>
      <trkpt lat="47.77988" lon="5.09188">
        <ele>367.82</ele>
        <time>2022-07-11T07:31:57Z</time>
      </trkpt>
      <trkpt lat="47.77987" lon="5.09194">
        <ele>366.56</ele>
        <time>2022-07-11T07:31:59Z</time>
      </trkpt>
      <trkpt lat="47.77985" lon="5.09201">
        <ele>364.78</ele>
        <time>2022-07-11T07:32:02Z</time>
      </trkpt>
      <trkpt lat="47.77984" lon="5.09205">
        <ele>363.86</ele>
        <time>2022-07-11T07:32:03Z</time>
      </trkpt>
      <trkpt lat="47.77982" lon="5.0921">
        <ele>362.31</ele>
        <time>2022-07-11T07:32:05Z</time>
      </trkpt>
      <trkpt lat="47.7798" lon="5.09215">
        <ele>360.79</ele>
        <time>2022-07-11T07:32:07Z</time>
      </trkpt>
      <trkpt lat="47.77978" lon="5.09219">
        <ele>359.38</ele>
        <time>2022-07-11T07:32:09Z</time>
      </trkpt>
      <trkpt lat="47.77976" lon="5.09223">
        <ele>357.98</ele>
        <time>2022-07-11T07:32:11Z</time>
      </trkpt>
      <trkpt lat="47.77974" lon="5.09227">
        <ele>356.59</ele>
        <time>2022-07-11T07:32:12Z</time>
      </trkpt>
      <trkpt lat="47.77972" lon="5.09231">
        <ele>355.34</ele>
        <time>2022-07-11T07:32:13Z</time>
      </trkpt>
      <trkpt lat="47.7797" lon="5.09235">
        <ele>354.76</ele>
        <time>2022-07-11T07:32:15Z</time>
      </trkpt>
      <trkpt lat="47.77967" lon="5.09239">
        <ele>354.04</ele>
        <time>2022-07-11T07:32:17Z</time>
      </trkpt>
      <trkpt lat="47.77965" lon="5.09243">
        <ele>353.46</ele>
        <time>2022-07-11T07:32:18Z</time>
      </trkpt>
      <trkpt lat="47.77963" lon="5.09247">
        <ele>352.89</ele>
        <time>2022-07-11T07:32:20Z</time>
      </trkpt>
      <trkpt lat="47.77961" lon="5.0925">
        <ele>352.38</ele>
        <time>2022-07-11T07:32:22Z</time>
      </trkpt>
      <trkpt lat="47.77957" lon="5.09256">
        <ele>351.47</ele>
        <time>2022-07-11T07:32:24Z</time>
      </trkpt>
      <trkpt lat="47.77955" lon="5.09258">
        <ele>351.05</ele>
        <time>2022-07-11T07:32:26Z</time>
      </trkpt>
      <trkpt lat="47.77952" lon="5.09262">
        <ele>350.34</ele>
        <time>2022-07-11T07:32:29Z</time>
      </trkpt>
      <trkpt lat="47.7795" lon="5.09265">
        <ele>349.83</ele>
        <time>2022-07-11T07:32:30Z</time>
      </trkpt>
      <trkpt lat="47.77946" lon="5.09268">
        <ele>348.96</ele>
        <time>2022-07-11T07:32:32Z</time>
      </trkpt>
      <trkpt lat="47.77942" lon="5.09272">
        <ele>348.17</ele>
        <time>2022-07-11T07:32:35Z</time>
      </trkpt>
      <trkpt lat="47.77938" lon="5.09275">
        <ele>347.53</ele>
        <time>2022-07-11T07:32:37Z</time>
      </trkpt>
      <trkpt lat="47.77935" lon="5.09277">
        <ele>347.05</ele>
        <time>2022-07-11T07:32:40Z</time>
      </trkpt>
      <trkpt lat="47.77932" lon="5.0928">
        <ele>346.58</ele>
        <time>2022-07-11T07:32:42Z</time>
      </trkpt>
      <trkpt lat="47.77928" lon="5.09281">
        <ele>346.09</ele>
        <time>2022-07-11T07:32:44Z</time>
      </trkpt>
      <trkpt lat="47.77925" lon="5.09284">
        <ele>345.59</ele>
        <time>2022-07-11T07:32:47Z</time>
      </trkpt>
      <trkpt lat="47.77921" lon="5.09286">
        <ele>344.97</ele>
        <time>2022-07-11T07:32:49Z</time>
      </trkpt>
      <trkpt lat="47.77918" lon="5.09288">
        <ele>344.44</ele>
        <time>2022-07-11T07:32:52Z</time>
      </trkpt>
      <trkpt lat="47.77913" lon="5.09291">
        <ele>344.38</ele>
        <time>2022-07-11T07:32:54Z</time>
      </trkpt>
      <trkpt lat="47.77911" lon="5.09293">
        <ele>344.4</ele>
        <time>2022-07-11T07:32:56Z</time>
      </trkpt>
      <trkpt lat="47.77908" lon="5.09296">
        <ele>344.42</ele>
        <time>2022-07-11T07:32:59Z</time>
      </trkpt>
      <trkpt lat="47.77904" lon="5.09299">
        <ele>344.49</ele>
        <time>2022-07-11T07:33:01Z</time>
      </trkpt>
      <trkpt lat="47.77901" lon="5.09301">
        <ele>344.55</ele>
        <time>2022-07-11T07:33:03Z</time>
      </trkpt>
      <trkpt lat="47.77898" lon="5.09303">
        <ele>344.59</ele>
        <time>2022-07-11T07:33:05Z</time>
      </trkpt>
      <trkpt lat="47.77894" lon="5.09306">
        <ele>344.62</ele>
        <time>2022-07-11T07:33:07Z</time>
      </trkpt>
      <trkpt lat="47.77892" lon="5.09308">
        <ele>344.72</ele>
        <time>2022-07-11T07:33:10Z</time>
      </trkpt>
      <trkpt lat="47.77889" lon="5.0931">
        <ele>344.83</ele>
        <time>2022-07-11T07:33:12Z</time>
      </trkpt>
      <trkpt lat="47.77886" lon="5.09313">
        <ele>345.36</ele>
        <time>2022-07-11T07:33:14Z</time>
      </trkpt>
      <trkpt lat="47.77883" lon="5.09315">
        <ele>345.93</ele>
        <time>2022-07-11T07:33:17Z</time>
      </trkpt>
      <trkpt lat="47.77879" lon="5.09318">
        <ele>346.69</ele>
        <time>2022-07-11T07:33:20Z</time>
      </trkpt>
      <trkpt lat="47.77876" lon="5.0932">
        <ele>347.26</ele>
        <time>2022-07-11T07:33:22Z</time>
      </trkpt>
      <trkpt lat="47.77873" lon="5.09321">
        <ele>347.88</ele>
        <time>2022-07-11T07:33:24Z</time>
      </trkpt>
      <trkpt lat="47.7787" lon="5.09322">
        <ele>348.49</ele>
        <time>2022-07-11T07:33:27Z</time>
      </trkpt>
      <trkpt lat="47.77867" lon="5.09324">
        <ele>349.06</ele>
        <time>2022-07-11T07:33:30Z</time>
      </trkpt>
      <trkpt lat="47.77865" lon="5.09325">
        <ele>349.46</ele>
        <time>2022-07-11T07:33:32Z</time>
      </trkpt>
      <trkpt lat="47.77862" lon="5.09327">
        <ele>350.04</ele>
        <time>2022-07-11T07:33:35Z</time>
      </trkpt>
      <trkpt lat="47.77859" lon="5.09329">
        <ele>350.76</ele>
        <time>2022-07-11T07:33:37Z</time>
      </trkpt>
      <trkpt lat="47.77856" lon="5.09331">
        <ele>351.63</ele>
        <time>2022-07-11T07:33:40Z</time>
      </trkpt>
      <trkpt lat="47.77853" lon="5.09332">
        <ele>352.58</ele>
        <time>2022-07-11T07:33:42Z</time>
      </trkpt>
      <trkpt lat="47.7785" lon="5.09334">
        <ele>353.46</ele>
        <time>2022-07-11T07:33:44Z</time>
      </trkpt>
      <trkpt lat="47.77847" lon="5.09336">
        <ele>353.94</ele>
        <time>2022-07-11T07:33:47Z</time>
      </trkpt>
      <trkpt lat="47.77844" lon="5.09338">
        <ele>354.35</ele>
        <time>2022-07-11T07:33:49Z</time>
      </trkpt>
      <trkpt lat="47.77841" lon="5.09341">
        <ele>354.41</ele>
        <time>2022-07-11T07:33:52Z</time>
      </trkpt>
      <trkpt lat="47.77838" lon="5.09344">
        <ele>354.35</ele>
        <time>2022-07-11T07:33:55Z</time>
      </trkpt>
      <trkpt lat="47.77836" lon="5.09347">
        <ele>353.94</ele>
        <time>2022-07-11T07:33:57Z</time>
      </trkpt>
      <trkpt lat="47.77834" lon="5.0935">
        <ele>353.46</ele>
        <time>2022-07-11T07:34:00Z</time>
      </trkpt>
      <trkpt lat="47.7783" lon="5.09352">
        <ele>353.72</ele>
        <time>2022-07-11T07:34:02Z</time>
      </trkpt>
      <trkpt lat="47.77828" lon="5.09355">
        <ele>353.44</ele>
        <time>2022-07-11T07:34:05Z</time>
      </trkpt>
      <trkpt lat="47.77824" lon="5.09358">
        <ele>353.95</ele>
        <time>2022-07-11T07:34:08Z</time>
      </trkpt>
      <trkpt lat="47.77821" lon="5.0936">
        <ele>354.6</ele>
        <time>2022-07-11T07:34:11Z</time>
      </trkpt>
      <trkpt lat="47.77818" lon="5.09362">
        <ele>355.62</ele>
        <time>2022-07-11T07:34:13Z</time>
      </trkpt>
      <trkpt lat="47.77814" lon="5.09363">
        <ele>357.13</ele>
        <time>2022-07-11T07:34:15Z</time>
      </trkpt>
      <trkpt lat="47.77811" lon="5.09365">
        <ele>358.32</ele>
        <time>2022-07-11T07:34:17Z</time>
      </trkpt>
      <trkpt lat="47.77808" lon="5.09367">
        <ele>359.43</ele>
        <time>2022-07-11T07:34:20Z</time>
      </trkpt>
      <trkpt lat="47.77805" lon="5.09368">
        <ele>360.24</ele>
        <time>2022-07-11T07:34:25Z</time>
      </trkpt>
      <trkpt lat="47.77799" lon="5.09369">
        <ele>360.15</ele>
        <time>2022-07-11T07:34:25Z</time>
      </trkpt>
      <trkpt lat="47.77791" lon="5.09369">
        <ele>359.99</ele>
        <time>2022-07-11T07:34:26Z</time>
      </trkpt>
      <trkpt lat="47.77786" lon="5.0937">
        <ele>359.87</ele>
        <time>2022-07-11T07:34:27Z</time>
      </trkpt>
      <trkpt lat="47.77782" lon="5.09373">
        <ele>359.7</ele>
        <time>2022-07-11T07:34:29Z</time>
      </trkpt>
      <trkpt lat="47.7778" lon="5.09377">
        <ele>359.52</ele>
        <time>2022-07-11T07:34:33Z</time>
      </trkpt>
      <trkpt lat="47.77777" lon="5.0938">
        <ele>359.38</ele>
        <time>2022-07-11T07:34:36Z</time>
      </trkpt>
      <trkpt lat="47.77775" lon="5.09383">
        <ele>359.41</ele>
        <time>2022-07-11T07:34:38Z</time>
      </trkpt>
      <trkpt lat="47.77772" lon="5.09385">
        <ele>359.56</ele>
        <time>2022-07-11T07:34:43Z</time>
      </trkpt>
      <trkpt lat="47.77769" lon="5.09387">
        <ele>359.7</ele>
        <time>2022-07-11T07:34:46Z</time>
      </trkpt>
      <trkpt lat="47.77765" lon="5.09387">
        <ele>359.99</ele>
        <time>2022-07-11T07:34:49Z</time>
      </trkpt>
      <trkpt lat="47.77762" lon="5.09389">
        <ele>360.14</ele>
        <time>2022-07-11T07:34:52Z</time>
      </trkpt>
      <trkpt lat="47.7776" lon="5.09391">
        <ele>360.4</ele>
        <time>2022-07-11T07:34:55Z</time>
      </trkpt>
      <trkpt lat="47.77757" lon="5.09393">
        <ele>360.75</ele>
        <time>2022-07-11T07:34:58Z</time>
      </trkpt>
      <trkpt lat="47.77754" lon="5.09395">
        <ele>361.12</ele>
        <time>2022-07-11T07:35:01Z</time>
      </trkpt>
      <trkpt lat="47.77751" lon="5.09396">
        <ele>361.43</ele>
        <time>2022-07-11T07:35:04Z</time>
      </trkpt>
      <trkpt lat="47.77748" lon="5.09397">
        <ele>361.71</ele>
        <time>2022-07-11T07:35:07Z</time>
      </trkpt>
      <trkpt lat="47.77746" lon="5.09398">
        <ele>361.9</ele>
        <time>2022-07-11T07:35:11Z</time>
      </trkpt>
      <trkpt lat="47.77742" lon="5.09399">
        <ele>362.2</ele>
        <time>2022-07-11T07:35:13Z</time>
      </trkpt>
      <trkpt lat="47.77739" lon="5.094">
        <ele>362.43</ele>
        <time>2022-07-11T07:35:15Z</time>
      </trkpt>
      <trkpt lat="47.77737" lon="5.094">
        <ele>362.55</ele>
        <time>2022-07-11T07:35:19Z</time>
      </trkpt>
      <trkpt lat="47.77733" lon="5.09399">
        <ele>362.73</ele>
        <time>2022-07-11T07:35:21Z</time>
      </trkpt>
      <trkpt lat="47.7773" lon="5.09399">
        <ele>362.91</ele>
        <time>2022-07-11T07:35:23Z</time>
      </trkpt>
      <trkpt lat="47.77727" lon="5.09398">
        <ele>363.04</ele>
        <time>2022-07-11T07:35:25Z</time>
      </trkpt>
      <trkpt lat="47.77724" lon="5.09397">
        <ele>363.18</ele>
        <time>2022-07-11T07:35:27Z</time>
      </trkpt>
      <trkpt lat="47.77721" lon="5.09397">
        <ele>363.27</ele>
        <time>2022-07-11T07:35:29Z</time>
      </trkpt>
      <trkpt lat="47.77717" lon="5.09396">
        <ele>363.16</ele>
        <time>2022-07-11T07:35:31Z</time>
      </trkpt>
      <trkpt lat="47.77714" lon="5.09396">
        <ele>363.1</ele>
        <time>2022-07-11T07:35:33Z</time>
      </trkpt>
      <trkpt lat="47.77711" lon="5.09395">
        <ele>363.04</ele>
        <time>2022-07-11T07:35:36Z</time>
      </trkpt>
      <trkpt lat="47.77707" lon="5.09395">
        <ele>362.98</ele>
        <time>2022-07-11T07:35:40Z</time>
      </trkpt>
      <trkpt lat="47.77703" lon="5.09397">
        <ele>362.89</ele>
        <time>2022-07-11T07:35:41Z</time>
      </trkpt>
      <trkpt lat="47.77698" lon="5.09401">
        <ele>362.68</ele>
        <time>2022-07-11T07:35:42Z</time>
      </trkpt>
      <trkpt lat="47.77689" lon="5.09408">
        <ele>362.57</ele>
        <time>2022-07-11T07:35:43Z</time>
      </trkpt>
      <trkpt lat="47.77673" lon="5.09427">
        <ele>362.77</ele>
        <time>2022-07-11T07:35:44Z</time>
      </trkpt>
      <trkpt lat="47.77659" lon="5.09443">
        <ele>364.98</ele>
        <time>2022-07-11T07:35:45Z</time>
      </trkpt>
      <trkpt lat="47.77646" lon="5.09456">
        <ele>366.66</ele>
        <time>2022-07-11T07:35:46Z</time>
      </trkpt>
      <trkpt lat="47.77632" lon="5.09464">
        <ele>368.17</ele>
        <time>2022-07-11T07:35:47Z</time>
      </trkpt>
      <trkpt lat="47.7762" lon="5.09468">
        <ele>370.79</ele>
        <time>2022-07-11T07:35:48Z</time>
      </trkpt>
      <trkpt lat="47.77612" lon="5.09468">
        <ele>372.92</ele>
        <time>2022-07-11T07:35:49Z</time>
      </trkpt>
      <trkpt lat="47.77604" lon="5.09468">
        <ele>373.49</ele>
        <time>2022-07-11T07:35:50Z</time>
      </trkpt>
      <trkpt lat="47.77601" lon="5.09461">
        <ele>374.06</ele>
        <time>2022-07-11T07:35:51Z</time>
      </trkpt>
      <trkpt lat="47.77601" lon="5.09456">
        <ele>374.37</ele>
        <time>2022-07-11T07:35:52Z</time>
      </trkpt>
      <trkpt lat="47.77602" lon="5.09444">
        <ele>375.03</ele>
        <time>2022-07-11T07:35:54Z</time>
      </trkpt>
      <trkpt lat="47.77604" lon="5.09437">
        <ele>375.7</ele>
        <time>2022-07-11T07:35:55Z</time>
      </trkpt>
      <trkpt lat="47.77605" lon="5.09432">
        <ele>376.31</ele>
        <time>2022-07-11T07:35:56Z</time>
      </trkpt>
      <trkpt lat="47.77609" lon="5.09425">
        <ele>377.41</ele>
        <time>2022-07-11T07:35:58Z</time>
      </trkpt>
      <trkpt lat="47.77612" lon="5.09421">
        <ele>378.04</ele>
        <time>2022-07-11T07:36:01Z</time>
      </trkpt>
      <trkpt lat="47.77614" lon="5.09417">
        <ele>378.32</ele>
        <time>2022-07-11T07:36:04Z</time>
      </trkpt>
      <trkpt lat="47.77617" lon="5.09411">
        <ele>377.61</ele>
        <time>2022-07-11T07:36:06Z</time>
      </trkpt>
      <trkpt lat="47.77618" lon="5.09408">
        <ele>377.35</ele>
        <time>2022-07-11T07:36:09Z</time>
      </trkpt>
      <trkpt lat="47.77618" lon="5.09402">
        <ele>377.25</ele>
        <time>2022-07-11T07:36:14Z</time>
      </trkpt>
      <trkpt lat="47.77618" lon="5.09396">
        <ele>377.14</ele>
        <time>2022-07-11T07:36:16Z</time>
      </trkpt>
      <trkpt lat="47.77619" lon="5.09391">
        <ele>376.9</ele>
        <time>2022-07-11T07:36:18Z</time>
      </trkpt>
      <trkpt lat="47.77619" lon="5.09387">
        <ele>376.83</ele>
        <time>2022-07-11T07:36:20Z</time>
      </trkpt>
      <trkpt lat="47.77618" lon="5.09381">
        <ele>376.86</ele>
        <time>2022-07-11T07:36:23Z</time>
      </trkpt>
      <trkpt lat="47.77617" lon="5.09377">
        <ele>376.91</ele>
        <time>2022-07-11T07:36:26Z</time>
      </trkpt>
      <trkpt lat="47.77616" lon="5.09374">
        <ele>376.95</ele>
        <time>2022-07-11T07:36:29Z</time>
      </trkpt>
      <trkpt lat="47.77614" lon="5.0937">
        <ele>377.05</ele>
        <time>2022-07-11T07:36:32Z</time>
      </trkpt>
      <trkpt lat="47.77611" lon="5.09368">
        <ele>377.25</ele>
        <time>2022-07-11T07:36:36Z</time>
      </trkpt>
      <trkpt lat="47.77608" lon="5.09366">
        <ele>377.18</ele>
        <time>2022-07-11T07:36:39Z</time>
      </trkpt>
      <trkpt lat="47.77606" lon="5.09364">
        <ele>377.1</ele>
        <time>2022-07-11T07:36:42Z</time>
      </trkpt>
      <trkpt lat="47.77602" lon="5.09362">
        <ele>377.03</ele>
        <time>2022-07-11T07:36:45Z</time>
      </trkpt>
      <trkpt lat="47.776" lon="5.0936">
        <ele>376.92</ele>
        <time>2022-07-11T07:36:48Z</time>
      </trkpt>
      <trkpt lat="47.77597" lon="5.09359">
        <ele>376.85</ele>
        <time>2022-07-11T07:36:51Z</time>
      </trkpt>
      <trkpt lat="47.77594" lon="5.09357">
        <ele>376.7</ele>
        <time>2022-07-11T07:36:55Z</time>
      </trkpt>
      <trkpt lat="47.77591" lon="5.09357">
        <ele>376.7</ele>
        <time>2022-07-11T07:36:58Z</time>
      </trkpt>
      <trkpt lat="47.77588" lon="5.09356">
        <ele>376.63</ele>
        <time>2022-07-11T07:37:00Z</time>
      </trkpt>
      <trkpt lat="47.77586" lon="5.09355">
        <ele>376.56</ele>
        <time>2022-07-11T07:37:02Z</time>
      </trkpt>
      <trkpt lat="47.77583" lon="5.09354">
        <ele>376.44</ele>
        <time>2022-07-11T07:37:05Z</time>
      </trkpt>
      <trkpt lat="47.77579" lon="5.09353">
        <ele>375.84</ele>
        <time>2022-07-11T07:37:08Z</time>
      </trkpt>
      <trkpt lat="47.77575" lon="5.09352">
        <ele>375.24</ele>
        <time>2022-07-11T07:37:11Z</time>
      </trkpt>
      <trkpt lat="47.77571" lon="5.09352">
        <ele>374.71</ele>
        <time>2022-07-11T07:37:14Z</time>
      </trkpt>
      <trkpt lat="47.77568" lon="5.09351">
        <ele>374.26</ele>
        <time>2022-07-11T07:37:17Z</time>
      </trkpt>
      <trkpt lat="47.77565" lon="5.0935">
        <ele>373.82</ele>
        <time>2022-07-11T07:37:20Z</time>
      </trkpt>
      <trkpt lat="47.77562" lon="5.0935">
        <ele>373.44</ele>
        <time>2022-07-11T07:37:23Z</time>
      </trkpt>
      <trkpt lat="47.77559" lon="5.09349">
        <ele>373.01</ele>
        <time>2022-07-11T07:37:29Z</time>
      </trkpt>
      <trkpt lat="47.77555" lon="5.0935">
        <ele>372.58</ele>
        <time>2022-07-11T07:37:35Z</time>
      </trkpt>
      <trkpt lat="47.77552" lon="5.09351">
        <ele>372.51</ele>
        <time>2022-07-11T07:37:38Z</time>
      </trkpt>
      <trkpt lat="47.7755" lon="5.09354">
        <ele>372.54</ele>
        <time>2022-07-11T07:37:41Z</time>
      </trkpt>
      <trkpt lat="47.77548" lon="5.09359">
        <ele>372.65</ele>
        <time>2022-07-11T07:37:44Z</time>
      </trkpt>
      <trkpt lat="47.77547" lon="5.09363">
        <ele>372.69</ele>
        <time>2022-07-11T07:37:46Z</time>
      </trkpt>
      <trkpt lat="47.77546" lon="5.09367">
        <ele>372.66</ele>
        <time>2022-07-11T07:37:48Z</time>
      </trkpt>
      <trkpt lat="47.77545" lon="5.09371">
        <ele>372.62</ele>
        <time>2022-07-11T07:37:50Z</time>
      </trkpt>
      <trkpt lat="47.77543" lon="5.09373">
        <ele>372.55</ele>
        <time>2022-07-11T07:37:53Z</time>
      </trkpt>
      <trkpt lat="47.77541" lon="5.09377">
        <ele>372.48</ele>
        <time>2022-07-11T07:37:56Z</time>
      </trkpt>
      <trkpt lat="47.77539" lon="5.09381">
        <ele>372.4</ele>
        <time>2022-07-11T07:37:59Z</time>
      </trkpt>
      <trkpt lat="47.77537" lon="5.09384">
        <ele>372.33</ele>
        <time>2022-07-11T07:38:02Z</time>
      </trkpt>
      <trkpt lat="47.77534" lon="5.09386">
        <ele>372.22</ele>
        <time>2022-07-11T07:38:04Z</time>
      </trkpt>
      <trkpt lat="47.77532" lon="5.09387">
        <ele>372.15</ele>
        <time>2022-07-11T07:38:06Z</time>
      </trkpt>
      <trkpt lat="47.77529" lon="5.09389">
        <ele>372.04</ele>
        <time>2022-07-11T07:38:08Z</time>
      </trkpt>
      <trkpt lat="47.77526" lon="5.09391">
        <ele>372.07</ele>
        <time>2022-07-11T07:38:11Z</time>
      </trkpt>
      <trkpt lat="47.77523" lon="5.09394">
        <ele>372.2</ele>
        <time>2022-07-11T07:38:15Z</time>
      </trkpt>
      <trkpt lat="47.7752" lon="5.09396">
        <ele>372.35</ele>
        <time>2022-07-11T07:38:17Z</time>
      </trkpt>
      <trkpt lat="47.77517" lon="5.09399">
        <ele>372.53</ele>
        <time>2022-07-11T07:38:21Z</time>
      </trkpt>
      <trkpt lat="47.77515" lon="5.09402">
        <ele>372.68</ele>
        <time>2022-07-11T07:38:23Z</time>
      </trkpt>
      <trkpt lat="47.77512" lon="5.09405">
        <ele>372.9</ele>
        <time>2022-07-11T07:38:25Z</time>
      </trkpt>
      <trkpt lat="47.77509" lon="5.09408">
        <ele>373.14</ele>
        <time>2022-07-11T07:38:29Z</time>
      </trkpt>
      <trkpt lat="47.77506" lon="5.09412">
        <ele>373.44</ele>
        <time>2022-07-11T07:38:32Z</time>
      </trkpt>
      <trkpt lat="47.77504" lon="5.09415">
        <ele>373.66</ele>
        <time>2022-07-11T07:38:35Z</time>
      </trkpt>
      <trkpt lat="47.77502" lon="5.09419">
        <ele>373.95</ele>
        <time>2022-07-11T07:38:37Z</time>
      </trkpt>
      <trkpt lat="47.775" lon="5.09422">
        <ele>374.19</ele>
        <time>2022-07-11T07:38:40Z</time>
      </trkpt>
      <trkpt lat="47.77498" lon="5.09425">
        <ele>374.64</ele>
        <time>2022-07-11T07:38:42Z</time>
      </trkpt>
      <trkpt lat="47.77495" lon="5.09428">
        <ele>375.23</ele>
        <time>2022-07-11T07:38:44Z</time>
      </trkpt>
      <trkpt lat="47.77492" lon="5.09431">
        <ele>375.81</ele>
        <time>2022-07-11T07:38:46Z</time>
      </trkpt>
      <trkpt lat="47.77489" lon="5.09434">
        <ele>376.36</ele>
        <time>2022-07-11T07:38:50Z</time>
      </trkpt>
      <trkpt lat="47.77487" lon="5.09437">
        <ele>376.73</ele>
        <time>2022-07-11T07:38:52Z</time>
      </trkpt>
      <trkpt lat="47.77485" lon="5.09441">
        <ele>377.1</ele>
        <time>2022-07-11T07:38:55Z</time>
      </trkpt>
      <trkpt lat="47.77483" lon="5.09444">
        <ele>377.44</ele>
        <time>2022-07-11T07:38:59Z</time>
      </trkpt>
      <trkpt lat="47.7748" lon="5.09446">
        <ele>377.91</ele>
        <time>2022-07-11T07:39:01Z</time>
      </trkpt>
      <trkpt lat="47.77477" lon="5.0945">
        <ele>378.38</ele>
        <time>2022-07-11T07:39:03Z</time>
      </trkpt>
      <trkpt lat="47.77475" lon="5.09455">
        <ele>378.68</ele>
        <time>2022-07-11T07:39:05Z</time>
      </trkpt>
      <trkpt lat="47.77473" lon="5.09458">
        <ele>378.92</ele>
        <time>2022-07-11T07:39:07Z</time>
      </trkpt>
      <trkpt lat="47.7747" lon="5.09462">
        <ele>379.37</ele>
        <time>2022-07-11T07:39:10Z</time>
      </trkpt>
      <trkpt lat="47.77468" lon="5.09465">
        <ele>379.72</ele>
        <time>2022-07-11T07:39:13Z</time>
      </trkpt>
      <trkpt lat="47.77465" lon="5.09469">
        <ele>380.27</ele>
        <time>2022-07-11T07:39:17Z</time>
      </trkpt>
      <trkpt lat="47.77463" lon="5.09472">
        <ele>380.66</ele>
        <time>2022-07-11T07:39:19Z</time>
      </trkpt>
      <trkpt lat="47.7746" lon="5.09476">
        <ele>381.34</ele>
        <time>2022-07-11T07:39:21Z</time>
      </trkpt>
      <trkpt lat="47.77458" lon="5.0948">
        <ele>381.84</ele>
        <time>2022-07-11T07:39:23Z</time>
      </trkpt>
      <trkpt lat="47.77454" lon="5.09483">
        <ele>382.67</ele>
        <time>2022-07-11T07:39:26Z</time>
      </trkpt>
      <trkpt lat="47.77452" lon="5.09486">
        <ele>383.14</ele>
        <time>2022-07-11T07:39:29Z</time>
      </trkpt>
      <trkpt lat="47.77449" lon="5.09489">
        <ele>383.78</ele>
        <time>2022-07-11T07:39:31Z</time>
      </trkpt>
      <trkpt lat="47.77447" lon="5.09493">
        <ele>384.29</ele>
        <time>2022-07-11T07:39:33Z</time>
      </trkpt>
      <trkpt lat="47.77445" lon="5.09496">
        <ele>384.76</ele>
        <time>2022-07-11T07:39:36Z</time>
      </trkpt>
      <trkpt lat="47.77442" lon="5.09501">
        <ele>385.56</ele>
        <time>2022-07-11T07:39:39Z</time>
      </trkpt>
      <trkpt lat="47.7744" lon="5.09505">
        <ele>386.14</ele>
        <time>2022-07-11T07:39:42Z</time>
      </trkpt>
      <trkpt lat="47.77438" lon="5.09508">
        <ele>386.68</ele>
        <time>2022-07-11T07:39:45Z</time>
      </trkpt>
      <trkpt lat="47.77436" lon="5.09511">
        <ele>387.22</ele>
        <time>2022-07-11T07:39:47Z</time>
      </trkpt>
      <trkpt lat="47.77434" lon="5.09514">
        <ele>387.76</ele>
        <time>2022-07-11T07:39:49Z</time>
      </trkpt>
      <trkpt lat="47.77432" lon="5.09517">
        <ele>388.3</ele>
        <time>2022-07-11T07:39:51Z</time>
      </trkpt>
      <trkpt lat="47.7743" lon="5.09521">
        <ele>388.88</ele>
        <time>2022-07-11T07:39:53Z</time>
      </trkpt>
      <trkpt lat="47.77429" lon="5.09525">
        <ele>389.24</ele>
        <time>2022-07-11T07:39:55Z</time>
      </trkpt>
      <trkpt lat="47.77428" lon="5.09528">
        <ele>389.56</ele>
        <time>2022-07-11T07:39:57Z</time>
      </trkpt>
      <trkpt lat="47.77426" lon="5.09532">
        <ele>390.04</ele>
        <time>2022-07-11T07:39:59Z</time>
      </trkpt>
      <trkpt lat="47.77424" lon="5.09537">
        <ele>390.5</ele>
        <time>2022-07-11T07:40:02Z</time>
      </trkpt>
      <trkpt lat="47.77423" lon="5.0954">
        <ele>390.73</ele>
        <time>2022-07-11T07:40:04Z</time>
      </trkpt>
      <trkpt lat="47.77421" lon="5.09545">
        <ele>391.16</ele>
        <time>2022-07-11T07:40:07Z</time>
      </trkpt>
      <trkpt lat="47.77419" lon="5.09549">
        <ele>391.56</ele>
        <time>2022-07-11T07:40:10Z</time>
      </trkpt>
      <trkpt lat="47.77417" lon="5.09553">
        <ele>391.94</ele>
        <time>2022-07-11T07:40:14Z</time>
      </trkpt>
      <trkpt lat="47.77415" lon="5.09557">
        <ele>392.12</ele>
        <time>2022-07-11T07:40:16Z</time>
      </trkpt>
      <trkpt lat="47.77413" lon="5.09561">
        <ele>392.24</ele>
        <time>2022-07-11T07:40:19Z</time>
      </trkpt>
      <trkpt lat="47.77411" lon="5.09565">
        <ele>392.34</ele>
        <time>2022-07-11T07:40:22Z</time>
      </trkpt>
      <trkpt lat="47.77409" lon="5.09568">
        <ele>392.43</ele>
        <time>2022-07-11T07:40:25Z</time>
      </trkpt>
      <trkpt lat="47.77406" lon="5.09573">
        <ele>392.53</ele>
        <time>2022-07-11T07:40:28Z</time>
      </trkpt>
      <trkpt lat="47.77404" lon="5.09576">
        <ele>392.58</ele>
        <time>2022-07-11T07:40:30Z</time>
      </trkpt>
      <trkpt lat="47.77401" lon="5.09581">
        <ele>392.61</ele>
        <time>2022-07-11T07:40:33Z</time>
      </trkpt>
      <trkpt lat="47.77398" lon="5.09584">
        <ele>392.68</ele>
        <time>2022-07-11T07:40:36Z</time>
      </trkpt>
      <trkpt lat="47.77396" lon="5.09587">
        <ele>392.78</ele>
        <time>2022-07-11T07:40:39Z</time>
      </trkpt>
      <trkpt lat="47.77393" lon="5.09591">
        <ele>392.89</ele>
        <time>2022-07-11T07:40:42Z</time>
      </trkpt>
      <trkpt lat="47.7739" lon="5.09595">
        <ele>392.98</ele>
        <time>2022-07-11T07:40:45Z</time>
      </trkpt>
      <trkpt lat="47.77387" lon="5.09598">
        <ele>393.24</ele>
        <time>2022-07-11T07:40:48Z</time>
      </trkpt>
      <trkpt lat="47.77385" lon="5.09602">
        <ele>393.47</ele>
        <time>2022-07-11T07:40:51Z</time>
      </trkpt>
      <trkpt lat="47.77382" lon="5.09605">
        <ele>393.8</ele>
        <time>2022-07-11T07:40:54Z</time>
      </trkpt>
      <trkpt lat="47.77379" lon="5.09609">
        <ele>394.1</ele>
        <time>2022-07-11T07:40:57Z</time>
      </trkpt>
      <trkpt lat="47.77377" lon="5.09612">
        <ele>394.32</ele>
        <time>2022-07-11T07:41:00Z</time>
      </trkpt>
      <trkpt lat="47.77374" lon="5.09615">
        <ele>394.74</ele>
        <time>2022-07-11T07:41:03Z</time>
      </trkpt>
      <trkpt lat="47.77372" lon="5.09617">
        <ele>394.99</ele>
        <time>2022-07-11T07:41:05Z</time>
      </trkpt>
      <trkpt lat="47.7737" lon="5.0962">
        <ele>395.24</ele>
        <time>2022-07-11T07:41:07Z</time>
      </trkpt>
      <trkpt lat="47.77368" lon="5.09624">
        <ele>395.49</ele>
        <time>2022-07-11T07:41:10Z</time>
      </trkpt>
      <trkpt lat="47.77365" lon="5.09627">
        <ele>395.74</ele>
        <time>2022-07-11T07:41:13Z</time>
      </trkpt>
      <trkpt lat="47.77362" lon="5.09631">
        <ele>395.95</ele>
        <time>2022-07-11T07:41:16Z</time>
      </trkpt>
      <trkpt lat="47.77359" lon="5.09634">
        <ele>396.25</ele>
        <time>2022-07-11T07:41:19Z</time>
      </trkpt>
      <trkpt lat="47.77356" lon="5.09638">
        <ele>396.56</ele>
        <time>2022-07-11T07:41:22Z</time>
      </trkpt>
      <trkpt lat="47.77354" lon="5.09641">
        <ele>396.84</ele>
        <time>2022-07-11T07:41:25Z</time>
      </trkpt>
      <trkpt lat="47.77352" lon="5.09645">
        <ele>397.2</ele>
        <time>2022-07-11T07:41:28Z</time>
      </trkpt>
      <trkpt lat="47.7735" lon="5.09648">
        <ele>397.53</ele>
        <time>2022-07-11T07:41:30Z</time>
      </trkpt>
      <trkpt lat="47.77346" lon="5.09651">
        <ele>398.07</ele>
        <time>2022-07-11T07:41:33Z</time>
      </trkpt>
      <trkpt lat="47.77344" lon="5.09655">
        <ele>398.43</ele>
        <time>2022-07-11T07:41:36Z</time>
      </trkpt>
      <trkpt lat="47.77341" lon="5.09658">
        <ele>398.86</ele>
        <time>2022-07-11T07:41:39Z</time>
      </trkpt>
      <trkpt lat="47.77338" lon="5.09662">
        <ele>399.33</ele>
        <time>2022-07-11T07:41:42Z</time>
      </trkpt>
      <trkpt lat="47.77335" lon="5.09665">
        <ele>399.76</ele>
        <time>2022-07-11T07:41:45Z</time>
      </trkpt>
      <trkpt lat="47.77332" lon="5.09669">
        <ele>400.09</ele>
        <time>2022-07-11T07:41:48Z</time>
      </trkpt>
      <trkpt lat="47.77329" lon="5.09672">
        <ele>400.28</ele>
        <time>2022-07-11T07:41:51Z</time>
      </trkpt>
      <trkpt lat="47.77327" lon="5.09674">
        <ele>400.4</ele>
        <time>2022-07-11T07:41:54Z</time>
      </trkpt>
      <trkpt lat="47.77323" lon="5.09677">
        <ele>400.61</ele>
        <time>2022-07-11T07:41:57Z</time>
      </trkpt>
      <trkpt lat="47.77321" lon="5.09679">
        <ele>400.69</ele>
        <time>2022-07-11T07:41:59Z</time>
      </trkpt>
      <trkpt lat="47.77318" lon="5.09681">
        <ele>400.82</ele>
        <time>2022-07-11T07:42:01Z</time>
      </trkpt>
      <trkpt lat="47.77315" lon="5.09683">
        <ele>400.93</ele>
        <time>2022-07-11T07:42:04Z</time>
      </trkpt>
      <trkpt lat="47.77312" lon="5.09686">
        <ele>401</ele>
        <time>2022-07-11T07:42:07Z</time>
      </trkpt>
      <trkpt lat="47.77309" lon="5.09688">
        <ele>401.08</ele>
        <time>2022-07-11T07:42:09Z</time>
      </trkpt>
      <trkpt lat="47.77306" lon="5.09689">
        <ele>401.18</ele>
        <time>2022-07-11T07:42:11Z</time>
      </trkpt>
      <trkpt lat="47.77303" lon="5.0969">
        <ele>401.27</ele>
        <time>2022-07-11T07:42:14Z</time>
      </trkpt>
      <trkpt lat="47.77299" lon="5.0969">
        <ele>401.43</ele>
        <time>2022-07-11T07:42:17Z</time>
      </trkpt>
      <trkpt lat="47.77296" lon="5.09691">
        <ele>401.51</ele>
        <time>2022-07-11T07:42:20Z</time>
      </trkpt>
      <trkpt lat="47.77292" lon="5.09691">
        <ele>401.67</ele>
        <time>2022-07-11T07:42:23Z</time>
      </trkpt>
      <trkpt lat="47.77289" lon="5.09691">
        <ele>401.79</ele>
        <time>2022-07-11T07:42:25Z</time>
      </trkpt>
      <trkpt lat="47.77285" lon="5.09693">
        <ele>401.83</ele>
        <time>2022-07-11T07:42:28Z</time>
      </trkpt>
      <trkpt lat="47.77283" lon="5.09694">
        <ele>401.84</ele>
        <time>2022-07-11T07:42:30Z</time>
      </trkpt>
      <trkpt lat="47.7728" lon="5.09696">
        <ele>401.76</ele>
        <time>2022-07-11T07:42:32Z</time>
      </trkpt>
      <trkpt lat="47.77277" lon="5.09698">
        <ele>401.78</ele>
        <time>2022-07-11T07:42:35Z</time>
      </trkpt>
      <trkpt lat="47.77274" lon="5.097">
        <ele>402.22</ele>
        <time>2022-07-11T07:42:37Z</time>
      </trkpt>
      <trkpt lat="47.77271" lon="5.09701">
        <ele>402.76</ele>
        <time>2022-07-11T07:42:39Z</time>
      </trkpt>
      <trkpt lat="47.77269" lon="5.09703">
        <ele>402.97</ele>
        <time>2022-07-11T07:42:41Z</time>
      </trkpt>
      <trkpt lat="47.77266" lon="5.09706">
        <ele>403.3</ele>
        <time>2022-07-11T07:42:44Z</time>
      </trkpt>
      <trkpt lat="47.77263" lon="5.09708">
        <ele>403.73</ele>
        <time>2022-07-11T07:42:46Z</time>
      </trkpt>
      <trkpt lat="47.77261" lon="5.0971">
        <ele>403.94</ele>
        <time>2022-07-11T07:42:48Z</time>
      </trkpt>
      <trkpt lat="47.77257" lon="5.09712">
        <ele>404.59</ele>
        <time>2022-07-11T07:42:51Z</time>
      </trkpt>
      <trkpt lat="47.77253" lon="5.09714">
        <ele>405.24</ele>
        <time>2022-07-11T07:42:54Z</time>
      </trkpt>
      <trkpt lat="47.77251" lon="5.09716">
        <ele>405.46</ele>
        <time>2022-07-11T07:42:56Z</time>
      </trkpt>
      <trkpt lat="47.77248" lon="5.09718">
        <ele>405.74</ele>
        <time>2022-07-11T07:42:58Z</time>
      </trkpt>
      <trkpt lat="47.77245" lon="5.0972">
        <ele>405.96</ele>
        <time>2022-07-11T07:43:00Z</time>
      </trkpt>
      <trkpt lat="47.77243" lon="5.09722">
        <ele>406.03</ele>
        <time>2022-07-11T07:43:02Z</time>
      </trkpt>
      <trkpt lat="47.7724" lon="5.09724">
        <ele>406.4</ele>
        <time>2022-07-11T07:43:04Z</time>
      </trkpt>
      <trkpt lat="47.77237" lon="5.09727">
        <ele>406.78</ele>
        <time>2022-07-11T07:43:07Z</time>
      </trkpt>
      <trkpt lat="47.77234" lon="5.09728">
        <ele>407.22</ele>
        <time>2022-07-11T07:43:09Z</time>
      </trkpt>
      <trkpt lat="47.77232" lon="5.0973">
        <ele>407.49</ele>
        <time>2022-07-11T07:43:11Z</time>
      </trkpt>
      <trkpt lat="47.77228" lon="5.09733">
        <ele>408.09</ele>
        <time>2022-07-11T07:43:14Z</time>
      </trkpt>
      <trkpt lat="47.77225" lon="5.09735">
        <ele>408.55</ele>
        <time>2022-07-11T07:43:17Z</time>
      </trkpt>
      <trkpt lat="47.77222" lon="5.09738">
        <ele>409.01</ele>
        <time>2022-07-11T07:43:20Z</time>
      </trkpt>
      <trkpt lat="47.77219" lon="5.09741">
        <ele>409.19</ele>
        <time>2022-07-11T07:43:23Z</time>
      </trkpt>
      <trkpt lat="47.77217" lon="5.09743">
        <ele>409.28</ele>
        <time>2022-07-11T07:43:25Z</time>
      </trkpt>
      <trkpt lat="47.77215" lon="5.09747">
        <ele>409.32</ele>
        <time>2022-07-11T07:43:28Z</time>
      </trkpt>
      <trkpt lat="47.77212" lon="5.09751">
        <ele>409.39</ele>
        <time>2022-07-11T07:43:31Z</time>
      </trkpt>
      <trkpt lat="47.77209" lon="5.09754">
        <ele>409.61</ele>
        <time>2022-07-11T07:43:33Z</time>
      </trkpt>
      <trkpt lat="47.77206" lon="5.09756">
        <ele>409.84</ele>
        <time>2022-07-11T07:43:36Z</time>
      </trkpt>
      <trkpt lat="47.77203" lon="5.09758">
        <ele>410.09</ele>
        <time>2022-07-11T07:43:38Z</time>
      </trkpt>
      <trkpt lat="47.77199" lon="5.0976">
        <ele>410.44</ele>
        <time>2022-07-11T07:43:40Z</time>
      </trkpt>
      <trkpt lat="47.77196" lon="5.09761">
        <ele>410.69</ele>
        <time>2022-07-11T07:43:42Z</time>
      </trkpt>
      <trkpt lat="47.77193" lon="5.09763">
        <ele>411.07</ele>
        <time>2022-07-11T07:43:45Z</time>
      </trkpt>
      <trkpt lat="47.77191" lon="5.09765">
        <ele>411.39</ele>
        <time>2022-07-11T07:43:48Z</time>
      </trkpt>
      <trkpt lat="47.77188" lon="5.09766">
        <ele>411.71</ele>
        <time>2022-07-11T07:43:50Z</time>
      </trkpt>
      <trkpt lat="47.77186" lon="5.09768">
        <ele>412.01</ele>
        <time>2022-07-11T07:43:52Z</time>
      </trkpt>
      <trkpt lat="47.77182" lon="5.09771">
        <ele>412.52</ele>
        <time>2022-07-11T07:43:55Z</time>
      </trkpt>
      <trkpt lat="47.77179" lon="5.09774">
        <ele>412.92</ele>
        <time>2022-07-11T07:43:58Z</time>
      </trkpt>
      <trkpt lat="47.77176" lon="5.09777">
        <ele>413.29</ele>
        <time>2022-07-11T07:44:01Z</time>
      </trkpt>
      <trkpt lat="47.77173" lon="5.09779">
        <ele>413.67</ele>
        <time>2022-07-11T07:44:03Z</time>
      </trkpt>
      <trkpt lat="47.7717" lon="5.09781">
        <ele>414.09</ele>
        <time>2022-07-11T07:44:05Z</time>
      </trkpt>
      <trkpt lat="47.77167" lon="5.09784">
        <ele>414.65</ele>
        <time>2022-07-11T07:44:08Z</time>
      </trkpt>
      <trkpt lat="47.77164" lon="5.09786">
        <ele>415.3</ele>
        <time>2022-07-11T07:44:11Z</time>
      </trkpt>
      <trkpt lat="47.77161" lon="5.09789">
        <ele>416.11</ele>
        <time>2022-07-11T07:44:14Z</time>
      </trkpt>
      <trkpt lat="47.77157" lon="5.09791">
        <ele>416.99</ele>
        <time>2022-07-11T07:44:16Z</time>
      </trkpt>
      <trkpt lat="47.77154" lon="5.09792">
        <ele>417.59</ele>
        <time>2022-07-11T07:44:18Z</time>
      </trkpt>
      <trkpt lat="47.77151" lon="5.09794">
        <ele>418.34</ele>
        <time>2022-07-11T07:44:21Z</time>
      </trkpt>
      <trkpt lat="47.77148" lon="5.09796">
        <ele>419.1</ele>
        <time>2022-07-11T07:44:24Z</time>
      </trkpt>
      <trkpt lat="47.77145" lon="5.09799">
        <ele>420.01</ele>
        <time>2022-07-11T07:44:27Z</time>
      </trkpt>
      <trkpt lat="47.77141" lon="5.09801">
        <ele>420.98</ele>
        <time>2022-07-11T07:44:30Z</time>
      </trkpt>
      <trkpt lat="47.77138" lon="5.09804">
        <ele>422.03</ele>
        <time>2022-07-11T07:44:33Z</time>
      </trkpt>
      <trkpt lat="47.77135" lon="5.09809">
        <ele>423.33</ele>
        <time>2022-07-11T07:44:36Z</time>
      </trkpt>
      <trkpt lat="47.77133" lon="5.09812">
        <ele>424.06</ele>
        <time>2022-07-11T07:44:39Z</time>
      </trkpt>
      <trkpt lat="47.7713" lon="5.09814">
        <ele>424.97</ele>
        <time>2022-07-11T07:44:43Z</time>
      </trkpt>
      <trkpt lat="47.77128" lon="5.09817">
        <ele>425.64</ele>
        <time>2022-07-11T07:44:47Z</time>
      </trkpt>
      <trkpt lat="47.77126" lon="5.09819">
        <ele>426.23</ele>
        <time>2022-07-11T07:44:51Z</time>
      </trkpt>
      <trkpt lat="47.77124" lon="5.09823">
        <ele>426.87</ele>
        <time>2022-07-11T07:45:49Z</time>
      </trkpt>
      <trkpt lat="47.77121" lon="5.09823">
        <ele>427.6</ele>
        <time>2022-07-11T07:46:56Z</time>
      </trkpt>
      <trkpt lat="47.77123" lon="5.09826">
        <ele>427.21</ele>
        <time>2022-07-11T07:51:15Z</time>
      </trkpt>
      <trkpt lat="47.77124" lon="5.0983">
        <ele>427.1</ele>
        <time>2022-07-11T07:51:18Z</time>
      </trkpt>
      <trkpt lat="47.77122" lon="5.09833">
        <ele>427.64</ele>
        <time>2022-07-11T07:51:22Z</time>
      </trkpt>
      <trkpt lat="47.77119" lon="5.09834">
        <ele>428.37</ele>
        <time>2022-07-11T07:51:25Z</time>
      </trkpt>
      <trkpt lat="47.77116" lon="5.09836">
        <ele>429.28</ele>
        <time>2022-07-11T07:51:29Z</time>
      </trkpt>
      <trkpt lat="47.77113" lon="5.09837">
        <ele>430.09</ele>
        <time>2022-07-11T07:51:32Z</time>
      </trkpt>
      <trkpt lat="47.77111" lon="5.09834">
        <ele>430.13</ele>
        <time>2022-07-11T07:51:37Z</time>
      </trkpt>
      <trkpt lat="47.77108" lon="5.09831">
        <ele>430.89</ele>
        <time>2022-07-11T07:51:42Z</time>
      </trkpt>
      <trkpt lat="47.77106" lon="5.09828">
        <ele>431.44</ele>
        <time>2022-07-11T07:51:45Z</time>
      </trkpt>
      <trkpt lat="47.77103" lon="5.09826">
        <ele>432.26</ele>
        <time>2022-07-11T07:51:49Z</time>
      </trkpt>
      <trkpt lat="47.771" lon="5.09824">
        <ele>433.07</ele>
        <time>2022-07-11T07:51:52Z</time>
      </trkpt>
      <trkpt lat="47.77098" lon="5.09822">
        <ele>433.58</ele>
        <time>2022-07-11T07:51:54Z</time>
      </trkpt>
      <trkpt lat="47.77095" lon="5.09819">
        <ele>434.34</ele>
        <time>2022-07-11T07:51:56Z</time>
      </trkpt>
      <trkpt lat="47.77092" lon="5.09817">
        <ele>435.1</ele>
        <time>2022-07-11T07:52:00Z</time>
      </trkpt>
      <trkpt lat="47.7709" lon="5.09814">
        <ele>435.55</ele>
        <time>2022-07-11T07:52:03Z</time>
      </trkpt>
      <trkpt lat="47.77087" lon="5.09812">
        <ele>436.28</ele>
        <time>2022-07-11T07:52:06Z</time>
      </trkpt>
      <trkpt lat="47.77084" lon="5.0981">
        <ele>436.99</ele>
        <time>2022-07-11T07:52:10Z</time>
      </trkpt>
      <trkpt lat="47.77081" lon="5.09807">
        <ele>437.31</ele>
        <time>2022-07-11T07:52:13Z</time>
      </trkpt>
      <trkpt lat="47.77078" lon="5.09804">
        <ele>437.4</ele>
        <time>2022-07-11T07:52:16Z</time>
      </trkpt>
      <trkpt lat="47.77074" lon="5.09803">
        <ele>437.7</ele>
        <time>2022-07-11T07:52:19Z</time>
      </trkpt>
      <trkpt lat="47.77072" lon="5.098">
        <ele>437.54</ele>
        <time>2022-07-11T07:52:22Z</time>
      </trkpt>
      <trkpt lat="47.77069" lon="5.09798">
        <ele>437.59</ele>
        <time>2022-07-11T07:52:24Z</time>
      </trkpt>
      <trkpt lat="47.77066" lon="5.09795">
        <ele>437.49</ele>
        <time>2022-07-11T07:52:27Z</time>
      </trkpt>
      <trkpt lat="47.77063" lon="5.09793">
        <ele>437.51</ele>
        <time>2022-07-11T07:52:30Z</time>
      </trkpt>
      <trkpt lat="47.77061" lon="5.0979">
        <ele>437.28</ele>
        <time>2022-07-11T07:52:33Z</time>
      </trkpt>
      <trkpt lat="47.77058" lon="5.09787">
        <ele>437.12</ele>
        <time>2022-07-11T07:52:36Z</time>
      </trkpt>
      <trkpt lat="47.77056" lon="5.09785">
        <ele>437</ele>
        <time>2022-07-11T07:52:37Z</time>
      </trkpt>
      <trkpt lat="47.77053" lon="5.09781">
        <ele>437.04</ele>
        <time>2022-07-11T07:52:40Z</time>
      </trkpt>
      <trkpt lat="47.77051" lon="5.09779">
        <ele>437.17</ele>
        <time>2022-07-11T07:52:41Z</time>
      </trkpt>
      <trkpt lat="47.77048" lon="5.09776">
        <ele>437.39</ele>
        <time>2022-07-11T07:52:43Z</time>
      </trkpt>
      <trkpt lat="47.77045" lon="5.09772">
        <ele>437.42</ele>
        <time>2022-07-11T07:52:46Z</time>
      </trkpt>
      <trkpt lat="47.77042" lon="5.0977">
        <ele>437.68</ele>
        <time>2022-07-11T07:52:48Z</time>
      </trkpt>
      <trkpt lat="47.77039" lon="5.09767">
        <ele>437.72</ele>
        <time>2022-07-11T07:52:51Z</time>
      </trkpt>
      <trkpt lat="47.77035" lon="5.09765">
        <ele>438.04</ele>
        <time>2022-07-11T07:52:54Z</time>
      </trkpt>
      <trkpt lat="47.77032" lon="5.09762">
        <ele>437.94</ele>
        <time>2022-07-11T07:52:57Z</time>
      </trkpt>
      <trkpt lat="47.7703" lon="5.09761">
        <ele>438.04</ele>
        <time>2022-07-11T07:52:59Z</time>
      </trkpt>
      <trkpt lat="47.77026" lon="5.0976">
        <ele>438.93</ele>
        <time>2022-07-11T07:53:01Z</time>
      </trkpt>
      <trkpt lat="47.77024" lon="5.09758">
        <ele>439.36</ele>
        <time>2022-07-11T07:53:04Z</time>
      </trkpt>
      <trkpt lat="47.7702" lon="5.09757">
        <ele>440.87</ele>
        <time>2022-07-11T07:53:06Z</time>
      </trkpt>
      <trkpt lat="47.77017" lon="5.09755">
        <ele>441.74</ele>
        <time>2022-07-11T07:53:09Z</time>
      </trkpt>
      <trkpt lat="47.77014" lon="5.09753">
        <ele>442.6</ele>
        <time>2022-07-11T07:53:11Z</time>
      </trkpt>
      <trkpt lat="47.77012" lon="5.09751">
        <ele>443.03</ele>
        <time>2022-07-11T07:53:13Z</time>
      </trkpt>
      <trkpt lat="47.77009" lon="5.09749">
        <ele>443.92</ele>
        <time>2022-07-11T07:53:16Z</time>
      </trkpt>
      <trkpt lat="47.77005" lon="5.09746">
        <ele>444.96</ele>
        <time>2022-07-11T07:53:18Z</time>
      </trkpt>
      <trkpt lat="47.77002" lon="5.09744">
        <ele>445.7</ele>
        <time>2022-07-11T07:53:20Z</time>
      </trkpt>
      <trkpt lat="47.76999" lon="5.09744">
        <ele>446.75</ele>
        <time>2022-07-11T07:53:23Z</time>
      </trkpt>
      <trkpt lat="47.76996" lon="5.09743">
        <ele>447.28</ele>
        <time>2022-07-11T07:53:25Z</time>
      </trkpt>
      <trkpt lat="47.76993" lon="5.09742">
        <ele>447.82</ele>
        <time>2022-07-11T07:53:27Z</time>
      </trkpt>
      <trkpt lat="47.7699" lon="5.09741">
        <ele>448.37</ele>
        <time>2022-07-11T07:53:29Z</time>
      </trkpt>
      <trkpt lat="47.76987" lon="5.09739">
        <ele>448.69</ele>
        <time>2022-07-11T07:53:32Z</time>
      </trkpt>
      <trkpt lat="47.76985" lon="5.09738">
        <ele>448.99</ele>
        <time>2022-07-11T07:53:34Z</time>
      </trkpt>
      <trkpt lat="47.76982" lon="5.09737">
        <ele>449.56</ele>
        <time>2022-07-11T07:53:36Z</time>
      </trkpt>
      <trkpt lat="47.76979" lon="5.09735">
        <ele>449.92</ele>
        <time>2022-07-11T07:53:39Z</time>
      </trkpt>
      <trkpt lat="47.76976" lon="5.09732">
        <ele>450.07</ele>
        <time>2022-07-11T07:53:41Z</time>
      </trkpt>
      <trkpt lat="47.76973" lon="5.09731">
        <ele>450.68</ele>
        <time>2022-07-11T07:53:43Z</time>
      </trkpt>
      <trkpt lat="47.7697" lon="5.09728">
        <ele>450.92</ele>
        <time>2022-07-11T07:53:46Z</time>
      </trkpt>
      <trkpt lat="47.76967" lon="5.09725">
        <ele>451.24</ele>
        <time>2022-07-11T07:53:49Z</time>
      </trkpt>
      <trkpt lat="47.76965" lon="5.09723">
        <ele>451.49</ele>
        <time>2022-07-11T07:53:51Z</time>
      </trkpt>
      <trkpt lat="47.76962" lon="5.0972">
        <ele>451.91</ele>
        <time>2022-07-11T07:53:53Z</time>
      </trkpt>
      <trkpt lat="47.76959" lon="5.09717">
        <ele>452.34</ele>
        <time>2022-07-11T07:53:56Z</time>
      </trkpt>
      <trkpt lat="47.76955" lon="5.09715">
        <ele>453.28</ele>
        <time>2022-07-11T07:53:58Z</time>
      </trkpt>
      <trkpt lat="47.76952" lon="5.09713">
        <ele>453.89</ele>
        <time>2022-07-11T07:54:00Z</time>
      </trkpt>
      <trkpt lat="47.76949" lon="5.09711">
        <ele>454.5</ele>
        <time>2022-07-11T07:54:03Z</time>
      </trkpt>
      <trkpt lat="47.76946" lon="5.0971">
        <ele>455.3</ele>
        <time>2022-07-11T07:54:05Z</time>
      </trkpt>
      <trkpt lat="47.76943" lon="5.09708">
        <ele>455.68</ele>
        <time>2022-07-11T07:54:07Z</time>
      </trkpt>
      <trkpt lat="47.7694" lon="5.09707">
        <ele>456</ele>
        <time>2022-07-11T07:54:10Z</time>
      </trkpt>
      <trkpt lat="47.76935" lon="5.09705">
        <ele>456.55</ele>
        <time>2022-07-11T07:54:12Z</time>
      </trkpt>
      <trkpt lat="47.76931" lon="5.09704">
        <ele>457.12</ele>
        <time>2022-07-11T07:54:14Z</time>
      </trkpt>
      <trkpt lat="47.76928" lon="5.09703">
        <ele>457.54</ele>
        <time>2022-07-11T07:54:16Z</time>
      </trkpt>
      <trkpt lat="47.76925" lon="5.09702">
        <ele>457.99</ele>
        <time>2022-07-11T07:54:19Z</time>
      </trkpt>
      <trkpt lat="47.76922" lon="5.09702">
        <ele>458.55</ele>
        <time>2022-07-11T07:54:21Z</time>
      </trkpt>
      <trkpt lat="47.76919" lon="5.09701">
        <ele>459.03</ele>
        <time>2022-07-11T07:54:24Z</time>
      </trkpt>
      <trkpt lat="47.76916" lon="5.097">
        <ele>459.42</ele>
        <time>2022-07-11T07:54:26Z</time>
      </trkpt>
      <trkpt lat="47.76912" lon="5.09699">
        <ele>459.5</ele>
        <time>2022-07-11T07:54:28Z</time>
      </trkpt>
      <trkpt lat="47.76909" lon="5.09697">
        <ele>459.46</ele>
        <time>2022-07-11T07:54:31Z</time>
      </trkpt>
      <trkpt lat="47.76907" lon="5.09696">
        <ele>459.46</ele>
        <time>2022-07-11T07:54:34Z</time>
      </trkpt>
      <trkpt lat="47.76903" lon="5.09695">
        <ele>459.53</ele>
        <time>2022-07-11T07:54:36Z</time>
      </trkpt>
      <trkpt lat="47.769" lon="5.09694">
        <ele>459.52</ele>
        <time>2022-07-11T07:54:39Z</time>
      </trkpt>
      <trkpt lat="47.76897" lon="5.09693">
        <ele>459.43</ele>
        <time>2022-07-11T07:54:41Z</time>
      </trkpt>
      <trkpt lat="47.76894" lon="5.09691">
        <ele>459.12</ele>
        <time>2022-07-11T07:54:44Z</time>
      </trkpt>
      <trkpt lat="47.76891" lon="5.0969">
        <ele>458.99</ele>
        <time>2022-07-11T07:54:47Z</time>
      </trkpt>
      <trkpt lat="47.76888" lon="5.0969">
        <ele>458.92</ele>
        <time>2022-07-11T07:54:49Z</time>
      </trkpt>
      <trkpt lat="47.76884" lon="5.09688">
        <ele>457.94</ele>
        <time>2022-07-11T07:54:52Z</time>
      </trkpt>
      <trkpt lat="47.76882" lon="5.09687">
        <ele>457.47</ele>
        <time>2022-07-11T07:54:55Z</time>
      </trkpt>
      <trkpt lat="47.76878" lon="5.09687">
        <ele>456.93</ele>
        <time>2022-07-11T07:54:57Z</time>
      </trkpt>
      <trkpt lat="47.76875" lon="5.09687">
        <ele>456.53</ele>
        <time>2022-07-11T07:54:59Z</time>
      </trkpt>
      <trkpt lat="47.76872" lon="5.09688">
        <ele>456.32</ele>
        <time>2022-07-11T07:55:02Z</time>
      </trkpt>
      <trkpt lat="47.76868" lon="5.09687">
        <ele>455.59</ele>
        <time>2022-07-11T07:55:06Z</time>
      </trkpt>
      <trkpt lat="47.76864" lon="5.09686">
        <ele>454.86</ele>
        <time>2022-07-11T07:55:10Z</time>
      </trkpt>
      <trkpt lat="47.76862" lon="5.09684">
        <ele>454.24</ele>
        <time>2022-07-11T07:55:12Z</time>
      </trkpt>
      <trkpt lat="47.76858" lon="5.09682">
        <ele>453.98</ele>
        <time>2022-07-11T07:55:14Z</time>
      </trkpt>
      <trkpt lat="47.76855" lon="5.09679">
        <ele>453.66</ele>
        <time>2022-07-11T07:55:16Z</time>
      </trkpt>
      <trkpt lat="47.76852" lon="5.09677">
        <ele>453.52</ele>
        <time>2022-07-11T07:55:19Z</time>
      </trkpt>
      <trkpt lat="47.76849" lon="5.09675">
        <ele>453.37</ele>
        <time>2022-07-11T07:55:22Z</time>
      </trkpt>
      <trkpt lat="47.76845" lon="5.09674">
        <ele>453.48</ele>
        <time>2022-07-11T07:55:25Z</time>
      </trkpt>
      <trkpt lat="47.76842" lon="5.09672">
        <ele>453.34</ele>
        <time>2022-07-11T07:55:28Z</time>
      </trkpt>
      <trkpt lat="47.7684" lon="5.0967">
        <ele>453.12</ele>
        <time>2022-07-11T07:55:30Z</time>
      </trkpt>
      <trkpt lat="47.76837" lon="5.09669">
        <ele>453.16</ele>
        <time>2022-07-11T07:55:34Z</time>
      </trkpt>
      <trkpt lat="47.76833" lon="5.09667">
        <ele>453.08</ele>
        <time>2022-07-11T07:55:37Z</time>
      </trkpt>
      <trkpt lat="47.76831" lon="5.09665">
        <ele>452.99</ele>
        <time>2022-07-11T07:55:39Z</time>
      </trkpt>
      <trkpt lat="47.76828" lon="5.09664">
        <ele>453.11</ele>
        <time>2022-07-11T07:55:41Z</time>
      </trkpt>
      <trkpt lat="47.76825" lon="5.09663">
        <ele>453.24</ele>
        <time>2022-07-11T07:55:43Z</time>
      </trkpt>
      <trkpt lat="47.76822" lon="5.0966">
        <ele>453.19</ele>
        <time>2022-07-11T07:55:46Z</time>
      </trkpt>
      <trkpt lat="47.76819" lon="5.09659">
        <ele>453.35</ele>
        <time>2022-07-11T07:55:48Z</time>
      </trkpt>
      <trkpt lat="47.76815" lon="5.09658">
        <ele>453.59</ele>
        <time>2022-07-11T07:55:51Z</time>
      </trkpt>
      <trkpt lat="47.76812" lon="5.09656">
        <ele>453.68</ele>
        <time>2022-07-11T07:55:54Z</time>
      </trkpt>
      <trkpt lat="47.76809" lon="5.09654">
        <ele>453.78</ele>
        <time>2022-07-11T07:55:57Z</time>
      </trkpt>
      <trkpt lat="47.76805" lon="5.09652">
        <ele>453.95</ele>
        <time>2022-07-11T07:56:00Z</time>
      </trkpt>
      <trkpt lat="47.76802" lon="5.09651">
        <ele>453.93</ele>
        <time>2022-07-11T07:56:02Z</time>
      </trkpt>
      <trkpt lat="47.76799" lon="5.0965">
        <ele>453.89</ele>
        <time>2022-07-11T07:56:05Z</time>
      </trkpt>
      <trkpt lat="47.76795" lon="5.09648">
        <ele>453.78</ele>
        <time>2022-07-11T07:56:08Z</time>
      </trkpt>
      <trkpt lat="47.76793" lon="5.09645">
        <ele>453.54</ele>
        <time>2022-07-11T07:56:11Z</time>
      </trkpt>
      <trkpt lat="47.7679" lon="5.09643">
        <ele>453.38</ele>
        <time>2022-07-11T07:56:14Z</time>
      </trkpt>
      <trkpt lat="47.76786" lon="5.09641">
        <ele>453.21</ele>
        <time>2022-07-11T07:56:17Z</time>
      </trkpt>
      <trkpt lat="47.76783" lon="5.09639">
        <ele>453.01</ele>
        <time>2022-07-11T07:56:20Z</time>
      </trkpt>
      <trkpt lat="47.7678" lon="5.09637">
        <ele>452.92</ele>
        <time>2022-07-11T07:56:23Z</time>
      </trkpt>
      <trkpt lat="47.76778" lon="5.09634">
        <ele>452.82</ele>
        <time>2022-07-11T07:56:27Z</time>
      </trkpt>
      <trkpt lat="47.76775" lon="5.09633">
        <ele>452.85</ele>
        <time>2022-07-11T07:56:31Z</time>
      </trkpt>
      <trkpt lat="47.76771" lon="5.09631">
        <ele>452.92</ele>
        <time>2022-07-11T07:56:33Z</time>
      </trkpt>
      <trkpt lat="47.76768" lon="5.09629">
        <ele>453.02</ele>
        <time>2022-07-11T07:56:36Z</time>
      </trkpt>
      <trkpt lat="47.76766" lon="5.09629">
        <ele>453.1</ele>
        <time>2022-07-11T07:56:38Z</time>
      </trkpt>
      <trkpt lat="47.76762" lon="5.09629">
        <ele>453.25</ele>
        <time>2022-07-11T07:56:41Z</time>
      </trkpt>
      <trkpt lat="47.76759" lon="5.09629">
        <ele>453.37</ele>
        <time>2022-07-11T07:56:43Z</time>
      </trkpt>
      <trkpt lat="47.76756" lon="5.09629">
        <ele>453.48</ele>
        <time>2022-07-11T07:56:46Z</time>
      </trkpt>
      <trkpt lat="47.76753" lon="5.09629">
        <ele>453.6</ele>
        <time>2022-07-11T07:56:48Z</time>
      </trkpt>
      <trkpt lat="47.7675" lon="5.09628">
        <ele>453.78</ele>
        <time>2022-07-11T07:56:51Z</time>
      </trkpt>
      <trkpt lat="47.76747" lon="5.09626">
        <ele>454.28</ele>
        <time>2022-07-11T07:56:55Z</time>
      </trkpt>
      <trkpt lat="47.76743" lon="5.09625">
        <ele>454.76</ele>
        <time>2022-07-11T07:56:58Z</time>
      </trkpt>
      <trkpt lat="47.76739" lon="5.09623">
        <ele>455.1</ele>
        <time>2022-07-11T07:57:00Z</time>
      </trkpt>
      <trkpt lat="47.76737" lon="5.09622">
        <ele>455.22</ele>
        <time>2022-07-11T07:57:02Z</time>
      </trkpt>
      <trkpt lat="47.76735" lon="5.0962">
        <ele>455.2</ele>
        <time>2022-07-11T07:57:04Z</time>
      </trkpt>
      <trkpt lat="47.76731" lon="5.09617">
        <ele>455.05</ele>
        <time>2022-07-11T07:57:07Z</time>
      </trkpt>
      <trkpt lat="47.76728" lon="5.09616">
        <ele>454.97</ele>
        <time>2022-07-11T07:57:09Z</time>
      </trkpt>
      <trkpt lat="47.76725" lon="5.09615">
        <ele>454.83</ele>
        <time>2022-07-11T07:57:13Z</time>
      </trkpt>
      <trkpt lat="47.76722" lon="5.09615">
        <ele>454.81</ele>
        <time>2022-07-11T07:57:15Z</time>
      </trkpt>
      <trkpt lat="47.76719" lon="5.09612">
        <ele>453.73</ele>
        <time>2022-07-11T07:57:18Z</time>
      </trkpt>
      <trkpt lat="47.76715" lon="5.0961">
        <ele>452.81</ele>
        <time>2022-07-11T07:57:21Z</time>
      </trkpt>
      <trkpt lat="47.76712" lon="5.09609">
        <ele>452.25</ele>
        <time>2022-07-11T07:57:24Z</time>
      </trkpt>
      <trkpt lat="47.76708" lon="5.09609">
        <ele>451.69</ele>
        <time>2022-07-11T07:57:26Z</time>
      </trkpt>
      <trkpt lat="47.76705" lon="5.09609">
        <ele>451.26</ele>
        <time>2022-07-11T07:57:28Z</time>
      </trkpt>
      <trkpt lat="47.76702" lon="5.09608">
        <ele>450.72</ele>
        <time>2022-07-11T07:57:30Z</time>
      </trkpt>
      <trkpt lat="47.76699" lon="5.09606">
        <ele>450.07</ele>
        <time>2022-07-11T07:57:32Z</time>
      </trkpt>
      <trkpt lat="47.76695" lon="5.09603">
        <ele>449.2</ele>
        <time>2022-07-11T07:57:35Z</time>
      </trkpt>
      <trkpt lat="47.76692" lon="5.09602">
        <ele>448.81</ele>
        <time>2022-07-11T07:57:39Z</time>
      </trkpt>
      <trkpt lat="47.76688" lon="5.09601">
        <ele>448.36</ele>
        <time>2022-07-11T07:57:41Z</time>
      </trkpt>
      <trkpt lat="47.76685" lon="5.09599">
        <ele>447.86</ele>
        <time>2022-07-11T07:57:44Z</time>
      </trkpt>
      <trkpt lat="47.76682" lon="5.09597">
        <ele>447.35</ele>
        <time>2022-07-11T07:57:47Z</time>
      </trkpt>
      <trkpt lat="47.7668" lon="5.09596">
        <ele>447.05</ele>
        <time>2022-07-11T07:57:50Z</time>
      </trkpt>
      <trkpt lat="47.76677" lon="5.09596">
        <ele>446.77</ele>
        <time>2022-07-11T07:57:52Z</time>
      </trkpt>
      <trkpt lat="47.76673" lon="5.09596">
        <ele>446.4</ele>
        <time>2022-07-11T07:57:56Z</time>
      </trkpt>
      <trkpt lat="47.7667" lon="5.09596">
        <ele>446.13</ele>
        <time>2022-07-11T07:57:58Z</time>
      </trkpt>
      <trkpt lat="47.76667" lon="5.09595">
        <ele>445.71</ele>
        <time>2022-07-11T07:58:02Z</time>
      </trkpt>
      <trkpt lat="47.76664" lon="5.09593">
        <ele>445.23</ele>
        <time>2022-07-11T07:58:05Z</time>
      </trkpt>
      <trkpt lat="47.76661" lon="5.09594">
        <ele>445.21</ele>
        <time>2022-07-11T07:58:08Z</time>
      </trkpt>
      <trkpt lat="47.76658" lon="5.09595">
        <ele>445.19</ele>
        <time>2022-07-11T07:58:10Z</time>
      </trkpt>
      <trkpt lat="47.76655" lon="5.09595">
        <ele>445.02</ele>
        <time>2022-07-11T07:58:13Z</time>
      </trkpt>
      <trkpt lat="47.76652" lon="5.09595">
        <ele>444.85</ele>
        <time>2022-07-11T07:58:16Z</time>
      </trkpt>
      <trkpt lat="47.76649" lon="5.09596">
        <ele>444.84</ele>
        <time>2022-07-11T07:58:19Z</time>
      </trkpt>
      <trkpt lat="47.76645" lon="5.09596">
        <ele>444.62</ele>
        <time>2022-07-11T07:58:22Z</time>
      </trkpt>
      <trkpt lat="47.76642" lon="5.09595">
        <ele>444.28</ele>
        <time>2022-07-11T07:58:25Z</time>
      </trkpt>
      <trkpt lat="47.76639" lon="5.09595">
        <ele>444.11</ele>
        <time>2022-07-11T07:58:28Z</time>
      </trkpt>
      <trkpt lat="47.76635" lon="5.09595">
        <ele>443.82</ele>
        <time>2022-07-11T07:58:32Z</time>
      </trkpt>
      <trkpt lat="47.76632" lon="5.09595">
        <ele>443.6</ele>
        <time>2022-07-11T07:58:34Z</time>
      </trkpt>
      <trkpt lat="47.76629" lon="5.09596">
        <ele>443.57</ele>
        <time>2022-07-11T07:58:37Z</time>
      </trkpt>
      <trkpt lat="47.76625" lon="5.09598">
        <ele>443.64</ele>
        <time>2022-07-11T07:58:40Z</time>
      </trkpt>
      <trkpt lat="47.76622" lon="5.09599">
        <ele>443.6</ele>
        <time>2022-07-11T07:58:42Z</time>
      </trkpt>
      <trkpt lat="47.76619" lon="5.096">
        <ele>443.57</ele>
        <time>2022-07-11T07:58:45Z</time>
      </trkpt>
      <trkpt lat="47.76616" lon="5.09601">
        <ele>443.53</ele>
        <time>2022-07-11T07:58:48Z</time>
      </trkpt>
      <trkpt lat="47.76612" lon="5.09603">
        <ele>443.6</ele>
        <time>2022-07-11T07:58:51Z</time>
      </trkpt>
      <trkpt lat="47.76609" lon="5.09604">
        <ele>443.04</ele>
        <time>2022-07-11T07:58:53Z</time>
      </trkpt>
      <trkpt lat="47.76606" lon="5.09604">
        <ele>442.06</ele>
        <time>2022-07-11T07:58:56Z</time>
      </trkpt>
      <trkpt lat="47.76602" lon="5.09607">
        <ele>441.31</ele>
        <time>2022-07-11T07:58:59Z</time>
      </trkpt>
      <trkpt lat="47.766" lon="5.09611">
        <ele>441.38</ele>
        <time>2022-07-11T07:59:02Z</time>
      </trkpt>
      <trkpt lat="47.76598" lon="5.09615">
        <ele>441.51</ele>
        <time>2022-07-11T07:59:04Z</time>
      </trkpt>
      <trkpt lat="47.76595" lon="5.09618">
        <ele>441.2</ele>
        <time>2022-07-11T07:59:06Z</time>
      </trkpt>
      <trkpt lat="47.76592" lon="5.0962">
        <ele>440.75</ele>
        <time>2022-07-11T07:59:08Z</time>
      </trkpt>
      <trkpt lat="47.76589" lon="5.09624">
        <ele>440.8</ele>
        <time>2022-07-11T07:59:11Z</time>
      </trkpt>
      <trkpt lat="47.76586" lon="5.09628">
        <ele>440.94</ele>
        <time>2022-07-11T07:59:14Z</time>
      </trkpt>
      <trkpt lat="47.76583" lon="5.0963">
        <ele>440.67</ele>
        <time>2022-07-11T07:59:16Z</time>
      </trkpt>
      <trkpt lat="47.7658" lon="5.09631">
        <ele>440.12</ele>
        <time>2022-07-11T07:59:19Z</time>
      </trkpt>
      <trkpt lat="47.76577" lon="5.09633">
        <ele>439.79</ele>
        <time>2022-07-11T07:59:24Z</time>
      </trkpt>
      <trkpt lat="47.76575" lon="5.09637">
        <ele>440.16</ele>
        <time>2022-07-11T07:59:26Z</time>
      </trkpt>
      <trkpt lat="47.76572" lon="5.09639">
        <ele>439.76</ele>
        <time>2022-07-11T07:59:28Z</time>
      </trkpt>
      <trkpt lat="47.7657" lon="5.09642">
        <ele>439.83</ele>
        <time>2022-07-11T07:59:30Z</time>
      </trkpt>
      <trkpt lat="47.76567" lon="5.09645">
        <ele>439.62</ele>
        <time>2022-07-11T07:59:32Z</time>
      </trkpt>
      <trkpt lat="47.76564" lon="5.09648">
        <ele>439.4</ele>
        <time>2022-07-11T07:59:35Z</time>
      </trkpt>
      <trkpt lat="47.76562" lon="5.0965">
        <ele>439.26</ele>
        <time>2022-07-11T07:59:36Z</time>
      </trkpt>
      <trkpt lat="47.76559" lon="5.09653">
        <ele>439.04</ele>
        <time>2022-07-11T07:59:39Z</time>
      </trkpt>
      <trkpt lat="47.76557" lon="5.09656">
        <ele>439.11</ele>
        <time>2022-07-11T07:59:40Z</time>
      </trkpt>
      <trkpt lat="47.76554" lon="5.0966">
        <ele>438.97</ele>
        <time>2022-07-11T07:59:42Z</time>
      </trkpt>
      <trkpt lat="47.76551" lon="5.09662">
        <ele>438.24</ele>
        <time>2022-07-11T07:59:45Z</time>
      </trkpt>
      <trkpt lat="47.76548" lon="5.09664">
        <ele>437.48</ele>
        <time>2022-07-11T07:59:47Z</time>
      </trkpt>
      <trkpt lat="47.76545" lon="5.09667">
        <ele>436.87</ele>
        <time>2022-07-11T07:59:49Z</time>
      </trkpt>
      <trkpt lat="47.76542" lon="5.0967">
        <ele>436.17</ele>
        <time>2022-07-11T07:59:51Z</time>
      </trkpt>
      <trkpt lat="47.7654" lon="5.09673">
        <ele>435.88</ele>
        <time>2022-07-11T07:59:53Z</time>
      </trkpt>
      <trkpt lat="47.76538" lon="5.09676">
        <ele>435.6</ele>
        <time>2022-07-11T07:59:55Z</time>
      </trkpt>
      <trkpt lat="47.76536" lon="5.0968">
        <ele>435.51</ele>
        <time>2022-07-11T07:59:57Z</time>
      </trkpt>
      <trkpt lat="47.76534" lon="5.09683">
        <ele>435.27</ele>
        <time>2022-07-11T07:59:59Z</time>
      </trkpt>
      <trkpt lat="47.76532" lon="5.09687">
        <ele>435.22</ele>
        <time>2022-07-11T08:00:02Z</time>
      </trkpt>
      <trkpt lat="47.7653" lon="5.0969">
        <ele>435.01</ele>
        <time>2022-07-11T08:00:04Z</time>
      </trkpt>
      <trkpt lat="47.76528" lon="5.09694">
        <ele>435</ele>
        <time>2022-07-11T08:00:06Z</time>
      </trkpt>
      <trkpt lat="47.76526" lon="5.09696">
        <ele>434.88</ele>
        <time>2022-07-11T08:00:07Z</time>
      </trkpt>
      <trkpt lat="47.76523" lon="5.09699">
        <ele>434.72</ele>
        <time>2022-07-11T08:00:09Z</time>
      </trkpt>
      <trkpt lat="47.76521" lon="5.09702">
        <ele>434.79</ele>
        <time>2022-07-11T08:00:12Z</time>
      </trkpt>
      <trkpt lat="47.76518" lon="5.09704">
        <ele>434.36</ele>
        <time>2022-07-11T08:00:14Z</time>
      </trkpt>
      <trkpt lat="47.76516" lon="5.09707">
        <ele>434.36</ele>
        <time>2022-07-11T08:00:16Z</time>
      </trkpt>
      <trkpt lat="47.76514" lon="5.0971">
        <ele>434.33</ele>
        <time>2022-07-11T08:00:19Z</time>
      </trkpt>
      <trkpt lat="47.76512" lon="5.09714">
        <ele>434.45</ele>
        <time>2022-07-11T08:00:22Z</time>
      </trkpt>
      <trkpt lat="47.7651" lon="5.09718">
        <ele>434.52</ele>
        <time>2022-07-11T08:00:24Z</time>
      </trkpt>
      <trkpt lat="47.76508" lon="5.09723">
        <ele>434.65</ele>
        <time>2022-07-11T08:00:26Z</time>
      </trkpt>
      <trkpt lat="47.76507" lon="5.09727">
        <ele>434.61</ele>
        <time>2022-07-11T08:00:28Z</time>
      </trkpt>
      <trkpt lat="47.76506" lon="5.09732">
        <ele>434.65</ele>
        <time>2022-07-11T08:00:30Z</time>
      </trkpt>
      <trkpt lat="47.76505" lon="5.09736">
        <ele>434.61</ele>
        <time>2022-07-11T08:00:32Z</time>
      </trkpt>
      <trkpt lat="47.76503" lon="5.0974">
        <ele>434.25</ele>
        <time>2022-07-11T08:00:34Z</time>
      </trkpt>
      <trkpt lat="47.76501" lon="5.09744">
        <ele>433.89</ele>
        <time>2022-07-11T08:00:36Z</time>
      </trkpt>
      <trkpt lat="47.765" lon="5.09747">
        <ele>433.78</ele>
        <time>2022-07-11T08:00:38Z</time>
      </trkpt>
      <trkpt lat="47.76499" lon="5.09752">
        <ele>433.78</ele>
        <time>2022-07-11T08:00:40Z</time>
      </trkpt>
      <trkpt lat="47.76498" lon="5.09757">
        <ele>433.57</ele>
        <time>2022-07-11T08:00:41Z</time>
      </trkpt>
      <trkpt lat="47.76497" lon="5.09762">
        <ele>433.35</ele>
        <time>2022-07-11T08:00:44Z</time>
      </trkpt>
      <trkpt lat="47.76496" lon="5.09766">
        <ele>433.14</ele>
        <time>2022-07-11T08:00:46Z</time>
      </trkpt>
      <trkpt lat="47.76495" lon="5.0977">
        <ele>432.92</ele>
        <time>2022-07-11T08:00:49Z</time>
      </trkpt>
      <trkpt lat="47.76494" lon="5.09774">
        <ele>432.7</ele>
        <time>2022-07-11T08:00:51Z</time>
      </trkpt>
      <trkpt lat="47.76492" lon="5.09778">
        <ele>432.28</ele>
        <time>2022-07-11T08:00:53Z</time>
      </trkpt>
      <trkpt lat="47.7649" lon="5.09782">
        <ele>431.99</ele>
        <time>2022-07-11T08:00:56Z</time>
      </trkpt>
      <trkpt lat="47.76488" lon="5.09786">
        <ele>431.7</ele>
        <time>2022-07-11T08:01:00Z</time>
      </trkpt>
      <trkpt lat="47.76487" lon="5.0979">
        <ele>431.63</ele>
        <time>2022-07-11T08:01:02Z</time>
      </trkpt>
      <trkpt lat="47.76486" lon="5.09794">
        <ele>431.56</ele>
        <time>2022-07-11T08:01:05Z</time>
      </trkpt>
      <trkpt lat="47.76485" lon="5.09799">
        <ele>431.52</ele>
        <time>2022-07-11T08:01:08Z</time>
      </trkpt>
      <trkpt lat="47.76484" lon="5.09802">
        <ele>431.42</ele>
        <time>2022-07-11T08:01:12Z</time>
      </trkpt>
      <trkpt lat="47.76482" lon="5.09806">
        <ele>431.12</ele>
        <time>2022-07-11T08:01:15Z</time>
      </trkpt>
      <trkpt lat="47.76481" lon="5.0981">
        <ele>431</ele>
        <time>2022-07-11T08:01:18Z</time>
      </trkpt>
      <trkpt lat="47.7648" lon="5.09814">
        <ele>430.85</ele>
        <time>2022-07-11T08:01:21Z</time>
      </trkpt>
      <trkpt lat="47.76479" lon="5.09819">
        <ele>430.7</ele>
        <time>2022-07-11T08:01:23Z</time>
      </trkpt>
      <trkpt lat="47.76477" lon="5.09823">
        <ele>430.25</ele>
        <time>2022-07-11T08:01:25Z</time>
      </trkpt>
      <trkpt lat="47.76477" lon="5.09828">
        <ele>430.31</ele>
        <time>2022-07-11T08:01:27Z</time>
      </trkpt>
      <trkpt lat="47.76478" lon="5.09833">
        <ele>430.66</ele>
        <time>2022-07-11T08:01:29Z</time>
      </trkpt>
      <trkpt lat="47.76478" lon="5.09838">
        <ele>430.87</ele>
        <time>2022-07-11T08:01:30Z</time>
      </trkpt>
      <trkpt lat="47.76478" lon="5.09842">
        <ele>431.04</ele>
        <time>2022-07-11T08:01:32Z</time>
      </trkpt>
      <trkpt lat="47.76477" lon="5.09846">
        <ele>430.91</ele>
        <time>2022-07-11T08:01:33Z</time>
      </trkpt>
      <trkpt lat="47.76476" lon="5.09851">
        <ele>430.81</ele>
        <time>2022-07-11T08:01:36Z</time>
      </trkpt>
      <trkpt lat="47.76475" lon="5.09856">
        <ele>430.7</ele>
        <time>2022-07-11T08:01:38Z</time>
      </trkpt>
      <trkpt lat="47.76474" lon="5.0986">
        <ele>430.53</ele>
        <time>2022-07-11T08:01:40Z</time>
      </trkpt>
      <trkpt lat="47.76473" lon="5.09864">
        <ele>430.36</ele>
        <time>2022-07-11T08:01:41Z</time>
      </trkpt>
      <trkpt lat="47.76471" lon="5.09868">
        <ele>429.85</ele>
        <time>2022-07-11T08:01:44Z</time>
      </trkpt>
      <trkpt lat="47.7647" lon="5.09873">
        <ele>429.71</ele>
        <time>2022-07-11T08:01:47Z</time>
      </trkpt>
      <trkpt lat="47.76468" lon="5.09876">
        <ele>429.17</ele>
        <time>2022-07-11T08:01:49Z</time>
      </trkpt>
      <trkpt lat="47.76466" lon="5.09879">
        <ele>428.63</ele>
        <time>2022-07-11T08:01:51Z</time>
      </trkpt>
      <trkpt lat="47.76464" lon="5.09883">
        <ele>428.12</ele>
        <time>2022-07-11T08:01:54Z</time>
      </trkpt>
      <trkpt lat="47.76463" lon="5.09887">
        <ele>427.94</ele>
        <time>2022-07-11T08:01:56Z</time>
      </trkpt>
      <trkpt lat="47.76462" lon="5.09891">
        <ele>427.74</ele>
        <time>2022-07-11T08:01:58Z</time>
      </trkpt>
      <trkpt lat="47.76462" lon="5.09895">
        <ele>427.83</ele>
        <time>2022-07-11T08:02:01Z</time>
      </trkpt>
      <trkpt lat="47.76461" lon="5.099">
        <ele>427.6</ele>
        <time>2022-07-11T08:02:04Z</time>
      </trkpt>
      <trkpt lat="47.7646" lon="5.09904">
        <ele>427.34</ele>
        <time>2022-07-11T08:02:06Z</time>
      </trkpt>
      <trkpt lat="47.7646" lon="5.0991">
        <ele>427.47</ele>
        <time>2022-07-11T08:02:09Z</time>
      </trkpt>
      <trkpt lat="47.76459" lon="5.09913">
        <ele>427.17</ele>
        <time>2022-07-11T08:02:13Z</time>
      </trkpt>
      <trkpt lat="47.76458" lon="5.09917">
        <ele>426.87</ele>
        <time>2022-07-11T08:02:16Z</time>
      </trkpt>
      <trkpt lat="47.76457" lon="5.09921">
        <ele>426.36</ele>
        <time>2022-07-11T08:02:20Z</time>
      </trkpt>
      <trkpt lat="47.76456" lon="5.09927">
        <ele>425.79</ele>
        <time>2022-07-11T08:02:23Z</time>
      </trkpt>
      <trkpt lat="47.76455" lon="5.09931">
        <ele>425.28</ele>
        <time>2022-07-11T08:02:25Z</time>
      </trkpt>
      <trkpt lat="47.76455" lon="5.09935">
        <ele>425.14</ele>
        <time>2022-07-11T08:02:27Z</time>
      </trkpt>
      <trkpt lat="47.76455" lon="5.0994">
        <ele>424.96</ele>
        <time>2022-07-11T08:02:30Z</time>
      </trkpt>
      <trkpt lat="47.76455" lon="5.09944">
        <ele>424.82</ele>
        <time>2022-07-11T08:02:33Z</time>
      </trkpt>
      <trkpt lat="47.76455" lon="5.09949">
        <ele>424.31</ele>
        <time>2022-07-11T08:02:36Z</time>
      </trkpt>
      <trkpt lat="47.76456" lon="5.09954">
        <ele>424.13</ele>
        <time>2022-07-11T08:02:39Z</time>
      </trkpt>
      <trkpt lat="47.76456" lon="5.09958">
        <ele>423.7</ele>
        <time>2022-07-11T08:02:41Z</time>
      </trkpt>
      <trkpt lat="47.76457" lon="5.09963">
        <ele>423.52</ele>
        <time>2022-07-11T08:02:44Z</time>
      </trkpt>
      <trkpt lat="47.76457" lon="5.09968">
        <ele>422.98</ele>
        <time>2022-07-11T08:02:48Z</time>
      </trkpt>
      <trkpt lat="47.76458" lon="5.09972">
        <ele>422.9</ele>
        <time>2022-07-11T08:02:51Z</time>
      </trkpt>
      <trkpt lat="47.76458" lon="5.09976">
        <ele>422.47</ele>
        <time>2022-07-11T08:02:55Z</time>
      </trkpt>
      <trkpt lat="47.76459" lon="5.09981">
        <ele>422.29</ele>
        <time>2022-07-11T08:02:57Z</time>
      </trkpt>
      <trkpt lat="47.7646" lon="5.09986">
        <ele>422.11</ele>
        <time>2022-07-11T08:02:59Z</time>
      </trkpt>
      <trkpt lat="47.76461" lon="5.0999">
        <ele>422.04</ele>
        <time>2022-07-11T08:03:00Z</time>
      </trkpt>
      <trkpt lat="47.76462" lon="5.09994">
        <ele>421.97</ele>
        <time>2022-07-11T08:03:03Z</time>
      </trkpt>
      <trkpt lat="47.76464" lon="5.09997">
        <ele>422.36</ele>
        <time>2022-07-11T08:03:06Z</time>
      </trkpt>
      <trkpt lat="47.76466" lon="5.10002">
        <ele>422.53</ele>
        <time>2022-07-11T08:03:08Z</time>
      </trkpt>
      <trkpt lat="47.76468" lon="5.10007">
        <ele>422.69</ele>
        <time>2022-07-11T08:03:12Z</time>
      </trkpt>
      <trkpt lat="47.76469" lon="5.10011">
        <ele>422.61</ele>
        <time>2022-07-11T08:03:15Z</time>
      </trkpt>
      <trkpt lat="47.7647" lon="5.10015">
        <ele>422.54</ele>
        <time>2022-07-11T08:03:18Z</time>
      </trkpt>
      <trkpt lat="47.76471" lon="5.10019">
        <ele>422.48</ele>
        <time>2022-07-11T08:03:20Z</time>
      </trkpt>
      <trkpt lat="47.76473" lon="5.10023">
        <ele>422.69</ele>
        <time>2022-07-11T08:03:21Z</time>
      </trkpt>
      <trkpt lat="47.76474" lon="5.10027">
        <ele>422.47</ele>
        <time>2022-07-11T08:03:23Z</time>
      </trkpt>
      <trkpt lat="47.76475" lon="5.10032">
        <ele>422.02</ele>
        <time>2022-07-11T08:03:25Z</time>
      </trkpt>
      <trkpt lat="47.76476" lon="5.10036">
        <ele>421.71</ele>
        <time>2022-07-11T08:03:28Z</time>
      </trkpt>
      <trkpt lat="47.76477" lon="5.10041">
        <ele>421.29</ele>
        <time>2022-07-11T08:03:31Z</time>
      </trkpt>
      <trkpt lat="47.76478" lon="5.10044">
        <ele>421.15</ele>
        <time>2022-07-11T08:03:34Z</time>
      </trkpt>
      <trkpt lat="47.7648" lon="5.10048">
        <ele>421.18</ele>
        <time>2022-07-11T08:03:37Z</time>
      </trkpt>
      <trkpt lat="47.76481" lon="5.10051">
        <ele>421.08</ele>
        <time>2022-07-11T08:03:40Z</time>
      </trkpt>
      <trkpt lat="47.76483" lon="5.10056">
        <ele>421.09</ele>
        <time>2022-07-11T08:03:42Z</time>
      </trkpt>
      <trkpt lat="47.76484" lon="5.1006">
        <ele>421.23</ele>
        <time>2022-07-11T08:03:45Z</time>
      </trkpt>
      <trkpt lat="47.76485" lon="5.10064">
        <ele>421.38</ele>
        <time>2022-07-11T08:03:47Z</time>
      </trkpt>
      <trkpt lat="47.76487" lon="5.1007">
        <ele>421.74</ele>
        <time>2022-07-11T08:03:49Z</time>
      </trkpt>
      <trkpt lat="47.76488" lon="5.10073">
        <ele>421.92</ele>
        <time>2022-07-11T08:03:51Z</time>
      </trkpt>
      <trkpt lat="47.76489" lon="5.10078">
        <ele>422.02</ele>
        <time>2022-07-11T08:03:53Z</time>
      </trkpt>
      <trkpt lat="47.7649" lon="5.10082">
        <ele>422.17</ele>
        <time>2022-07-11T08:03:56Z</time>
      </trkpt>
      <trkpt lat="47.76491" lon="5.10087">
        <ele>422.41</ele>
        <time>2022-07-11T08:03:58Z</time>
      </trkpt>
      <trkpt lat="47.76491" lon="5.10091">
        <ele>422.41</ele>
        <time>2022-07-11T08:04:00Z</time>
      </trkpt>
      <trkpt lat="47.76491" lon="5.10096">
        <ele>422.41</ele>
        <time>2022-07-11T08:04:02Z</time>
      </trkpt>
      <trkpt lat="47.76492" lon="5.101">
        <ele>422.7</ele>
        <time>2022-07-11T08:04:05Z</time>
      </trkpt>
      <trkpt lat="47.76492" lon="5.10106">
        <ele>422.7</ele>
        <time>2022-07-11T08:04:07Z</time>
      </trkpt>
      <trkpt lat="47.76492" lon="5.10111">
        <ele>422.7</ele>
        <time>2022-07-11T08:04:09Z</time>
      </trkpt>
      <trkpt lat="47.76492" lon="5.10115">
        <ele>422.46</ele>
        <time>2022-07-11T08:04:12Z</time>
      </trkpt>
      <trkpt lat="47.76492" lon="5.10119">
        <ele>422.21</ele>
        <time>2022-07-11T08:04:15Z</time>
      </trkpt>
      <trkpt lat="47.76494" lon="5.10123">
        <ele>422.51</ele>
        <time>2022-07-11T08:04:17Z</time>
      </trkpt>
      <trkpt lat="47.76495" lon="5.10127">
        <ele>422.52</ele>
        <time>2022-07-11T08:04:19Z</time>
      </trkpt>
      <trkpt lat="47.76496" lon="5.1013">
        <ele>422.59</ele>
        <time>2022-07-11T08:04:21Z</time>
      </trkpt>
      <trkpt lat="47.76498" lon="5.10134">
        <ele>422.84</ele>
        <time>2022-07-11T08:04:23Z</time>
      </trkpt>
      <trkpt lat="47.76499" lon="5.10138">
        <ele>422.81</ele>
        <time>2022-07-11T08:04:25Z</time>
      </trkpt>
      <trkpt lat="47.76501" lon="5.10142">
        <ele>423.36</ele>
        <time>2022-07-11T08:04:28Z</time>
      </trkpt>
      <trkpt lat="47.76502" lon="5.10147">
        <ele>423.77</ele>
        <time>2022-07-11T08:04:30Z</time>
      </trkpt>
      <trkpt lat="47.76502" lon="5.10151">
        <ele>423.91</ele>
        <time>2022-07-11T08:04:32Z</time>
      </trkpt>
      <trkpt lat="47.76501" lon="5.10156">
        <ele>423.85</ele>
        <time>2022-07-11T08:04:34Z</time>
      </trkpt>
      <trkpt lat="47.76501" lon="5.10161">
        <ele>424.02</ele>
        <time>2022-07-11T08:04:38Z</time>
      </trkpt>
      <trkpt lat="47.765" lon="5.10165">
        <ele>423.94</ele>
        <time>2022-07-11T08:04:40Z</time>
      </trkpt>
      <trkpt lat="47.76499" lon="5.1017">
        <ele>423.79</ele>
        <time>2022-07-11T08:04:43Z</time>
      </trkpt>
      <trkpt lat="47.76497" lon="5.10174">
        <ele>423.38</ele>
        <time>2022-07-11T08:04:47Z</time>
      </trkpt>
      <trkpt lat="47.76496" lon="5.10178">
        <ele>423.19</ele>
        <time>2022-07-11T08:04:50Z</time>
      </trkpt>
      <trkpt lat="47.76495" lon="5.10181">
        <ele>423.01</ele>
        <time>2022-07-11T08:04:53Z</time>
      </trkpt>
      <trkpt lat="47.76494" lon="5.10185">
        <ele>422.85</ele>
        <time>2022-07-11T08:04:55Z</time>
      </trkpt>
      <trkpt lat="47.76494" lon="5.1019">
        <ele>422.89</ele>
        <time>2022-07-11T08:04:59Z</time>
      </trkpt>
      <trkpt lat="47.76493" lon="5.10194">
        <ele>422.74</ele>
        <time>2022-07-11T08:05:01Z</time>
      </trkpt>
      <trkpt lat="47.76492" lon="5.10198">
        <ele>422.8</ele>
        <time>2022-07-11T08:05:05Z</time>
      </trkpt>
      <trkpt lat="47.76492" lon="5.10202">
        <ele>423.07</ele>
        <time>2022-07-11T08:05:10Z</time>
      </trkpt>
      <trkpt lat="47.7649" lon="5.10206">
        <ele>423.07</ele>
        <time>2022-07-11T08:05:14Z</time>
      </trkpt>
      <trkpt lat="47.76488" lon="5.10209">
        <ele>423.04</ele>
        <time>2022-07-11T08:05:17Z</time>
      </trkpt>
      <trkpt lat="47.76485" lon="5.10212">
        <ele>422.96</ele>
        <time>2022-07-11T08:05:19Z</time>
      </trkpt>
      <trkpt lat="47.76482" lon="5.10213">
        <ele>422.73</ele>
        <time>2022-07-11T08:05:21Z</time>
      </trkpt>
      <trkpt lat="47.7648" lon="5.10215">
        <ele>422.74</ele>
        <time>2022-07-11T08:05:23Z</time>
      </trkpt>
      <trkpt lat="47.76477" lon="5.10217">
        <ele>422.69</ele>
        <time>2022-07-11T08:05:25Z</time>
      </trkpt>
      <trkpt lat="47.76474" lon="5.10218">
        <ele>422.55</ele>
        <time>2022-07-11T08:05:27Z</time>
      </trkpt>
      <trkpt lat="47.76471" lon="5.10218">
        <ele>422.33</ele>
        <time>2022-07-11T08:05:29Z</time>
      </trkpt>
      <trkpt lat="47.76467" lon="5.10218">
        <ele>422.15</ele>
        <time>2022-07-11T08:05:31Z</time>
      </trkpt>
      <trkpt lat="47.76464" lon="5.10217">
        <ele>421.84</ele>
        <time>2022-07-11T08:05:33Z</time>
      </trkpt>
      <trkpt lat="47.76461" lon="5.10217">
        <ele>421.69</ele>
        <time>2022-07-11T08:05:35Z</time>
      </trkpt>
      <trkpt lat="47.76458" lon="5.10217">
        <ele>421.54</ele>
        <time>2022-07-11T08:05:38Z</time>
      </trkpt>
      <trkpt lat="47.76455" lon="5.10217">
        <ele>421.39</ele>
        <time>2022-07-11T08:05:41Z</time>
      </trkpt>
      <trkpt lat="47.76452" lon="5.10218">
        <ele>421.44</ele>
        <time>2022-07-11T08:05:42Z</time>
      </trkpt>
      <trkpt lat="47.76448" lon="5.10218">
        <ele>421.25</ele>
        <time>2022-07-11T08:05:47Z</time>
      </trkpt>
      <trkpt lat="47.76446" lon="5.10217">
        <ele>420.95</ele>
        <time>2022-07-11T08:05:49Z</time>
      </trkpt>
      <trkpt lat="47.76443" lon="5.10215">
        <ele>420.18</ele>
        <time>2022-07-11T08:05:52Z</time>
      </trkpt>
      <trkpt lat="47.7644" lon="5.10213">
        <ele>419.21</ele>
        <time>2022-07-11T08:05:54Z</time>
      </trkpt>
      <trkpt lat="47.76437" lon="5.1021">
        <ele>418.02</ele>
        <time>2022-07-11T08:05:56Z</time>
      </trkpt>
      <trkpt lat="47.76435" lon="5.10208">
        <ele>417.23</ele>
        <time>2022-07-11T08:05:58Z</time>
      </trkpt>
      <trkpt lat="47.76432" lon="5.10206">
        <ele>416.26</ele>
        <time>2022-07-11T08:06:00Z</time>
      </trkpt>
      <trkpt lat="47.76429" lon="5.10205">
        <ele>415.5</ele>
        <time>2022-07-11T08:06:03Z</time>
      </trkpt>
      <trkpt lat="47.76425" lon="5.10204">
        <ele>414.56</ele>
        <time>2022-07-11T08:06:06Z</time>
      </trkpt>
      <trkpt lat="47.76423" lon="5.10204">
        <ele>414.2</ele>
        <time>2022-07-11T08:06:07Z</time>
      </trkpt>
      <trkpt lat="47.76418" lon="5.10204">
        <ele>413.3</ele>
        <time>2022-07-11T08:06:10Z</time>
      </trkpt>
      <trkpt lat="47.76415" lon="5.10205">
        <ele>412.85</ele>
        <time>2022-07-11T08:06:12Z</time>
      </trkpt>
      <trkpt lat="47.76411" lon="5.10205">
        <ele>411.8</ele>
        <time>2022-07-11T08:06:14Z</time>
      </trkpt>
      <trkpt lat="47.76408" lon="5.10206">
        <ele>411.26</ele>
        <time>2022-07-11T08:06:16Z</time>
      </trkpt>
      <trkpt lat="47.76405" lon="5.10205">
        <ele>410.24</ele>
        <time>2022-07-11T08:06:17Z</time>
      </trkpt>
      <trkpt lat="47.76402" lon="5.10205">
        <ele>409.46</ele>
        <time>2022-07-11T08:06:19Z</time>
      </trkpt>
      <trkpt lat="47.76399" lon="5.10205">
        <ele>408.68</ele>
        <time>2022-07-11T08:06:20Z</time>
      </trkpt>
      <trkpt lat="47.76396" lon="5.10205">
        <ele>407.89</ele>
        <time>2022-07-11T08:06:22Z</time>
      </trkpt>
      <trkpt lat="47.76393" lon="5.10205">
        <ele>407.11</ele>
        <time>2022-07-11T08:06:24Z</time>
      </trkpt>
      <trkpt lat="47.7639" lon="5.10205">
        <ele>406.33</ele>
        <time>2022-07-11T08:06:25Z</time>
      </trkpt>
      <trkpt lat="47.76387" lon="5.10205">
        <ele>406</ele>
        <time>2022-07-11T08:06:28Z</time>
      </trkpt>
      <trkpt lat="47.76384" lon="5.10205">
        <ele>405.95</ele>
        <time>2022-07-11T08:06:30Z</time>
      </trkpt>
      <trkpt lat="47.76381" lon="5.10205">
        <ele>405.89</ele>
        <time>2022-07-11T08:06:33Z</time>
      </trkpt>
      <trkpt lat="47.76378" lon="5.10203">
        <ele>405.37</ele>
        <time>2022-07-11T08:06:35Z</time>
      </trkpt>
      <trkpt lat="47.76376" lon="5.10202">
        <ele>405.14</ele>
        <time>2022-07-11T08:06:38Z</time>
      </trkpt>
      <trkpt lat="47.76373" lon="5.102">
        <ele>404.71</ele>
        <time>2022-07-11T08:06:40Z</time>
      </trkpt>
      <trkpt lat="47.7637" lon="5.10199">
        <ele>404.55</ele>
        <time>2022-07-11T08:06:42Z</time>
      </trkpt>
      <trkpt lat="47.76367" lon="5.10198">
        <ele>404.41</ele>
        <time>2022-07-11T08:06:44Z</time>
      </trkpt>
      <trkpt lat="47.76364" lon="5.10197">
        <ele>404.3</ele>
        <time>2022-07-11T08:06:46Z</time>
      </trkpt>
      <trkpt lat="47.76361" lon="5.10196">
        <ele>404.21</ele>
        <time>2022-07-11T08:06:49Z</time>
      </trkpt>
      <trkpt lat="47.76358" lon="5.10194">
        <ele>403.53</ele>
        <time>2022-07-11T08:06:52Z</time>
      </trkpt>
      <trkpt lat="47.76355" lon="5.10193">
        <ele>402.91</ele>
        <time>2022-07-11T08:06:54Z</time>
      </trkpt>
      <trkpt lat="47.76353" lon="5.10191">
        <ele>402.12</ele>
        <time>2022-07-11T08:06:56Z</time>
      </trkpt>
      <trkpt lat="47.7635" lon="5.10189">
        <ele>401.27</ele>
        <time>2022-07-11T08:06:59Z</time>
      </trkpt>
      <trkpt lat="47.76347" lon="5.10187">
        <ele>400.47</ele>
        <time>2022-07-11T08:07:01Z</time>
      </trkpt>
      <trkpt lat="47.76344" lon="5.10185">
        <ele>399.72</ele>
        <time>2022-07-11T08:07:04Z</time>
      </trkpt>
      <trkpt lat="47.76342" lon="5.10183">
        <ele>399.08</ele>
        <time>2022-07-11T08:07:09Z</time>
      </trkpt>
      <trkpt lat="47.76339" lon="5.10182">
        <ele>398.65</ele>
        <time>2022-07-11T08:07:12Z</time>
      </trkpt>
      <trkpt lat="47.76336" lon="5.10181">
        <ele>398.24</ele>
        <time>2022-07-11T08:07:14Z</time>
      </trkpt>
      <trkpt lat="47.76333" lon="5.1018">
        <ele>397.95</ele>
        <time>2022-07-11T08:07:15Z</time>
      </trkpt>
      <trkpt lat="47.7633" lon="5.1018">
        <ele>398.6</ele>
        <time>2022-07-11T08:07:17Z</time>
      </trkpt>
      <trkpt lat="47.76327" lon="5.1018">
        <ele>399.24</ele>
        <time>2022-07-11T08:07:19Z</time>
      </trkpt>
      <trkpt lat="47.76323" lon="5.1018">
        <ele>400.1</ele>
        <time>2022-07-11T08:07:21Z</time>
      </trkpt>
      <trkpt lat="47.7632" lon="5.10179">
        <ele>400.49</ele>
        <time>2022-07-11T08:07:23Z</time>
      </trkpt>
      <trkpt lat="47.76316" lon="5.10178">
        <ele>401.08</ele>
        <time>2022-07-11T08:07:25Z</time>
      </trkpt>
      <trkpt lat="47.76314" lon="5.10177">
        <ele>401.23</ele>
        <time>2022-07-11T08:07:27Z</time>
      </trkpt>
      <trkpt lat="47.7631" lon="5.10176">
        <ele>401.78</ele>
        <time>2022-07-11T08:07:29Z</time>
      </trkpt>
      <trkpt lat="47.76307" lon="5.10174">
        <ele>401.82</ele>
        <time>2022-07-11T08:07:31Z</time>
      </trkpt>
      <trkpt lat="47.76304" lon="5.10173">
        <ele>401.98</ele>
        <time>2022-07-11T08:07:35Z</time>
      </trkpt>
      <trkpt lat="47.76302" lon="5.10171">
        <ele>401.61</ele>
        <time>2022-07-11T08:07:38Z</time>
      </trkpt>
      <trkpt lat="47.76299" lon="5.10169">
        <ele>401.36</ele>
        <time>2022-07-11T08:07:41Z</time>
      </trkpt>
      <trkpt lat="47.76296" lon="5.10169">
        <ele>401.68</ele>
        <time>2022-07-11T08:07:43Z</time>
      </trkpt>
      <trkpt lat="47.76293" lon="5.10168">
        <ele>401.72</ele>
        <time>2022-07-11T08:07:46Z</time>
      </trkpt>
      <trkpt lat="47.7629" lon="5.10167">
        <ele>401.77</ele>
        <time>2022-07-11T08:07:50Z</time>
      </trkpt>
      <trkpt lat="47.76287" lon="5.10166">
        <ele>401.8</ele>
        <time>2022-07-11T08:07:54Z</time>
      </trkpt>
      <trkpt lat="47.76284" lon="5.10165">
        <ele>401.83</ele>
        <time>2022-07-11T08:07:58Z</time>
      </trkpt>
      <trkpt lat="47.76281" lon="5.10165">
        <ele>402.17</ele>
        <time>2022-07-11T08:08:00Z</time>
      </trkpt>
      <trkpt lat="47.76278" lon="5.10165">
        <ele>402.5</ele>
        <time>2022-07-11T08:08:03Z</time>
      </trkpt>
      <trkpt lat="47.76275" lon="5.10165">
        <ele>402.13</ele>
        <time>2022-07-11T08:08:06Z</time>
      </trkpt>
      <trkpt lat="47.76272" lon="5.10164">
        <ele>401.42</ele>
        <time>2022-07-11T08:08:08Z</time>
      </trkpt>
      <trkpt lat="47.76268" lon="5.10163">
        <ele>400.58</ele>
        <time>2022-07-11T08:08:12Z</time>
      </trkpt>
      <trkpt lat="47.76264" lon="5.10162">
        <ele>399.76</ele>
        <time>2022-07-11T08:08:13Z</time>
      </trkpt>
      <trkpt lat="47.76261" lon="5.10161">
        <ele>399.08</ele>
        <time>2022-07-11T08:08:16Z</time>
      </trkpt>
      <trkpt lat="47.76258" lon="5.1016">
        <ele>398.4</ele>
        <time>2022-07-11T08:08:18Z</time>
      </trkpt>
      <trkpt lat="47.76255" lon="5.10159">
        <ele>397.74</ele>
        <time>2022-07-11T08:08:20Z</time>
      </trkpt>
      <trkpt lat="47.76251" lon="5.10159">
        <ele>397.2</ele>
        <time>2022-07-11T08:08:22Z</time>
      </trkpt>
      <trkpt lat="47.76248" lon="5.10158">
        <ele>396.6</ele>
        <time>2022-07-11T08:08:25Z</time>
      </trkpt>
      <trkpt lat="47.76245" lon="5.10158">
        <ele>396.26</ele>
        <time>2022-07-11T08:08:27Z</time>
      </trkpt>
      <trkpt lat="47.76242" lon="5.10157">
        <ele>395.71</ele>
        <time>2022-07-11T08:08:28Z</time>
      </trkpt>
      <trkpt lat="47.76237" lon="5.10156">
        <ele>394.98</ele>
        <time>2022-07-11T08:08:31Z</time>
      </trkpt>
      <trkpt lat="47.76234" lon="5.10154">
        <ele>394.29</ele>
        <time>2022-07-11T08:08:33Z</time>
      </trkpt>
      <trkpt lat="47.76231" lon="5.10152">
        <ele>393.65</ele>
        <time>2022-07-11T08:08:35Z</time>
      </trkpt>
      <trkpt lat="47.76229" lon="5.10149">
        <ele>392.97</ele>
        <time>2022-07-11T08:08:38Z</time>
      </trkpt>
      <trkpt lat="47.76227" lon="5.10145">
        <ele>392.17</ele>
        <time>2022-07-11T08:08:42Z</time>
      </trkpt>
      <trkpt lat="47.76224" lon="5.10143">
        <ele>391.68</ele>
        <time>2022-07-11T08:08:44Z</time>
      </trkpt>
      <trkpt lat="47.76221" lon="5.10141">
        <ele>391.3</ele>
        <time>2022-07-11T08:08:47Z</time>
      </trkpt>
      <trkpt lat="47.76219" lon="5.10139">
        <ele>391.02</ele>
        <time>2022-07-11T08:08:49Z</time>
      </trkpt>
      <trkpt lat="47.76217" lon="5.10136">
        <ele>390.58</ele>
        <time>2022-07-11T08:08:51Z</time>
      </trkpt>
      <trkpt lat="47.76215" lon="5.10132">
        <ele>390.01</ele>
        <time>2022-07-11T08:08:53Z</time>
      </trkpt>
      <trkpt lat="47.76214" lon="5.10129">
        <ele>389.58</ele>
        <time>2022-07-11T08:08:56Z</time>
      </trkpt>
      <trkpt lat="47.76213" lon="5.10124">
        <ele>388.86</ele>
        <time>2022-07-11T08:08:59Z</time>
      </trkpt>
      <trkpt lat="47.76212" lon="5.10121">
        <ele>388.42</ele>
        <time>2022-07-11T08:09:02Z</time>
      </trkpt>
      <trkpt lat="47.76211" lon="5.10116">
        <ele>387.7</ele>
        <time>2022-07-11T08:09:06Z</time>
      </trkpt>
      <trkpt lat="47.76209" lon="5.10112">
        <ele>387.13</ele>
        <time>2022-07-11T08:09:12Z</time>
      </trkpt>
      <trkpt lat="47.76208" lon="5.10107">
        <ele>386.56</ele>
        <time>2022-07-11T08:09:16Z</time>
      </trkpt>
      <trkpt lat="47.76207" lon="5.10103">
        <ele>386.12</ele>
        <time>2022-07-11T08:09:19Z</time>
      </trkpt>
      <trkpt lat="47.76206" lon="5.10099">
        <ele>385.69</ele>
        <time>2022-07-11T08:09:23Z</time>
      </trkpt>
      <trkpt lat="47.76203" lon="5.10097">
        <ele>385.48</ele>
        <time>2022-07-11T08:09:25Z</time>
      </trkpt>
      <trkpt lat="47.76201" lon="5.10095">
        <ele>385.26</ele>
        <time>2022-07-11T08:09:28Z</time>
      </trkpt>
      <trkpt lat="47.762" lon="5.10091">
        <ele>384.83</ele>
        <time>2022-07-11T08:09:39Z</time>
      </trkpt>
      <trkpt lat="47.762" lon="5.10087">
        <ele>384.4</ele>
        <time>2022-07-11T08:10:49Z</time>
      </trkpt>
      <trkpt lat="47.762" lon="5.10083">
        <ele>383.97</ele>
        <time>2022-07-11T08:11:01Z</time>
      </trkpt>
      <trkpt lat="47.76197" lon="5.10079">
        <ele>383.56</ele>
        <time>2022-07-11T08:11:47Z</time>
      </trkpt>
      <trkpt lat="47.76196" lon="5.10074">
        <ele>383.03</ele>
        <time>2022-07-11T08:11:49Z</time>
      </trkpt>
      <trkpt lat="47.76195" lon="5.10071">
        <ele>382.69</ele>
        <time>2022-07-11T08:11:51Z</time>
      </trkpt>
      <trkpt lat="47.76192" lon="5.10069">
        <ele>382.23</ele>
        <time>2022-07-11T08:12:04Z</time>
      </trkpt>
      <trkpt lat="47.76191" lon="5.10066">
        <ele>381.83</ele>
        <time>2022-07-11T08:12:12Z</time>
      </trkpt>
      <trkpt lat="47.76189" lon="5.10063">
        <ele>381.36</ele>
        <time>2022-07-11T08:12:17Z</time>
      </trkpt>
      <trkpt lat="47.76187" lon="5.1006">
        <ele>380.9</ele>
        <time>2022-07-11T08:12:22Z</time>
      </trkpt>
      <trkpt lat="47.76186" lon="5.10056">
        <ele>380.44</ele>
        <time>2022-07-11T08:12:28Z</time>
      </trkpt>
      <trkpt lat="47.76186" lon="5.10052">
        <ele>380.47</ele>
        <time>2022-07-11T08:12:32Z</time>
      </trkpt>
      <trkpt lat="47.76185" lon="5.10048">
        <ele>380.5</ele>
        <time>2022-07-11T08:12:38Z</time>
      </trkpt>
      <trkpt lat="47.76184" lon="5.10043">
        <ele>380.59</ele>
        <time>2022-07-11T08:12:44Z</time>
      </trkpt>
      <trkpt lat="47.76183" lon="5.10039">
        <ele>380.67</ele>
        <time>2022-07-11T08:12:49Z</time>
      </trkpt>
      <trkpt lat="47.76182" lon="5.10036">
        <ele>380.73</ele>
        <time>2022-07-11T08:12:54Z</time>
      </trkpt>
      <trkpt lat="47.7618" lon="5.10033">
        <ele>380.8</ele>
        <time>2022-07-11T08:12:58Z</time>
      </trkpt>
      <trkpt lat="47.76178" lon="5.10029">
        <ele>380.95</ele>
        <time>2022-07-11T08:13:02Z</time>
      </trkpt>
      <trkpt lat="47.76176" lon="5.10026">
        <ele>380.94</ele>
        <time>2022-07-11T08:13:05Z</time>
      </trkpt>
      <trkpt lat="47.76174" lon="5.10023">
        <ele>380.79</ele>
        <time>2022-07-11T08:13:11Z</time>
      </trkpt>
      <trkpt lat="47.76171" lon="5.10021">
        <ele>380.63</ele>
        <time>2022-07-11T08:13:15Z</time>
      </trkpt>
      <trkpt lat="47.76169" lon="5.10018">
        <ele>380.38</ele>
        <time>2022-07-11T08:13:22Z</time>
      </trkpt>
      <trkpt lat="47.76166" lon="5.10016">
        <ele>380.13</ele>
        <time>2022-07-11T08:13:26Z</time>
      </trkpt>
      <trkpt lat="47.76163" lon="5.10014">
        <ele>379.88</ele>
        <time>2022-07-11T08:13:31Z</time>
      </trkpt>
      <trkpt lat="47.76161" lon="5.10011">
        <ele>379.55</ele>
        <time>2022-07-11T08:13:35Z</time>
      </trkpt>
      <trkpt lat="47.76158" lon="5.1001">
        <ele>379.32</ele>
        <time>2022-07-11T08:13:39Z</time>
      </trkpt>
      <trkpt lat="47.76156" lon="5.10008">
        <ele>379.03</ele>
        <time>2022-07-11T08:13:43Z</time>
      </trkpt>
      <trkpt lat="47.76153" lon="5.10007">
        <ele>378.77</ele>
        <time>2022-07-11T08:13:52Z</time>
      </trkpt>
      <trkpt lat="47.7615" lon="5.10005">
        <ele>378.38</ele>
        <time>2022-07-11T08:13:54Z</time>
      </trkpt>
      <trkpt lat="47.76148" lon="5.10003">
        <ele>378.02</ele>
        <time>2022-07-11T08:13:58Z</time>
      </trkpt>
      <trkpt lat="47.76145" lon="5.10001">
        <ele>377.57</ele>
        <time>2022-07-11T08:14:02Z</time>
      </trkpt>
      <trkpt lat="47.76142" lon="5.09999">
        <ele>377.21</ele>
        <time>2022-07-11T08:14:06Z</time>
      </trkpt>
      <trkpt lat="47.7614" lon="5.09997">
        <ele>376.99</ele>
        <time>2022-07-11T08:14:09Z</time>
      </trkpt>
      <trkpt lat="47.76137" lon="5.09994">
        <ele>376.63</ele>
        <time>2022-07-11T08:14:12Z</time>
      </trkpt>
      <trkpt lat="47.76135" lon="5.09991">
        <ele>376.26</ele>
        <time>2022-07-11T08:14:14Z</time>
      </trkpt>
      <trkpt lat="47.76132" lon="5.09988">
        <ele>375.68</ele>
        <time>2022-07-11T08:14:18Z</time>
      </trkpt>
      <trkpt lat="47.76129" lon="5.09987">
        <ele>375.18</ele>
        <time>2022-07-11T08:14:20Z</time>
      </trkpt>
      <trkpt lat="47.76126" lon="5.09986">
        <ele>374.63</ele>
        <time>2022-07-11T08:14:23Z</time>
      </trkpt>
      <trkpt lat="47.76125" lon="5.09982">
        <ele>373.91</ele>
        <time>2022-07-11T08:14:28Z</time>
      </trkpt>
      <trkpt lat="47.76124" lon="5.09978">
        <ele>373.12</ele>
        <time>2022-07-11T08:14:32Z</time>
      </trkpt>
      <trkpt lat="47.76123" lon="5.09974">
        <ele>372.28</ele>
        <time>2022-07-11T08:14:35Z</time>
      </trkpt>
      <trkpt lat="47.76121" lon="5.0997">
        <ele>371.68</ele>
        <time>2022-07-11T08:14:39Z</time>
      </trkpt>
      <trkpt lat="47.7612" lon="5.09966">
        <ele>371.77</ele>
        <time>2022-07-11T08:14:46Z</time>
      </trkpt>
      <trkpt lat="47.76119" lon="5.09962">
        <ele>371.88</ele>
        <time>2022-07-11T08:14:51Z</time>
      </trkpt>
      <trkpt lat="47.76118" lon="5.09958">
        <ele>372.02</ele>
        <time>2022-07-11T08:14:56Z</time>
      </trkpt>
      <trkpt lat="47.76117" lon="5.09954">
        <ele>372.17</ele>
        <time>2022-07-11T08:15:01Z</time>
      </trkpt>
      <trkpt lat="47.76116" lon="5.0995">
        <ele>372.35</ele>
        <time>2022-07-11T08:15:06Z</time>
      </trkpt>
      <trkpt lat="47.76115" lon="5.09946">
        <ele>372.55</ele>
        <time>2022-07-11T08:15:10Z</time>
      </trkpt>
      <trkpt lat="47.76113" lon="5.09943">
        <ele>372.54</ele>
        <time>2022-07-11T08:15:16Z</time>
      </trkpt>
      <trkpt lat="47.76112" lon="5.09939">
        <ele>372.93</ele>
        <time>2022-07-11T08:15:22Z</time>
      </trkpt>
      <trkpt lat="47.76109" lon="5.09937">
        <ele>373.03</ele>
        <time>2022-07-11T08:15:32Z</time>
      </trkpt>
      <trkpt lat="47.76108" lon="5.09933">
        <ele>373.56</ele>
        <time>2022-07-11T08:15:37Z</time>
      </trkpt>
      <trkpt lat="47.76109" lon="5.09929">
        <ele>374.14</ele>
        <time>2022-07-11T08:15:41Z</time>
      </trkpt>
      <trkpt lat="47.76111" lon="5.09925">
        <ele>374.79</ele>
        <time>2022-07-11T08:15:45Z</time>
      </trkpt>
      <trkpt lat="47.76112" lon="5.09922">
        <ele>375.34</ele>
        <time>2022-07-11T08:15:53Z</time>
      </trkpt>
      <trkpt lat="47.76113" lon="5.09918">
        <ele>376.02</ele>
        <time>2022-07-11T08:15:57Z</time>
      </trkpt>
      <trkpt lat="47.76114" lon="5.09913">
        <ele>376.46</ele>
        <time>2022-07-11T08:16:01Z</time>
      </trkpt>
      <trkpt lat="47.76113" lon="5.09909">
        <ele>376.5</ele>
        <time>2022-07-11T08:16:05Z</time>
      </trkpt>
      <trkpt lat="47.76112" lon="5.09904">
        <ele>376.57</ele>
        <time>2022-07-11T08:16:12Z</time>
      </trkpt>
      <trkpt lat="47.7611" lon="5.09901">
        <ele>376.55</ele>
        <time>2022-07-11T08:16:17Z</time>
      </trkpt>
      <trkpt lat="47.76107" lon="5.09899">
        <ele>376.62</ele>
        <time>2022-07-11T08:16:20Z</time>
      </trkpt>
      <trkpt lat="47.76105" lon="5.09897">
        <ele>376.74</ele>
        <time>2022-07-11T08:16:25Z</time>
      </trkpt>
      <trkpt lat="47.76105" lon="5.09892">
        <ele>377.03</ele>
        <time>2022-07-11T08:16:34Z</time>
      </trkpt>
      <trkpt lat="47.76105" lon="5.09888">
        <ele>377.32</ele>
        <time>2022-07-11T08:16:39Z</time>
      </trkpt>
      <trkpt lat="47.76105" lon="5.09884">
        <ele>377.75</ele>
        <time>2022-07-11T08:16:44Z</time>
      </trkpt>
      <trkpt lat="47.76104" lon="5.0988">
        <ele>378.22</ele>
        <time>2022-07-11T08:16:49Z</time>
      </trkpt>
      <trkpt lat="47.76104" lon="5.09876">
        <ele>378.65</ele>
        <time>2022-07-11T08:16:54Z</time>
      </trkpt>
      <trkpt lat="47.76101" lon="5.09874">
        <ele>378.97</ele>
        <time>2022-07-11T08:16:57Z</time>
      </trkpt>
      <trkpt lat="47.76098" lon="5.09872">
        <ele>379.3</ele>
        <time>2022-07-11T08:17:01Z</time>
      </trkpt>
      <trkpt lat="47.76095" lon="5.09871">
        <ele>379.51</ele>
        <time>2022-07-11T08:17:04Z</time>
      </trkpt>
      <trkpt lat="47.76093" lon="5.0987">
        <ele>379.69</ele>
        <time>2022-07-11T08:17:08Z</time>
      </trkpt>
      <trkpt lat="47.76091" lon="5.09866">
        <ele>380.2</ele>
        <time>2022-07-11T08:17:12Z</time>
      </trkpt>
      <trkpt lat="47.7609" lon="5.09862">
        <ele>380.66</ele>
        <time>2022-07-11T08:17:16Z</time>
      </trkpt>
      <trkpt lat="47.76088" lon="5.09859">
        <ele>380.66</ele>
        <time>2022-07-11T08:17:20Z</time>
      </trkpt>
      <trkpt lat="47.76086" lon="5.09857">
        <ele>380.52</ele>
        <time>2022-07-11T08:17:23Z</time>
      </trkpt>
      <trkpt lat="47.76083" lon="5.09855">
        <ele>380.28</ele>
        <time>2022-07-11T08:17:26Z</time>
      </trkpt>
      <trkpt lat="47.76081" lon="5.09853">
        <ele>379.69</ele>
        <time>2022-07-11T08:17:30Z</time>
      </trkpt>
      <trkpt lat="47.76078" lon="5.0985">
        <ele>378.88</ele>
        <time>2022-07-11T08:17:33Z</time>
      </trkpt>
      <trkpt lat="47.76076" lon="5.09847">
        <ele>378.29</ele>
        <time>2022-07-11T08:17:36Z</time>
      </trkpt>
      <trkpt lat="47.76075" lon="5.09843">
        <ele>377.83</ele>
        <time>2022-07-11T08:17:40Z</time>
      </trkpt>
      <trkpt lat="47.76072" lon="5.0984">
        <ele>377.2</ele>
        <time>2022-07-11T08:17:46Z</time>
      </trkpt>
      <trkpt lat="47.76069" lon="5.09839">
        <ele>376.75</ele>
        <time>2022-07-11T08:17:50Z</time>
      </trkpt>
      <trkpt lat="47.76067" lon="5.09839">
        <ele>376.49</ele>
        <time>2022-07-11T08:17:53Z</time>
      </trkpt>
      <trkpt lat="47.76064" lon="5.09839">
        <ele>376.1</ele>
        <time>2022-07-11T08:17:59Z</time>
      </trkpt>
      <trkpt lat="47.76061" lon="5.0984">
        <ele>375.73</ele>
        <time>2022-07-11T08:18:08Z</time>
      </trkpt>
      <trkpt lat="47.76059" lon="5.09836">
        <ele>375.41</ele>
        <time>2022-07-11T08:18:17Z</time>
      </trkpt>
      <trkpt lat="47.76058" lon="5.09833">
        <ele>375.22</ele>
        <time>2022-07-11T08:18:23Z</time>
      </trkpt>
      <trkpt lat="47.76056" lon="5.09829">
        <ele>374.44</ele>
        <time>2022-07-11T08:18:27Z</time>
      </trkpt>
      <trkpt lat="47.76055" lon="5.09825">
        <ele>373.52</ele>
        <time>2022-07-11T08:18:31Z</time>
      </trkpt>
      <trkpt lat="47.76053" lon="5.09821">
        <ele>372.04</ele>
        <time>2022-07-11T08:18:33Z</time>
      </trkpt>
      <trkpt lat="47.76052" lon="5.09817">
        <ele>371.13</ele>
        <time>2022-07-11T08:18:38Z</time>
      </trkpt>
      <trkpt lat="47.76051" lon="5.09814">
        <ele>370.39</ele>
        <time>2022-07-11T08:18:50Z</time>
      </trkpt>
      <trkpt lat="47.76053" lon="5.0981">
        <ele>370.71</ele>
        <time>2022-07-11T08:18:57Z</time>
      </trkpt>
      <trkpt lat="47.76054" lon="5.09807">
        <ele>370.68</ele>
        <time>2022-07-11T08:19:08Z</time>
      </trkpt>
      <trkpt lat="47.76054" lon="5.09811">
        <ele>371.2</ele>
        <time>2022-07-11T08:21:24Z</time>
      </trkpt>
      <trkpt lat="47.76054" lon="5.09815">
        <ele>371.72</ele>
        <time>2022-07-11T08:21:36Z</time>
      </trkpt>
      <trkpt lat="47.76051" lon="5.09817">
        <ele>370.7</ele>
        <time>2022-07-11T08:21:53Z</time>
      </trkpt>
      <trkpt lat="47.76053" lon="5.09814">
        <ele>371.19</ele>
        <time>2022-07-11T08:22:17Z</time>
      </trkpt>
      <trkpt lat="47.76056" lon="5.09813">
        <ele>372.2</ele>
        <time>2022-07-11T08:22:21Z</time>
      </trkpt>
      <trkpt lat="47.76059" lon="5.09814">
        <ele>373.19</ele>
        <time>2022-07-11T08:22:24Z</time>
      </trkpt>
      <trkpt lat="47.76062" lon="5.09814">
        <ele>374.04</ele>
        <time>2022-07-11T08:22:30Z</time>
      </trkpt>
      <trkpt lat="47.7606" lon="5.09817">
        <ele>373.79</ele>
        <time>2022-07-11T08:22:44Z</time>
      </trkpt>
      <trkpt lat="47.76057" lon="5.09817">
        <ele>373.02</ele>
        <time>2022-07-11T08:22:52Z</time>
      </trkpt>
      <trkpt lat="47.76056" lon="5.09814">
        <ele>372.34</ele>
        <time>2022-07-11T08:22:58Z</time>
      </trkpt>
      <trkpt lat="47.76053" lon="5.09811">
        <ele>370.83</ele>
        <time>2022-07-11T08:23:04Z</time>
      </trkpt>
      <trkpt lat="47.76052" lon="5.09807">
        <ele>370.01</ele>
        <time>2022-07-11T08:23:09Z</time>
      </trkpt>
      <trkpt lat="47.7605" lon="5.0981">
        <ele>369.62</ele>
        <time>2022-07-11T08:23:44Z</time>
      </trkpt>
      <trkpt lat="47.76046" lon="5.09814">
        <ele>368.39</ele>
        <time>2022-07-11T08:23:48Z</time>
      </trkpt>
      <trkpt lat="47.76045" lon="5.09807">
        <ele>367.65</ele>
        <time>2022-07-11T08:23:59Z</time>
      </trkpt>
      <trkpt lat="47.76055" lon="5.09809">
        <ele>371.3</ele>
        <time>2022-07-11T08:24:10Z</time>
      </trkpt>
      <trkpt lat="47.76075" lon="5.09807">
        <ele>377.95</ele>
        <time>2022-07-11T08:24:13Z</time>
      </trkpt>
      <trkpt lat="47.76083" lon="5.09807">
        <ele>380.73</ele>
        <time>2022-07-11T08:24:16Z</time>
      </trkpt>
      <trkpt lat="47.76072" lon="5.09798">
        <ele>375.89</ele>
        <time>2022-07-11T08:24:29Z</time>
      </trkpt>
      <trkpt lat="47.76066" lon="5.09815">
        <ele>375.23</ele>
        <time>2022-07-11T08:24:32Z</time>
      </trkpt>
      <trkpt lat="47.76062" lon="5.09827">
        <ele>375.15</ele>
        <time>2022-07-11T08:24:36Z</time>
      </trkpt>
      <trkpt lat="47.76057" lon="5.09823">
        <ele>373.8</ele>
        <time>2022-07-11T08:24:42Z</time>
      </trkpt>
      <trkpt lat="47.76056" lon="5.09817">
        <ele>372.76</ele>
        <time>2022-07-11T08:24:52Z</time>
      </trkpt>
      <trkpt lat="47.76053" lon="5.09814">
        <ele>371.19</ele>
        <time>2022-07-11T08:25:07Z</time>
      </trkpt>
      <trkpt lat="47.7605" lon="5.0981">
        <ele>369.62</ele>
        <time>2022-07-11T08:25:21Z</time>
      </trkpt>
      <trkpt lat="47.76046" lon="5.09809">
        <ele>368.1</ele>
        <time>2022-07-11T08:25:41Z</time>
      </trkpt>
      <trkpt lat="47.76048" lon="5.09807">
        <ele>368.66</ele>
        <time>2022-07-11T08:25:55Z</time>
      </trkpt>
      <trkpt lat="47.7605" lon="5.09809">
        <ele>369.52</ele>
        <time>2022-07-11T08:26:02Z</time>
      </trkpt>
      <trkpt lat="47.76053" lon="5.0981">
        <ele>370.71</ele>
        <time>2022-07-11T08:26:09Z</time>
      </trkpt>
      <trkpt lat="47.76056" lon="5.09812">
        <ele>372.06</ele>
        <time>2022-07-11T08:26:17Z</time>
      </trkpt>
      <trkpt lat="47.76059" lon="5.09814">
        <ele>373.19</ele>
        <time>2022-07-11T08:26:32Z</time>
      </trkpt>
      <trkpt lat="47.76061" lon="5.09815">
        <ele>373.85</ele>
        <time>2022-07-11T08:26:38Z</time>
      </trkpt>
      <trkpt lat="47.76063" lon="5.09819">
        <ele>374.71</ele>
        <time>2022-07-11T08:26:45Z</time>
      </trkpt>
      <trkpt lat="47.76065" lon="5.09822">
        <ele>375.36</ele>
        <time>2022-07-11T08:26:50Z</time>
      </trkpt>
      <trkpt lat="47.76068" lon="5.09825">
        <ele>376.08</ele>
        <time>2022-07-11T08:26:55Z</time>
      </trkpt>
      <trkpt lat="47.76071" lon="5.09826">
        <ele>376.64</ele>
        <time>2022-07-11T08:26:58Z</time>
      </trkpt>
      <trkpt lat="47.76074" lon="5.09827">
        <ele>377.14</ele>
        <time>2022-07-11T08:27:01Z</time>
      </trkpt>
      <trkpt lat="47.76076" lon="5.09829">
        <ele>377.39</ele>
        <time>2022-07-11T08:27:04Z</time>
      </trkpt>
      <trkpt lat="47.76079" lon="5.09831">
        <ele>377.69</ele>
        <time>2022-07-11T08:27:07Z</time>
      </trkpt>
      <trkpt lat="47.76082" lon="5.09833">
        <ele>377.89</ele>
        <time>2022-07-11T08:27:10Z</time>
      </trkpt>
      <trkpt lat="47.76084" lon="5.09836">
        <ele>378.35</ele>
        <time>2022-07-11T08:27:13Z</time>
      </trkpt>
      <trkpt lat="47.76086" lon="5.09839">
        <ele>378.82</ele>
        <time>2022-07-11T08:27:16Z</time>
      </trkpt>
      <trkpt lat="47.76088" lon="5.09843">
        <ele>379.31</ele>
        <time>2022-07-11T08:27:19Z</time>
      </trkpt>
      <trkpt lat="47.7609" lon="5.09846">
        <ele>379.65</ele>
        <time>2022-07-11T08:27:23Z</time>
      </trkpt>
      <trkpt lat="47.76093" lon="5.09849">
        <ele>379.95</ele>
        <time>2022-07-11T08:27:27Z</time>
      </trkpt>
      <trkpt lat="47.76095" lon="5.09851">
        <ele>380.1</ele>
        <time>2022-07-11T08:27:29Z</time>
      </trkpt>
      <trkpt lat="47.76097" lon="5.09854">
        <ele>380.24</ele>
        <time>2022-07-11T08:27:32Z</time>
      </trkpt>
      <trkpt lat="47.76099" lon="5.09857">
        <ele>380.33</ele>
        <time>2022-07-11T08:27:41Z</time>
      </trkpt>
      <trkpt lat="47.76101" lon="5.0986">
        <ele>380.35</ele>
        <time>2022-07-11T08:27:47Z</time>
      </trkpt>
      <trkpt lat="47.76104" lon="5.09862">
        <ele>380.16</ele>
        <time>2022-07-11T08:27:51Z</time>
      </trkpt>
      <trkpt lat="47.76107" lon="5.09864">
        <ele>379.84</ele>
        <time>2022-07-11T08:27:55Z</time>
      </trkpt>
      <trkpt lat="47.76109" lon="5.09867">
        <ele>379.44</ele>
        <time>2022-07-11T08:27:59Z</time>
      </trkpt>
      <trkpt lat="47.76112" lon="5.09871">
        <ele>379.06</ele>
        <time>2022-07-11T08:28:04Z</time>
      </trkpt>
      <trkpt lat="47.76112" lon="5.09875">
        <ele>378.63</ele>
        <time>2022-07-11T08:28:12Z</time>
      </trkpt>
      <trkpt lat="47.76112" lon="5.09879">
        <ele>378.2</ele>
        <time>2022-07-11T08:28:17Z</time>
      </trkpt>
      <trkpt lat="47.76112" lon="5.09883">
        <ele>377.76</ele>
        <time>2022-07-11T08:28:24Z</time>
      </trkpt>
      <trkpt lat="47.7611" lon="5.09887">
        <ele>377.24</ele>
        <time>2022-07-11T08:28:31Z</time>
      </trkpt>
      <trkpt lat="47.76108" lon="5.09891">
        <ele>377.01</ele>
        <time>2022-07-11T08:28:35Z</time>
      </trkpt>
      <trkpt lat="47.76107" lon="5.09895">
        <ele>376.83</ele>
        <time>2022-07-11T08:28:39Z</time>
      </trkpt>
      <trkpt lat="47.76106" lon="5.09899">
        <ele>376.62</ele>
        <time>2022-07-11T08:28:46Z</time>
      </trkpt>
      <trkpt lat="47.76104" lon="5.09903">
        <ele>376.36</ele>
        <time>2022-07-11T08:28:53Z</time>
      </trkpt>
      <trkpt lat="47.76103" lon="5.09906">
        <ele>376.14</ele>
        <time>2022-07-11T08:28:57Z</time>
      </trkpt>
      <trkpt lat="47.76102" lon="5.0991">
        <ele>375.82</ele>
        <time>2022-07-11T08:29:00Z</time>
      </trkpt>
      <trkpt lat="47.76102" lon="5.09915">
        <ele>375.46</ele>
        <time>2022-07-11T08:29:04Z</time>
      </trkpt>
      <trkpt lat="47.76102" lon="5.09919">
        <ele>375.06</ele>
        <time>2022-07-11T08:29:08Z</time>
      </trkpt>
      <trkpt lat="47.76101" lon="5.09923">
        <ele>374.53</ele>
        <time>2022-07-11T08:29:11Z</time>
      </trkpt>
      <trkpt lat="47.76101" lon="5.09927">
        <ele>374.05</ele>
        <time>2022-07-11T08:29:13Z</time>
      </trkpt>
      <trkpt lat="47.76102" lon="5.09932">
        <ele>373.5</ele>
        <time>2022-07-11T08:29:17Z</time>
      </trkpt>
      <trkpt lat="47.76103" lon="5.09936">
        <ele>373.04</ele>
        <time>2022-07-11T08:29:19Z</time>
      </trkpt>
      <trkpt lat="47.76104" lon="5.09941">
        <ele>372.43</ele>
        <time>2022-07-11T08:29:23Z</time>
      </trkpt>
      <trkpt lat="47.76105" lon="5.09944">
        <ele>372.06</ele>
        <time>2022-07-11T08:29:26Z</time>
      </trkpt>
      <trkpt lat="47.76108" lon="5.09947">
        <ele>371.73</ele>
        <time>2022-07-11T08:29:29Z</time>
      </trkpt>
      <trkpt lat="47.76109" lon="5.0995">
        <ele>371.42</ele>
        <time>2022-07-11T08:29:34Z</time>
      </trkpt>
      <trkpt lat="47.76111" lon="5.09955">
        <ele>370.86</ele>
        <time>2022-07-11T08:29:38Z</time>
      </trkpt>
      <trkpt lat="47.76113" lon="5.09959">
        <ele>370.84</ele>
        <time>2022-07-11T08:29:42Z</time>
      </trkpt>
      <trkpt lat="47.76115" lon="5.09962">
        <ele>370.98</ele>
        <time>2022-07-11T08:29:44Z</time>
      </trkpt>
      <trkpt lat="47.76117" lon="5.09966">
        <ele>371.06</ele>
        <time>2022-07-11T08:29:48Z</time>
      </trkpt>
      <trkpt lat="47.7612" lon="5.09968">
        <ele>371.6</ele>
        <time>2022-07-11T08:29:52Z</time>
      </trkpt>
      <trkpt lat="47.76123" lon="5.0997">
        <ele>372.17</ele>
        <time>2022-07-11T08:29:54Z</time>
      </trkpt>
      <trkpt lat="47.76126" lon="5.09972">
        <ele>372.77</ele>
        <time>2022-07-11T08:29:59Z</time>
      </trkpt>
      <trkpt lat="47.76128" lon="5.09975">
        <ele>373.59</ele>
        <time>2022-07-11T08:30:03Z</time>
      </trkpt>
      <trkpt lat="47.7613" lon="5.09978">
        <ele>374.37</ele>
        <time>2022-07-11T08:30:11Z</time>
      </trkpt>
      <trkpt lat="47.76132" lon="5.09981">
        <ele>375.05</ele>
        <time>2022-07-11T08:30:17Z</time>
      </trkpt>
      <trkpt lat="47.76133" lon="5.09985">
        <ele>375.56</ele>
        <time>2022-07-11T08:30:22Z</time>
      </trkpt>
      <trkpt lat="47.76135" lon="5.09988">
        <ele>376.07</ele>
        <time>2022-07-11T08:30:26Z</time>
      </trkpt>
      <trkpt lat="47.76136" lon="5.09992">
        <ele>376.43</ele>
        <time>2022-07-11T08:30:29Z</time>
      </trkpt>
      <trkpt lat="47.76136" lon="5.09996">
        <ele>376.66</ele>
        <time>2022-07-11T08:30:33Z</time>
      </trkpt>
      <trkpt lat="47.76138" lon="5.09999">
        <ele>376.93</ele>
        <time>2022-07-11T08:30:37Z</time>
      </trkpt>
      <trkpt lat="47.7614" lon="5.10003">
        <ele>377.5</ele>
        <time>2022-07-11T08:30:42Z</time>
      </trkpt>
      <trkpt lat="47.76142" lon="5.10007">
        <ele>378.18</ele>
        <time>2022-07-11T08:30:46Z</time>
      </trkpt>
      <trkpt lat="47.76144" lon="5.1001">
        <ele>378.68</ele>
        <time>2022-07-11T08:30:52Z</time>
      </trkpt>
      <trkpt lat="47.76145" lon="5.10014">
        <ele>379.23</ele>
        <time>2022-07-11T08:30:55Z</time>
      </trkpt>
      <trkpt lat="47.76147" lon="5.10018">
        <ele>379.8</ele>
        <time>2022-07-11T08:30:59Z</time>
      </trkpt>
      <trkpt lat="47.76148" lon="5.10022">
        <ele>380.3</ele>
        <time>2022-07-11T08:31:04Z</time>
      </trkpt>
      <trkpt lat="47.76148" lon="5.10026">
        <ele>380.79</ele>
        <time>2022-07-11T08:31:08Z</time>
      </trkpt>
      <trkpt lat="47.7615" lon="5.10031">
        <ele>380.98</ele>
        <time>2022-07-11T08:31:10Z</time>
      </trkpt>
      <trkpt lat="47.76151" lon="5.10035">
        <ele>380.92</ele>
        <time>2022-07-11T08:31:12Z</time>
      </trkpt>
      <trkpt lat="47.76153" lon="5.10039">
        <ele>380.79</ele>
        <time>2022-07-11T08:31:14Z</time>
      </trkpt>
      <trkpt lat="47.76156" lon="5.10042">
        <ele>380.57</ele>
        <time>2022-07-11T08:31:16Z</time>
      </trkpt>
      <trkpt lat="47.76159" lon="5.10045">
        <ele>380.27</ele>
        <time>2022-07-11T08:31:19Z</time>
      </trkpt>
      <trkpt lat="47.76161" lon="5.10047">
        <ele>380.04</ele>
        <time>2022-07-11T08:31:21Z</time>
      </trkpt>
      <trkpt lat="47.76164" lon="5.10049">
        <ele>379.69</ele>
        <time>2022-07-11T08:31:23Z</time>
      </trkpt>
      <trkpt lat="47.76167" lon="5.10051">
        <ele>379.35</ele>
        <time>2022-07-11T08:31:25Z</time>
      </trkpt>
      <trkpt lat="47.76169" lon="5.10054">
        <ele>379.27</ele>
        <time>2022-07-11T08:31:29Z</time>
      </trkpt>
      <trkpt lat="47.7617" lon="5.10057">
        <ele>379.35</ele>
        <time>2022-07-11T08:31:38Z</time>
      </trkpt>
      <trkpt lat="47.76171" lon="5.10062">
        <ele>379.81</ele>
        <time>2022-07-11T08:31:41Z</time>
      </trkpt>
      <trkpt lat="47.7617" lon="5.10066">
        <ele>380.04</ele>
        <time>2022-07-11T08:31:44Z</time>
      </trkpt>
      <trkpt lat="47.76168" lon="5.10068">
        <ele>380.01</ele>
        <time>2022-07-11T08:31:48Z</time>
      </trkpt>
      <trkpt lat="47.76166" lon="5.10071">
        <ele>380.13</ele>
        <time>2022-07-11T08:31:51Z</time>
      </trkpt>
      <trkpt lat="47.76163" lon="5.10074">
        <ele>380.37</ele>
        <time>2022-07-11T08:31:54Z</time>
      </trkpt>
      <trkpt lat="47.7616" lon="5.10076">
        <ele>380.49</ele>
        <time>2022-07-11T08:31:57Z</time>
      </trkpt>
      <trkpt lat="47.76157" lon="5.10077">
        <ele>380.51</ele>
        <time>2022-07-11T08:31:59Z</time>
      </trkpt>
      <trkpt lat="47.76155" lon="5.10078">
        <ele>380.52</ele>
        <time>2022-07-11T08:32:01Z</time>
      </trkpt>
      <trkpt lat="47.76152" lon="5.1008">
        <ele>380.49</ele>
        <time>2022-07-11T08:32:04Z</time>
      </trkpt>
      <trkpt lat="47.76149" lon="5.10079">
        <ele>380.45</ele>
        <time>2022-07-11T08:32:09Z</time>
      </trkpt>
      <trkpt lat="47.76147" lon="5.10082">
        <ele>380.33</ele>
        <time>2022-07-11T08:32:14Z</time>
      </trkpt>
      <trkpt lat="47.76145" lon="5.10085">
        <ele>380.41</ele>
        <time>2022-07-11T08:32:19Z</time>
      </trkpt>
      <trkpt lat="47.76143" lon="5.10089">
        <ele>380.79</ele>
        <time>2022-07-11T08:32:26Z</time>
      </trkpt>
      <trkpt lat="47.76142" lon="5.10093">
        <ele>381.19</ele>
        <time>2022-07-11T08:32:31Z</time>
      </trkpt>
      <trkpt lat="47.7614" lon="5.10094">
        <ele>381.21</ele>
        <time>2022-07-11T08:32:36Z</time>
      </trkpt>
      <trkpt lat="47.76138" lon="5.10098">
        <ele>381.63</ele>
        <time>2022-07-11T08:32:40Z</time>
      </trkpt>
      <trkpt lat="47.76135" lon="5.101">
        <ele>381.97</ele>
        <time>2022-07-11T08:32:42Z</time>
      </trkpt>
      <trkpt lat="47.76132" lon="5.10102">
        <ele>382.26</ele>
        <time>2022-07-11T08:32:44Z</time>
      </trkpt>
      <trkpt lat="47.76129" lon="5.10104">
        <ele>382.51</ele>
        <time>2022-07-11T08:32:46Z</time>
      </trkpt>
      <trkpt lat="47.76127" lon="5.10106">
        <ele>382.68</ele>
        <time>2022-07-11T08:32:48Z</time>
      </trkpt>
      <trkpt lat="47.76124" lon="5.10108">
        <ele>382.84</ele>
        <time>2022-07-11T08:32:52Z</time>
      </trkpt>
      <trkpt lat="47.76122" lon="5.1011">
        <ele>382.95</ele>
        <time>2022-07-11T08:32:54Z</time>
      </trkpt>
      <trkpt lat="47.76119" lon="5.10113">
        <ele>383.16</ele>
        <time>2022-07-11T08:32:57Z</time>
      </trkpt>
      <trkpt lat="47.76117" lon="5.10116">
        <ele>383.39</ele>
        <time>2022-07-11T08:33:00Z</time>
      </trkpt>
      <trkpt lat="47.76115" lon="5.10119">
        <ele>383.61</ele>
        <time>2022-07-11T08:33:03Z</time>
      </trkpt>
      <trkpt lat="47.76114" lon="5.10123">
        <ele>383.9</ele>
        <time>2022-07-11T08:33:05Z</time>
      </trkpt>
      <trkpt lat="47.76111" lon="5.10128">
        <ele>384.21</ele>
        <time>2022-07-11T08:33:09Z</time>
      </trkpt>
      <trkpt lat="47.76109" lon="5.10132">
        <ele>384.43</ele>
        <time>2022-07-11T08:33:12Z</time>
      </trkpt>
      <trkpt lat="47.76107" lon="5.10136">
        <ele>384.64</ele>
        <time>2022-07-11T08:33:14Z</time>
      </trkpt>
      <trkpt lat="47.76105" lon="5.1014">
        <ele>384.83</ele>
        <time>2022-07-11T08:33:16Z</time>
      </trkpt>
      <trkpt lat="47.76102" lon="5.10145">
        <ele>384.96</ele>
        <time>2022-07-11T08:33:19Z</time>
      </trkpt>
      <trkpt lat="47.761" lon="5.10149">
        <ele>385.11</ele>
        <time>2022-07-11T08:33:21Z</time>
      </trkpt>
      <trkpt lat="47.76098" lon="5.10152">
        <ele>385.22</ele>
        <time>2022-07-11T08:33:23Z</time>
      </trkpt>
      <trkpt lat="47.76096" lon="5.10156">
        <ele>385.41</ele>
        <time>2022-07-11T08:33:26Z</time>
      </trkpt>
      <trkpt lat="47.76094" lon="5.10159">
        <ele>385.55</ele>
        <time>2022-07-11T08:33:28Z</time>
      </trkpt>
      <trkpt lat="47.76092" lon="5.10161">
        <ele>385.66</ele>
        <time>2022-07-11T08:33:31Z</time>
      </trkpt>
      <trkpt lat="47.76089" lon="5.10165">
        <ele>385.89</ele>
        <time>2022-07-11T08:33:33Z</time>
      </trkpt>
      <trkpt lat="47.76086" lon="5.10168">
        <ele>386.05</ele>
        <time>2022-07-11T08:33:36Z</time>
      </trkpt>
      <trkpt lat="47.76084" lon="5.10171">
        <ele>386.16</ele>
        <time>2022-07-11T08:33:38Z</time>
      </trkpt>
      <trkpt lat="47.76081" lon="5.10174">
        <ele>386.08</ele>
        <time>2022-07-11T08:33:40Z</time>
      </trkpt>
      <trkpt lat="47.7608" lon="5.10178">
        <ele>386.19</ele>
        <time>2022-07-11T08:33:42Z</time>
      </trkpt>
      <trkpt lat="47.76078" lon="5.10183">
        <ele>386.35</ele>
        <time>2022-07-11T08:33:45Z</time>
      </trkpt>
      <trkpt lat="47.76077" lon="5.10187">
        <ele>386.55</ele>
        <time>2022-07-11T08:33:46Z</time>
      </trkpt>
      <trkpt lat="47.76076" lon="5.10191">
        <ele>386.78</ele>
        <time>2022-07-11T08:33:50Z</time>
      </trkpt>
      <trkpt lat="47.76074" lon="5.10195">
        <ele>387.07</ele>
        <time>2022-07-11T08:33:52Z</time>
      </trkpt>
      <trkpt lat="47.76071" lon="5.10197">
        <ele>387.29</ele>
        <time>2022-07-11T08:33:54Z</time>
      </trkpt>
      <trkpt lat="47.76068" lon="5.102">
        <ele>387.58</ele>
        <time>2022-07-11T08:33:57Z</time>
      </trkpt>
      <trkpt lat="47.76066" lon="5.10202">
        <ele>387.75</ele>
        <time>2022-07-11T08:33:59Z</time>
      </trkpt>
      <trkpt lat="47.76064" lon="5.10206">
        <ele>388.08</ele>
        <time>2022-07-11T08:34:01Z</time>
      </trkpt>
      <trkpt lat="47.76062" lon="5.10209">
        <ele>388.29</ele>
        <time>2022-07-11T08:34:04Z</time>
      </trkpt>
      <trkpt lat="47.76059" lon="5.10212">
        <ele>388.42</ele>
        <time>2022-07-11T08:34:06Z</time>
      </trkpt>
      <trkpt lat="47.76057" lon="5.10215">
        <ele>388.56</ele>
        <time>2022-07-11T08:34:09Z</time>
      </trkpt>
      <trkpt lat="47.76054" lon="5.10218">
        <ele>388.62</ele>
        <time>2022-07-11T08:34:12Z</time>
      </trkpt>
      <trkpt lat="47.76052" lon="5.10221">
        <ele>388.77</ele>
        <time>2022-07-11T08:34:15Z</time>
      </trkpt>
      <trkpt lat="47.76049" lon="5.10225">
        <ele>389.06</ele>
        <time>2022-07-11T08:34:17Z</time>
      </trkpt>
      <trkpt lat="47.76047" lon="5.10229">
        <ele>389.42</ele>
        <time>2022-07-11T08:34:21Z</time>
      </trkpt>
      <trkpt lat="47.76045" lon="5.10232">
        <ele>389.68</ele>
        <time>2022-07-11T08:34:24Z</time>
      </trkpt>
      <trkpt lat="47.76044" lon="5.10236">
        <ele>390.07</ele>
        <time>2022-07-11T08:34:27Z</time>
      </trkpt>
      <trkpt lat="47.76043" lon="5.1024">
        <ele>390.47</ele>
        <time>2022-07-11T08:34:29Z</time>
      </trkpt>
      <trkpt lat="47.76042" lon="5.10245">
        <ele>390.97</ele>
        <time>2022-07-11T08:34:32Z</time>
      </trkpt>
      <trkpt lat="47.76041" lon="5.1025">
        <ele>391.48</ele>
        <time>2022-07-11T08:34:34Z</time>
      </trkpt>
      <trkpt lat="47.7604" lon="5.10254">
        <ele>391.85</ele>
        <time>2022-07-11T08:34:36Z</time>
      </trkpt>
      <trkpt lat="47.76039" lon="5.10258">
        <ele>392.21</ele>
        <time>2022-07-11T08:34:39Z</time>
      </trkpt>
      <trkpt lat="47.76038" lon="5.10263">
        <ele>392.65</ele>
        <time>2022-07-11T08:34:41Z</time>
      </trkpt>
      <trkpt lat="47.76037" lon="5.10267">
        <ele>392.96</ele>
        <time>2022-07-11T08:34:43Z</time>
      </trkpt>
      <trkpt lat="47.76035" lon="5.10271">
        <ele>393.17</ele>
        <time>2022-07-11T08:34:45Z</time>
      </trkpt>
      <trkpt lat="47.76034" lon="5.10275">
        <ele>393.43</ele>
        <time>2022-07-11T08:34:47Z</time>
      </trkpt>
      <trkpt lat="47.76032" lon="5.10278">
        <ele>393.49</ele>
        <time>2022-07-11T08:34:51Z</time>
      </trkpt>
      <trkpt lat="47.7603" lon="5.10283">
        <ele>394.15</ele>
        <time>2022-07-11T08:34:54Z</time>
      </trkpt>
      <trkpt lat="47.76029" lon="5.10287">
        <ele>394.76</ele>
        <time>2022-07-11T08:34:56Z</time>
      </trkpt>
      <trkpt lat="47.76028" lon="5.10291">
        <ele>395.4</ele>
        <time>2022-07-11T08:34:58Z</time>
      </trkpt>
      <trkpt lat="47.76027" lon="5.10295">
        <ele>395.96</ele>
        <time>2022-07-11T08:35:00Z</time>
      </trkpt>
      <trkpt lat="47.76026" lon="5.103">
        <ele>396.65</ele>
        <time>2022-07-11T08:35:03Z</time>
      </trkpt>
      <trkpt lat="47.76025" lon="5.10305">
        <ele>397.31</ele>
        <time>2022-07-11T08:35:05Z</time>
      </trkpt>
      <trkpt lat="47.76025" lon="5.1031">
        <ele>397.54</ele>
        <time>2022-07-11T08:35:07Z</time>
      </trkpt>
      <trkpt lat="47.76024" lon="5.10314">
        <ele>397.45</ele>
        <time>2022-07-11T08:35:10Z</time>
      </trkpt>
      <trkpt lat="47.76022" lon="5.10319">
        <ele>397.14</ele>
        <time>2022-07-11T08:35:13Z</time>
      </trkpt>
      <trkpt lat="47.76021" lon="5.10323">
        <ele>397.01</ele>
        <time>2022-07-11T08:35:15Z</time>
      </trkpt>
      <trkpt lat="47.76018" lon="5.10326">
        <ele>396.36</ele>
        <time>2022-07-11T08:35:17Z</time>
      </trkpt>
      <trkpt lat="47.76016" lon="5.1033">
        <ele>395.96</ele>
        <time>2022-07-11T08:35:19Z</time>
      </trkpt>
      <trkpt lat="47.76014" lon="5.10333">
        <ele>395.52</ele>
        <time>2022-07-11T08:35:21Z</time>
      </trkpt>
      <trkpt lat="47.76012" lon="5.10336">
        <ele>395.13</ele>
        <time>2022-07-11T08:35:24Z</time>
      </trkpt>
      <trkpt lat="47.7601" lon="5.10339">
        <ele>394.78</ele>
        <time>2022-07-11T08:35:26Z</time>
      </trkpt>
      <trkpt lat="47.76009" lon="5.10343">
        <ele>394.74</ele>
        <time>2022-07-11T08:35:28Z</time>
      </trkpt>
      <trkpt lat="47.76008" lon="5.10347">
        <ele>394.72</ele>
        <time>2022-07-11T08:35:30Z</time>
      </trkpt>
      <trkpt lat="47.76006" lon="5.10351">
        <ele>394.51</ele>
        <time>2022-07-11T08:35:33Z</time>
      </trkpt>
      <trkpt lat="47.76005" lon="5.10356">
        <ele>394.6</ele>
        <time>2022-07-11T08:35:36Z</time>
      </trkpt>
      <trkpt lat="47.76004" lon="5.1036">
        <ele>394.65</ele>
        <time>2022-07-11T08:35:38Z</time>
      </trkpt>
      <trkpt lat="47.76003" lon="5.10365">
        <ele>394.93</ele>
        <time>2022-07-11T08:35:41Z</time>
      </trkpt>
      <trkpt lat="47.76002" lon="5.1037">
        <ele>395.27</ele>
        <time>2022-07-11T08:35:44Z</time>
      </trkpt>
      <trkpt lat="47.76001" lon="5.10375">
        <ele>395.64</ele>
        <time>2022-07-11T08:35:47Z</time>
      </trkpt>
      <trkpt lat="47.76" lon="5.10378">
        <ele>395.82</ele>
        <time>2022-07-11T08:35:48Z</time>
      </trkpt>
      <trkpt lat="47.75999" lon="5.10382">
        <ele>396.26</ele>
        <time>2022-07-11T08:35:50Z</time>
      </trkpt>
      <trkpt lat="47.75998" lon="5.10386">
        <ele>396.7</ele>
        <time>2022-07-11T08:35:51Z</time>
      </trkpt>
      <trkpt lat="47.75997" lon="5.10391">
        <ele>397.2</ele>
        <time>2022-07-11T08:35:53Z</time>
      </trkpt>
      <trkpt lat="47.75996" lon="5.10396">
        <ele>397.66</ele>
        <time>2022-07-11T08:35:55Z</time>
      </trkpt>
      <trkpt lat="47.75995" lon="5.104">
        <ele>397.98</ele>
        <time>2022-07-11T08:35:58Z</time>
      </trkpt>
      <trkpt lat="47.75994" lon="5.10404">
        <ele>398.28</ele>
        <time>2022-07-11T08:36:01Z</time>
      </trkpt>
      <trkpt lat="47.75992" lon="5.10409">
        <ele>398.55</ele>
        <time>2022-07-11T08:36:02Z</time>
      </trkpt>
      <trkpt lat="47.75991" lon="5.10413">
        <ele>398.76</ele>
        <time>2022-07-11T08:36:04Z</time>
      </trkpt>
      <trkpt lat="47.7599" lon="5.10417">
        <ele>398.93</ele>
        <time>2022-07-11T08:36:05Z</time>
      </trkpt>
      <trkpt lat="47.7599" lon="5.10421">
        <ele>399.02</ele>
        <time>2022-07-11T08:36:08Z</time>
      </trkpt>
      <trkpt lat="47.75989" lon="5.10427">
        <ele>399.04</ele>
        <time>2022-07-11T08:36:10Z</time>
      </trkpt>
      <trkpt lat="47.75988" lon="5.10432">
        <ele>399.02</ele>
        <time>2022-07-11T08:36:12Z</time>
      </trkpt>
      <trkpt lat="47.75988" lon="5.10437">
        <ele>399.12</ele>
        <time>2022-07-11T08:36:14Z</time>
      </trkpt>
      <trkpt lat="47.75988" lon="5.10442">
        <ele>399.22</ele>
        <time>2022-07-11T08:36:15Z</time>
      </trkpt>
      <trkpt lat="47.75987" lon="5.10446">
        <ele>399.13</ele>
        <time>2022-07-11T08:36:17Z</time>
      </trkpt>
      <trkpt lat="47.75987" lon="5.10451">
        <ele>399.14</ele>
        <time>2022-07-11T08:36:21Z</time>
      </trkpt>
      <trkpt lat="47.75986" lon="5.10455">
        <ele>398.98</ele>
        <time>2022-07-11T08:36:23Z</time>
      </trkpt>
      <trkpt lat="47.75985" lon="5.1046">
        <ele>398.8</ele>
        <time>2022-07-11T08:36:25Z</time>
      </trkpt>
      <trkpt lat="47.75985" lon="5.10467">
        <ele>398.78</ele>
        <time>2022-07-11T08:36:28Z</time>
      </trkpt>
      <trkpt lat="47.75985" lon="5.10472">
        <ele>398.76</ele>
        <time>2022-07-11T08:36:30Z</time>
      </trkpt>
      <trkpt lat="47.75985" lon="5.10476">
        <ele>398.7</ele>
        <time>2022-07-11T08:36:31Z</time>
      </trkpt>
      <trkpt lat="47.75986" lon="5.10483">
        <ele>398.78</ele>
        <time>2022-07-11T08:36:34Z</time>
      </trkpt>
      <trkpt lat="47.75987" lon="5.10487">
        <ele>398.91</ele>
        <time>2022-07-11T08:36:36Z</time>
      </trkpt>
      <trkpt lat="47.75988" lon="5.10493">
        <ele>398.98</ele>
        <time>2022-07-11T08:36:37Z</time>
      </trkpt>
      <trkpt lat="47.75988" lon="5.10497">
        <ele>398.9</ele>
        <time>2022-07-11T08:36:39Z</time>
      </trkpt>
      <trkpt lat="47.75988" lon="5.10502">
        <ele>398.84</ele>
        <time>2022-07-11T08:36:41Z</time>
      </trkpt>
      <trkpt lat="47.75988" lon="5.10507">
        <ele>398.84</ele>
        <time>2022-07-11T08:36:43Z</time>
      </trkpt>
      <trkpt lat="47.75987" lon="5.10511">
        <ele>398.66</ele>
        <time>2022-07-11T08:36:45Z</time>
      </trkpt>
      <trkpt lat="47.75986" lon="5.10516">
        <ele>398.48</ele>
        <time>2022-07-11T08:36:47Z</time>
      </trkpt>
      <trkpt lat="47.75986" lon="5.10522">
        <ele>398.48</ele>
        <time>2022-07-11T08:36:50Z</time>
      </trkpt>
      <trkpt lat="47.75986" lon="5.10526">
        <ele>398.48</ele>
        <time>2022-07-11T08:36:52Z</time>
      </trkpt>
      <trkpt lat="47.75987" lon="5.1053">
        <ele>398.74</ele>
        <time>2022-07-11T08:36:54Z</time>
      </trkpt>
      <trkpt lat="47.75987" lon="5.10534">
        <ele>398.88</ele>
        <time>2022-07-11T08:36:55Z</time>
      </trkpt>
      <trkpt lat="47.75987" lon="5.10539">
        <ele>399.06</ele>
        <time>2022-07-11T08:36:57Z</time>
      </trkpt>
      <trkpt lat="47.75988" lon="5.10544">
        <ele>399.42</ele>
        <time>2022-07-11T08:36:59Z</time>
      </trkpt>
      <trkpt lat="47.75989" lon="5.10547">
        <ele>399.71</ele>
        <time>2022-07-11T08:37:01Z</time>
      </trkpt>
      <trkpt lat="47.7599" lon="5.10552">
        <ele>400.07</ele>
        <time>2022-07-11T08:37:03Z</time>
      </trkpt>
      <trkpt lat="47.75991" lon="5.10555">
        <ele>400.36</ele>
        <time>2022-07-11T08:37:06Z</time>
      </trkpt>
      <trkpt lat="47.75991" lon="5.10561">
        <ele>400.44</ele>
        <time>2022-07-11T08:37:09Z</time>
      </trkpt>
      <trkpt lat="47.75991" lon="5.10565">
        <ele>400.49</ele>
        <time>2022-07-11T08:37:11Z</time>
      </trkpt>
      <trkpt lat="47.75991" lon="5.1057">
        <ele>400.55</ele>
        <time>2022-07-11T08:37:13Z</time>
      </trkpt>
      <trkpt lat="47.75991" lon="5.10576">
        <ele>400.62</ele>
        <time>2022-07-11T08:37:17Z</time>
      </trkpt>
      <trkpt lat="47.75992" lon="5.1058">
        <ele>400.81</ele>
        <time>2022-07-11T08:37:19Z</time>
      </trkpt>
      <trkpt lat="47.75992" lon="5.10585">
        <ele>400.85</ele>
        <time>2022-07-11T08:37:22Z</time>
      </trkpt>
      <trkpt lat="47.75992" lon="5.1059">
        <ele>400.85</ele>
        <time>2022-07-11T08:37:24Z</time>
      </trkpt>
      <trkpt lat="47.75992" lon="5.10596">
        <ele>400.85</ele>
        <time>2022-07-11T08:37:27Z</time>
      </trkpt>
      <trkpt lat="47.75992" lon="5.10601">
        <ele>400.85</ele>
        <time>2022-07-11T08:37:29Z</time>
      </trkpt>
      <trkpt lat="47.75992" lon="5.10605">
        <ele>400.85</ele>
        <time>2022-07-11T08:37:31Z</time>
      </trkpt>
      <trkpt lat="47.75992" lon="5.1061">
        <ele>400.85</ele>
        <time>2022-07-11T08:37:32Z</time>
      </trkpt>
      <trkpt lat="47.75992" lon="5.10614">
        <ele>400.82</ele>
        <time>2022-07-11T08:37:34Z</time>
      </trkpt>
      <trkpt lat="47.75992" lon="5.10619">
        <ele>400.77</ele>
        <time>2022-07-11T08:37:37Z</time>
      </trkpt>
      <trkpt lat="47.75991" lon="5.10623">
        <ele>400.57</ele>
        <time>2022-07-11T08:37:40Z</time>
      </trkpt>
      <trkpt lat="47.75991" lon="5.10628">
        <ele>400.51</ele>
        <time>2022-07-11T08:37:43Z</time>
      </trkpt>
      <trkpt lat="47.75991" lon="5.10632">
        <ele>400.46</ele>
        <time>2022-07-11T08:37:46Z</time>
      </trkpt>
      <trkpt lat="47.75991" lon="5.10636">
        <ele>400.41</ele>
        <time>2022-07-11T08:37:50Z</time>
      </trkpt>
      <trkpt lat="47.75991" lon="5.1064">
        <ele>400.33</ele>
        <time>2022-07-11T08:37:52Z</time>
      </trkpt>
      <trkpt lat="47.75991" lon="5.10645">
        <ele>400.09</ele>
        <time>2022-07-11T08:37:54Z</time>
      </trkpt>
      <trkpt lat="47.75991" lon="5.1065">
        <ele>399.85</ele>
        <time>2022-07-11T08:37:55Z</time>
      </trkpt>
      <trkpt lat="47.75991" lon="5.10655">
        <ele>399.61</ele>
        <time>2022-07-11T08:37:57Z</time>
      </trkpt>
      <trkpt lat="47.7599" lon="5.10661">
        <ele>399.12</ele>
        <time>2022-07-11T08:38:00Z</time>
      </trkpt>
      <trkpt lat="47.7599" lon="5.10665">
        <ele>398.92</ele>
        <time>2022-07-11T08:38:03Z</time>
      </trkpt>
      <trkpt lat="47.75991" lon="5.1067">
        <ele>398.7</ele>
        <time>2022-07-11T08:38:05Z</time>
      </trkpt>
      <trkpt lat="47.75991" lon="5.10674">
        <ele>398.26</ele>
        <time>2022-07-11T08:38:07Z</time>
      </trkpt>
      <trkpt lat="47.75992" lon="5.10679">
        <ele>397.94</ele>
        <time>2022-07-11T08:38:10Z</time>
      </trkpt>
      <trkpt lat="47.75993" lon="5.10684">
        <ele>397.62</ele>
        <time>2022-07-11T08:38:12Z</time>
      </trkpt>
      <trkpt lat="47.75994" lon="5.1069">
        <ele>397.18</ele>
        <time>2022-07-11T08:38:15Z</time>
      </trkpt>
      <trkpt lat="47.75995" lon="5.10694">
        <ele>396.97</ele>
        <time>2022-07-11T08:38:18Z</time>
      </trkpt>
      <trkpt lat="47.75996" lon="5.10699">
        <ele>397</ele>
        <time>2022-07-11T08:38:22Z</time>
      </trkpt>
      <trkpt lat="47.75997" lon="5.10704">
        <ele>397.05</ele>
        <time>2022-07-11T08:38:24Z</time>
      </trkpt>
      <trkpt lat="47.75997" lon="5.10708">
        <ele>396.92</ele>
        <time>2022-07-11T08:38:26Z</time>
      </trkpt>
      <trkpt lat="47.75998" lon="5.10711">
        <ele>397.01</ele>
        <time>2022-07-11T08:38:27Z</time>
      </trkpt>
      <trkpt lat="47.75999" lon="5.10715">
        <ele>397.07</ele>
        <time>2022-07-11T08:38:29Z</time>
      </trkpt>
      <trkpt lat="47.76" lon="5.1072">
        <ele>397.08</ele>
        <time>2022-07-11T08:38:32Z</time>
      </trkpt>
      <trkpt lat="47.76001" lon="5.10724">
        <ele>397.22</ele>
        <time>2022-07-11T08:38:34Z</time>
      </trkpt>
      <trkpt lat="47.76001" lon="5.10729">
        <ele>397.22</ele>
        <time>2022-07-11T08:38:36Z</time>
      </trkpt>
      <trkpt lat="47.76001" lon="5.10734">
        <ele>397.22</ele>
        <time>2022-07-11T08:38:39Z</time>
      </trkpt>
      <trkpt lat="47.76001" lon="5.10739">
        <ele>397.22</ele>
        <time>2022-07-11T08:38:42Z</time>
      </trkpt>
      <trkpt lat="47.76001" lon="5.10744">
        <ele>397.22</ele>
        <time>2022-07-11T08:38:44Z</time>
      </trkpt>
      <trkpt lat="47.76001" lon="5.10748">
        <ele>397.22</ele>
        <time>2022-07-11T08:38:47Z</time>
      </trkpt>
      <trkpt lat="47.76003" lon="5.10753">
        <ele>397.95</ele>
        <time>2022-07-11T08:38:50Z</time>
      </trkpt>
      <trkpt lat="47.76003" lon="5.10757">
        <ele>398.35</ele>
        <time>2022-07-11T08:38:54Z</time>
      </trkpt>
      <trkpt lat="47.76003" lon="5.10761">
        <ele>398.75</ele>
        <time>2022-07-11T08:39:00Z</time>
      </trkpt>
      <trkpt lat="47.76003" lon="5.10766">
        <ele>399.25</ele>
        <time>2022-07-11T08:39:41Z</time>
      </trkpt>
      <trkpt lat="47.76004" lon="5.1077">
        <ele>399.82</ele>
        <time>2022-07-11T08:39:43Z</time>
      </trkpt>
      <trkpt lat="47.76005" lon="5.10775">
        <ele>400.46</ele>
        <time>2022-07-11T08:39:46Z</time>
      </trkpt>
      <trkpt lat="47.76006" lon="5.10779">
        <ele>400.8</ele>
        <time>2022-07-11T08:39:50Z</time>
      </trkpt>
      <trkpt lat="47.76008" lon="5.10784">
        <ele>400.9</ele>
        <time>2022-07-11T08:39:52Z</time>
      </trkpt>
      <trkpt lat="47.76009" lon="5.10789">
        <ele>400.88</ele>
        <time>2022-07-11T08:39:54Z</time>
      </trkpt>
      <trkpt lat="47.76011" lon="5.10794">
        <ele>401.11</ele>
        <time>2022-07-11T08:39:55Z</time>
      </trkpt>
      <trkpt lat="47.76014" lon="5.10799">
        <ele>401.64</ele>
        <time>2022-07-11T08:39:57Z</time>
      </trkpt>
      <trkpt lat="47.76016" lon="5.10802">
        <ele>402.07</ele>
        <time>2022-07-11T08:39:59Z</time>
      </trkpt>
      <trkpt lat="47.76018" lon="5.10806">
        <ele>402.53</ele>
        <time>2022-07-11T08:40:01Z</time>
      </trkpt>
      <trkpt lat="47.7602" lon="5.10811">
        <ele>402.9</ele>
        <time>2022-07-11T08:40:03Z</time>
      </trkpt>
      <trkpt lat="47.76023" lon="5.10815">
        <ele>403.51</ele>
        <time>2022-07-11T08:40:05Z</time>
      </trkpt>
      <trkpt lat="47.76025" lon="5.10818">
        <ele>403.9</ele>
        <time>2022-07-11T08:40:06Z</time>
      </trkpt>
      <trkpt lat="47.76027" lon="5.10823">
        <ele>404.19</ele>
        <time>2022-07-11T08:40:09Z</time>
      </trkpt>
      <trkpt lat="47.76029" lon="5.10827">
        <ele>404.47</ele>
        <time>2022-07-11T08:40:11Z</time>
      </trkpt>
      <trkpt lat="47.76031" lon="5.10831">
        <ele>404.76</ele>
        <time>2022-07-11T08:40:14Z</time>
      </trkpt>
      <trkpt lat="47.76034" lon="5.10835">
        <ele>405.15</ele>
        <time>2022-07-11T08:40:16Z</time>
      </trkpt>
      <trkpt lat="47.76036" lon="5.10838">
        <ele>405.22</ele>
        <time>2022-07-11T08:40:18Z</time>
      </trkpt>
      <trkpt lat="47.76038" lon="5.10842">
        <ele>405.16</ele>
        <time>2022-07-11T08:40:21Z</time>
      </trkpt>
      <trkpt lat="47.7604" lon="5.10846">
        <ele>405.07</ele>
        <time>2022-07-11T08:40:22Z</time>
      </trkpt>
      <trkpt lat="47.76042" lon="5.10849">
        <ele>405.09</ele>
        <time>2022-07-11T08:40:24Z</time>
      </trkpt>
      <trkpt lat="47.76045" lon="5.10852">
        <ele>405.29</ele>
        <time>2022-07-11T08:40:26Z</time>
      </trkpt>
      <trkpt lat="47.76048" lon="5.10855">
        <ele>405.46</ele>
        <time>2022-07-11T08:40:29Z</time>
      </trkpt>
      <trkpt lat="47.76051" lon="5.10858">
        <ele>405.61</ele>
        <time>2022-07-11T08:40:31Z</time>
      </trkpt>
      <trkpt lat="47.76054" lon="5.10859">
        <ele>406.02</ele>
        <time>2022-07-11T08:40:34Z</time>
      </trkpt>
      <trkpt lat="47.76056" lon="5.10862">
        <ele>405.87</ele>
        <time>2022-07-11T08:40:39Z</time>
      </trkpt>
      <trkpt lat="47.76059" lon="5.10865">
        <ele>405.57</ele>
        <time>2022-07-11T08:40:41Z</time>
      </trkpt>
      <trkpt lat="47.76062" lon="5.10869">
        <ele>405.11</ele>
        <time>2022-07-11T08:40:43Z</time>
      </trkpt>
      <trkpt lat="47.76067" lon="5.10874">
        <ele>404.7</ele>
        <time>2022-07-11T08:40:46Z</time>
      </trkpt>
      <trkpt lat="47.7607" lon="5.10878">
        <ele>404.32</ele>
        <time>2022-07-11T08:40:49Z</time>
      </trkpt>
      <trkpt lat="47.76073" lon="5.10881">
        <ele>404.13</ele>
        <time>2022-07-11T08:40:51Z</time>
      </trkpt>
      <trkpt lat="47.76076" lon="5.10884">
        <ele>403.96</ele>
        <time>2022-07-11T08:40:54Z</time>
      </trkpt>
      <trkpt lat="47.76078" lon="5.10887">
        <ele>403.71</ele>
        <time>2022-07-11T08:40:56Z</time>
      </trkpt>
      <trkpt lat="47.76081" lon="5.10889">
        <ele>403.74</ele>
        <time>2022-07-11T08:40:59Z</time>
      </trkpt>
      <trkpt lat="47.76083" lon="5.10892">
        <ele>403.74</ele>
        <time>2022-07-11T08:41:01Z</time>
      </trkpt>
      <trkpt lat="47.76086" lon="5.10894">
        <ele>403.84</ele>
        <time>2022-07-11T08:41:03Z</time>
      </trkpt>
      <trkpt lat="47.76089" lon="5.10897">
        <ele>403.88</ele>
        <time>2022-07-11T08:41:05Z</time>
      </trkpt>
      <trkpt lat="47.76093" lon="5.109">
        <ele>404.04</ele>
        <time>2022-07-11T08:41:08Z</time>
      </trkpt>
      <trkpt lat="47.76096" lon="5.10902">
        <ele>404.18</ele>
        <time>2022-07-11T08:41:11Z</time>
      </trkpt>
      <trkpt lat="47.76098" lon="5.10906">
        <ele>404.15</ele>
        <time>2022-07-11T08:41:14Z</time>
      </trkpt>
      <trkpt lat="47.76101" lon="5.10908">
        <ele>404.33</ele>
        <time>2022-07-11T08:41:16Z</time>
      </trkpt>
      <trkpt lat="47.76104" lon="5.1091">
        <ele>404.53</ele>
        <time>2022-07-11T08:41:18Z</time>
      </trkpt>
      <trkpt lat="47.76107" lon="5.10911">
        <ele>404.79</ele>
        <time>2022-07-11T08:41:19Z</time>
      </trkpt>
      <trkpt lat="47.76112" lon="5.10914">
        <ele>405.24</ele>
        <time>2022-07-11T08:41:22Z</time>
      </trkpt>
      <trkpt lat="47.76116" lon="5.10917">
        <ele>405.66</ele>
        <time>2022-07-11T08:41:26Z</time>
      </trkpt>
      <trkpt lat="47.76119" lon="5.10918">
        <ele>405.96</ele>
        <time>2022-07-11T08:41:33Z</time>
      </trkpt>
      <trkpt lat="47.76122" lon="5.1092">
        <ele>406.14</ele>
        <time>2022-07-11T08:41:36Z</time>
      </trkpt>
      <trkpt lat="47.76124" lon="5.10922">
        <ele>406.18</ele>
        <time>2022-07-11T08:41:39Z</time>
      </trkpt>
      <trkpt lat="47.76127" lon="5.10925">
        <ele>406.26</ele>
        <time>2022-07-11T08:41:43Z</time>
      </trkpt>
      <trkpt lat="47.76129" lon="5.10927">
        <ele>406.33</ele>
        <time>2022-07-11T08:41:45Z</time>
      </trkpt>
      <trkpt lat="47.76132" lon="5.10928">
        <ele>406.68</ele>
        <time>2022-07-11T08:41:47Z</time>
      </trkpt>
      <trkpt lat="47.76136" lon="5.1093">
        <ele>407.09</ele>
        <time>2022-07-11T08:41:51Z</time>
      </trkpt>
      <trkpt lat="47.7614" lon="5.10931">
        <ele>407.65</ele>
        <time>2022-07-11T08:41:52Z</time>
      </trkpt>
      <trkpt lat="47.76143" lon="5.10933">
        <ele>407.95</ele>
        <time>2022-07-11T08:41:55Z</time>
      </trkpt>
      <trkpt lat="47.76147" lon="5.10936">
        <ele>408.26</ele>
        <time>2022-07-11T08:41:58Z</time>
      </trkpt>
      <trkpt lat="47.76151" lon="5.10939">
        <ele>408.5</ele>
        <time>2022-07-11T08:42:01Z</time>
      </trkpt>
      <trkpt lat="47.76155" lon="5.10941">
        <ele>408.84</ele>
        <time>2022-07-11T08:42:04Z</time>
      </trkpt>
      <trkpt lat="47.76158" lon="5.10943">
        <ele>408.98</ele>
        <time>2022-07-11T08:42:06Z</time>
      </trkpt>
      <trkpt lat="47.76163" lon="5.10948">
        <ele>409.34</ele>
        <time>2022-07-11T08:42:09Z</time>
      </trkpt>
      <trkpt lat="47.76168" lon="5.10952">
        <ele>410.03</ele>
        <time>2022-07-11T08:42:13Z</time>
      </trkpt>
      <trkpt lat="47.76174" lon="5.10957">
        <ele>411.25</ele>
        <time>2022-07-11T08:42:18Z</time>
      </trkpt>
      <trkpt lat="47.76178" lon="5.1096">
        <ele>412.12</ele>
        <time>2022-07-11T08:42:22Z</time>
      </trkpt>
      <trkpt lat="47.76181" lon="5.10959">
        <ele>412.84</ele>
        <time>2022-07-11T08:42:30Z</time>
      </trkpt>
      <trkpt lat="47.76185" lon="5.10959">
        <ele>413.78</ele>
        <time>2022-07-11T08:42:33Z</time>
      </trkpt>
      <trkpt lat="47.76188" lon="5.10959">
        <ele>414.49</ele>
        <time>2022-07-11T08:42:35Z</time>
      </trkpt>
      <trkpt lat="47.7619" lon="5.10961">
        <ele>414.94</ele>
        <time>2022-07-11T08:42:39Z</time>
      </trkpt>
      <trkpt lat="47.76192" lon="5.10964">
        <ele>415.41</ele>
        <time>2022-07-11T08:42:41Z</time>
      </trkpt>
      <trkpt lat="47.76194" lon="5.10968">
        <ele>415.89</ele>
        <time>2022-07-11T08:42:45Z</time>
      </trkpt>
      <trkpt lat="47.76196" lon="5.10971">
        <ele>416.51</ele>
        <time>2022-07-11T08:42:47Z</time>
      </trkpt>
      <trkpt lat="47.76197" lon="5.10974">
        <ele>416.69</ele>
        <time>2022-07-11T08:42:50Z</time>
      </trkpt>
      <trkpt lat="47.76198" lon="5.10978">
        <ele>416.71</ele>
        <time>2022-07-11T08:42:53Z</time>
      </trkpt>
      <trkpt lat="47.762" lon="5.10982">
        <ele>417.03</ele>
        <time>2022-07-11T08:42:56Z</time>
      </trkpt>
      <trkpt lat="47.76203" lon="5.10983">
        <ele>417.88</ele>
        <time>2022-07-11T08:43:00Z</time>
      </trkpt>
      <trkpt lat="47.76206" lon="5.10982">
        <ele>418.89</ele>
        <time>2022-07-11T08:43:03Z</time>
      </trkpt>
      <trkpt lat="47.76209" lon="5.10981">
        <ele>419.92</ele>
        <time>2022-07-11T08:43:07Z</time>
      </trkpt>
      <trkpt lat="47.76211" lon="5.10978">
        <ele>420.82</ele>
        <time>2022-07-11T08:43:11Z</time>
      </trkpt>
      <trkpt lat="47.76214" lon="5.10978">
        <ele>421.77</ele>
        <time>2022-07-11T08:43:24Z</time>
      </trkpt>
      <trkpt lat="47.76217" lon="5.10977">
        <ele>422.82</ele>
        <time>2022-07-11T08:43:28Z</time>
      </trkpt>
      <trkpt lat="47.76219" lon="5.10975">
        <ele>423.67</ele>
        <time>2022-07-11T08:43:32Z</time>
      </trkpt>
      <trkpt lat="47.76222" lon="5.10974">
        <ele>424.74</ele>
        <time>2022-07-11T08:43:40Z</time>
      </trkpt>
      <trkpt lat="47.76225" lon="5.10972">
        <ele>426.12</ele>
        <time>2022-07-11T08:43:47Z</time>
      </trkpt>
      <trkpt lat="47.76227" lon="5.10971">
        <ele>426.98</ele>
        <time>2022-07-11T08:43:54Z</time>
      </trkpt>
      <trkpt lat="47.7623" lon="5.1097">
        <ele>428.24</ele>
        <time>2022-07-11T08:44:00Z</time>
      </trkpt>
      <trkpt lat="47.76233" lon="5.1097">
        <ele>429.43</ele>
        <time>2022-07-11T08:44:06Z</time>
      </trkpt>
      <trkpt lat="47.76236" lon="5.10969">
        <ele>430.69</ele>
        <time>2022-07-11T08:44:12Z</time>
      </trkpt>
      <trkpt lat="47.76239" lon="5.10967">
        <ele>432.02</ele>
        <time>2022-07-11T08:44:20Z</time>
      </trkpt>
      <trkpt lat="47.76241" lon="5.10966">
        <ele>432.88</ele>
        <time>2022-07-11T08:44:24Z</time>
      </trkpt>
      <trkpt lat="47.76244" lon="5.10965">
        <ele>434.14</ele>
        <time>2022-07-11T08:44:29Z</time>
      </trkpt>
      <trkpt lat="47.76247" lon="5.10965">
        <ele>435.33</ele>
        <time>2022-07-11T08:44:32Z</time>
      </trkpt>
      <trkpt lat="47.7625" lon="5.10964">
        <ele>436.59</ele>
        <time>2022-07-11T08:44:37Z</time>
      </trkpt>
      <trkpt lat="47.76253" lon="5.10964">
        <ele>437.64</ele>
        <time>2022-07-11T08:44:40Z</time>
      </trkpt>
      <trkpt lat="47.76255" lon="5.10963">
        <ele>438.4</ele>
        <time>2022-07-11T08:44:45Z</time>
      </trkpt>
      <trkpt lat="47.76258" lon="5.10963">
        <ele>439.45</ele>
        <time>2022-07-11T08:44:48Z</time>
      </trkpt>
      <trkpt lat="47.76261" lon="5.10962">
        <ele>440.55</ele>
        <time>2022-07-11T08:44:52Z</time>
      </trkpt>
      <trkpt lat="47.76263" lon="5.10961">
        <ele>441.3</ele>
        <time>2022-07-11T08:44:56Z</time>
      </trkpt>
      <trkpt lat="47.76266" lon="5.10959">
        <ele>442.44</ele>
        <time>2022-07-11T08:45:02Z</time>
      </trkpt>
      <trkpt lat="47.76269" lon="5.10958">
        <ele>443.51</ele>
        <time>2022-07-11T08:45:05Z</time>
      </trkpt>
      <trkpt lat="47.76272" lon="5.10959">
        <ele>444.5</ele>
        <time>2022-07-11T08:45:09Z</time>
      </trkpt>
      <trkpt lat="47.76275" lon="5.10959">
        <ele>445.52</ele>
        <time>2022-07-11T08:45:12Z</time>
      </trkpt>
      <trkpt lat="47.76278" lon="5.1096">
        <ele>446.51</ele>
        <time>2022-07-11T08:45:16Z</time>
      </trkpt>
      <trkpt lat="47.76281" lon="5.10959">
        <ele>447.53</ele>
        <time>2022-07-11T08:45:20Z</time>
      </trkpt>
      <trkpt lat="47.76284" lon="5.10959">
        <ele>448.5</ele>
        <time>2022-07-11T08:45:22Z</time>
      </trkpt>
      <trkpt lat="47.76287" lon="5.10958">
        <ele>449.49</ele>
        <time>2022-07-11T08:45:24Z</time>
      </trkpt>
      <trkpt lat="47.7629" lon="5.10957">
        <ele>450.47</ele>
        <time>2022-07-11T08:45:27Z</time>
      </trkpt>
      <trkpt lat="47.76292" lon="5.10955">
        <ele>451.11</ele>
        <time>2022-07-11T08:45:31Z</time>
      </trkpt>
      <trkpt lat="47.76295" lon="5.10955">
        <ele>452.05</ele>
        <time>2022-07-11T08:45:34Z</time>
      </trkpt>
      <trkpt lat="47.76298" lon="5.10955">
        <ele>453</ele>
        <time>2022-07-11T08:45:39Z</time>
      </trkpt>
      <trkpt lat="47.76301" lon="5.10954">
        <ele>453.92</ele>
        <time>2022-07-11T08:45:42Z</time>
      </trkpt>
      <trkpt lat="47.76304" lon="5.10952">
        <ele>454.79</ele>
        <time>2022-07-11T08:45:45Z</time>
      </trkpt>
      <trkpt lat="47.76307" lon="5.10951">
        <ele>455.51</ele>
        <time>2022-07-11T08:45:48Z</time>
      </trkpt>
      <trkpt lat="47.7631" lon="5.1095">
        <ele>456.03</ele>
        <time>2022-07-11T08:45:52Z</time>
      </trkpt>
      <trkpt lat="47.76312" lon="5.10948">
        <ele>456.32</ele>
        <time>2022-07-11T08:45:55Z</time>
      </trkpt>
      <trkpt lat="47.76315" lon="5.10947">
        <ele>456.82</ele>
        <time>2022-07-11T08:46:00Z</time>
      </trkpt>
      <trkpt lat="47.76318" lon="5.10947">
        <ele>457.37</ele>
        <time>2022-07-11T08:46:03Z</time>
      </trkpt>
      <trkpt lat="47.76321" lon="5.10946">
        <ele>457.87</ele>
        <time>2022-07-11T08:46:07Z</time>
      </trkpt>
      <trkpt lat="47.76324" lon="5.10944">
        <ele>458.28</ele>
        <time>2022-07-11T08:46:12Z</time>
      </trkpt>
      <trkpt lat="47.76327" lon="5.10943">
        <ele>458.74</ele>
        <time>2022-07-11T08:46:16Z</time>
      </trkpt>
      <trkpt lat="47.7633" lon="5.10942">
        <ele>459.21</ele>
        <time>2022-07-11T08:46:20Z</time>
      </trkpt>
      <trkpt lat="47.76332" lon="5.10941">
        <ele>459.51</ele>
        <time>2022-07-11T08:46:25Z</time>
      </trkpt>
      <trkpt lat="47.76335" lon="5.10941">
        <ele>460.16</ele>
        <time>2022-07-11T08:46:28Z</time>
      </trkpt>
      <trkpt lat="47.76338" lon="5.1094">
        <ele>460.83</ele>
        <time>2022-07-11T08:46:32Z</time>
      </trkpt>
      <trkpt lat="47.76342" lon="5.10939">
        <ele>461.73</ele>
        <time>2022-07-11T08:46:35Z</time>
      </trkpt>
      <trkpt lat="47.76345" lon="5.10938">
        <ele>462.38</ele>
        <time>2022-07-11T08:46:39Z</time>
      </trkpt>
      <trkpt lat="47.76349" lon="5.10938">
        <ele>463.35</ele>
        <time>2022-07-11T08:46:41Z</time>
      </trkpt>
      <trkpt lat="47.76352" lon="5.10939">
        <ele>464.18</ele>
        <time>2022-07-11T08:46:44Z</time>
      </trkpt>
      <trkpt lat="47.76354" lon="5.10941">
        <ele>464.87</ele>
        <time>2022-07-11T08:46:49Z</time>
      </trkpt>
      <trkpt lat="47.76357" lon="5.10941">
        <ele>465.61</ele>
        <time>2022-07-11T08:46:52Z</time>
      </trkpt>
      <trkpt lat="47.76361" lon="5.10939">
        <ele>466.38</ele>
        <time>2022-07-11T08:46:55Z</time>
      </trkpt>
      <trkpt lat="47.76364" lon="5.10938">
        <ele>466.98</ele>
        <time>2022-07-11T08:46:59Z</time>
      </trkpt>
      <trkpt lat="47.76367" lon="5.10938">
        <ele>467.67</ele>
        <time>2022-07-11T08:47:03Z</time>
      </trkpt>
      <trkpt lat="47.7637" lon="5.10937">
        <ele>468.29</ele>
        <time>2022-07-11T08:47:06Z</time>
      </trkpt>
      <trkpt lat="47.76373" lon="5.10936">
        <ele>468.92</ele>
        <time>2022-07-11T08:47:09Z</time>
      </trkpt>
      <trkpt lat="47.76376" lon="5.10934">
        <ele>469.49</ele>
        <time>2022-07-11T08:47:13Z</time>
      </trkpt>
      <trkpt lat="47.76379" lon="5.10933">
        <ele>470.16</ele>
        <time>2022-07-11T08:47:18Z</time>
      </trkpt>
      <trkpt lat="47.76382" lon="5.10933">
        <ele>470.9</ele>
        <time>2022-07-11T08:47:20Z</time>
      </trkpt>
      <trkpt lat="47.76385" lon="5.10932">
        <ele>471.59</ele>
        <time>2022-07-11T08:47:22Z</time>
      </trkpt>
      <trkpt lat="47.76388" lon="5.10932">
        <ele>472.33</ele>
        <time>2022-07-11T08:47:25Z</time>
      </trkpt>
      <trkpt lat="47.76392" lon="5.10932">
        <ele>473.11</ele>
        <time>2022-07-11T08:47:30Z</time>
      </trkpt>
      <trkpt lat="47.76395" lon="5.10932">
        <ele>473.65</ele>
        <time>2022-07-11T08:47:34Z</time>
      </trkpt>
      <trkpt lat="47.76398" lon="5.10933">
        <ele>474.23</ele>
        <time>2022-07-11T08:47:40Z</time>
      </trkpt>
      <trkpt lat="47.764" lon="5.10933">
        <ele>474.59</ele>
        <time>2022-07-11T08:47:43Z</time>
      </trkpt>
      <trkpt lat="47.76403" lon="5.10932">
        <ele>475.09</ele>
        <time>2022-07-11T08:47:49Z</time>
      </trkpt>
      <trkpt lat="47.76406" lon="5.10931">
        <ele>475.6</ele>
        <time>2022-07-11T08:47:53Z</time>
      </trkpt>
      <trkpt lat="47.76409" lon="5.1093">
        <ele>476.1</ele>
        <time>2022-07-11T08:47:56Z</time>
      </trkpt>
      <trkpt lat="47.76412" lon="5.10929">
        <ele>476.6</ele>
        <time>2022-07-11T08:47:59Z</time>
      </trkpt>
      <trkpt lat="47.76415" lon="5.10928">
        <ele>477.11</ele>
        <time>2022-07-11T08:48:03Z</time>
      </trkpt>
      <trkpt lat="47.76418" lon="5.10926">
        <ele>477.59</ele>
        <time>2022-07-11T08:48:07Z</time>
      </trkpt>
      <trkpt lat="47.76421" lon="5.10924">
        <ele>478.12</ele>
        <time>2022-07-11T08:48:09Z</time>
      </trkpt>
      <trkpt lat="47.76423" lon="5.10922">
        <ele>478.47</ele>
        <time>2022-07-11T08:48:12Z</time>
      </trkpt>
      <trkpt lat="47.76427" lon="5.10921">
        <ele>479.27</ele>
        <time>2022-07-11T08:48:16Z</time>
      </trkpt>
      <trkpt lat="47.76429" lon="5.1092">
        <ele>479.68</ele>
        <time>2022-07-11T08:48:19Z</time>
      </trkpt>
      <trkpt lat="47.76432" lon="5.1092">
        <ele>480.3</ele>
        <time>2022-07-11T08:48:21Z</time>
      </trkpt>
      <trkpt lat="47.76437" lon="5.1092">
        <ele>481.34</ele>
        <time>2022-07-11T08:48:26Z</time>
      </trkpt>
      <trkpt lat="47.7644" lon="5.10919">
        <ele>481.98</ele>
        <time>2022-07-11T08:48:28Z</time>
      </trkpt>
      <trkpt lat="47.76443" lon="5.10919">
        <ele>482.61</ele>
        <time>2022-07-11T08:48:31Z</time>
      </trkpt>
      <trkpt lat="47.76446" lon="5.10919">
        <ele>483.03</ele>
        <time>2022-07-11T08:48:35Z</time>
      </trkpt>
      <trkpt lat="47.76449" lon="5.10918">
        <ele>483.28</ele>
        <time>2022-07-11T08:48:39Z</time>
      </trkpt>
      <trkpt lat="47.76452" lon="5.10917">
        <ele>483.53</ele>
        <time>2022-07-11T08:48:47Z</time>
      </trkpt>
      <trkpt lat="47.76455" lon="5.10918">
        <ele>483.71</ele>
        <time>2022-07-11T08:48:57Z</time>
      </trkpt>
      <trkpt lat="47.76459" lon="5.10919">
        <ele>483.96</ele>
        <time>2022-07-11T08:49:00Z</time>
      </trkpt>
      <trkpt lat="47.76461" lon="5.10917">
        <ele>484.18</ele>
        <time>2022-07-11T08:49:07Z</time>
      </trkpt>
      <trkpt lat="47.76464" lon="5.10915">
        <ele>484.33</ele>
        <time>2022-07-11T08:49:16Z</time>
      </trkpt>
      <trkpt lat="47.76467" lon="5.10914">
        <ele>484.51</ele>
        <time>2022-07-11T08:49:21Z</time>
      </trkpt>
      <trkpt lat="47.7647" lon="5.10913">
        <ele>484.7</ele>
        <time>2022-07-11T08:49:25Z</time>
      </trkpt>
      <trkpt lat="47.76472" lon="5.10911">
        <ele>484.78</ele>
        <time>2022-07-11T08:49:29Z</time>
      </trkpt>
      <trkpt lat="47.76475" lon="5.10909">
        <ele>484.28</ele>
        <time>2022-07-11T08:49:33Z</time>
      </trkpt>
      <trkpt lat="47.76478" lon="5.10909">
        <ele>483.8</ele>
        <time>2022-07-11T08:49:39Z</time>
      </trkpt>
      <trkpt lat="47.76481" lon="5.10908">
        <ele>483.31</ele>
        <time>2022-07-11T08:49:44Z</time>
      </trkpt>
      <trkpt lat="47.76484" lon="5.10907">
        <ele>482.83</ele>
        <time>2022-07-11T08:49:48Z</time>
      </trkpt>
      <trkpt lat="47.76487" lon="5.10906">
        <ele>482.36</ele>
        <time>2022-07-11T08:49:54Z</time>
      </trkpt>
      <trkpt lat="47.7649" lon="5.10906">
        <ele>481.91</ele>
        <time>2022-07-11T08:50:01Z</time>
      </trkpt>
      <trkpt lat="47.76492" lon="5.10904">
        <ele>481.63</ele>
        <time>2022-07-11T08:50:05Z</time>
      </trkpt>
      <trkpt lat="47.76495" lon="5.10903">
        <ele>481.21</ele>
        <time>2022-07-11T08:50:08Z</time>
      </trkpt>
      <trkpt lat="47.76498" lon="5.10902">
        <ele>480.81</ele>
        <time>2022-07-11T08:50:12Z</time>
      </trkpt>
      <trkpt lat="47.76501" lon="5.10902">
        <ele>480.51</ele>
        <time>2022-07-11T08:50:14Z</time>
      </trkpt>
      <trkpt lat="47.76504" lon="5.10902">
        <ele>480.45</ele>
        <time>2022-07-11T08:50:17Z</time>
      </trkpt>
      <trkpt lat="47.76507" lon="5.10901">
        <ele>480.42</ele>
        <time>2022-07-11T08:50:20Z</time>
      </trkpt>
      <trkpt lat="47.7651" lon="5.109">
        <ele>480.38</ele>
        <time>2022-07-11T08:50:24Z</time>
      </trkpt>
      <trkpt lat="47.76513" lon="5.109">
        <ele>480.32</ele>
        <time>2022-07-11T08:50:26Z</time>
      </trkpt>
      <trkpt lat="47.76516" lon="5.109">
        <ele>480.25</ele>
        <time>2022-07-11T08:50:30Z</time>
      </trkpt>
      <trkpt lat="47.76518" lon="5.109">
        <ele>480.21</ele>
        <time>2022-07-11T08:50:32Z</time>
      </trkpt>
      <trkpt lat="47.76521" lon="5.10899">
        <ele>480.16</ele>
        <time>2022-07-11T08:50:36Z</time>
      </trkpt>
      <trkpt lat="47.76524" lon="5.10897">
        <ele>480.1</ele>
        <time>2022-07-11T08:50:39Z</time>
      </trkpt>
      <trkpt lat="47.76526" lon="5.10896">
        <ele>480.05</ele>
        <time>2022-07-11T08:50:42Z</time>
      </trkpt>
      <trkpt lat="47.76529" lon="5.10895">
        <ele>479.87</ele>
        <time>2022-07-11T08:50:45Z</time>
      </trkpt>
      <trkpt lat="47.76532" lon="5.10895">
        <ele>479.54</ele>
        <time>2022-07-11T08:50:48Z</time>
      </trkpt>
      <trkpt lat="47.76535" lon="5.10894">
        <ele>479.22</ele>
        <time>2022-07-11T08:50:51Z</time>
      </trkpt>
      <trkpt lat="47.76539" lon="5.10893">
        <ele>478.79</ele>
        <time>2022-07-11T08:50:53Z</time>
      </trkpt>
      <trkpt lat="47.76543" lon="5.10892">
        <ele>478.36</ele>
        <time>2022-07-11T08:50:57Z</time>
      </trkpt>
      <trkpt lat="47.76546" lon="5.10892">
        <ele>478.03</ele>
        <time>2022-07-11T08:50:59Z</time>
      </trkpt>
      <trkpt lat="47.76549" lon="5.10891">
        <ele>477.71</ele>
        <time>2022-07-11T08:51:02Z</time>
      </trkpt>
      <trkpt lat="47.76552" lon="5.10891">
        <ele>477.38</ele>
        <time>2022-07-11T08:51:06Z</time>
      </trkpt>
      <trkpt lat="47.76556" lon="5.10891">
        <ele>476.98</ele>
        <time>2022-07-11T08:51:08Z</time>
      </trkpt>
      <trkpt lat="47.76558" lon="5.10891">
        <ele>476.91</ele>
        <time>2022-07-11T08:51:10Z</time>
      </trkpt>
      <trkpt lat="47.76561" lon="5.10891">
        <ele>476.8</ele>
        <time>2022-07-11T08:51:14Z</time>
      </trkpt>
      <trkpt lat="47.76564" lon="5.1089">
        <ele>476.7</ele>
        <time>2022-07-11T08:51:17Z</time>
      </trkpt>
      <trkpt lat="47.76567" lon="5.10889">
        <ele>476.59</ele>
        <time>2022-07-11T08:51:20Z</time>
      </trkpt>
      <trkpt lat="47.7657" lon="5.10887">
        <ele>476.48</ele>
        <time>2022-07-11T08:51:25Z</time>
      </trkpt>
      <trkpt lat="47.76572" lon="5.10884">
        <ele>476.44</ele>
        <time>2022-07-11T08:51:30Z</time>
      </trkpt>
      <trkpt lat="47.76575" lon="5.10882">
        <ele>476.4</ele>
        <time>2022-07-11T08:51:33Z</time>
      </trkpt>
      <trkpt lat="47.76578" lon="5.10882">
        <ele>476.34</ele>
        <time>2022-07-11T08:51:36Z</time>
      </trkpt>
      <trkpt lat="47.76581" lon="5.10881">
        <ele>476.32</ele>
        <time>2022-07-11T08:51:38Z</time>
      </trkpt>
      <trkpt lat="47.76584" lon="5.1088">
        <ele>476.35</ele>
        <time>2022-07-11T08:51:41Z</time>
      </trkpt>
      <trkpt lat="47.76587" lon="5.10879">
        <ele>476.53</ele>
        <time>2022-07-11T08:51:44Z</time>
      </trkpt>
      <trkpt lat="47.7659" lon="5.10879">
        <ele>476.68</ele>
        <time>2022-07-11T08:51:46Z</time>
      </trkpt>
      <trkpt lat="47.76593" lon="5.10879">
        <ele>476.83</ele>
        <time>2022-07-11T08:51:49Z</time>
      </trkpt>
      <trkpt lat="47.76596" lon="5.10879">
        <ele>476.97</ele>
        <time>2022-07-11T08:51:51Z</time>
      </trkpt>
      <trkpt lat="47.76599" lon="5.10878">
        <ele>477.18</ele>
        <time>2022-07-11T08:51:55Z</time>
      </trkpt>
      <trkpt lat="47.76603" lon="5.10878">
        <ele>477.38</ele>
        <time>2022-07-11T08:51:58Z</time>
      </trkpt>
      <trkpt lat="47.76606" lon="5.10877">
        <ele>477.59</ele>
        <time>2022-07-11T08:52:00Z</time>
      </trkpt>
      <trkpt lat="47.76609" lon="5.10877">
        <ele>477.75</ele>
        <time>2022-07-11T08:52:03Z</time>
      </trkpt>
      <trkpt lat="47.76612" lon="5.10877">
        <ele>477.84</ele>
        <time>2022-07-11T08:52:07Z</time>
      </trkpt>
      <trkpt lat="47.76615" lon="5.10875">
        <ele>477.93</ele>
        <time>2022-07-11T08:52:11Z</time>
      </trkpt>
      <trkpt lat="47.76618" lon="5.10873">
        <ele>478</ele>
        <time>2022-07-11T08:52:17Z</time>
      </trkpt>
      <trkpt lat="47.76621" lon="5.10872">
        <ele>478</ele>
        <time>2022-07-11T08:52:20Z</time>
      </trkpt>
      <trkpt lat="47.76625" lon="5.10871">
        <ele>477.97</ele>
        <time>2022-07-11T08:52:23Z</time>
      </trkpt>
      <trkpt lat="47.76628" lon="5.10871">
        <ele>477.9</ele>
        <time>2022-07-11T08:52:27Z</time>
      </trkpt>
      <trkpt lat="47.7663" lon="5.10871">
        <ele>477.85</ele>
        <time>2022-07-11T08:52:29Z</time>
      </trkpt>
      <trkpt lat="47.76633" lon="5.10871">
        <ele>477.78</ele>
        <time>2022-07-11T08:52:32Z</time>
      </trkpt>
      <trkpt lat="47.76636" lon="5.10871">
        <ele>477.71</ele>
        <time>2022-07-11T08:52:34Z</time>
      </trkpt>
      <trkpt lat="47.76639" lon="5.10871">
        <ele>477.63</ele>
        <time>2022-07-11T08:52:38Z</time>
      </trkpt>
      <trkpt lat="47.76642" lon="5.1087">
        <ele>477.42</ele>
        <time>2022-07-11T08:52:42Z</time>
      </trkpt>
      <trkpt lat="47.76645" lon="5.10868">
        <ele>477.2</ele>
        <time>2022-07-11T08:52:48Z</time>
      </trkpt>
      <trkpt lat="47.76647" lon="5.10866">
        <ele>477.05</ele>
        <time>2022-07-11T08:52:52Z</time>
      </trkpt>
      <trkpt lat="47.7665" lon="5.10865">
        <ele>476.77</ele>
        <time>2022-07-11T08:52:55Z</time>
      </trkpt>
      <trkpt lat="47.76652" lon="5.10863">
        <ele>476.58</ele>
        <time>2022-07-11T08:52:57Z</time>
      </trkpt>
      <trkpt lat="47.76655" lon="5.10861">
        <ele>476.25</ele>
        <time>2022-07-11T08:53:00Z</time>
      </trkpt>
      <trkpt lat="47.76658" lon="5.1086">
        <ele>475.87</ele>
        <time>2022-07-11T08:53:03Z</time>
      </trkpt>
      <trkpt lat="47.76661" lon="5.1086">
        <ele>475.54</ele>
        <time>2022-07-11T08:53:06Z</time>
      </trkpt>
      <trkpt lat="47.76665" lon="5.1086">
        <ele>475.1</ele>
        <time>2022-07-11T08:53:10Z</time>
      </trkpt>
      <trkpt lat="47.76667" lon="5.10859">
        <ele>474.82</ele>
        <time>2022-07-11T08:53:12Z</time>
      </trkpt>
      <trkpt lat="47.7667" lon="5.10858">
        <ele>474.54</ele>
        <time>2022-07-11T08:53:14Z</time>
      </trkpt>
      <trkpt lat="47.76673" lon="5.10858">
        <ele>474.32</ele>
        <time>2022-07-11T08:53:16Z</time>
      </trkpt>
      <trkpt lat="47.76676" lon="5.10858">
        <ele>474.1</ele>
        <time>2022-07-11T08:53:18Z</time>
      </trkpt>
      <trkpt lat="47.76679" lon="5.10857">
        <ele>473.82</ele>
        <time>2022-07-11T08:53:21Z</time>
      </trkpt>
      <trkpt lat="47.76682" lon="5.10856">
        <ele>473.53</ele>
        <time>2022-07-11T08:53:22Z</time>
      </trkpt>
      <trkpt lat="47.76685" lon="5.10856">
        <ele>473.31</ele>
        <time>2022-07-11T08:53:24Z</time>
      </trkpt>
      <trkpt lat="47.76688" lon="5.10855">
        <ele>473.02</ele>
        <time>2022-07-11T08:53:26Z</time>
      </trkpt>
      <trkpt lat="47.76691" lon="5.10854">
        <ele>472.74</ele>
        <time>2022-07-11T08:53:29Z</time>
      </trkpt>
      <trkpt lat="47.76694" lon="5.10853">
        <ele>472.45</ele>
        <time>2022-07-11T08:53:32Z</time>
      </trkpt>
      <trkpt lat="47.76697" lon="5.10853">
        <ele>472.51</ele>
        <time>2022-07-11T08:53:37Z</time>
      </trkpt>
      <trkpt lat="47.767" lon="5.10852">
        <ele>472.54</ele>
        <time>2022-07-11T08:53:39Z</time>
      </trkpt>
      <trkpt lat="47.76703" lon="5.10852">
        <ele>472.65</ele>
        <time>2022-07-11T08:53:43Z</time>
      </trkpt>
      <trkpt lat="47.76706" lon="5.10852">
        <ele>472.76</ele>
        <time>2022-07-11T08:53:45Z</time>
      </trkpt>
      <trkpt lat="47.76709" lon="5.10851">
        <ele>472.8</ele>
        <time>2022-07-11T08:53:48Z</time>
      </trkpt>
      <trkpt lat="47.76712" lon="5.1085">
        <ele>472.83</ele>
        <time>2022-07-11T08:53:49Z</time>
      </trkpt>
      <trkpt lat="47.76715" lon="5.1085">
        <ele>472.94</ele>
        <time>2022-07-11T08:53:52Z</time>
      </trkpt>
      <trkpt lat="47.76718" lon="5.10849">
        <ele>472.98</ele>
        <time>2022-07-11T08:53:54Z</time>
      </trkpt>
      <trkpt lat="47.76721" lon="5.10849">
        <ele>473.08</ele>
        <time>2022-07-11T08:53:57Z</time>
      </trkpt>
      <trkpt lat="47.76725" lon="5.10848">
        <ele>472.86</ele>
        <time>2022-07-11T08:54:00Z</time>
      </trkpt>
      <trkpt lat="47.76728" lon="5.10848">
        <ele>472.64</ele>
        <time>2022-07-11T08:54:02Z</time>
      </trkpt>
      <trkpt lat="47.76731" lon="5.10847">
        <ele>472.35</ele>
        <time>2022-07-11T08:54:05Z</time>
      </trkpt>
      <trkpt lat="47.76734" lon="5.10845">
        <ele>471.99</ele>
        <time>2022-07-11T08:54:07Z</time>
      </trkpt>
      <trkpt lat="47.76736" lon="5.10844">
        <ele>471.78</ele>
        <time>2022-07-11T08:54:10Z</time>
      </trkpt>
      <trkpt lat="47.76739" lon="5.10842">
        <ele>471.42</ele>
        <time>2022-07-11T08:54:15Z</time>
      </trkpt>
      <trkpt lat="47.76742" lon="5.10842">
        <ele>471.2</ele>
        <time>2022-07-11T08:54:20Z</time>
      </trkpt>
      <trkpt lat="47.76744" lon="5.10843">
        <ele>471.13</ele>
        <time>2022-07-11T08:54:23Z</time>
      </trkpt>
      <trkpt lat="47.76747" lon="5.10843">
        <ele>470.91</ele>
        <time>2022-07-11T08:54:27Z</time>
      </trkpt>
      <trkpt lat="47.7675" lon="5.10842">
        <ele>470.62</ele>
        <time>2022-07-11T08:54:31Z</time>
      </trkpt>
      <trkpt lat="47.76753" lon="5.10841">
        <ele>470.44</ele>
        <time>2022-07-11T08:54:35Z</time>
      </trkpt>
      <trkpt lat="47.76756" lon="5.10841">
        <ele>470.34</ele>
        <time>2022-07-11T08:54:38Z</time>
      </trkpt>
      <trkpt lat="47.7676" lon="5.1084">
        <ele>470.12</ele>
        <time>2022-07-11T08:54:42Z</time>
      </trkpt>
      <trkpt lat="47.76763" lon="5.1084">
        <ele>470.01</ele>
        <time>2022-07-11T08:54:44Z</time>
      </trkpt>
      <trkpt lat="47.76766" lon="5.1084">
        <ele>469.9</ele>
        <time>2022-07-11T08:54:46Z</time>
      </trkpt>
      <trkpt lat="47.76769" lon="5.1084">
        <ele>469.8</ele>
        <time>2022-07-11T08:54:48Z</time>
      </trkpt>
      <trkpt lat="47.76772" lon="5.10839">
        <ele>469.62</ele>
        <time>2022-07-11T08:54:50Z</time>
      </trkpt>
      <trkpt lat="47.76775" lon="5.10839">
        <ele>469.51</ele>
        <time>2022-07-11T08:54:53Z</time>
      </trkpt>
      <trkpt lat="47.76779" lon="5.10838">
        <ele>469.29</ele>
        <time>2022-07-11T08:54:55Z</time>
      </trkpt>
      <trkpt lat="47.76782" lon="5.10836">
        <ele>469.04</ele>
        <time>2022-07-11T08:54:57Z</time>
      </trkpt>
      <trkpt lat="47.76785" lon="5.10835">
        <ele>468.86</ele>
        <time>2022-07-11T08:55:00Z</time>
      </trkpt>
      <trkpt lat="47.76788" lon="5.10834">
        <ele>468.68</ele>
        <time>2022-07-11T08:55:01Z</time>
      </trkpt>
      <trkpt lat="47.7679" lon="5.10833">
        <ele>468.54</ele>
        <time>2022-07-11T08:55:04Z</time>
      </trkpt>
      <trkpt lat="47.76793" lon="5.10831">
        <ele>468.32</ele>
        <time>2022-07-11T08:55:08Z</time>
      </trkpt>
      <trkpt lat="47.76796" lon="5.1083">
        <ele>468.15</ele>
        <time>2022-07-11T08:55:11Z</time>
      </trkpt>
      <trkpt lat="47.76799" lon="5.1083">
        <ele>468.02</ele>
        <time>2022-07-11T08:55:14Z</time>
      </trkpt>
      <trkpt lat="47.76802" lon="5.10829">
        <ele>467.84</ele>
        <time>2022-07-11T08:55:17Z</time>
      </trkpt>
      <trkpt lat="47.76806" lon="5.10828">
        <ele>467.62</ele>
        <time>2022-07-11T08:55:21Z</time>
      </trkpt>
      <trkpt lat="47.76808" lon="5.10826">
        <ele>467.5</ele>
        <time>2022-07-11T08:55:23Z</time>
      </trkpt>
      <trkpt lat="47.76811" lon="5.10826">
        <ele>467.52</ele>
        <time>2022-07-11T08:55:27Z</time>
      </trkpt>
      <trkpt lat="47.76815" lon="5.10825">
        <ele>467.5</ele>
        <time>2022-07-11T08:55:31Z</time>
      </trkpt>
      <trkpt lat="47.76818" lon="5.10824">
        <ele>467.48</ele>
        <time>2022-07-11T08:55:35Z</time>
      </trkpt>
      <trkpt lat="47.76821" lon="5.10823">
        <ele>467.46</ele>
        <time>2022-07-11T08:55:37Z</time>
      </trkpt>
      <trkpt lat="47.76824" lon="5.10824">
        <ele>467.55</ele>
        <time>2022-07-11T08:55:41Z</time>
      </trkpt>
      <trkpt lat="47.76828" lon="5.10824">
        <ele>467.6</ele>
        <time>2022-07-11T08:55:43Z</time>
      </trkpt>
      <trkpt lat="47.76831" lon="5.10823">
        <ele>467.6</ele>
        <time>2022-07-11T08:55:46Z</time>
      </trkpt>
      <trkpt lat="47.76833" lon="5.10822">
        <ele>467.59</ele>
        <time>2022-07-11T08:55:48Z</time>
      </trkpt>
      <trkpt lat="47.76836" lon="5.10822">
        <ele>467.4</ele>
        <time>2022-07-11T08:55:52Z</time>
      </trkpt>
      <trkpt lat="47.7684" lon="5.10821">
        <ele>467.08</ele>
        <time>2022-07-11T08:55:55Z</time>
      </trkpt>
      <trkpt lat="47.76843" lon="5.1082">
        <ele>466.82</ele>
        <time>2022-07-11T08:55:57Z</time>
      </trkpt>
      <trkpt lat="47.76846" lon="5.10819">
        <ele>466.57</ele>
        <time>2022-07-11T08:55:59Z</time>
      </trkpt>
      <trkpt lat="47.76849" lon="5.10818">
        <ele>466.32</ele>
        <time>2022-07-11T08:56:02Z</time>
      </trkpt>
      <trkpt lat="47.76852" lon="5.10817">
        <ele>466.07</ele>
        <time>2022-07-11T08:56:06Z</time>
      </trkpt>
      <trkpt lat="47.76854" lon="5.10816">
        <ele>465.89</ele>
        <time>2022-07-11T08:56:09Z</time>
      </trkpt>
      <trkpt lat="47.76857" lon="5.10815">
        <ele>465.64</ele>
        <time>2022-07-11T08:56:12Z</time>
      </trkpt>
      <trkpt lat="47.7686" lon="5.10814">
        <ele>465.38</ele>
        <time>2022-07-11T08:56:14Z</time>
      </trkpt>
      <trkpt lat="47.76863" lon="5.10814">
        <ele>465.08</ele>
        <time>2022-07-11T08:56:16Z</time>
      </trkpt>
      <trkpt lat="47.76866" lon="5.10813">
        <ele>464.69</ele>
        <time>2022-07-11T08:56:18Z</time>
      </trkpt>
      <trkpt lat="47.7687" lon="5.10812">
        <ele>464.2</ele>
        <time>2022-07-11T08:56:21Z</time>
      </trkpt>
      <trkpt lat="47.76873" lon="5.10812">
        <ele>463.85</ele>
        <time>2022-07-11T08:56:24Z</time>
      </trkpt>
      <trkpt lat="47.76876" lon="5.10811">
        <ele>463.48</ele>
        <time>2022-07-11T08:56:27Z</time>
      </trkpt>
      <trkpt lat="47.76879" lon="5.1081">
        <ele>463.12</ele>
        <time>2022-07-11T08:56:29Z</time>
      </trkpt>
      <trkpt lat="47.76881" lon="5.10809">
        <ele>462.89</ele>
        <time>2022-07-11T08:56:31Z</time>
      </trkpt>
      <trkpt lat="47.76884" lon="5.10807">
        <ele>462.54</ele>
        <time>2022-07-11T08:56:34Z</time>
      </trkpt>
      <trkpt lat="47.76887" lon="5.10805">
        <ele>462.18</ele>
        <time>2022-07-11T08:56:37Z</time>
      </trkpt>
      <trkpt lat="47.7689" lon="5.10804">
        <ele>461.82</ele>
        <time>2022-07-11T08:56:41Z</time>
      </trkpt>
      <trkpt lat="47.76893" lon="5.10803">
        <ele>461.46</ele>
        <time>2022-07-11T08:56:45Z</time>
      </trkpt>
      <trkpt lat="47.76896" lon="5.10802">
        <ele>461.1</ele>
        <time>2022-07-11T08:56:49Z</time>
      </trkpt>
      <trkpt lat="47.76898" lon="5.10801">
        <ele>460.85</ele>
        <time>2022-07-11T08:56:51Z</time>
      </trkpt>
      <trkpt lat="47.76901" lon="5.10801">
        <ele>460.53</ele>
        <time>2022-07-11T08:56:54Z</time>
      </trkpt>
      <trkpt lat="47.76904" lon="5.10799">
        <ele>460.13</ele>
        <time>2022-07-11T08:56:56Z</time>
      </trkpt>
      <trkpt lat="47.76907" lon="5.10798">
        <ele>459.77</ele>
        <time>2022-07-11T08:56:58Z</time>
      </trkpt>
      <trkpt lat="47.7691" lon="5.10798">
        <ele>459.45</ele>
        <time>2022-07-11T08:57:01Z</time>
      </trkpt>
      <trkpt lat="47.76913" lon="5.10798">
        <ele>459.12</ele>
        <time>2022-07-11T08:57:05Z</time>
      </trkpt>
      <trkpt lat="47.76916" lon="5.10798">
        <ele>458.8</ele>
        <time>2022-07-11T08:57:08Z</time>
      </trkpt>
      <trkpt lat="47.76919" lon="5.10798">
        <ele>458.67</ele>
        <time>2022-07-11T08:57:11Z</time>
      </trkpt>
      <trkpt lat="47.76922" lon="5.10797">
        <ele>458.56</ele>
        <time>2022-07-11T08:57:15Z</time>
      </trkpt>
      <trkpt lat="47.76925" lon="5.10796">
        <ele>458.46</ele>
        <time>2022-07-11T08:57:19Z</time>
      </trkpt>
      <trkpt lat="47.76928" lon="5.10794">
        <ele>458.35</ele>
        <time>2022-07-11T08:57:21Z</time>
      </trkpt>
      <trkpt lat="47.76931" lon="5.10793">
        <ele>458.27</ele>
        <time>2022-07-11T08:57:25Z</time>
      </trkpt>
      <trkpt lat="47.76934" lon="5.10791">
        <ele>458.18</ele>
        <time>2022-07-11T08:57:29Z</time>
      </trkpt>
      <trkpt lat="47.76937" lon="5.10791">
        <ele>458.13</ele>
        <time>2022-07-11T08:57:30Z</time>
      </trkpt>
      <trkpt lat="47.76941" lon="5.1079">
        <ele>458.05</ele>
        <time>2022-07-11T08:57:35Z</time>
      </trkpt>
      <trkpt lat="47.76944" lon="5.1079">
        <ele>458.01</ele>
        <time>2022-07-11T08:57:36Z</time>
      </trkpt>
      <trkpt lat="47.76948" lon="5.1079">
        <ele>458.07</ele>
        <time>2022-07-11T08:57:39Z</time>
      </trkpt>
      <trkpt lat="47.76951" lon="5.10789">
        <ele>458.14</ele>
        <time>2022-07-11T08:57:42Z</time>
      </trkpt>
      <trkpt lat="47.76954" lon="5.10787">
        <ele>458.23</ele>
        <time>2022-07-11T08:57:47Z</time>
      </trkpt>
      <trkpt lat="47.76957" lon="5.1079">
        <ele>458.25</ele>
        <time>2022-07-11T08:57:54Z</time>
      </trkpt>
      <trkpt lat="47.76959" lon="5.10792">
        <ele>458.26</ele>
        <time>2022-07-11T08:57:59Z</time>
      </trkpt>
      <trkpt lat="47.76961" lon="5.10796">
        <ele>458.21</ele>
        <time>2022-07-11T08:58:06Z</time>
      </trkpt>
      <trkpt lat="47.76963" lon="5.10799">
        <ele>458.16</ele>
        <time>2022-07-11T08:58:10Z</time>
      </trkpt>
      <trkpt lat="47.76964" lon="5.10803">
        <ele>458.06</ele>
        <time>2022-07-11T08:58:17Z</time>
      </trkpt>
      <trkpt lat="47.76965" lon="5.10807">
        <ele>458.01</ele>
        <time>2022-07-11T08:58:23Z</time>
      </trkpt>
      <trkpt lat="47.76964" lon="5.10811">
        <ele>458.06</ele>
        <time>2022-07-11T08:58:33Z</time>
      </trkpt>
      <trkpt lat="47.76961" lon="5.10811">
        <ele>458.08</ele>
        <time>2022-07-11T08:58:42Z</time>
      </trkpt>
      <trkpt lat="47.76964" lon="5.10814">
        <ele>458.09</ele>
        <time>2022-07-11T08:58:52Z</time>
      </trkpt>
      <trkpt lat="47.76966" lon="5.10817">
        <ele>458.09</ele>
        <time>2022-07-11T08:58:58Z</time>
      </trkpt>
      <trkpt lat="47.76966" lon="5.10821">
        <ele>458.12</ele>
        <time>2022-07-11T08:59:07Z</time>
      </trkpt>
      <trkpt lat="47.76969" lon="5.1082">
        <ele>458.06</ele>
        <time>2022-07-11T08:59:22Z</time>
      </trkpt>
      <trkpt lat="47.76969" lon="5.10816">
        <ele>458.04</ele>
        <time>2022-07-11T08:59:34Z</time>
      </trkpt>
      <trkpt lat="47.76971" lon="5.10812">
        <ele>458.01</ele>
        <time>2022-07-11T08:59:41Z</time>
      </trkpt>
      <trkpt lat="47.76972" lon="5.10809">
        <ele>458</ele>
        <time>2022-07-11T08:59:50Z</time>
      </trkpt>
      <trkpt lat="47.76972" lon="5.10805">
        <ele>458.02</ele>
        <time>2022-07-11T09:00:25Z</time>
      </trkpt>
      <trkpt lat="47.76972" lon="5.10809">
        <ele>458</ele>
        <time>2022-07-11T09:00:44Z</time>
      </trkpt>
      <trkpt lat="47.7697" lon="5.10812">
        <ele>458.02</ele>
        <time>2022-07-11T09:00:52Z</time>
      </trkpt>
      <trkpt lat="47.76973" lon="5.10812">
        <ele>458.11</ele>
        <time>2022-07-11T09:01:15Z</time>
      </trkpt>
      <trkpt lat="47.76975" lon="5.10809">
        <ele>458.4</ele>
        <time>2022-07-11T09:01:32Z</time>
      </trkpt>
      <trkpt lat="47.76975" lon="5.10805">
        <ele>458.42</ele>
        <time>2022-07-11T09:01:41Z</time>
      </trkpt>
      <trkpt lat="47.76974" lon="5.10809">
        <ele>458.26</ele>
        <time>2022-07-11T09:01:57Z</time>
      </trkpt>
      <trkpt lat="47.76974" lon="5.10813">
        <ele>458.26</ele>
        <time>2022-07-11T09:02:00Z</time>
      </trkpt>
      <trkpt lat="47.76974" lon="5.10817">
        <ele>458.26</ele>
        <time>2022-07-11T09:02:04Z</time>
      </trkpt>
      <trkpt lat="47.76975" lon="5.10822">
        <ele>458.4</ele>
        <time>2022-07-11T09:02:07Z</time>
      </trkpt>
      <trkpt lat="47.76976" lon="5.10826">
        <ele>458.54</ele>
        <time>2022-07-11T09:02:10Z</time>
      </trkpt>
      <trkpt lat="47.76977" lon="5.1083">
        <ele>458.69</ele>
        <time>2022-07-11T09:02:13Z</time>
      </trkpt>
      <trkpt lat="47.76977" lon="5.10835">
        <ele>458.68</ele>
        <time>2022-07-11T09:02:16Z</time>
      </trkpt>
      <trkpt lat="47.76978" lon="5.10839">
        <ele>458.79</ele>
        <time>2022-07-11T09:02:20Z</time>
      </trkpt>
      <trkpt lat="47.76978" lon="5.10844">
        <ele>458.75</ele>
        <time>2022-07-11T09:02:23Z</time>
      </trkpt>
      <trkpt lat="47.76978" lon="5.10848">
        <ele>458.72</ele>
        <time>2022-07-11T09:02:27Z</time>
      </trkpt>
      <trkpt lat="47.76978" lon="5.10853">
        <ele>458.68</ele>
        <time>2022-07-11T09:02:30Z</time>
      </trkpt>
      <trkpt lat="47.76978" lon="5.10858">
        <ele>458.65</ele>
        <time>2022-07-11T09:02:32Z</time>
      </trkpt>
      <trkpt lat="47.76978" lon="5.10863">
        <ele>458.61</ele>
        <time>2022-07-11T09:02:34Z</time>
      </trkpt>
      <trkpt lat="47.76979" lon="5.10867">
        <ele>458.68</ele>
        <time>2022-07-11T09:02:36Z</time>
      </trkpt>
      <trkpt lat="47.76979" lon="5.10871">
        <ele>458.65</ele>
        <time>2022-07-11T09:02:38Z</time>
      </trkpt>
      <trkpt lat="47.76978" lon="5.10875">
        <ele>458.52</ele>
        <time>2022-07-11T09:02:40Z</time>
      </trkpt>
      <trkpt lat="47.76979" lon="5.1088">
        <ele>458.57</ele>
        <time>2022-07-11T09:02:42Z</time>
      </trkpt>
      <trkpt lat="47.76979" lon="5.10884">
        <ele>458.53</ele>
        <time>2022-07-11T09:02:45Z</time>
      </trkpt>
      <trkpt lat="47.7698" lon="5.10889">
        <ele>458.55</ele>
        <time>2022-07-11T09:02:47Z</time>
      </trkpt>
      <trkpt lat="47.76981" lon="5.10894">
        <ele>458.32</ele>
        <time>2022-07-11T09:02:49Z</time>
      </trkpt>
      <trkpt lat="47.76982" lon="5.10898">
        <ele>458.16</ele>
        <time>2022-07-11T09:02:51Z</time>
      </trkpt>
      <trkpt lat="47.76983" lon="5.10902">
        <ele>458.02</ele>
        <time>2022-07-11T09:02:53Z</time>
      </trkpt>
      <trkpt lat="47.76984" lon="5.10906">
        <ele>457.88</ele>
        <time>2022-07-11T09:02:55Z</time>
      </trkpt>
      <trkpt lat="47.76984" lon="5.1091">
        <ele>457.65</ele>
        <time>2022-07-11T09:02:58Z</time>
      </trkpt>
      <trkpt lat="47.76984" lon="5.10916">
        <ele>457.31</ele>
        <time>2022-07-11T09:03:01Z</time>
      </trkpt>
      <trkpt lat="47.76985" lon="5.1092">
        <ele>457.14</ele>
        <time>2022-07-11T09:03:03Z</time>
      </trkpt>
      <trkpt lat="47.76986" lon="5.10925">
        <ele>456.89</ele>
        <time>2022-07-11T09:03:06Z</time>
      </trkpt>
      <trkpt lat="47.76987" lon="5.10929">
        <ele>456.71</ele>
        <time>2022-07-11T09:03:09Z</time>
      </trkpt>
      <trkpt lat="47.76987" lon="5.10933">
        <ele>456.42</ele>
        <time>2022-07-11T09:03:12Z</time>
      </trkpt>
      <trkpt lat="47.76988" lon="5.10938">
        <ele>456.17</ele>
        <time>2022-07-11T09:03:14Z</time>
      </trkpt>
      <trkpt lat="47.76988" lon="5.10942">
        <ele>455.88</ele>
        <time>2022-07-11T09:03:16Z</time>
      </trkpt>
      <trkpt lat="47.76989" lon="5.10947">
        <ele>455.79</ele>
        <time>2022-07-11T09:03:18Z</time>
      </trkpt>
      <trkpt lat="47.76989" lon="5.10952">
        <ele>455.76</ele>
        <time>2022-07-11T09:03:20Z</time>
      </trkpt>
      <trkpt lat="47.7699" lon="5.10957">
        <ele>455.79</ele>
        <time>2022-07-11T09:03:23Z</time>
      </trkpt>
      <trkpt lat="47.7699" lon="5.10962">
        <ele>455.74</ele>
        <time>2022-07-11T09:03:25Z</time>
      </trkpt>
      <trkpt lat="47.7699" lon="5.10967">
        <ele>455.69</ele>
        <time>2022-07-11T09:03:29Z</time>
      </trkpt>
      <trkpt lat="47.76991" lon="5.10972">
        <ele>455.68</ele>
        <time>2022-07-11T09:03:31Z</time>
      </trkpt>
      <trkpt lat="47.76992" lon="5.10977">
        <ele>455.71</ele>
        <time>2022-07-11T09:03:34Z</time>
      </trkpt>
      <trkpt lat="47.76992" lon="5.10981">
        <ele>455.71</ele>
        <time>2022-07-11T09:03:35Z</time>
      </trkpt>
      <trkpt lat="47.76992" lon="5.10987">
        <ele>455.71</ele>
        <time>2022-07-11T09:03:37Z</time>
      </trkpt>
      <trkpt lat="47.76992" lon="5.10991">
        <ele>455.71</ele>
        <time>2022-07-11T09:03:39Z</time>
      </trkpt>
      <trkpt lat="47.76991" lon="5.10995">
        <ele>455.68</ele>
        <time>2022-07-11T09:03:41Z</time>
      </trkpt>
      <trkpt lat="47.7699" lon="5.11">
        <ele>455.64</ele>
        <time>2022-07-11T09:03:43Z</time>
      </trkpt>
      <trkpt lat="47.76989" lon="5.11003">
        <ele>455.86</ele>
        <time>2022-07-11T09:03:45Z</time>
      </trkpt>
      <trkpt lat="47.76988" lon="5.11007">
        <ele>456.18</ele>
        <time>2022-07-11T09:03:48Z</time>
      </trkpt>
      <trkpt lat="47.76987" lon="5.11012">
        <ele>456.6</ele>
        <time>2022-07-11T09:03:51Z</time>
      </trkpt>
      <trkpt lat="47.76986" lon="5.11016">
        <ele>456.94</ele>
        <time>2022-07-11T09:03:54Z</time>
      </trkpt>
      <trkpt lat="47.76984" lon="5.1102">
        <ele>457.28</ele>
        <time>2022-07-11T09:03:56Z</time>
      </trkpt>
      <trkpt lat="47.76983" lon="5.11024">
        <ele>457.64</ele>
        <time>2022-07-11T09:03:58Z</time>
      </trkpt>
      <trkpt lat="47.7698" lon="5.11027">
        <ele>457.92</ele>
        <time>2022-07-11T09:04:02Z</time>
      </trkpt>
      <trkpt lat="47.76978" lon="5.1103">
        <ele>458</ele>
        <time>2022-07-11T09:04:04Z</time>
      </trkpt>
      <trkpt lat="47.76976" lon="5.11032">
        <ele>458</ele>
        <time>2022-07-11T09:04:06Z</time>
      </trkpt>
      <trkpt lat="47.76973" lon="5.11034">
        <ele>458</ele>
        <time>2022-07-11T09:04:08Z</time>
      </trkpt>
      <trkpt lat="47.7697" lon="5.11036">
        <ele>458.08</ele>
        <time>2022-07-11T09:04:10Z</time>
      </trkpt>
      <trkpt lat="47.76967" lon="5.11038">
        <ele>458.19</ele>
        <time>2022-07-11T09:04:12Z</time>
      </trkpt>
      <trkpt lat="47.76965" lon="5.1104">
        <ele>458.26</ele>
        <time>2022-07-11T09:04:15Z</time>
      </trkpt>
      <trkpt lat="47.76961" lon="5.11042">
        <ele>458.4</ele>
        <time>2022-07-11T09:04:19Z</time>
      </trkpt>
      <trkpt lat="47.76958" lon="5.11043">
        <ele>458.51</ele>
        <time>2022-07-11T09:04:21Z</time>
      </trkpt>
      <trkpt lat="47.76955" lon="5.11045">
        <ele>458.62</ele>
        <time>2022-07-11T09:04:25Z</time>
      </trkpt>
      <trkpt lat="47.76952" lon="5.11046">
        <ele>458.73</ele>
        <time>2022-07-11T09:04:28Z</time>
      </trkpt>
      <trkpt lat="47.76949" lon="5.11047">
        <ele>458.84</ele>
        <time>2022-07-11T09:04:30Z</time>
      </trkpt>
      <trkpt lat="47.76946" lon="5.11048">
        <ele>458.94</ele>
        <time>2022-07-11T09:04:32Z</time>
      </trkpt>
      <trkpt lat="47.76943" lon="5.1105">
        <ele>458.95</ele>
        <time>2022-07-11T09:04:35Z</time>
      </trkpt>
      <trkpt lat="47.76941" lon="5.11052">
        <ele>458.88</ele>
        <time>2022-07-11T09:04:38Z</time>
      </trkpt>
      <trkpt lat="47.76938" lon="5.11053">
        <ele>458.77</ele>
        <time>2022-07-11T09:04:41Z</time>
      </trkpt>
      <trkpt lat="47.76934" lon="5.11054">
        <ele>458.62</ele>
        <time>2022-07-11T09:04:43Z</time>
      </trkpt>
      <trkpt lat="47.76932" lon="5.11054">
        <ele>458.55</ele>
        <time>2022-07-11T09:04:45Z</time>
      </trkpt>
      <trkpt lat="47.76929" lon="5.11053">
        <ele>458.44</ele>
        <time>2022-07-11T09:04:47Z</time>
      </trkpt>
      <trkpt lat="47.76926" lon="5.11054">
        <ele>458.34</ele>
        <time>2022-07-11T09:04:51Z</time>
      </trkpt>
      <trkpt lat="47.76923" lon="5.11055">
        <ele>458.23</ele>
        <time>2022-07-11T09:04:53Z</time>
      </trkpt>
      <trkpt lat="47.7692" lon="5.11056">
        <ele>458.09</ele>
        <time>2022-07-11T09:04:55Z</time>
      </trkpt>
      <trkpt lat="47.76917" lon="5.11057">
        <ele>457.91</ele>
        <time>2022-07-11T09:04:57Z</time>
      </trkpt>
      <trkpt lat="47.76913" lon="5.11059">
        <ele>458.15</ele>
        <time>2022-07-11T09:04:59Z</time>
      </trkpt>
      <trkpt lat="47.76911" lon="5.11061">
        <ele>458.22</ele>
        <time>2022-07-11T09:05:01Z</time>
      </trkpt>
      <trkpt lat="47.76908" lon="5.11063">
        <ele>458.4</ele>
        <time>2022-07-11T09:05:04Z</time>
      </trkpt>
      <trkpt lat="47.76905" lon="5.11064">
        <ele>458.65</ele>
        <time>2022-07-11T09:05:06Z</time>
      </trkpt>
      <trkpt lat="47.76902" lon="5.11067">
        <ele>458.76</ele>
        <time>2022-07-11T09:05:09Z</time>
      </trkpt>
      <trkpt lat="47.76899" lon="5.11069">
        <ele>458.94</ele>
        <time>2022-07-11T09:05:11Z</time>
      </trkpt>
      <trkpt lat="47.76896" lon="5.11072">
        <ele>459.05</ele>
        <time>2022-07-11T09:05:13Z</time>
      </trkpt>
      <trkpt lat="47.76894" lon="5.11074">
        <ele>459.12</ele>
        <time>2022-07-11T09:05:16Z</time>
      </trkpt>
      <trkpt lat="47.76891" lon="5.11077">
        <ele>459.23</ele>
        <time>2022-07-11T09:05:18Z</time>
      </trkpt>
      <trkpt lat="47.76889" lon="5.1108">
        <ele>459.23</ele>
        <time>2022-07-11T09:05:20Z</time>
      </trkpt>
      <trkpt lat="47.76887" lon="5.11082">
        <ele>459.43</ele>
        <time>2022-07-11T09:05:22Z</time>
      </trkpt>
      <trkpt lat="47.76884" lon="5.11084">
        <ele>459.82</ele>
        <time>2022-07-11T09:05:24Z</time>
      </trkpt>
      <trkpt lat="47.76882" lon="5.11086">
        <ele>459.98</ele>
        <time>2022-07-11T09:05:26Z</time>
      </trkpt>
      <trkpt lat="47.76879" lon="5.11089">
        <ele>460.15</ele>
        <time>2022-07-11T09:05:28Z</time>
      </trkpt>
      <trkpt lat="47.76877" lon="5.11092">
        <ele>460.12</ele>
        <time>2022-07-11T09:05:30Z</time>
      </trkpt>
      <trkpt lat="47.76874" lon="5.11095">
        <ele>460.16</ele>
        <time>2022-07-11T09:05:33Z</time>
      </trkpt>
      <trkpt lat="47.76872" lon="5.11098">
        <ele>460.02</ele>
        <time>2022-07-11T09:05:36Z</time>
      </trkpt>
      <trkpt lat="47.7687" lon="5.11101">
        <ele>459.83</ele>
        <time>2022-07-11T09:05:39Z</time>
      </trkpt>
      <trkpt lat="47.76868" lon="5.11105">
        <ele>459.44</ele>
        <time>2022-07-11T09:05:44Z</time>
      </trkpt>
      <trkpt lat="47.76867" lon="5.11109">
        <ele>458.91</ele>
        <time>2022-07-11T09:05:47Z</time>
      </trkpt>
      <trkpt lat="47.76865" lon="5.11112">
        <ele>458.71</ele>
        <time>2022-07-11T09:05:51Z</time>
      </trkpt>
      <trkpt lat="47.76863" lon="5.11116">
        <ele>458.83</ele>
        <time>2022-07-11T09:05:55Z</time>
      </trkpt>
      <trkpt lat="47.76861" lon="5.11119">
        <ele>459.03</ele>
        <time>2022-07-11T09:05:58Z</time>
      </trkpt>
      <trkpt lat="47.76859" lon="5.11124">
        <ele>459.64</ele>
        <time>2022-07-11T09:05:59Z</time>
      </trkpt>
      <trkpt lat="47.76857" lon="5.11128">
        <ele>460.27</ele>
        <time>2022-07-11T09:06:01Z</time>
      </trkpt>
      <trkpt lat="47.76856" lon="5.11132">
        <ele>460.61</ele>
        <time>2022-07-11T09:06:05Z</time>
      </trkpt>
      <trkpt lat="47.76854" lon="5.11135">
        <ele>461.27</ele>
        <time>2022-07-11T09:06:07Z</time>
      </trkpt>
      <trkpt lat="47.76852" lon="5.11139">
        <ele>461.95</ele>
        <time>2022-07-11T09:06:10Z</time>
      </trkpt>
      <trkpt lat="47.76851" lon="5.11143">
        <ele>462.22</ele>
        <time>2022-07-11T09:06:12Z</time>
      </trkpt>
      <trkpt lat="47.76849" lon="5.11147">
        <ele>462.8</ele>
        <time>2022-07-11T09:06:14Z</time>
      </trkpt>
      <trkpt lat="47.76848" lon="5.1115">
        <ele>463.06</ele>
        <time>2022-07-11T09:06:15Z</time>
      </trkpt>
      <trkpt lat="47.76846" lon="5.11154">
        <ele>463.6</ele>
        <time>2022-07-11T09:06:18Z</time>
      </trkpt>
      <trkpt lat="47.76844" lon="5.11158">
        <ele>464.12</ele>
        <time>2022-07-11T09:06:20Z</time>
      </trkpt>
      <trkpt lat="47.76843" lon="5.11162">
        <ele>464.33</ele>
        <time>2022-07-11T09:06:23Z</time>
      </trkpt>
      <trkpt lat="47.76841" lon="5.11167">
        <ele>464.77</ele>
        <time>2022-07-11T09:06:25Z</time>
      </trkpt>
      <trkpt lat="47.76839" lon="5.11173">
        <ele>464.91</ele>
        <time>2022-07-11T09:06:28Z</time>
      </trkpt>
      <trkpt lat="47.76838" lon="5.11178">
        <ele>464.84</ele>
        <time>2022-07-11T09:06:30Z</time>
      </trkpt>
      <trkpt lat="47.76836" lon="5.11183">
        <ele>465.06</ele>
        <time>2022-07-11T09:06:32Z</time>
      </trkpt>
      <trkpt lat="47.76835" lon="5.11186">
        <ele>465.13</ele>
        <time>2022-07-11T09:06:33Z</time>
      </trkpt>
      <trkpt lat="47.76833" lon="5.11191">
        <ele>465.29</ele>
        <time>2022-07-11T09:06:35Z</time>
      </trkpt>
      <trkpt lat="47.76832" lon="5.11196">
        <ele>465.14</ele>
        <time>2022-07-11T09:06:37Z</time>
      </trkpt>
      <trkpt lat="47.76831" lon="5.112">
        <ele>465.22</ele>
        <time>2022-07-11T09:06:39Z</time>
      </trkpt>
      <trkpt lat="47.76829" lon="5.11204">
        <ele>465.36</ele>
        <time>2022-07-11T09:06:41Z</time>
      </trkpt>
      <trkpt lat="47.76827" lon="5.11209">
        <ele>465.45</ele>
        <time>2022-07-11T09:06:43Z</time>
      </trkpt>
      <trkpt lat="47.76826" lon="5.11212">
        <ele>465.46</ele>
        <time>2022-07-11T09:06:46Z</time>
      </trkpt>
      <trkpt lat="47.76825" lon="5.11216">
        <ele>465.43</ele>
        <time>2022-07-11T09:06:49Z</time>
      </trkpt>
      <trkpt lat="47.76824" lon="5.11221">
        <ele>465.37</ele>
        <time>2022-07-11T09:06:51Z</time>
      </trkpt>
      <trkpt lat="47.76823" lon="5.11225">
        <ele>465.5</ele>
        <time>2022-07-11T09:06:54Z</time>
      </trkpt>
      <trkpt lat="47.76823" lon="5.1123">
        <ele>465.72</ele>
        <time>2022-07-11T09:06:56Z</time>
      </trkpt>
      <trkpt lat="47.76822" lon="5.11234">
        <ele>465.91</ele>
        <time>2022-07-11T09:06:58Z</time>
      </trkpt>
      <trkpt lat="47.76822" lon="5.11239">
        <ele>466.12</ele>
        <time>2022-07-11T09:07:00Z</time>
      </trkpt>
      <trkpt lat="47.76821" lon="5.11243">
        <ele>466.28</ele>
        <time>2022-07-11T09:07:03Z</time>
      </trkpt>
      <trkpt lat="47.76821" lon="5.11248">
        <ele>466.48</ele>
        <time>2022-07-11T09:07:05Z</time>
      </trkpt>
      <trkpt lat="47.7682" lon="5.11252">
        <ele>466.55</ele>
        <time>2022-07-11T09:07:07Z</time>
      </trkpt>
      <trkpt lat="47.7682" lon="5.11257">
        <ele>466.64</ele>
        <time>2022-07-11T09:07:10Z</time>
      </trkpt>
      <trkpt lat="47.7682" lon="5.11262">
        <ele>466.73</ele>
        <time>2022-07-11T09:07:12Z</time>
      </trkpt>
      <trkpt lat="47.7682" lon="5.11267">
        <ele>466.81</ele>
        <time>2022-07-11T09:07:15Z</time>
      </trkpt>
      <trkpt lat="47.76821" lon="5.11272">
        <ele>466.91</ele>
        <time>2022-07-11T09:07:17Z</time>
      </trkpt>
      <trkpt lat="47.76821" lon="5.11276">
        <ele>466.97</ele>
        <time>2022-07-11T09:07:19Z</time>
      </trkpt>
      <trkpt lat="47.76821" lon="5.1128">
        <ele>466.99</ele>
        <time>2022-07-11T09:07:21Z</time>
      </trkpt>
      <trkpt lat="47.76821" lon="5.11285">
        <ele>466.97</ele>
        <time>2022-07-11T09:07:23Z</time>
      </trkpt>
      <trkpt lat="47.76821" lon="5.11289">
        <ele>466.95</ele>
        <time>2022-07-11T09:07:26Z</time>
      </trkpt>
      <trkpt lat="47.76821" lon="5.11294">
        <ele>466.93</ele>
        <time>2022-07-11T09:07:28Z</time>
      </trkpt>
      <trkpt lat="47.76821" lon="5.11301">
        <ele>466.91</ele>
        <time>2022-07-11T09:07:31Z</time>
      </trkpt>
      <trkpt lat="47.76821" lon="5.11305">
        <ele>466.89</ele>
        <time>2022-07-11T09:07:33Z</time>
      </trkpt>
      <trkpt lat="47.76822" lon="5.1131">
        <ele>466.95</ele>
        <time>2022-07-11T09:07:35Z</time>
      </trkpt>
      <trkpt lat="47.76822" lon="5.11316">
        <ele>467.12</ele>
        <time>2022-07-11T09:07:38Z</time>
      </trkpt>
      <trkpt lat="47.76822" lon="5.1132">
        <ele>467.24</ele>
        <time>2022-07-11T09:07:40Z</time>
      </trkpt>
      <trkpt lat="47.76821" lon="5.11324">
        <ele>467.48</ele>
        <time>2022-07-11T09:07:42Z</time>
      </trkpt>
      <trkpt lat="47.76821" lon="5.11329">
        <ele>467.64</ele>
        <time>2022-07-11T09:07:45Z</time>
      </trkpt>
      <trkpt lat="47.7682" lon="5.11334">
        <ele>467.86</ele>
        <time>2022-07-11T09:07:47Z</time>
      </trkpt>
      <trkpt lat="47.7682" lon="5.11339">
        <ele>467.41</ele>
        <time>2022-07-11T09:07:50Z</time>
      </trkpt>
      <trkpt lat="47.7682" lon="5.11344">
        <ele>466.97</ele>
        <time>2022-07-11T09:07:51Z</time>
      </trkpt>
      <trkpt lat="47.7682" lon="5.11349">
        <ele>466.52</ele>
        <time>2022-07-11T09:07:53Z</time>
      </trkpt>
      <trkpt lat="47.7682" lon="5.11356">
        <ele>465.9</ele>
        <time>2022-07-11T09:07:56Z</time>
      </trkpt>
      <trkpt lat="47.76821" lon="5.11362">
        <ele>465.29</ele>
        <time>2022-07-11T09:07:58Z</time>
      </trkpt>
      <trkpt lat="47.76821" lon="5.11366">
        <ele>465.08</ele>
        <time>2022-07-11T09:08:00Z</time>
      </trkpt>
      <trkpt lat="47.76821" lon="5.11371">
        <ele>464.82</ele>
        <time>2022-07-11T09:08:03Z</time>
      </trkpt>
      <trkpt lat="47.76821" lon="5.11376">
        <ele>464.56</ele>
        <time>2022-07-11T09:08:05Z</time>
      </trkpt>
      <trkpt lat="47.76822" lon="5.11381">
        <ele>464.22</ele>
        <time>2022-07-11T09:08:07Z</time>
      </trkpt>
      <trkpt lat="47.76822" lon="5.11388">
        <ele>463.86</ele>
        <time>2022-07-11T09:08:10Z</time>
      </trkpt>
      <trkpt lat="47.76822" lon="5.11393">
        <ele>463.49</ele>
        <time>2022-07-11T09:08:12Z</time>
      </trkpt>
      <trkpt lat="47.76822" lon="5.11397">
        <ele>463.18</ele>
        <time>2022-07-11T09:08:15Z</time>
      </trkpt>
      <trkpt lat="47.76823" lon="5.11402">
        <ele>462.68</ele>
        <time>2022-07-11T09:08:17Z</time>
      </trkpt>
      <trkpt lat="47.76823" lon="5.11406">
        <ele>462.35</ele>
        <time>2022-07-11T09:08:19Z</time>
      </trkpt>
      <trkpt lat="47.76823" lon="5.11411">
        <ele>461.95</ele>
        <time>2022-07-11T09:08:22Z</time>
      </trkpt>
      <trkpt lat="47.76822" lon="5.11415">
        <ele>461.76</ele>
        <time>2022-07-11T09:08:24Z</time>
      </trkpt>
      <trkpt lat="47.76823" lon="5.11421">
        <ele>461.7</ele>
        <time>2022-07-11T09:08:28Z</time>
      </trkpt>
      <trkpt lat="47.76823" lon="5.11427">
        <ele>462</ele>
        <time>2022-07-11T09:08:30Z</time>
      </trkpt>
      <trkpt lat="47.76824" lon="5.11432">
        <ele>462.08</ele>
        <time>2022-07-11T09:08:33Z</time>
      </trkpt>
      <trkpt lat="47.76824" lon="5.11436">
        <ele>462.27</ele>
        <time>2022-07-11T09:08:35Z</time>
      </trkpt>
      <trkpt lat="47.76823" lon="5.11441">
        <ele>462.69</ele>
        <time>2022-07-11T09:08:36Z</time>
      </trkpt>
      <trkpt lat="47.76823" lon="5.11446">
        <ele>462.8</ele>
        <time>2022-07-11T09:08:39Z</time>
      </trkpt>
      <trkpt lat="47.76823" lon="5.11451">
        <ele>462.62</ele>
        <time>2022-07-11T09:08:42Z</time>
      </trkpt>
      <trkpt lat="47.76823" lon="5.11457">
        <ele>462.41</ele>
        <time>2022-07-11T09:08:43Z</time>
      </trkpt>
      <trkpt lat="47.76823" lon="5.11462">
        <ele>462.23</ele>
        <time>2022-07-11T09:08:45Z</time>
      </trkpt>
      <trkpt lat="47.76824" lon="5.11467">
        <ele>461.87</ele>
        <time>2022-07-11T09:08:47Z</time>
      </trkpt>
      <trkpt lat="47.76825" lon="5.11472">
        <ele>461.51</ele>
        <time>2022-07-11T09:08:49Z</time>
      </trkpt>
      <trkpt lat="47.76825" lon="5.11477">
        <ele>461.5</ele>
        <time>2022-07-11T09:08:51Z</time>
      </trkpt>
      <trkpt lat="47.76825" lon="5.11481">
        <ele>461.5</ele>
        <time>2022-07-11T09:08:52Z</time>
      </trkpt>
      <trkpt lat="47.76825" lon="5.11486">
        <ele>461.5</ele>
        <time>2022-07-11T09:08:55Z</time>
      </trkpt>
      <trkpt lat="47.76825" lon="5.1149">
        <ele>461.5</ele>
        <time>2022-07-11T09:08:57Z</time>
      </trkpt>
      <trkpt lat="47.76826" lon="5.11495">
        <ele>461.32</ele>
        <time>2022-07-11T09:08:59Z</time>
      </trkpt>
      <trkpt lat="47.76825" lon="5.11499">
        <ele>461.5</ele>
        <time>2022-07-11T09:09:01Z</time>
      </trkpt>
      <trkpt lat="47.76825" lon="5.11504">
        <ele>461.6</ele>
        <time>2022-07-11T09:09:03Z</time>
      </trkpt>
      <trkpt lat="47.76824" lon="5.11509">
        <ele>461.9</ele>
        <time>2022-07-11T09:09:05Z</time>
      </trkpt>
      <trkpt lat="47.76824" lon="5.11513">
        <ele>461.99</ele>
        <time>2022-07-11T09:09:08Z</time>
      </trkpt>
      <trkpt lat="47.76823" lon="5.11517">
        <ele>462.24</ele>
        <time>2022-07-11T09:09:09Z</time>
      </trkpt>
      <trkpt lat="47.76823" lon="5.11522">
        <ele>462.36</ele>
        <time>2022-07-11T09:09:11Z</time>
      </trkpt>
      <trkpt lat="47.76823" lon="5.11527">
        <ele>462.47</ele>
        <time>2022-07-11T09:09:12Z</time>
      </trkpt>
      <trkpt lat="47.76823" lon="5.11532">
        <ele>462.43</ele>
        <time>2022-07-11T09:09:15Z</time>
      </trkpt>
      <trkpt lat="47.76824" lon="5.11537">
        <ele>462.23</ele>
        <time>2022-07-11T09:09:18Z</time>
      </trkpt>
      <trkpt lat="47.76824" lon="5.11541">
        <ele>462.18</ele>
        <time>2022-07-11T09:09:20Z</time>
      </trkpt>
      <trkpt lat="47.76825" lon="5.11546">
        <ele>462</ele>
        <time>2022-07-11T09:09:22Z</time>
      </trkpt>
      <trkpt lat="47.76825" lon="5.11551">
        <ele>461.95</ele>
        <time>2022-07-11T09:09:24Z</time>
      </trkpt>
      <trkpt lat="47.76825" lon="5.11556">
        <ele>461.9</ele>
        <time>2022-07-11T09:09:26Z</time>
      </trkpt>
      <trkpt lat="47.76826" lon="5.11562">
        <ele>461.73</ele>
        <time>2022-07-11T09:09:29Z</time>
      </trkpt>
      <trkpt lat="47.76827" lon="5.11567">
        <ele>461.59</ele>
        <time>2022-07-11T09:09:30Z</time>
      </trkpt>
      <trkpt lat="47.76828" lon="5.11572">
        <ele>461.46</ele>
        <time>2022-07-11T09:09:33Z</time>
      </trkpt>
      <trkpt lat="47.76828" lon="5.11577">
        <ele>461.43</ele>
        <time>2022-07-11T09:09:36Z</time>
      </trkpt>
      <trkpt lat="47.76828" lon="5.11582">
        <ele>461.39</ele>
        <time>2022-07-11T09:09:38Z</time>
      </trkpt>
      <trkpt lat="47.76828" lon="5.11586">
        <ele>461.38</ele>
        <time>2022-07-11T09:09:39Z</time>
      </trkpt>
      <trkpt lat="47.76828" lon="5.1159">
        <ele>461.38</ele>
        <time>2022-07-11T09:09:42Z</time>
      </trkpt>
      <trkpt lat="47.76827" lon="5.11597">
        <ele>461.46</ele>
        <time>2022-07-11T09:09:45Z</time>
      </trkpt>
      <trkpt lat="47.76827" lon="5.11602">
        <ele>461.46</ele>
        <time>2022-07-11T09:09:47Z</time>
      </trkpt>
      <trkpt lat="47.76827" lon="5.11608">
        <ele>461.46</ele>
        <time>2022-07-11T09:09:49Z</time>
      </trkpt>
      <trkpt lat="47.76827" lon="5.11613">
        <ele>461.54</ele>
        <time>2022-07-11T09:09:52Z</time>
      </trkpt>
      <trkpt lat="47.76827" lon="5.11619">
        <ele>461.8</ele>
        <time>2022-07-11T09:09:55Z</time>
      </trkpt>
      <trkpt lat="47.76827" lon="5.11624">
        <ele>462.03</ele>
        <time>2022-07-11T09:09:58Z</time>
      </trkpt>
      <trkpt lat="47.76827" lon="5.1163">
        <ele>462.29</ele>
        <time>2022-07-11T09:10:00Z</time>
      </trkpt>
      <trkpt lat="47.76828" lon="5.11636">
        <ele>462.45</ele>
        <time>2022-07-11T09:10:03Z</time>
      </trkpt>
      <trkpt lat="47.76828" lon="5.1164">
        <ele>462.65</ele>
        <time>2022-07-11T09:10:05Z</time>
      </trkpt>
      <trkpt lat="47.76829" lon="5.11645">
        <ele>462.87</ele>
        <time>2022-07-11T09:10:08Z</time>
      </trkpt>
      <trkpt lat="47.76829" lon="5.11649">
        <ele>463.14</ele>
        <time>2022-07-11T09:10:10Z</time>
      </trkpt>
      <trkpt lat="47.76829" lon="5.11654">
        <ele>463.47</ele>
        <time>2022-07-11T09:10:12Z</time>
      </trkpt>
      <trkpt lat="47.7683" lon="5.1166">
        <ele>463.79</ele>
        <time>2022-07-11T09:10:14Z</time>
      </trkpt>
      <trkpt lat="47.76831" lon="5.11665">
        <ele>464.05</ele>
        <time>2022-07-11T09:10:16Z</time>
      </trkpt>
      <trkpt lat="47.76831" lon="5.11669">
        <ele>464.24</ele>
        <time>2022-07-11T09:10:18Z</time>
      </trkpt>
      <trkpt lat="47.76831" lon="5.11674">
        <ele>464.41</ele>
        <time>2022-07-11T09:10:21Z</time>
      </trkpt>
      <trkpt lat="47.76831" lon="5.11678">
        <ele>464.54</ele>
        <time>2022-07-11T09:10:23Z</time>
      </trkpt>
      <trkpt lat="47.76831" lon="5.11682">
        <ele>464.67</ele>
        <time>2022-07-11T09:10:24Z</time>
      </trkpt>
      <trkpt lat="47.76831" lon="5.11687">
        <ele>464.84</ele>
        <time>2022-07-11T09:10:26Z</time>
      </trkpt>
      <trkpt lat="47.76831" lon="5.11693">
        <ele>465.04</ele>
        <time>2022-07-11T09:10:29Z</time>
      </trkpt>
      <trkpt lat="47.76831" lon="5.11698">
        <ele>465.33</ele>
        <time>2022-07-11T09:10:31Z</time>
      </trkpt>
      <trkpt lat="47.76831" lon="5.11704">
        <ele>465.74</ele>
        <time>2022-07-11T09:10:33Z</time>
      </trkpt>
      <trkpt lat="47.76831" lon="5.1171">
        <ele>466.16</ele>
        <time>2022-07-11T09:10:35Z</time>
      </trkpt>
      <trkpt lat="47.76831" lon="5.11714">
        <ele>466.43</ele>
        <time>2022-07-11T09:10:37Z</time>
      </trkpt>
      <trkpt lat="47.76831" lon="5.11718">
        <ele>466.71</ele>
        <time>2022-07-11T09:10:39Z</time>
      </trkpt>
      <trkpt lat="47.7683" lon="5.11723">
        <ele>467.02</ele>
        <time>2022-07-11T09:10:41Z</time>
      </trkpt>
      <trkpt lat="47.7683" lon="5.11727">
        <ele>467.13</ele>
        <time>2022-07-11T09:10:43Z</time>
      </trkpt>
      <trkpt lat="47.7683" lon="5.11731">
        <ele>467.24</ele>
        <time>2022-07-11T09:10:44Z</time>
      </trkpt>
      <trkpt lat="47.7683" lon="5.11737">
        <ele>467.4</ele>
        <time>2022-07-11T09:10:46Z</time>
      </trkpt>
      <trkpt lat="47.7683" lon="5.11742">
        <ele>467.54</ele>
        <time>2022-07-11T09:10:49Z</time>
      </trkpt>
      <trkpt lat="47.76829" lon="5.11747">
        <ele>467.61</ele>
        <time>2022-07-11T09:10:50Z</time>
      </trkpt>
      <trkpt lat="47.76828" lon="5.11752">
        <ele>467.54</ele>
        <time>2022-07-11T09:10:52Z</time>
      </trkpt>
      <trkpt lat="47.76828" lon="5.11757">
        <ele>467.36</ele>
        <time>2022-07-11T09:10:55Z</time>
      </trkpt>
      <trkpt lat="47.76827" lon="5.11762">
        <ele>467.11</ele>
        <time>2022-07-11T09:10:58Z</time>
      </trkpt>
      <trkpt lat="47.76827" lon="5.11766">
        <ele>466.97</ele>
        <time>2022-07-11T09:11:00Z</time>
      </trkpt>
      <trkpt lat="47.76827" lon="5.11772">
        <ele>466.75</ele>
        <time>2022-07-11T09:11:02Z</time>
      </trkpt>
      <trkpt lat="47.76826" lon="5.11776">
        <ele>466.54</ele>
        <time>2022-07-11T09:11:04Z</time>
      </trkpt>
      <trkpt lat="47.76826" lon="5.11781">
        <ele>466.19</ele>
        <time>2022-07-11T09:11:06Z</time>
      </trkpt>
      <trkpt lat="47.76825" lon="5.11785">
        <ele>465.78</ele>
        <time>2022-07-11T09:11:08Z</time>
      </trkpt>
      <trkpt lat="47.76825" lon="5.1179">
        <ele>465.34</ele>
        <time>2022-07-11T09:11:10Z</time>
      </trkpt>
      <trkpt lat="47.76824" lon="5.11795">
        <ele>464.88</ele>
        <time>2022-07-11T09:11:12Z</time>
      </trkpt>
      <trkpt lat="47.76823" lon="5.118">
        <ele>464.45</ele>
        <time>2022-07-11T09:11:15Z</time>
      </trkpt>
      <trkpt lat="47.76822" lon="5.11804">
        <ele>464.12</ele>
        <time>2022-07-11T09:11:16Z</time>
      </trkpt>
      <trkpt lat="47.76821" lon="5.11809">
        <ele>463.81</ele>
        <time>2022-07-11T09:11:19Z</time>
      </trkpt>
      <trkpt lat="47.7682" lon="5.11815">
        <ele>463.48</ele>
        <time>2022-07-11T09:11:21Z</time>
      </trkpt>
      <trkpt lat="47.7682" lon="5.11819">
        <ele>463.26</ele>
        <time>2022-07-11T09:11:23Z</time>
      </trkpt>
      <trkpt lat="47.7682" lon="5.11824">
        <ele>462.99</ele>
        <time>2022-07-11T09:11:25Z</time>
      </trkpt>
      <trkpt lat="47.76819" lon="5.11828">
        <ele>462.8</ele>
        <time>2022-07-11T09:11:26Z</time>
      </trkpt>
      <trkpt lat="47.76819" lon="5.11834">
        <ele>462.48</ele>
        <time>2022-07-11T09:11:29Z</time>
      </trkpt>
      <trkpt lat="47.76818" lon="5.11839">
        <ele>462.26</ele>
        <time>2022-07-11T09:11:31Z</time>
      </trkpt>
      <trkpt lat="47.76817" lon="5.11843">
        <ele>462.1</ele>
        <time>2022-07-11T09:11:34Z</time>
      </trkpt>
      <trkpt lat="47.76816" lon="5.11847">
        <ele>461.95</ele>
        <time>2022-07-11T09:11:37Z</time>
      </trkpt>
      <trkpt lat="47.76814" lon="5.11851">
        <ele>461.87</ele>
        <time>2022-07-11T09:11:40Z</time>
      </trkpt>
      <trkpt lat="47.76813" lon="5.11855">
        <ele>461.74</ele>
        <time>2022-07-11T09:11:42Z</time>
      </trkpt>
      <trkpt lat="47.76813" lon="5.1186">
        <ele>461.51</ele>
        <time>2022-07-11T09:11:44Z</time>
      </trkpt>
      <trkpt lat="47.76812" lon="5.11866">
        <ele>461.81</ele>
        <time>2022-07-11T09:11:48Z</time>
      </trkpt>
      <trkpt lat="47.76812" lon="5.1187">
        <ele>462.03</ele>
        <time>2022-07-11T09:11:50Z</time>
      </trkpt>
      <trkpt lat="47.76811" lon="5.11875">
        <ele>462.41</ele>
        <time>2022-07-11T09:11:51Z</time>
      </trkpt>
      <trkpt lat="47.7681" lon="5.1188">
        <ele>462.82</ele>
        <time>2022-07-11T09:11:53Z</time>
      </trkpt>
      <trkpt lat="47.7681" lon="5.11886">
        <ele>463.19</ele>
        <time>2022-07-11T09:11:55Z</time>
      </trkpt>
      <trkpt lat="47.76811" lon="5.1189">
        <ele>463.26</ele>
        <time>2022-07-11T09:11:56Z</time>
      </trkpt>
      <trkpt lat="47.76811" lon="5.11895">
        <ele>463.48</ele>
        <time>2022-07-11T09:11:58Z</time>
      </trkpt>
      <trkpt lat="47.76811" lon="5.119">
        <ele>463.69</ele>
        <time>2022-07-11T09:12:00Z</time>
      </trkpt>
      <trkpt lat="47.7681" lon="5.11905">
        <ele>464.03</ele>
        <time>2022-07-11T09:12:03Z</time>
      </trkpt>
      <trkpt lat="47.7681" lon="5.11909">
        <ele>464.2</ele>
        <time>2022-07-11T09:12:06Z</time>
      </trkpt>
      <trkpt lat="47.76809" lon="5.11915">
        <ele>464.56</ele>
        <time>2022-07-11T09:12:07Z</time>
      </trkpt>
      <trkpt lat="47.76809" lon="5.11919">
        <ele>464.61</ele>
        <time>2022-07-11T09:12:09Z</time>
      </trkpt>
      <trkpt lat="47.76809" lon="5.11924">
        <ele>464.56</ele>
        <time>2022-07-11T09:12:11Z</time>
      </trkpt>
      <trkpt lat="47.76808" lon="5.11929">
        <ele>464.66</ele>
        <time>2022-07-11T09:12:13Z</time>
      </trkpt>
      <trkpt lat="47.76807" lon="5.11935">
        <ele>464.78</ele>
        <time>2022-07-11T09:12:16Z</time>
      </trkpt>
      <trkpt lat="47.76807" lon="5.11938">
        <ele>464.76</ele>
        <time>2022-07-11T09:12:18Z</time>
      </trkpt>
      <trkpt lat="47.76806" lon="5.11943">
        <ele>464.92</ele>
        <time>2022-07-11T09:12:20Z</time>
      </trkpt>
      <trkpt lat="47.76805" lon="5.11947">
        <ele>465.01</ele>
        <time>2022-07-11T09:12:22Z</time>
      </trkpt>
      <trkpt lat="47.76804" lon="5.11953">
        <ele>464.97</ele>
        <time>2022-07-11T09:12:25Z</time>
      </trkpt>
      <trkpt lat="47.76804" lon="5.11958">
        <ele>464.79</ele>
        <time>2022-07-11T09:12:28Z</time>
      </trkpt>
      <trkpt lat="47.76803" lon="5.11963">
        <ele>464.79</ele>
        <time>2022-07-11T09:12:30Z</time>
      </trkpt>
      <trkpt lat="47.76802" lon="5.11968">
        <ele>464.79</ele>
        <time>2022-07-11T09:12:33Z</time>
      </trkpt>
      <trkpt lat="47.76801" lon="5.11972">
        <ele>464.83</ele>
        <time>2022-07-11T09:12:35Z</time>
      </trkpt>
      <trkpt lat="47.768" lon="5.11976">
        <ele>464.73</ele>
        <time>2022-07-11T09:12:36Z</time>
      </trkpt>
      <trkpt lat="47.76799" lon="5.1198">
        <ele>464.62</ele>
        <time>2022-07-11T09:12:38Z</time>
      </trkpt>
      <trkpt lat="47.76799" lon="5.11984">
        <ele>464.33</ele>
        <time>2022-07-11T09:12:40Z</time>
      </trkpt>
      <trkpt lat="47.76798" lon="5.11988">
        <ele>464.22</ele>
        <time>2022-07-11T09:12:42Z</time>
      </trkpt>
      <trkpt lat="47.76797" lon="5.11993">
        <ele>464.04</ele>
        <time>2022-07-11T09:12:44Z</time>
      </trkpt>
      <trkpt lat="47.76796" lon="5.11999">
        <ele>463.79</ele>
        <time>2022-07-11T09:12:46Z</time>
      </trkpt>
      <trkpt lat="47.76794" lon="5.12002">
        <ele>464.04</ele>
        <time>2022-07-11T09:12:48Z</time>
      </trkpt>
      <trkpt lat="47.76794" lon="5.12007">
        <ele>463.93</ele>
        <time>2022-07-11T09:12:51Z</time>
      </trkpt>
      <trkpt lat="47.76793" lon="5.12012">
        <ele>464.02</ele>
        <time>2022-07-11T09:12:52Z</time>
      </trkpt>
      <trkpt lat="47.76792" lon="5.12016">
        <ele>464.15</ele>
        <time>2022-07-11T09:12:54Z</time>
      </trkpt>
      <trkpt lat="47.76792" lon="5.1202">
        <ele>464.07</ele>
        <time>2022-07-11T09:12:56Z</time>
      </trkpt>
      <trkpt lat="47.7679" lon="5.12025">
        <ele>464.4</ele>
        <time>2022-07-11T09:12:58Z</time>
      </trkpt>
      <trkpt lat="47.76789" lon="5.12029">
        <ele>464.5</ele>
        <time>2022-07-11T09:13:03Z</time>
      </trkpt>
      <trkpt lat="47.76787" lon="5.12032">
        <ele>464.7</ele>
        <time>2022-07-11T09:13:05Z</time>
      </trkpt>
      <trkpt lat="47.76787" lon="5.12037">
        <ele>464.34</ele>
        <time>2022-07-11T09:13:09Z</time>
      </trkpt>
      <trkpt lat="47.76787" lon="5.12042">
        <ele>463.98</ele>
        <time>2022-07-11T09:13:11Z</time>
      </trkpt>
      <trkpt lat="47.76787" lon="5.12046">
        <ele>463.69</ele>
        <time>2022-07-11T09:13:15Z</time>
      </trkpt>
      <trkpt lat="47.76787" lon="5.1205">
        <ele>463.4</ele>
        <time>2022-07-11T09:13:19Z</time>
      </trkpt>
      <trkpt lat="47.76787" lon="5.12055">
        <ele>463.04</ele>
        <time>2022-07-11T09:13:23Z</time>
      </trkpt>
      <trkpt lat="47.76788" lon="5.12059">
        <ele>462.85</ele>
        <time>2022-07-11T09:13:27Z</time>
      </trkpt>
      <trkpt lat="47.76787" lon="5.12063">
        <ele>462.92</ele>
        <time>2022-07-11T09:13:35Z</time>
      </trkpt>
      <trkpt lat="47.76786" lon="5.12075">
        <ele>462.9</ele>
        <time>2022-07-11T09:13:36Z</time>
      </trkpt>
      <trkpt lat="47.76785" lon="5.12081">
        <ele>462.98</ele>
        <time>2022-07-11T09:13:37Z</time>
      </trkpt>
      <trkpt lat="47.76784" lon="5.12086">
        <ele>463.32</ele>
        <time>2022-07-11T09:13:38Z</time>
      </trkpt>
      <trkpt lat="47.76784" lon="5.1209">
        <ele>463.64</ele>
        <time>2022-07-11T09:13:40Z</time>
      </trkpt>
      <trkpt lat="47.76783" lon="5.12094">
        <ele>464.09</ele>
        <time>2022-07-11T09:13:47Z</time>
      </trkpt>
      <trkpt lat="47.76783" lon="5.12098">
        <ele>464.4</ele>
        <time>2022-07-11T09:14:05Z</time>
      </trkpt>
      <trkpt lat="47.76782" lon="5.12102">
        <ele>464.84</ele>
        <time>2022-07-11T09:14:15Z</time>
      </trkpt>
      <trkpt lat="47.76783" lon="5.12106">
        <ele>465.03</ele>
        <time>2022-07-11T09:14:44Z</time>
      </trkpt>
      <trkpt lat="47.76786" lon="5.12108">
        <ele>464.85</ele>
        <time>2022-07-11T09:14:55Z</time>
      </trkpt>
      <trkpt lat="47.76788" lon="5.12111">
        <ele>464.89</ele>
        <time>2022-07-11T09:15:09Z</time>
      </trkpt>
      <trkpt lat="47.76791" lon="5.12111">
        <ele>464.56</ele>
        <time>2022-07-11T09:15:16Z</time>
      </trkpt>
      <trkpt lat="47.76794" lon="5.12111">
        <ele>464.24</ele>
        <time>2022-07-11T09:15:18Z</time>
      </trkpt>
      <trkpt lat="47.76797" lon="5.1211">
        <ele>463.82</ele>
        <time>2022-07-11T09:15:21Z</time>
      </trkpt>
      <trkpt lat="47.768" lon="5.12109">
        <ele>463.39</ele>
        <time>2022-07-11T09:15:24Z</time>
      </trkpt>
      <trkpt lat="47.76802" lon="5.1211">
        <ele>463.27</ele>
        <time>2022-07-11T09:15:26Z</time>
      </trkpt>
      <trkpt lat="47.76804" lon="5.12113">
        <ele>463.5</ele>
        <time>2022-07-11T09:15:30Z</time>
      </trkpt>
      <trkpt lat="47.76807" lon="5.12113">
        <ele>463.03</ele>
        <time>2022-07-11T09:15:32Z</time>
      </trkpt>
      <trkpt lat="47.7681" lon="5.12113">
        <ele>462.39</ele>
        <time>2022-07-11T09:15:35Z</time>
      </trkpt>
      <trkpt lat="47.76813" lon="5.12114">
        <ele>461.94</ele>
        <time>2022-07-11T09:15:38Z</time>
      </trkpt>
      <trkpt lat="47.76816" lon="5.12114">
        <ele>461.3</ele>
        <time>2022-07-11T09:15:41Z</time>
      </trkpt>
      <trkpt lat="47.7682" lon="5.12115">
        <ele>460.65</ele>
        <time>2022-07-11T09:15:43Z</time>
      </trkpt>
      <trkpt lat="47.76823" lon="5.12115">
        <ele>460.02</ele>
        <time>2022-07-11T09:15:45Z</time>
      </trkpt>
      <trkpt lat="47.76827" lon="5.12114">
        <ele>458.97</ele>
        <time>2022-07-11T09:15:47Z</time>
      </trkpt>
      <trkpt lat="47.76829" lon="5.12114">
        <ele>458.54</ele>
        <time>2022-07-11T09:15:50Z</time>
      </trkpt>
      <trkpt lat="47.76833" lon="5.12114">
        <ele>457.69</ele>
        <time>2022-07-11T09:15:52Z</time>
      </trkpt>
      <trkpt lat="47.76836" lon="5.12114">
        <ele>456.67</ele>
        <time>2022-07-11T09:15:54Z</time>
      </trkpt>
      <trkpt lat="47.76839" lon="5.12115">
        <ele>455.83</ele>
        <time>2022-07-11T09:15:58Z</time>
      </trkpt>
      <trkpt lat="47.76841" lon="5.12116">
        <ele>455.34</ele>
        <time>2022-07-11T09:16:00Z</time>
      </trkpt>
      <trkpt lat="47.76844" lon="5.12117">
        <ele>454.51</ele>
        <time>2022-07-11T09:16:01Z</time>
      </trkpt>
      <trkpt lat="47.76848" lon="5.12118">
        <ele>453.34</ele>
        <time>2022-07-11T09:16:03Z</time>
      </trkpt>
      <trkpt lat="47.76851" lon="5.1212">
        <ele>452.76</ele>
        <time>2022-07-11T09:16:06Z</time>
      </trkpt>
      <trkpt lat="47.76854" lon="5.12121">
        <ele>451.96</ele>
        <time>2022-07-11T09:16:07Z</time>
      </trkpt>
      <trkpt lat="47.76857" lon="5.12121">
        <ele>450.92</ele>
        <time>2022-07-11T09:16:09Z</time>
      </trkpt>
      <trkpt lat="47.7686" lon="5.12122">
        <ele>450.13</ele>
        <time>2022-07-11T09:16:11Z</time>
      </trkpt>
      <trkpt lat="47.76863" lon="5.12121">
        <ele>449.22</ele>
        <time>2022-07-11T09:16:13Z</time>
      </trkpt>
      <trkpt lat="47.76866" lon="5.12121">
        <ele>448.79</ele>
        <time>2022-07-11T09:16:13Z</time>
      </trkpt>
      <trkpt lat="47.7687" lon="5.12121">
        <ele>448.21</ele>
        <time>2022-07-11T09:16:16Z</time>
      </trkpt>
      <trkpt lat="47.76873" lon="5.12121">
        <ele>447.78</ele>
        <time>2022-07-11T09:16:18Z</time>
      </trkpt>
      <trkpt lat="47.76876" lon="5.12121">
        <ele>447.35</ele>
        <time>2022-07-11T09:16:19Z</time>
      </trkpt>
      <trkpt lat="47.76881" lon="5.1212">
        <ele>446.38</ele>
        <time>2022-07-11T09:16:22Z</time>
      </trkpt>
      <trkpt lat="47.76884" lon="5.1212">
        <ele>445.94</ele>
        <time>2022-07-11T09:16:24Z</time>
      </trkpt>
      <trkpt lat="47.76887" lon="5.12119">
        <ele>445.26</ele>
        <time>2022-07-11T09:16:25Z</time>
      </trkpt>
      <trkpt lat="47.7689" lon="5.12118">
        <ele>444.82</ele>
        <time>2022-07-11T09:16:27Z</time>
      </trkpt>
      <trkpt lat="47.76893" lon="5.12118">
        <ele>445.03</ele>
        <time>2022-07-11T09:16:28Z</time>
      </trkpt>
      <trkpt lat="47.76896" lon="5.12117">
        <ele>445.03</ele>
        <time>2022-07-11T09:16:30Z</time>
      </trkpt>
      <trkpt lat="47.76899" lon="5.12115">
        <ele>444.87</ele>
        <time>2022-07-11T09:16:32Z</time>
      </trkpt>
      <trkpt lat="47.76902" lon="5.12114">
        <ele>444.95</ele>
        <time>2022-07-11T09:16:35Z</time>
      </trkpt>
      <trkpt lat="47.76905" lon="5.12112">
        <ele>444.89</ele>
        <time>2022-07-11T09:16:37Z</time>
      </trkpt>
      <trkpt lat="47.76907" lon="5.12109">
        <ele>444.78</ele>
        <time>2022-07-11T09:16:38Z</time>
      </trkpt>
      <trkpt lat="47.7691" lon="5.12107">
        <ele>444.95</ele>
        <time>2022-07-11T09:16:41Z</time>
      </trkpt>
      <trkpt lat="47.76913" lon="5.12105">
        <ele>445.13</ele>
        <time>2022-07-11T09:16:43Z</time>
      </trkpt>
      <trkpt lat="47.76916" lon="5.12104">
        <ele>445.41</ele>
        <time>2022-07-11T09:16:45Z</time>
      </trkpt>
      <trkpt lat="47.76919" lon="5.12103">
        <ele>445.56</ele>
        <time>2022-07-11T09:16:48Z</time>
      </trkpt>
      <trkpt lat="47.76923" lon="5.12103">
        <ele>445.81</ele>
        <time>2022-07-11T09:16:50Z</time>
      </trkpt>
      <trkpt lat="47.76926" lon="5.12102">
        <ele>445.91</ele>
        <time>2022-07-11T09:16:52Z</time>
      </trkpt>
      <trkpt lat="47.76929" lon="5.12102">
        <ele>446.09</ele>
        <time>2022-07-11T09:16:55Z</time>
      </trkpt>
      <trkpt lat="47.76932" lon="5.12102">
        <ele>446.27</ele>
        <time>2022-07-11T09:16:57Z</time>
      </trkpt>
      <trkpt lat="47.76935" lon="5.12101">
        <ele>446.35</ele>
        <time>2022-07-11T09:16:59Z</time>
      </trkpt>
      <trkpt lat="47.76938" lon="5.121">
        <ele>446.43</ele>
        <time>2022-07-11T09:17:01Z</time>
      </trkpt>
      <trkpt lat="47.76941" lon="5.12099">
        <ele>446.5</ele>
        <time>2022-07-11T09:17:03Z</time>
      </trkpt>
      <trkpt lat="47.76944" lon="5.12097">
        <ele>446.45</ele>
        <time>2022-07-11T09:17:05Z</time>
      </trkpt>
      <trkpt lat="47.76948" lon="5.12096">
        <ele>446.01</ele>
        <time>2022-07-11T09:17:08Z</time>
      </trkpt>
      <trkpt lat="47.76951" lon="5.12096">
        <ele>445.7</ele>
        <time>2022-07-11T09:17:11Z</time>
      </trkpt>
      <trkpt lat="47.76954" lon="5.12095">
        <ele>445.34</ele>
        <time>2022-07-11T09:17:13Z</time>
      </trkpt>
      <trkpt lat="47.76958" lon="5.12095">
        <ele>444.95</ele>
        <time>2022-07-11T09:17:15Z</time>
      </trkpt>
      <trkpt lat="47.7696" lon="5.12095">
        <ele>444.76</ele>
        <time>2022-07-11T09:17:17Z</time>
      </trkpt>
      <trkpt lat="47.76963" lon="5.12095">
        <ele>444.47</ele>
        <time>2022-07-11T09:17:19Z</time>
      </trkpt>
      <trkpt lat="47.76966" lon="5.12094">
        <ele>444.18</ele>
        <time>2022-07-11T09:17:21Z</time>
      </trkpt>
      <trkpt lat="47.76969" lon="5.12094">
        <ele>443.91</ele>
        <time>2022-07-11T09:17:23Z</time>
      </trkpt>
      <trkpt lat="47.76972" lon="5.12093">
        <ele>443.67</ele>
        <time>2022-07-11T09:17:24Z</time>
      </trkpt>
      <trkpt lat="47.76975" lon="5.12092">
        <ele>443.65</ele>
        <time>2022-07-11T09:17:27Z</time>
      </trkpt>
      <trkpt lat="47.76979" lon="5.12091">
        <ele>443.61</ele>
        <time>2022-07-11T09:17:30Z</time>
      </trkpt>
      <trkpt lat="47.76982" lon="5.12089">
        <ele>443.59</ele>
        <time>2022-07-11T09:17:32Z</time>
      </trkpt>
      <trkpt lat="47.76984" lon="5.12088">
        <ele>443.55</ele>
        <time>2022-07-11T09:17:34Z</time>
      </trkpt>
      <trkpt lat="47.76987" lon="5.12087">
        <ele>443.48</ele>
        <time>2022-07-11T09:17:36Z</time>
      </trkpt>
      <trkpt lat="47.7699" lon="5.12086">
        <ele>443.39</ele>
        <time>2022-07-11T09:17:39Z</time>
      </trkpt>
      <trkpt lat="47.76993" lon="5.12085">
        <ele>443.28</ele>
        <time>2022-07-11T09:17:41Z</time>
      </trkpt>
      <trkpt lat="47.76996" lon="5.12085">
        <ele>443.19</ele>
        <time>2022-07-11T09:17:43Z</time>
      </trkpt>
      <trkpt lat="47.76999" lon="5.12084">
        <ele>443.06</ele>
        <time>2022-07-11T09:17:45Z</time>
      </trkpt>
      <trkpt lat="47.77002" lon="5.12083">
        <ele>443.06</ele>
        <time>2022-07-11T09:17:46Z</time>
      </trkpt>
      <trkpt lat="47.77005" lon="5.12083">
        <ele>443.16</ele>
        <time>2022-07-11T09:17:49Z</time>
      </trkpt>
      <trkpt lat="47.77008" lon="5.12082">
        <ele>443.21</ele>
        <time>2022-07-11T09:17:51Z</time>
      </trkpt>
      <trkpt lat="47.77011" lon="5.12081">
        <ele>443.25</ele>
        <time>2022-07-11T09:17:53Z</time>
      </trkpt>
      <trkpt lat="47.77015" lon="5.1208">
        <ele>443.29</ele>
        <time>2022-07-11T09:17:56Z</time>
      </trkpt>
      <trkpt lat="47.77018" lon="5.12079">
        <ele>443.29</ele>
        <time>2022-07-11T09:17:58Z</time>
      </trkpt>
      <trkpt lat="47.77022" lon="5.12078">
        <ele>443.3</ele>
        <time>2022-07-11T09:18:00Z</time>
      </trkpt>
      <trkpt lat="47.77025" lon="5.12077">
        <ele>443.26</ele>
        <time>2022-07-11T09:18:03Z</time>
      </trkpt>
      <trkpt lat="47.77027" lon="5.12075">
        <ele>443.09</ele>
        <time>2022-07-11T09:18:06Z</time>
      </trkpt>
      <trkpt lat="47.77031" lon="5.12074">
        <ele>443.22</ele>
        <time>2022-07-11T09:18:09Z</time>
      </trkpt>
      <trkpt lat="47.77034" lon="5.12073">
        <ele>443.33</ele>
        <time>2022-07-11T09:18:10Z</time>
      </trkpt>
      <trkpt lat="47.77037" lon="5.12072">
        <ele>443.44</ele>
        <time>2022-07-11T09:18:13Z</time>
      </trkpt>
      <trkpt lat="47.7704" lon="5.12071">
        <ele>443.55</ele>
        <time>2022-07-11T09:18:14Z</time>
      </trkpt>
      <trkpt lat="47.77043" lon="5.1207">
        <ele>443.66</ele>
        <time>2022-07-11T09:18:16Z</time>
      </trkpt>
      <trkpt lat="47.77047" lon="5.1207">
        <ele>443.94</ele>
        <time>2022-07-11T09:18:17Z</time>
      </trkpt>
      <trkpt lat="47.77051" lon="5.1207">
        <ele>444.23</ele>
        <time>2022-07-11T09:18:20Z</time>
      </trkpt>
      <trkpt lat="47.77054" lon="5.1207">
        <ele>444.45</ele>
        <time>2022-07-11T09:18:22Z</time>
      </trkpt>
      <trkpt lat="47.77057" lon="5.12069">
        <ele>444.43</ele>
        <time>2022-07-11T09:18:24Z</time>
      </trkpt>
      <trkpt lat="47.7706" lon="5.12068">
        <ele>444.27</ele>
        <time>2022-07-11T09:18:26Z</time>
      </trkpt>
      <trkpt lat="47.77063" lon="5.12067">
        <ele>444.13</ele>
        <time>2022-07-11T09:18:28Z</time>
      </trkpt>
      <trkpt lat="47.77066" lon="5.12066">
        <ele>443.99</ele>
        <time>2022-07-11T09:18:30Z</time>
      </trkpt>
      <trkpt lat="47.77068" lon="5.12065">
        <ele>443.87</ele>
        <time>2022-07-11T09:18:34Z</time>
      </trkpt>
      <trkpt lat="47.77072" lon="5.12064">
        <ele>443.73</ele>
        <time>2022-07-11T09:18:36Z</time>
      </trkpt>
      <trkpt lat="47.77075" lon="5.12063">
        <ele>443.62</ele>
        <time>2022-07-11T09:18:38Z</time>
      </trkpt>
      <trkpt lat="47.77079" lon="5.12061">
        <ele>443.42</ele>
        <time>2022-07-11T09:18:41Z</time>
      </trkpt>
      <trkpt lat="47.77083" lon="5.1206">
        <ele>443.32</ele>
        <time>2022-07-11T09:18:43Z</time>
      </trkpt>
      <trkpt lat="47.77086" lon="5.1206">
        <ele>443.55</ele>
        <time>2022-07-11T09:18:45Z</time>
      </trkpt>
      <trkpt lat="47.7709" lon="5.12059">
        <ele>443.85</ele>
        <time>2022-07-11T09:18:47Z</time>
      </trkpt>
      <trkpt lat="47.77093" lon="5.12058">
        <ele>444.1</ele>
        <time>2022-07-11T09:18:49Z</time>
      </trkpt>
      <trkpt lat="47.77096" lon="5.12057">
        <ele>444.38</ele>
        <time>2022-07-11T09:18:51Z</time>
      </trkpt>
      <trkpt lat="47.77099" lon="5.12056">
        <ele>444.69</ele>
        <time>2022-07-11T09:18:54Z</time>
      </trkpt>
      <trkpt lat="47.77101" lon="5.12053">
        <ele>444.67</ele>
        <time>2022-07-11T09:18:59Z</time>
      </trkpt>
      <trkpt lat="47.77104" lon="5.12054">
        <ele>445.08</ele>
        <time>2022-07-11T09:19:05Z</time>
      </trkpt>
      <trkpt lat="47.77106" lon="5.12058">
        <ele>445.34</ele>
        <time>2022-07-11T09:19:11Z</time>
      </trkpt>
      <trkpt lat="47.77109" lon="5.12057">
        <ele>445.68</ele>
        <time>2022-07-11T09:19:15Z</time>
      </trkpt>
      <trkpt lat="47.77113" lon="5.12057">
        <ele>446.11</ele>
        <time>2022-07-11T09:19:18Z</time>
      </trkpt>
      <trkpt lat="47.77116" lon="5.12057">
        <ele>446.44</ele>
        <time>2022-07-11T09:19:20Z</time>
      </trkpt>
      <trkpt lat="47.77119" lon="5.12058">
        <ele>446.73</ele>
        <time>2022-07-11T09:19:23Z</time>
      </trkpt>
      <trkpt lat="47.77122" lon="5.12058">
        <ele>447.07</ele>
        <time>2022-07-11T09:19:25Z</time>
      </trkpt>
      <trkpt lat="47.77125" lon="5.12057">
        <ele>447.45</ele>
        <time>2022-07-11T09:19:27Z</time>
      </trkpt>
      <trkpt lat="47.77128" lon="5.12056">
        <ele>447.81</ele>
        <time>2022-07-11T09:19:31Z</time>
      </trkpt>
      <trkpt lat="47.77132" lon="5.12054">
        <ele>448.13</ele>
        <time>2022-07-11T09:19:34Z</time>
      </trkpt>
      <trkpt lat="47.77135" lon="5.12052">
        <ele>448.31</ele>
        <time>2022-07-11T09:19:36Z</time>
      </trkpt>
      <trkpt lat="47.77138" lon="5.12051">
        <ele>448.57</ele>
        <time>2022-07-11T09:19:38Z</time>
      </trkpt>
      <trkpt lat="47.77141" lon="5.12048">
        <ele>448.51</ele>
        <time>2022-07-11T09:19:41Z</time>
      </trkpt>
      <trkpt lat="47.77144" lon="5.12046">
        <ele>448.43</ele>
        <time>2022-07-11T09:19:43Z</time>
      </trkpt>
      <trkpt lat="47.77147" lon="5.12044">
        <ele>448.34</ele>
        <time>2022-07-11T09:19:45Z</time>
      </trkpt>
      <trkpt lat="47.7715" lon="5.12043">
        <ele>448.32</ele>
        <time>2022-07-11T09:19:47Z</time>
      </trkpt>
      <trkpt lat="47.77154" lon="5.12041">
        <ele>448.21</ele>
        <time>2022-07-11T09:19:49Z</time>
      </trkpt>
      <trkpt lat="47.77156" lon="5.12039">
        <ele>448.06</ele>
        <time>2022-07-11T09:19:51Z</time>
      </trkpt>
      <trkpt lat="47.77159" lon="5.12037">
        <ele>447.9</ele>
        <time>2022-07-11T09:19:53Z</time>
      </trkpt>
      <trkpt lat="47.77162" lon="5.12034">
        <ele>447.63</ele>
        <time>2022-07-11T09:19:55Z</time>
      </trkpt>
      <trkpt lat="47.77164" lon="5.1203">
        <ele>447.23</ele>
        <time>2022-07-11T09:19:57Z</time>
      </trkpt>
      <trkpt lat="47.77167" lon="5.12028">
        <ele>447.04</ele>
        <time>2022-07-11T09:19:59Z</time>
      </trkpt>
      <trkpt lat="47.7717" lon="5.12026">
        <ele>446.98</ele>
        <time>2022-07-11T09:20:01Z</time>
      </trkpt>
      <trkpt lat="47.77173" lon="5.12024">
        <ele>446.89</ele>
        <time>2022-07-11T09:20:04Z</time>
      </trkpt>
      <trkpt lat="47.77175" lon="5.12021">
        <ele>446.67</ele>
        <time>2022-07-11T09:20:07Z</time>
      </trkpt>
      <trkpt lat="47.77177" lon="5.12019">
        <ele>446.5</ele>
        <time>2022-07-11T09:20:08Z</time>
      </trkpt>
      <trkpt lat="47.7718" lon="5.12016">
        <ele>446.22</ele>
        <time>2022-07-11T09:20:10Z</time>
      </trkpt>
      <trkpt lat="47.77184" lon="5.12012">
        <ele>445.78</ele>
        <time>2022-07-11T09:20:12Z</time>
      </trkpt>
      <trkpt lat="47.77187" lon="5.12009">
        <ele>445.39</ele>
        <time>2022-07-11T09:20:14Z</time>
      </trkpt>
      <trkpt lat="47.77189" lon="5.12006">
        <ele>444.98</ele>
        <time>2022-07-11T09:20:16Z</time>
      </trkpt>
      <trkpt lat="47.77192" lon="5.12004">
        <ele>444.64</ele>
        <time>2022-07-11T09:20:18Z</time>
      </trkpt>
      <trkpt lat="47.77194" lon="5.12002">
        <ele>444.3</ele>
        <time>2022-07-11T09:20:20Z</time>
      </trkpt>
      <trkpt lat="47.77197" lon="5.12">
        <ele>444.18</ele>
        <time>2022-07-11T09:20:21Z</time>
      </trkpt>
      <trkpt lat="47.77199" lon="5.11997">
        <ele>443.91</ele>
        <time>2022-07-11T09:20:24Z</time>
      </trkpt>
      <trkpt lat="47.77205" lon="5.12001">
        <ele>444.9</ele>
        <time>2022-07-11T09:20:27Z</time>
      </trkpt>
      <trkpt lat="47.77211" lon="5.12011">
        <ele>446.78</ele>
        <time>2022-07-11T09:20:33Z</time>
      </trkpt>
      <trkpt lat="47.77213" lon="5.12003">
        <ele>445.77</ele>
        <time>2022-07-11T09:20:37Z</time>
      </trkpt>
      <trkpt lat="47.77215" lon="5.11999">
        <ele>445.36</ele>
        <time>2022-07-11T09:20:40Z</time>
      </trkpt>
      <trkpt lat="47.77217" lon="5.11995">
        <ele>445.05</ele>
        <time>2022-07-11T09:20:48Z</time>
      </trkpt>
      <trkpt lat="47.7722" lon="5.11993">
        <ele>445.06</ele>
        <time>2022-07-11T09:20:53Z</time>
      </trkpt>
      <trkpt lat="47.77222" lon="5.11991">
        <ele>445.01</ele>
        <time>2022-07-11T09:20:55Z</time>
      </trkpt>
      <trkpt lat="47.77225" lon="5.11988">
        <ele>444.72</ele>
        <time>2022-07-11T09:20:59Z</time>
      </trkpt>
      <trkpt lat="47.77227" lon="5.11987">
        <ele>444.61</ele>
        <time>2022-07-11T09:21:01Z</time>
      </trkpt>
      <trkpt lat="47.77229" lon="5.11983">
        <ele>444.11</ele>
        <time>2022-07-11T09:21:04Z</time>
      </trkpt>
      <trkpt lat="47.77235" lon="5.11978">
        <ele>443.36</ele>
        <time>2022-07-11T09:21:11Z</time>
      </trkpt>
      <trkpt lat="47.77234" lon="5.11981">
        <ele>443.79</ele>
        <time>2022-07-11T09:21:11Z</time>
      </trkpt>
      <trkpt lat="47.77237" lon="5.1198">
        <ele>443.61</ele>
        <time>2022-07-11T09:21:12Z</time>
      </trkpt>
      <trkpt lat="47.7724" lon="5.11973">
        <ele>442.48</ele>
        <time>2022-07-11T09:21:12Z</time>
      </trkpt>
      <trkpt lat="47.77247" lon="5.11962">
        <ele>440.27</ele>
        <time>2022-07-11T09:21:14Z</time>
      </trkpt>
      <trkpt lat="47.7725" lon="5.11959">
        <ele>439.62</ele>
        <time>2022-07-11T09:21:16Z</time>
      </trkpt>
      <trkpt lat="47.77253" lon="5.11957">
        <ele>439.15</ele>
        <time>2022-07-11T09:21:19Z</time>
      </trkpt>
      <trkpt lat="47.77257" lon="5.11956">
        <ele>438.83</ele>
        <time>2022-07-11T09:21:21Z</time>
      </trkpt>
      <trkpt lat="47.77259" lon="5.11954">
        <ele>438.4</ele>
        <time>2022-07-11T09:21:24Z</time>
      </trkpt>
      <trkpt lat="47.77262" lon="5.11951">
        <ele>437.75</ele>
        <time>2022-07-11T09:21:25Z</time>
      </trkpt>
      <trkpt lat="47.77265" lon="5.11949">
        <ele>437.28</ele>
        <time>2022-07-11T09:21:27Z</time>
      </trkpt>
      <trkpt lat="47.77268" lon="5.11946">
        <ele>436.63</ele>
        <time>2022-07-11T09:21:29Z</time>
      </trkpt>
      <trkpt lat="47.77272" lon="5.11942">
        <ele>435.86</ele>
        <time>2022-07-11T09:21:31Z</time>
      </trkpt>
      <trkpt lat="47.77275" lon="5.1194">
        <ele>435.46</ele>
        <time>2022-07-11T09:21:32Z</time>
      </trkpt>
      <trkpt lat="47.77278" lon="5.11938">
        <ele>435.07</ele>
        <time>2022-07-11T09:21:34Z</time>
      </trkpt>
      <trkpt lat="47.77281" lon="5.11935">
        <ele>434.68</ele>
        <time>2022-07-11T09:21:36Z</time>
      </trkpt>
      <trkpt lat="47.77284" lon="5.11931">
        <ele>434.17</ele>
        <time>2022-07-11T09:21:39Z</time>
      </trkpt>
      <trkpt lat="47.77287" lon="5.11928">
        <ele>433.83</ele>
        <time>2022-07-11T09:21:42Z</time>
      </trkpt>
      <trkpt lat="47.77289" lon="5.11924">
        <ele>433.35</ele>
        <time>2022-07-11T09:21:44Z</time>
      </trkpt>
      <trkpt lat="47.77292" lon="5.11921">
        <ele>433.06</ele>
        <time>2022-07-11T09:21:46Z</time>
      </trkpt>
      <trkpt lat="47.77296" lon="5.11919">
        <ele>432.94</ele>
        <time>2022-07-11T09:21:48Z</time>
      </trkpt>
      <trkpt lat="47.77299" lon="5.11916">
        <ele>432.73</ele>
        <time>2022-07-11T09:21:49Z</time>
      </trkpt>
      <trkpt lat="47.77303" lon="5.11912">
        <ele>432.71</ele>
        <time>2022-07-11T09:21:50Z</time>
      </trkpt>
      <trkpt lat="47.77312" lon="5.11902">
        <ele>433.4</ele>
        <time>2022-07-11T09:21:53Z</time>
      </trkpt>
      <trkpt lat="47.77325" lon="5.11881">
        <ele>434.12</ele>
        <time>2022-07-11T09:21:55Z</time>
      </trkpt>
      <trkpt lat="47.77335" lon="5.11871">
        <ele>434.33</ele>
        <time>2022-07-11T09:21:56Z</time>
      </trkpt>
      <trkpt lat="47.77345" lon="5.1186">
        <ele>435.08</ele>
        <time>2022-07-11T09:21:57Z</time>
      </trkpt>
      <trkpt lat="47.77352" lon="5.1185">
        <ele>436.09</ele>
        <time>2022-07-11T09:21:58Z</time>
      </trkpt>
      <trkpt lat="47.77357" lon="5.11834">
        <ele>436.43</ele>
        <time>2022-07-11T09:22:01Z</time>
      </trkpt>
      <trkpt lat="47.77343" lon="5.11819">
        <ele>433.52</ele>
        <time>2022-07-11T09:22:06Z</time>
      </trkpt>
      <trkpt lat="47.77336" lon="5.11816">
        <ele>432.64</ele>
        <time>2022-07-11T09:22:08Z</time>
      </trkpt>
      <trkpt lat="47.77334" lon="5.11816">
        <ele>432.44</ele>
        <time>2022-07-11T09:22:13Z</time>
      </trkpt>
      <trkpt lat="47.77333" lon="5.1182">
        <ele>432.49</ele>
        <time>2022-07-11T09:22:15Z</time>
      </trkpt>
      <trkpt lat="47.77325" lon="5.11834">
        <ele>432.11</ele>
        <time>2022-07-11T09:22:20Z</time>
      </trkpt>
      <trkpt lat="47.77317" lon="5.11853">
        <ele>431.65</ele>
        <time>2022-07-11T09:22:20Z</time>
      </trkpt>
      <trkpt lat="47.77308" lon="5.11881">
        <ele>432.02</ele>
        <time>2022-07-11T09:22:21Z</time>
      </trkpt>
      <trkpt lat="47.77299" lon="5.11909">
        <ele>432.36</ele>
        <time>2022-07-11T09:22:22Z</time>
      </trkpt>
      <trkpt lat="47.77292" lon="5.11924">
        <ele>433.43</ele>
        <time>2022-07-11T09:22:23Z</time>
      </trkpt>
      <trkpt lat="47.77288" lon="5.11934">
        <ele>434.63</ele>
        <time>2022-07-11T09:22:24Z</time>
      </trkpt>
      <trkpt lat="47.77291" lon="5.11919">
        <ele>432.77</ele>
        <time>2022-07-11T09:22:27Z</time>
      </trkpt>
      <trkpt lat="47.77296" lon="5.11906">
        <ele>432.01</ele>
        <time>2022-07-11T09:22:28Z</time>
      </trkpt>
      <trkpt lat="47.77301" lon="5.1189">
        <ele>431.56</ele>
        <time>2022-07-11T09:22:29Z</time>
      </trkpt>
      <trkpt lat="47.77306" lon="5.11878">
        <ele>431.66</ele>
        <time>2022-07-11T09:22:30Z</time>
      </trkpt>
      <trkpt lat="47.77311" lon="5.11867">
        <ele>431.69</ele>
        <time>2022-07-11T09:22:31Z</time>
      </trkpt>
      <trkpt lat="47.77315" lon="5.11859">
        <ele>431.63</ele>
        <time>2022-07-11T09:22:32Z</time>
      </trkpt>
      <trkpt lat="47.77318" lon="5.11852">
        <ele>431.71</ele>
        <time>2022-07-11T09:22:33Z</time>
      </trkpt>
      <trkpt lat="47.77321" lon="5.11846">
        <ele>431.87</ele>
        <time>2022-07-11T09:22:34Z</time>
      </trkpt>
      <trkpt lat="47.77323" lon="5.11842">
        <ele>432</ele>
        <time>2022-07-11T09:22:35Z</time>
      </trkpt>
      <trkpt lat="47.77324" lon="5.11838">
        <ele>432.05</ele>
        <time>2022-07-11T09:22:36Z</time>
      </trkpt>
      <trkpt lat="47.77326" lon="5.11834">
        <ele>432.21</ele>
        <time>2022-07-11T09:22:37Z</time>
      </trkpt>
      <trkpt lat="47.77329" lon="5.11828">
        <ele>432.37</ele>
        <time>2022-07-11T09:22:39Z</time>
      </trkpt>
      <trkpt lat="47.7733" lon="5.11824">
        <ele>432.34</ele>
        <time>2022-07-11T09:22:42Z</time>
      </trkpt>
      <trkpt lat="47.77331" lon="5.1182">
        <ele>432.31</ele>
        <time>2022-07-11T09:22:50Z</time>
      </trkpt>
      <trkpt lat="47.77332" lon="5.11815">
        <ele>432.23</ele>
        <time>2022-07-11T09:22:52Z</time>
      </trkpt>
      <trkpt lat="47.77333" lon="5.11811">
        <ele>432.17</ele>
        <time>2022-07-11T09:22:54Z</time>
      </trkpt>
      <trkpt lat="47.77334" lon="5.11806">
        <ele>432.06</ele>
        <time>2022-07-11T09:22:59Z</time>
      </trkpt>
      <trkpt lat="47.77335" lon="5.11801">
        <ele>431.96</ele>
        <time>2022-07-11T09:23:02Z</time>
      </trkpt>
      <trkpt lat="47.77335" lon="5.11797">
        <ele>431.81</ele>
        <time>2022-07-11T09:23:04Z</time>
      </trkpt>
      <trkpt lat="47.77335" lon="5.1179">
        <ele>431.56</ele>
        <time>2022-07-11T09:23:07Z</time>
      </trkpt>
      <trkpt lat="47.77335" lon="5.11785">
        <ele>431.38</ele>
        <time>2022-07-11T09:23:09Z</time>
      </trkpt>
      <trkpt lat="47.77335" lon="5.1178">
        <ele>431.2</ele>
        <time>2022-07-11T09:23:11Z</time>
      </trkpt>
      <trkpt lat="47.77335" lon="5.11776">
        <ele>431.06</ele>
        <time>2022-07-11T09:23:13Z</time>
      </trkpt>
      <trkpt lat="47.77335" lon="5.11771">
        <ele>430.91</ele>
        <time>2022-07-11T09:23:16Z</time>
      </trkpt>
      <trkpt lat="47.77335" lon="5.11766">
        <ele>430.75</ele>
        <time>2022-07-11T09:23:18Z</time>
      </trkpt>
      <trkpt lat="47.77335" lon="5.11762">
        <ele>430.62</ele>
        <time>2022-07-11T09:23:22Z</time>
      </trkpt>
      <trkpt lat="47.77336" lon="5.11758">
        <ele>430.62</ele>
        <time>2022-07-11T09:23:24Z</time>
      </trkpt>
      <trkpt lat="47.77336" lon="5.11753">
        <ele>430.47</ele>
        <time>2022-07-11T09:23:27Z</time>
      </trkpt>
      <trkpt lat="47.77337" lon="5.11748">
        <ele>430.61</ele>
        <time>2022-07-11T09:23:29Z</time>
      </trkpt>
      <trkpt lat="47.77337" lon="5.11742">
        <ele>430.85</ele>
        <time>2022-07-11T09:23:31Z</time>
      </trkpt>
      <trkpt lat="47.77338" lon="5.11736">
        <ele>431.26</ele>
        <time>2022-07-11T09:23:33Z</time>
      </trkpt>
      <trkpt lat="47.77338" lon="5.11731">
        <ele>431.47</ele>
        <time>2022-07-11T09:23:35Z</time>
      </trkpt>
      <trkpt lat="47.77337" lon="5.11727">
        <ele>431.47</ele>
        <time>2022-07-11T09:23:37Z</time>
      </trkpt>
      <trkpt lat="47.77336" lon="5.11722">
        <ele>431.48</ele>
        <time>2022-07-11T09:23:41Z</time>
      </trkpt>
      <trkpt lat="47.77336" lon="5.11718">
        <ele>431.51</ele>
        <time>2022-07-11T09:23:43Z</time>
      </trkpt>
      <trkpt lat="47.77336" lon="5.11711">
        <ele>431.56</ele>
        <time>2022-07-11T09:23:44Z</time>
      </trkpt>
      <trkpt lat="47.77337" lon="5.117">
        <ele>431.87</ele>
        <time>2022-07-11T09:23:45Z</time>
      </trkpt>
      <trkpt lat="47.77338" lon="5.11683">
        <ele>431.49</ele>
        <time>2022-07-11T09:23:46Z</time>
      </trkpt>
      <trkpt lat="47.77341" lon="5.1166">
        <ele>431.05</ele>
        <time>2022-07-11T09:23:47Z</time>
      </trkpt>
      <trkpt lat="47.77344" lon="5.11637">
        <ele>430.36</ele>
        <time>2022-07-11T09:23:48Z</time>
      </trkpt>
      <trkpt lat="47.77348" lon="5.11611">
        <ele>431.59</ele>
        <time>2022-07-11T09:23:49Z</time>
      </trkpt>
      <trkpt lat="47.77351" lon="5.11588">
        <ele>432.51</ele>
        <time>2022-07-11T09:23:50Z</time>
      </trkpt>
      <trkpt lat="47.77353" lon="5.11569">
        <ele>434.11</ele>
        <time>2022-07-11T09:23:51Z</time>
      </trkpt>
      <trkpt lat="47.77355" lon="5.11559">
        <ele>435.22</ele>
        <time>2022-07-11T09:23:52Z</time>
      </trkpt>
      <trkpt lat="47.77357" lon="5.11549">
        <ele>436.07</ele>
        <time>2022-07-11T09:23:53Z</time>
      </trkpt>
      <trkpt lat="47.77358" lon="5.11541">
        <ele>436.65</ele>
        <time>2022-07-11T09:23:54Z</time>
      </trkpt>
      <trkpt lat="47.77359" lon="5.11535">
        <ele>437.16</ele>
        <time>2022-07-11T09:23:56Z</time>
      </trkpt>
      <trkpt lat="47.7736" lon="5.11544">
        <ele>436.7</ele>
        <time>2022-07-11T09:24:10Z</time>
      </trkpt>
      <trkpt lat="47.77357" lon="5.11543">
        <ele>436.41</ele>
        <time>2022-07-11T09:24:23Z</time>
      </trkpt>
      <trkpt lat="47.77355" lon="5.11545">
        <ele>436.07</ele>
        <time>2022-07-11T09:24:29Z</time>
      </trkpt>
      <trkpt lat="47.77352" lon="5.11547">
        <ele>435.66</ele>
        <time>2022-07-11T09:24:35Z</time>
      </trkpt>
      <trkpt lat="47.7735" lon="5.1155">
        <ele>435.36</ele>
        <time>2022-07-11T09:24:39Z</time>
      </trkpt>
      <trkpt lat="47.77348" lon="5.11554">
        <ele>435.09</ele>
        <time>2022-07-11T09:24:44Z</time>
      </trkpt>
      <trkpt lat="47.77345" lon="5.11554">
        <ele>434.85</ele>
        <time>2022-07-11T09:24:47Z</time>
      </trkpt>
      <trkpt lat="47.77342" lon="5.11554">
        <ele>434.62</ele>
        <time>2022-07-11T09:24:50Z</time>
      </trkpt>
      <trkpt lat="47.7734" lon="5.11554">
        <ele>434.46</ele>
        <time>2022-07-11T09:24:53Z</time>
      </trkpt>
      <trkpt lat="47.77337" lon="5.11552">
        <ele>434.19</ele>
        <time>2022-07-11T09:24:56Z</time>
      </trkpt>
      <trkpt lat="47.77335" lon="5.11549">
        <ele>433.93</ele>
        <time>2022-07-11T09:24:58Z</time>
      </trkpt>
      <trkpt lat="47.77333" lon="5.11547">
        <ele>433.61</ele>
        <time>2022-07-11T09:25:01Z</time>
      </trkpt>
      <trkpt lat="47.77331" lon="5.11543">
        <ele>433</ele>
        <time>2022-07-11T09:25:04Z</time>
      </trkpt>
      <trkpt lat="47.7733" lon="5.11539">
        <ele>432.64</ele>
        <time>2022-07-11T09:25:07Z</time>
      </trkpt>
      <trkpt lat="47.77328" lon="5.11536">
        <ele>432.09</ele>
        <time>2022-07-11T09:25:10Z</time>
      </trkpt>
      <trkpt lat="47.77326" lon="5.11533">
        <ele>431.55</ele>
        <time>2022-07-11T09:25:13Z</time>
      </trkpt>
      <trkpt lat="47.77325" lon="5.11508">
        <ele>429.78</ele>
        <time>2022-07-11T09:25:18Z</time>
      </trkpt>
      <trkpt lat="47.77326" lon="5.11525">
        <ele>431.22</ele>
        <time>2022-07-11T09:25:18Z</time>
      </trkpt>
      <trkpt lat="47.77326" lon="5.11513">
        <ele>430.35</ele>
        <time>2022-07-11T09:25:18Z</time>
      </trkpt>
      <trkpt lat="47.77326" lon="5.11501">
        <ele>429.49</ele>
        <time>2022-07-11T09:25:20Z</time>
      </trkpt>
      <trkpt lat="47.77326" lon="5.11496">
        <ele>428.73</ele>
        <time>2022-07-11T09:25:22Z</time>
      </trkpt>
      <trkpt lat="47.77327" lon="5.11491">
        <ele>428.09</ele>
        <time>2022-07-11T09:25:23Z</time>
      </trkpt>
      <trkpt lat="47.77327" lon="5.11485">
        <ele>427.06</ele>
        <time>2022-07-11T09:25:25Z</time>
      </trkpt>
      <trkpt lat="47.77327" lon="5.1148">
        <ele>426.2</ele>
        <time>2022-07-11T09:25:27Z</time>
      </trkpt>
      <trkpt lat="47.77326" lon="5.11476">
        <ele>425.32</ele>
        <time>2022-07-11T09:25:29Z</time>
      </trkpt>
      <trkpt lat="47.77326" lon="5.11472">
        <ele>424.63</ele>
        <time>2022-07-11T09:25:31Z</time>
      </trkpt>
      <trkpt lat="47.77326" lon="5.11466">
        <ele>423.4</ele>
        <time>2022-07-11T09:25:33Z</time>
      </trkpt>
      <trkpt lat="47.77327" lon="5.11461">
        <ele>422.53</ele>
        <time>2022-07-11T09:25:36Z</time>
      </trkpt>
      <trkpt lat="47.77327" lon="5.11456">
        <ele>421.49</ele>
        <time>2022-07-11T09:25:37Z</time>
      </trkpt>
      <trkpt lat="47.77327" lon="5.11451">
        <ele>420.45</ele>
        <time>2022-07-11T09:25:39Z</time>
      </trkpt>
      <trkpt lat="47.77328" lon="5.11446">
        <ele>419.56</ele>
        <time>2022-07-11T09:25:42Z</time>
      </trkpt>
      <trkpt lat="47.77328" lon="5.11441">
        <ele>418.76</ele>
        <time>2022-07-11T09:25:44Z</time>
      </trkpt>
      <trkpt lat="47.77329" lon="5.11436">
        <ele>418.21</ele>
        <time>2022-07-11T09:25:45Z</time>
      </trkpt>
      <trkpt lat="47.77329" lon="5.11432">
        <ele>417.65</ele>
        <time>2022-07-11T09:25:47Z</time>
      </trkpt>
      <trkpt lat="47.7733" lon="5.11428">
        <ele>417.22</ele>
        <time>2022-07-11T09:25:50Z</time>
      </trkpt>
      <trkpt lat="47.7733" lon="5.11424">
        <ele>416.66</ele>
        <time>2022-07-11T09:25:52Z</time>
      </trkpt>
      <trkpt lat="47.77331" lon="5.11419">
        <ele>416.08</ele>
        <time>2022-07-11T09:25:54Z</time>
      </trkpt>
      <trkpt lat="47.77332" lon="5.11414">
        <ele>415.67</ele>
        <time>2022-07-11T09:25:56Z</time>
      </trkpt>
      <trkpt lat="47.77333" lon="5.11409">
        <ele>415.42</ele>
        <time>2022-07-11T09:25:59Z</time>
      </trkpt>
      <trkpt lat="47.77334" lon="5.11405">
        <ele>415.32</ele>
        <time>2022-07-11T09:26:01Z</time>
      </trkpt>
      <trkpt lat="47.77335" lon="5.114">
        <ele>415.18</ele>
        <time>2022-07-11T09:26:03Z</time>
      </trkpt>
      <trkpt lat="47.77336" lon="5.11396">
        <ele>415.11</ele>
        <time>2022-07-11T09:26:05Z</time>
      </trkpt>
      <trkpt lat="47.77336" lon="5.11391">
        <ele>414.74</ele>
        <time>2022-07-11T09:26:08Z</time>
      </trkpt>
      <trkpt lat="47.77337" lon="5.11386">
        <ele>414.85</ele>
        <time>2022-07-11T09:26:09Z</time>
      </trkpt>
      <trkpt lat="47.77338" lon="5.11383">
        <ele>415.11</ele>
        <time>2022-07-11T09:26:11Z</time>
      </trkpt>
      <trkpt lat="47.77338" lon="5.11378">
        <ele>415.2</ele>
        <time>2022-07-11T09:26:14Z</time>
      </trkpt>
      <trkpt lat="47.77339" lon="5.11374">
        <ele>415.43</ele>
        <time>2022-07-11T09:26:15Z</time>
      </trkpt>
      <trkpt lat="47.7734" lon="5.11369">
        <ele>415.64</ele>
        <time>2022-07-11T09:26:17Z</time>
      </trkpt>
      <trkpt lat="47.77341" lon="5.11365">
        <ele>415.8</ele>
        <time>2022-07-11T09:26:20Z</time>
      </trkpt>
      <trkpt lat="47.77343" lon="5.1136">
        <ele>416</ele>
        <time>2022-07-11T09:26:21Z</time>
      </trkpt>
      <trkpt lat="47.77344" lon="5.11355">
        <ele>415.93</ele>
        <time>2022-07-11T09:26:25Z</time>
      </trkpt>
      <trkpt lat="47.77346" lon="5.11351">
        <ele>416</ele>
        <time>2022-07-11T09:26:27Z</time>
      </trkpt>
      <trkpt lat="47.77348" lon="5.11345">
        <ele>416</ele>
        <time>2022-07-11T09:26:29Z</time>
      </trkpt>
      <trkpt lat="47.7735" lon="5.11341">
        <ele>416.08</ele>
        <time>2022-07-11T09:26:32Z</time>
      </trkpt>
      <trkpt lat="47.77352" lon="5.11337">
        <ele>416.15</ele>
        <time>2022-07-11T09:26:33Z</time>
      </trkpt>
      <trkpt lat="47.77353" lon="5.11332">
        <ele>416.01</ele>
        <time>2022-07-11T09:26:35Z</time>
      </trkpt>
      <trkpt lat="47.77355" lon="5.11329">
        <ele>415.94</ele>
        <time>2022-07-11T09:26:38Z</time>
      </trkpt>
      <trkpt lat="47.77357" lon="5.11324">
        <ele>415.65</ele>
        <time>2022-07-11T09:26:40Z</time>
      </trkpt>
      <trkpt lat="47.77359" lon="5.1132">
        <ele>415.4</ele>
        <time>2022-07-11T09:26:42Z</time>
      </trkpt>
      <trkpt lat="47.77361" lon="5.11317">
        <ele>415.23</ele>
        <time>2022-07-11T09:26:45Z</time>
      </trkpt>
      <trkpt lat="47.77363" lon="5.11312">
        <ele>414.75</ele>
        <time>2022-07-11T09:26:47Z</time>
      </trkpt>
      <trkpt lat="47.77364" lon="5.11309">
        <ele>414.46</ele>
        <time>2022-07-11T09:26:49Z</time>
      </trkpt>
      <trkpt lat="47.77366" lon="5.11306">
        <ele>414.22</ele>
        <time>2022-07-11T09:26:50Z</time>
      </trkpt>
      <trkpt lat="47.77368" lon="5.11302">
        <ele>413.67</ele>
        <time>2022-07-11T09:26:53Z</time>
      </trkpt>
      <trkpt lat="47.7737" lon="5.11299">
        <ele>413.22</ele>
        <time>2022-07-11T09:26:55Z</time>
      </trkpt>
      <trkpt lat="47.77372" lon="5.11296">
        <ele>412.75</ele>
        <time>2022-07-11T09:26:57Z</time>
      </trkpt>
      <trkpt lat="47.77374" lon="5.11291">
        <ele>411.88</ele>
        <time>2022-07-11T09:26:58Z</time>
      </trkpt>
      <trkpt lat="47.77375" lon="5.11288">
        <ele>411.34</ele>
        <time>2022-07-11T09:27:00Z</time>
      </trkpt>
      <trkpt lat="47.77377" lon="5.11284">
        <ele>410.58</ele>
        <time>2022-07-11T09:27:03Z</time>
      </trkpt>
      <trkpt lat="47.77379" lon="5.11281">
        <ele>409.97</ele>
        <time>2022-07-11T09:27:05Z</time>
      </trkpt>
      <trkpt lat="47.77381" lon="5.11277">
        <ele>409.19</ele>
        <time>2022-07-11T09:27:07Z</time>
      </trkpt>
      <trkpt lat="47.77384" lon="5.11273">
        <ele>408.63</ele>
        <time>2022-07-11T09:27:10Z</time>
      </trkpt>
      <trkpt lat="47.77386" lon="5.1127">
        <ele>408.23</ele>
        <time>2022-07-11T09:27:12Z</time>
      </trkpt>
      <trkpt lat="47.77388" lon="5.11266">
        <ele>407.75</ele>
        <time>2022-07-11T09:27:14Z</time>
      </trkpt>
      <trkpt lat="47.7739" lon="5.11262">
        <ele>407.37</ele>
        <time>2022-07-11T09:27:17Z</time>
      </trkpt>
      <trkpt lat="47.77392" lon="5.11258">
        <ele>407.04</ele>
        <time>2022-07-11T09:27:19Z</time>
      </trkpt>
      <trkpt lat="47.77394" lon="5.11254">
        <ele>406.67</ele>
        <time>2022-07-11T09:27:21Z</time>
      </trkpt>
      <trkpt lat="47.77395" lon="5.11251">
        <ele>406.34</ele>
        <time>2022-07-11T09:27:23Z</time>
      </trkpt>
      <trkpt lat="47.77396" lon="5.11247">
        <ele>406.23</ele>
        <time>2022-07-11T09:27:24Z</time>
      </trkpt>
      <trkpt lat="47.77398" lon="5.11243">
        <ele>406.25</ele>
        <time>2022-07-11T09:27:27Z</time>
      </trkpt>
      <trkpt lat="47.774" lon="5.11239">
        <ele>406.24</ele>
        <time>2022-07-11T09:27:28Z</time>
      </trkpt>
      <trkpt lat="47.77401" lon="5.11236">
        <ele>406.22</ele>
        <time>2022-07-11T09:27:30Z</time>
      </trkpt>
      <trkpt lat="47.77404" lon="5.11232">
        <ele>406.19</ele>
        <time>2022-07-11T09:27:31Z</time>
      </trkpt>
      <trkpt lat="47.77406" lon="5.11229">
        <ele>406.15</ele>
        <time>2022-07-11T09:27:34Z</time>
      </trkpt>
      <trkpt lat="47.77408" lon="5.11226">
        <ele>406.09</ele>
        <time>2022-07-11T09:27:36Z</time>
      </trkpt>
      <trkpt lat="47.77411" lon="5.11224">
        <ele>406.05</ele>
        <time>2022-07-11T09:27:38Z</time>
      </trkpt>
      <trkpt lat="47.77413" lon="5.11221">
        <ele>405.66</ele>
        <time>2022-07-11T09:27:40Z</time>
      </trkpt>
      <trkpt lat="47.77416" lon="5.11217">
        <ele>404.51</ele>
        <time>2022-07-11T09:27:42Z</time>
      </trkpt>
      <trkpt lat="47.77418" lon="5.11213">
        <ele>403.46</ele>
        <time>2022-07-11T09:27:44Z</time>
      </trkpt>
      <trkpt lat="47.7742" lon="5.1121">
        <ele>402.77</ele>
        <time>2022-07-11T09:27:47Z</time>
      </trkpt>
      <trkpt lat="47.77423" lon="5.11207">
        <ele>402.2</ele>
        <time>2022-07-11T09:27:49Z</time>
      </trkpt>
      <trkpt lat="47.77426" lon="5.11203">
        <ele>401.37</ele>
        <time>2022-07-11T09:27:52Z</time>
      </trkpt>
      <trkpt lat="47.77428" lon="5.112">
        <ele>400.74</ele>
        <time>2022-07-11T09:27:53Z</time>
      </trkpt>
      <trkpt lat="47.7743" lon="5.11195">
        <ele>399.59</ele>
        <time>2022-07-11T09:27:56Z</time>
      </trkpt>
      <trkpt lat="47.77432" lon="5.11191">
        <ele>398.95</ele>
        <time>2022-07-11T09:27:58Z</time>
      </trkpt>
      <trkpt lat="47.77433" lon="5.11187">
        <ele>398.22</ele>
        <time>2022-07-11T09:28:00Z</time>
      </trkpt>
      <trkpt lat="47.77435" lon="5.11182">
        <ele>397.3</ele>
        <time>2022-07-11T09:28:03Z</time>
      </trkpt>
      <trkpt lat="47.77436" lon="5.11179">
        <ele>396.7</ele>
        <time>2022-07-11T09:28:06Z</time>
      </trkpt>
      <trkpt lat="47.77438" lon="5.11175">
        <ele>395.89</ele>
        <time>2022-07-11T09:28:07Z</time>
      </trkpt>
      <trkpt lat="47.7744" lon="5.11172">
        <ele>395.25</ele>
        <time>2022-07-11T09:28:10Z</time>
      </trkpt>
      <trkpt lat="47.77442" lon="5.11168">
        <ele>394.32</ele>
        <time>2022-07-11T09:28:13Z</time>
      </trkpt>
      <trkpt lat="47.77436" lon="5.11175">
        <ele>395.83</ele>
        <time>2022-07-11T09:28:16Z</time>
      </trkpt>
      <trkpt lat="47.77431" lon="5.11185">
        <ele>397.66</ele>
        <time>2022-07-11T09:28:17Z</time>
      </trkpt>
      <trkpt lat="47.77435" lon="5.11165">
        <ele>393.8</ele>
        <time>2022-07-11T09:28:26Z</time>
      </trkpt>
      <trkpt lat="47.7744" lon="5.11159">
        <ele>393.13</ele>
        <time>2022-07-11T09:28:28Z</time>
      </trkpt>
      <trkpt lat="47.77443" lon="5.11156">
        <ele>392.83</ele>
        <time>2022-07-11T09:28:30Z</time>
      </trkpt>
      <trkpt lat="47.77444" lon="5.11151">
        <ele>392.3</ele>
        <time>2022-07-11T09:28:32Z</time>
      </trkpt>
      <trkpt lat="47.77445" lon="5.11145">
        <ele>391.73</ele>
        <time>2022-07-11T09:28:34Z</time>
      </trkpt>
      <trkpt lat="47.7745" lon="5.11139">
        <ele>391.61</ele>
        <time>2022-07-11T09:28:38Z</time>
      </trkpt>
      <trkpt lat="47.77461" lon="5.11129">
        <ele>391.44</ele>
        <time>2022-07-11T09:28:40Z</time>
      </trkpt>
      <trkpt lat="47.77464" lon="5.11126">
        <ele>391.2</ele>
        <time>2022-07-11T09:28:41Z</time>
      </trkpt>
      <trkpt lat="47.77467" lon="5.11123">
        <ele>390.9</ele>
        <time>2022-07-11T09:28:43Z</time>
      </trkpt>
      <trkpt lat="47.77469" lon="5.1112">
        <ele>390.49</ele>
        <time>2022-07-11T09:28:45Z</time>
      </trkpt>
      <trkpt lat="47.77471" lon="5.11116">
        <ele>389.86</ele>
        <time>2022-07-11T09:28:48Z</time>
      </trkpt>
      <trkpt lat="47.77474" lon="5.11112">
        <ele>389.22</ele>
        <time>2022-07-11T09:28:49Z</time>
      </trkpt>
      <trkpt lat="47.77478" lon="5.11108">
        <ele>388.94</ele>
        <time>2022-07-11T09:28:51Z</time>
      </trkpt>
      <trkpt lat="47.7748" lon="5.11105">
        <ele>388.72</ele>
        <time>2022-07-11T09:28:54Z</time>
      </trkpt>
      <trkpt lat="47.77483" lon="5.11102">
        <ele>388.48</ele>
        <time>2022-07-11T09:28:56Z</time>
      </trkpt>
      <trkpt lat="47.77486" lon="5.111">
        <ele>388.3</ele>
        <time>2022-07-11T09:28:58Z</time>
      </trkpt>
      <trkpt lat="47.77489" lon="5.11097">
        <ele>387.97</ele>
        <time>2022-07-11T09:29:01Z</time>
      </trkpt>
      <trkpt lat="47.77492" lon="5.11094">
        <ele>387.6</ele>
        <time>2022-07-11T09:29:03Z</time>
      </trkpt>
      <trkpt lat="47.77494" lon="5.11091">
        <ele>387.2</ele>
        <time>2022-07-11T09:29:06Z</time>
      </trkpt>
      <trkpt lat="47.77497" lon="5.11088">
        <ele>386.74</ele>
        <time>2022-07-11T09:29:08Z</time>
      </trkpt>
      <trkpt lat="47.77499" lon="5.11086">
        <ele>386.41</ele>
        <time>2022-07-11T09:29:10Z</time>
      </trkpt>
      <trkpt lat="47.77502" lon="5.11083">
        <ele>386.13</ele>
        <time>2022-07-11T09:29:13Z</time>
      </trkpt>
      <trkpt lat="47.77505" lon="5.11081">
        <ele>386.26</ele>
        <time>2022-07-11T09:29:15Z</time>
      </trkpt>
      <trkpt lat="47.77508" lon="5.11079">
        <ele>386.38</ele>
        <time>2022-07-11T09:29:17Z</time>
      </trkpt>
      <trkpt lat="47.77511" lon="5.11077">
        <ele>386.47</ele>
        <time>2022-07-11T09:29:20Z</time>
      </trkpt>
      <trkpt lat="47.77514" lon="5.11075">
        <ele>386.56</ele>
        <time>2022-07-11T09:29:22Z</time>
      </trkpt>
      <trkpt lat="47.77518" lon="5.11073">
        <ele>386.68</ele>
        <time>2022-07-11T09:29:24Z</time>
      </trkpt>
      <trkpt lat="47.77521" lon="5.1107">
        <ele>386.67</ele>
        <time>2022-07-11T09:29:28Z</time>
      </trkpt>
      <trkpt lat="47.77525" lon="5.11068">
        <ele>386.75</ele>
        <time>2022-07-11T09:29:33Z</time>
      </trkpt>
      <trkpt lat="47.7753" lon="5.11066">
        <ele>386.97</ele>
        <time>2022-07-11T09:29:33Z</time>
      </trkpt>
      <trkpt lat="47.77538" lon="5.11064">
        <ele>387.57</ele>
        <time>2022-07-11T09:29:34Z</time>
      </trkpt>
      <trkpt lat="47.77547" lon="5.1106">
        <ele>387.93</ele>
        <time>2022-07-11T09:29:35Z</time>
      </trkpt>
      <trkpt lat="47.77554" lon="5.11055">
        <ele>387.89</ele>
        <time>2022-07-11T09:29:36Z</time>
      </trkpt>
      <trkpt lat="47.77558" lon="5.11049">
        <ele>388.4</ele>
        <time>2022-07-11T09:29:38Z</time>
      </trkpt>
      <trkpt lat="47.77562" lon="5.11043">
        <ele>388.95</ele>
        <time>2022-07-11T09:29:42Z</time>
      </trkpt>
      <trkpt lat="47.77565" lon="5.11041">
        <ele>389.34</ele>
        <time>2022-07-11T09:29:45Z</time>
      </trkpt>
      <trkpt lat="47.77568" lon="5.1104">
        <ele>389.74</ele>
        <time>2022-07-11T09:29:48Z</time>
      </trkpt>
      <trkpt lat="47.77571" lon="5.11038">
        <ele>390.08</ele>
        <time>2022-07-11T09:29:52Z</time>
      </trkpt>
      <trkpt lat="47.77573" lon="5.11034">
        <ele>390.17</ele>
        <time>2022-07-11T09:29:56Z</time>
      </trkpt>
      <trkpt lat="47.77576" lon="5.11032">
        <ele>390.43</ele>
        <time>2022-07-11T09:30:00Z</time>
      </trkpt>
      <trkpt lat="47.77579" lon="5.11031">
        <ele>390.73</ele>
        <time>2022-07-11T09:30:02Z</time>
      </trkpt>
      <trkpt lat="47.77581" lon="5.11029">
        <ele>390.83</ele>
        <time>2022-07-11T09:30:05Z</time>
      </trkpt>
      <trkpt lat="47.77584" lon="5.11027">
        <ele>391.17</ele>
        <time>2022-07-11T09:30:09Z</time>
      </trkpt>
      <trkpt lat="47.77588" lon="5.11027">
        <ele>391.88</ele>
        <time>2022-07-11T09:30:13Z</time>
      </trkpt>
      <trkpt lat="47.77591" lon="5.11026">
        <ele>392.46</ele>
        <time>2022-07-11T09:30:16Z</time>
      </trkpt>
      <trkpt lat="47.77594" lon="5.11025">
        <ele>393</ele>
        <time>2022-07-11T09:30:19Z</time>
      </trkpt>
      <trkpt lat="47.77597" lon="5.11023">
        <ele>393.55</ele>
        <time>2022-07-11T09:30:21Z</time>
      </trkpt>
      <trkpt lat="47.776" lon="5.11022">
        <ele>394.04</ele>
        <time>2022-07-11T09:30:23Z</time>
      </trkpt>
      <trkpt lat="47.77602" lon="5.1102">
        <ele>394.36</ele>
        <time>2022-07-11T09:30:27Z</time>
      </trkpt>
      <trkpt lat="47.77605" lon="5.11019">
        <ele>394.79</ele>
        <time>2022-07-11T09:30:29Z</time>
      </trkpt>
      <trkpt lat="47.77608" lon="5.11018">
        <ele>395.21</ele>
        <time>2022-07-11T09:30:32Z</time>
      </trkpt>
      <trkpt lat="47.77611" lon="5.11017">
        <ele>395.6</ele>
        <time>2022-07-11T09:30:34Z</time>
      </trkpt>
      <trkpt lat="47.77614" lon="5.11017">
        <ele>395.34</ele>
        <time>2022-07-11T09:30:37Z</time>
      </trkpt>
      <trkpt lat="47.77616" lon="5.11016">
        <ele>395.12</ele>
        <time>2022-07-11T09:30:39Z</time>
      </trkpt>
      <trkpt lat="47.77619" lon="5.11016">
        <ele>394.84</ele>
        <time>2022-07-11T09:30:42Z</time>
      </trkpt>
      <trkpt lat="47.77622" lon="5.11015">
        <ele>394.54</ele>
        <time>2022-07-11T09:30:44Z</time>
      </trkpt>
      <trkpt lat="47.77625" lon="5.11014">
        <ele>394.25</ele>
        <time>2022-07-11T09:30:46Z</time>
      </trkpt>
      <trkpt lat="47.77628" lon="5.11013">
        <ele>393.97</ele>
        <time>2022-07-11T09:30:49Z</time>
      </trkpt>
      <trkpt lat="47.77631" lon="5.11012">
        <ele>393.69</ele>
        <time>2022-07-11T09:30:51Z</time>
      </trkpt>
      <trkpt lat="47.77634" lon="5.1101">
        <ele>393.42</ele>
        <time>2022-07-11T09:30:52Z</time>
      </trkpt>
      <trkpt lat="47.77637" lon="5.11009">
        <ele>393.16</ele>
        <time>2022-07-11T09:30:54Z</time>
      </trkpt>
      <trkpt lat="47.77641" lon="5.11007">
        <ele>392.92</ele>
        <time>2022-07-11T09:30:57Z</time>
      </trkpt>
      <trkpt lat="47.77644" lon="5.11006">
        <ele>392.82</ele>
        <time>2022-07-11T09:30:59Z</time>
      </trkpt>
      <trkpt lat="47.77647" lon="5.11006">
        <ele>392.71</ele>
        <time>2022-07-11T09:31:02Z</time>
      </trkpt>
      <trkpt lat="47.7765" lon="5.11005">
        <ele>392.6</ele>
        <time>2022-07-11T09:31:04Z</time>
      </trkpt>
      <trkpt lat="47.77653" lon="5.11004">
        <ele>392.49</ele>
        <time>2022-07-11T09:31:06Z</time>
      </trkpt>
      <trkpt lat="47.77656" lon="5.11002">
        <ele>392.38</ele>
        <time>2022-07-11T09:31:08Z</time>
      </trkpt>
      <trkpt lat="47.77658" lon="5.11001">
        <ele>392.31</ele>
        <time>2022-07-11T09:31:10Z</time>
      </trkpt>
      <trkpt lat="47.77661" lon="5.11">
        <ele>392.2</ele>
        <time>2022-07-11T09:31:13Z</time>
      </trkpt>
      <trkpt lat="47.77664" lon="5.10999">
        <ele>392.13</ele>
        <time>2022-07-11T09:31:16Z</time>
      </trkpt>
      <trkpt lat="47.77667" lon="5.10998">
        <ele>392.04</ele>
        <time>2022-07-11T09:31:18Z</time>
      </trkpt>
      <trkpt lat="47.77671" lon="5.10996">
        <ele>391.7</ele>
        <time>2022-07-11T09:31:21Z</time>
      </trkpt>
      <trkpt lat="47.77674" lon="5.10996">
        <ele>391.39</ele>
        <time>2022-07-11T09:31:23Z</time>
      </trkpt>
      <trkpt lat="47.77677" lon="5.10995">
        <ele>391.13</ele>
        <time>2022-07-11T09:31:25Z</time>
      </trkpt>
      <trkpt lat="47.7768" lon="5.10996">
        <ele>390.77</ele>
        <time>2022-07-11T09:31:28Z</time>
      </trkpt>
      <trkpt lat="47.77683" lon="5.10996">
        <ele>390.46</ele>
        <time>2022-07-11T09:31:29Z</time>
      </trkpt>
      <trkpt lat="47.77687" lon="5.10997">
        <ele>389.99</ele>
        <time>2022-07-11T09:31:31Z</time>
      </trkpt>
      <trkpt lat="47.7769" lon="5.10997">
        <ele>389.68</ele>
        <time>2022-07-11T09:31:32Z</time>
      </trkpt>
      <trkpt lat="47.77694" lon="5.10997">
        <ele>389.26</ele>
        <time>2022-07-11T09:31:34Z</time>
      </trkpt>
      <trkpt lat="47.77698" lon="5.10997">
        <ele>389.09</ele>
        <time>2022-07-11T09:31:36Z</time>
      </trkpt>
      <trkpt lat="47.77701" lon="5.10996">
        <ele>389.05</ele>
        <time>2022-07-11T09:31:38Z</time>
      </trkpt>
      <trkpt lat="47.77704" lon="5.10994">
        <ele>389.09</ele>
        <time>2022-07-11T09:31:41Z</time>
      </trkpt>
      <trkpt lat="47.77707" lon="5.10993">
        <ele>389.05</ele>
        <time>2022-07-11T09:31:43Z</time>
      </trkpt>
      <trkpt lat="47.7771" lon="5.10992">
        <ele>389.02</ele>
        <time>2022-07-11T09:31:45Z</time>
      </trkpt>
      <trkpt lat="47.77713" lon="5.10992">
        <ele>388.91</ele>
        <time>2022-07-11T09:31:48Z</time>
      </trkpt>
      <trkpt lat="47.77716" lon="5.10991">
        <ele>388.87</ele>
        <time>2022-07-11T09:31:51Z</time>
      </trkpt>
      <trkpt lat="47.7772" lon="5.10991">
        <ele>388.73</ele>
        <time>2022-07-11T09:31:53Z</time>
      </trkpt>
      <trkpt lat="47.77723" lon="5.10991">
        <ele>388.69</ele>
        <time>2022-07-11T09:31:55Z</time>
      </trkpt>
      <trkpt lat="47.77727" lon="5.10991">
        <ele>388.88</ele>
        <time>2022-07-11T09:31:57Z</time>
      </trkpt>
      <trkpt lat="47.7773" lon="5.10991">
        <ele>389.02</ele>
        <time>2022-07-11T09:31:59Z</time>
      </trkpt>
      <trkpt lat="47.77733" lon="5.10992">
        <ele>389.08</ele>
        <time>2022-07-11T09:32:02Z</time>
      </trkpt>
      <trkpt lat="47.77736" lon="5.10992">
        <ele>389.21</ele>
        <time>2022-07-11T09:32:08Z</time>
      </trkpt>
      <trkpt lat="47.7774" lon="5.10992">
        <ele>389.4</ele>
        <time>2022-07-11T09:32:10Z</time>
      </trkpt>
      <trkpt lat="47.77743" lon="5.10991">
        <ele>389.64</ele>
        <time>2022-07-11T09:32:13Z</time>
      </trkpt>
      <trkpt lat="47.77745" lon="5.10992">
        <ele>389.63</ele>
        <time>2022-07-11T09:32:15Z</time>
      </trkpt>
      <trkpt lat="47.77745" lon="5.10997">
        <ele>389.12</ele>
        <time>2022-07-11T09:32:19Z</time>
      </trkpt>
      <trkpt lat="47.77741" lon="5.11001">
        <ele>388.69</ele>
        <time>2022-07-11T09:32:20Z</time>
      </trkpt>
      <trkpt lat="47.7773" lon="5.11011">
        <ele>389.02</ele>
        <time>2022-07-11T09:32:21Z</time>
      </trkpt>
      <trkpt lat="47.77718" lon="5.11022">
        <ele>390.29</ele>
        <time>2022-07-11T09:32:22Z</time>
      </trkpt>
      <trkpt lat="47.77705" lon="5.11033">
        <ele>390.19</ele>
        <time>2022-07-11T09:32:23Z</time>
      </trkpt>
      <trkpt lat="47.77696" lon="5.11041">
        <ele>389.58</ele>
        <time>2022-07-11T09:32:24Z</time>
      </trkpt>
      <trkpt lat="47.7771" lon="5.11043">
        <ele>390.01</ele>
        <time>2022-07-11T09:32:30Z</time>
      </trkpt>
      <trkpt lat="47.77721" lon="5.11042">
        <ele>390.44</ele>
        <time>2022-07-11T09:32:33Z</time>
      </trkpt>
      <trkpt lat="47.77734" lon="5.11041">
        <ele>390.06</ele>
        <time>2022-07-11T09:32:34Z</time>
      </trkpt>
      <trkpt lat="47.77744" lon="5.1104">
        <ele>389.59</ele>
        <time>2022-07-11T09:32:35Z</time>
      </trkpt>
      <trkpt lat="47.77753" lon="5.11038">
        <ele>389.62</ele>
        <time>2022-07-11T09:32:36Z</time>
      </trkpt>
      <trkpt lat="47.77758" lon="5.11036">
        <ele>390.39</ele>
        <time>2022-07-11T09:32:38Z</time>
      </trkpt>
      <trkpt lat="47.77763" lon="5.11034">
        <ele>391.32</ele>
        <time>2022-07-11T09:32:40Z</time>
      </trkpt>
      <trkpt lat="47.77769" lon="5.11032">
        <ele>392.62</ele>
        <time>2022-07-11T09:32:42Z</time>
      </trkpt>
      <trkpt lat="47.77772" lon="5.11029">
        <ele>393.47</ele>
        <time>2022-07-11T09:32:44Z</time>
      </trkpt>
      <trkpt lat="47.77775" lon="5.11027">
        <ele>394.25</ele>
        <time>2022-07-11T09:32:48Z</time>
      </trkpt>
      <trkpt lat="47.77778" lon="5.11024">
        <ele>394.74</ele>
        <time>2022-07-11T09:32:51Z</time>
      </trkpt>
      <trkpt lat="47.77782" lon="5.11022">
        <ele>394.77</ele>
        <time>2022-07-11T09:32:54Z</time>
      </trkpt>
      <trkpt lat="47.77785" lon="5.1102">
        <ele>394.77</ele>
        <time>2022-07-11T09:32:56Z</time>
      </trkpt>
      <trkpt lat="47.77788" lon="5.11018">
        <ele>394.79</ele>
        <time>2022-07-11T09:32:59Z</time>
      </trkpt>
      <trkpt lat="47.7779" lon="5.11016">
        <ele>394.78</ele>
        <time>2022-07-11T09:33:01Z</time>
      </trkpt>
      <trkpt lat="47.77793" lon="5.11015">
        <ele>394.88</ele>
        <time>2022-07-11T09:33:04Z</time>
      </trkpt>
      <trkpt lat="47.77797" lon="5.11013">
        <ele>395</ele>
        <time>2022-07-11T09:33:11Z</time>
      </trkpt>
      <trkpt lat="47.77799" lon="5.11012">
        <ele>395.06</ele>
        <time>2022-07-11T09:33:12Z</time>
      </trkpt>
      <trkpt lat="47.77803" lon="5.11011">
        <ele>395.25</ele>
        <time>2022-07-11T09:33:14Z</time>
      </trkpt>
      <trkpt lat="47.77806" lon="5.1101">
        <ele>395.32</ele>
        <time>2022-07-11T09:33:16Z</time>
      </trkpt>
      <trkpt lat="47.77809" lon="5.11009">
        <ele>395</ele>
        <time>2022-07-11T09:33:17Z</time>
      </trkpt>
      <trkpt lat="47.77813" lon="5.11008">
        <ele>394.6</ele>
        <time>2022-07-11T09:33:19Z</time>
      </trkpt>
      <trkpt lat="47.77816" lon="5.11007">
        <ele>394.31</ele>
        <time>2022-07-11T09:33:20Z</time>
      </trkpt>
      <trkpt lat="47.77819" lon="5.11006">
        <ele>394.04</ele>
        <time>2022-07-11T09:33:22Z</time>
      </trkpt>
      <trkpt lat="47.77822" lon="5.11004">
        <ele>393.79</ele>
        <time>2022-07-11T09:33:24Z</time>
      </trkpt>
      <trkpt lat="47.77826" lon="5.11003">
        <ele>393.48</ele>
        <time>2022-07-11T09:33:26Z</time>
      </trkpt>
      <trkpt lat="47.77829" lon="5.11002">
        <ele>393.26</ele>
        <time>2022-07-11T09:33:28Z</time>
      </trkpt>
      <trkpt lat="47.77833" lon="5.11002">
        <ele>392.95</ele>
        <time>2022-07-11T09:33:29Z</time>
      </trkpt>
      <trkpt lat="47.77836" lon="5.11001">
        <ele>392.96</ele>
        <time>2022-07-11T09:33:31Z</time>
      </trkpt>
      <trkpt lat="47.7784" lon="5.11">
        <ele>393</ele>
        <time>2022-07-11T09:33:33Z</time>
      </trkpt>
      <trkpt lat="47.77844" lon="5.11001">
        <ele>392.94</ele>
        <time>2022-07-11T09:33:35Z</time>
      </trkpt>
      <trkpt lat="47.77848" lon="5.11001">
        <ele>392.93</ele>
        <time>2022-07-11T09:33:36Z</time>
      </trkpt>
      <trkpt lat="47.77851" lon="5.11002">
        <ele>392.84</ele>
        <time>2022-07-11T09:33:37Z</time>
      </trkpt>
      <trkpt lat="47.77855" lon="5.11003">
        <ele>392.72</ele>
        <time>2022-07-11T09:33:39Z</time>
      </trkpt>
      <trkpt lat="47.77858" lon="5.11003">
        <ele>392.7</ele>
        <time>2022-07-11T09:33:41Z</time>
      </trkpt>
      <trkpt lat="47.77862" lon="5.11004">
        <ele>392.62</ele>
        <time>2022-07-11T09:33:43Z</time>
      </trkpt>
      <trkpt lat="47.77865" lon="5.11005">
        <ele>392.66</ele>
        <time>2022-07-11T09:33:45Z</time>
      </trkpt>
      <trkpt lat="47.7787" lon="5.11005">
        <ele>392.93</ele>
        <time>2022-07-11T09:33:47Z</time>
      </trkpt>
      <trkpt lat="47.77874" lon="5.11006">
        <ele>392.98</ele>
        <time>2022-07-11T09:33:49Z</time>
      </trkpt>
      <trkpt lat="47.77878" lon="5.11006">
        <ele>393.17</ele>
        <time>2022-07-11T09:33:52Z</time>
      </trkpt>
      <trkpt lat="47.77881" lon="5.11006">
        <ele>393.32</ele>
        <time>2022-07-11T09:33:53Z</time>
      </trkpt>
      <trkpt lat="47.77886" lon="5.11006">
        <ele>393.56</ele>
        <time>2022-07-11T09:33:55Z</time>
      </trkpt>
      <trkpt lat="47.7789" lon="5.11006">
        <ele>393.43</ele>
        <time>2022-07-11T09:33:58Z</time>
      </trkpt>
      <trkpt lat="47.77894" lon="5.11006">
        <ele>392.43</ele>
        <time>2022-07-11T09:34:00Z</time>
      </trkpt>
      <trkpt lat="47.77897" lon="5.11005">
        <ele>391.85</ele>
        <time>2022-07-11T09:34:02Z</time>
      </trkpt>
      <trkpt lat="47.779" lon="5.11004">
        <ele>391.22</ele>
        <time>2022-07-11T09:34:04Z</time>
      </trkpt>
      <trkpt lat="47.77903" lon="5.11004">
        <ele>390.44</ele>
        <time>2022-07-11T09:34:05Z</time>
      </trkpt>
      <trkpt lat="47.77907" lon="5.11002">
        <ele>389.59</ele>
        <time>2022-07-11T09:34:07Z</time>
      </trkpt>
      <trkpt lat="47.77911" lon="5.11001">
        <ele>388.56</ele>
        <time>2022-07-11T09:34:09Z</time>
      </trkpt>
      <trkpt lat="47.77914" lon="5.11">
        <ele>387.77</ele>
        <time>2022-07-11T09:34:12Z</time>
      </trkpt>
      <trkpt lat="47.77916" lon="5.10999">
        <ele>387.37</ele>
        <time>2022-07-11T09:34:14Z</time>
      </trkpt>
      <trkpt lat="47.77919" lon="5.10998">
        <ele>387.41</ele>
        <time>2022-07-11T09:34:16Z</time>
      </trkpt>
      <trkpt lat="47.77922" lon="5.10998">
        <ele>387.48</ele>
        <time>2022-07-11T09:34:19Z</time>
      </trkpt>
      <trkpt lat="47.77925" lon="5.10999">
        <ele>387.43</ele>
        <time>2022-07-11T09:34:21Z</time>
      </trkpt>
      <trkpt lat="47.77928" lon="5.11">
        <ele>387.41</ele>
        <time>2022-07-11T09:34:24Z</time>
      </trkpt>
      <trkpt lat="47.77932" lon="5.11">
        <ele>387.55</ele>
        <time>2022-07-11T09:34:26Z</time>
      </trkpt>
      <trkpt lat="47.77936" lon="5.11001">
        <ele>387.63</ele>
        <time>2022-07-11T09:34:28Z</time>
      </trkpt>
      <trkpt lat="47.77939" lon="5.11002">
        <ele>387.67</ele>
        <time>2022-07-11T09:34:31Z</time>
      </trkpt>
      <trkpt lat="47.77943" lon="5.11002">
        <ele>387.81</ele>
        <time>2022-07-11T09:34:33Z</time>
      </trkpt>
      <trkpt lat="47.77947" lon="5.11002">
        <ele>386.87</ele>
        <time>2022-07-11T09:34:35Z</time>
      </trkpt>
      <trkpt lat="47.77951" lon="5.11002">
        <ele>385.33</ele>
        <time>2022-07-11T09:34:37Z</time>
      </trkpt>
      <trkpt lat="47.77954" lon="5.11001">
        <ele>384.19</ele>
        <time>2022-07-11T09:34:39Z</time>
      </trkpt>
      <trkpt lat="47.77957" lon="5.11">
        <ele>383.03</ele>
        <time>2022-07-11T09:34:41Z</time>
      </trkpt>
      <trkpt lat="47.77961" lon="5.10998">
        <ele>381.49</ele>
        <time>2022-07-11T09:34:44Z</time>
      </trkpt>
      <trkpt lat="47.77964" lon="5.10996">
        <ele>380.36</ele>
        <time>2022-07-11T09:34:46Z</time>
      </trkpt>
      <trkpt lat="47.77968" lon="5.10995">
        <ele>378.82</ele>
        <time>2022-07-11T09:34:48Z</time>
      </trkpt>
      <trkpt lat="47.77971" lon="5.10996">
        <ele>377.62</ele>
        <time>2022-07-11T09:34:51Z</time>
      </trkpt>
      <trkpt lat="47.77975" lon="5.10995">
        <ele>376.88</ele>
        <time>2022-07-11T09:34:53Z</time>
      </trkpt>
      <trkpt lat="47.7798" lon="5.10993">
        <ele>376.41</ele>
        <time>2022-07-11T09:34:55Z</time>
      </trkpt>
      <trkpt lat="47.77983" lon="5.10991">
        <ele>376.16</ele>
        <time>2022-07-11T09:34:57Z</time>
      </trkpt>
      <trkpt lat="47.77987" lon="5.10988">
        <ele>375.84</ele>
        <time>2022-07-11T09:34:59Z</time>
      </trkpt>
      <trkpt lat="47.77989" lon="5.10985">
        <ele>375.73</ele>
        <time>2022-07-11T09:35:01Z</time>
      </trkpt>
      <trkpt lat="47.77993" lon="5.10983">
        <ele>375.37</ele>
        <time>2022-07-11T09:35:04Z</time>
      </trkpt>
      <trkpt lat="47.77996" lon="5.10983">
        <ele>375.04</ele>
        <time>2022-07-11T09:35:08Z</time>
      </trkpt>
      <trkpt lat="47.77999" lon="5.10984">
        <ele>374.68</ele>
        <time>2022-07-11T09:35:12Z</time>
      </trkpt>
      <trkpt lat="47.78001" lon="5.10988">
        <ele>374.38</ele>
        <time>2022-07-11T09:35:17Z</time>
      </trkpt>
      <trkpt lat="47.78002" lon="5.10992">
        <ele>374.2</ele>
        <time>2022-07-11T09:35:21Z</time>
      </trkpt>
      <trkpt lat="47.78003" lon="5.10997">
        <ele>373.99</ele>
        <time>2022-07-11T09:35:24Z</time>
      </trkpt>
      <trkpt lat="47.78003" lon="5.11001">
        <ele>373.89</ele>
        <time>2022-07-11T09:35:28Z</time>
      </trkpt>
      <trkpt lat="47.78003" lon="5.11007">
        <ele>373.89</ele>
        <time>2022-07-11T09:35:31Z</time>
      </trkpt>
      <trkpt lat="47.78003" lon="5.11013">
        <ele>373.89</ele>
        <time>2022-07-11T09:35:33Z</time>
      </trkpt>
      <trkpt lat="47.78004" lon="5.11018">
        <ele>373.86</ele>
        <time>2022-07-11T09:35:35Z</time>
      </trkpt>
      <trkpt lat="47.78005" lon="5.11022">
        <ele>373.82</ele>
        <time>2022-07-11T09:35:39Z</time>
      </trkpt>
      <trkpt lat="47.78005" lon="5.11027">
        <ele>373.82</ele>
        <time>2022-07-11T09:35:46Z</time>
      </trkpt>
      <trkpt lat="47.78004" lon="5.11034">
        <ele>373.89</ele>
        <time>2022-07-11T09:35:48Z</time>
      </trkpt>
      <trkpt lat="47.78003" lon="5.11041">
        <ele>373.94</ele>
        <time>2022-07-11T09:35:50Z</time>
      </trkpt>
      <trkpt lat="47.78004" lon="5.11046">
        <ele>373.95</ele>
        <time>2022-07-11T09:35:52Z</time>
      </trkpt>
      <trkpt lat="47.78004" lon="5.1105">
        <ele>373.97</ele>
        <time>2022-07-11T09:35:55Z</time>
      </trkpt>
      <trkpt lat="47.78003" lon="5.11055">
        <ele>374</ele>
        <time>2022-07-11T09:35:57Z</time>
      </trkpt>
      <trkpt lat="47.78003" lon="5.1106">
        <ele>374.32</ele>
        <time>2022-07-11T09:35:59Z</time>
      </trkpt>
      <trkpt lat="47.78004" lon="5.11064">
        <ele>374.61</ele>
        <time>2022-07-11T09:36:01Z</time>
      </trkpt>
      <trkpt lat="47.78005" lon="5.11069">
        <ele>374.97</ele>
        <time>2022-07-11T09:36:03Z</time>
      </trkpt>
      <trkpt lat="47.78005" lon="5.11076">
        <ele>375.47</ele>
        <time>2022-07-11T09:36:05Z</time>
      </trkpt>
      <trkpt lat="47.78002" lon="5.11081">
        <ele>375.83</ele>
        <time>2022-07-11T09:36:07Z</time>
      </trkpt>
      <trkpt lat="47.78" lon="5.11084">
        <ele>376.07</ele>
        <time>2022-07-11T09:36:09Z</time>
      </trkpt>
      <trkpt lat="47.77992" lon="5.11086">
        <ele>377.07</ele>
        <time>2022-07-11T09:36:45Z</time>
      </trkpt>
    </trkseg>
  </trk>
</gpx>